<?xml version="1.0" encoding="UTF-8" standalone="no" ?>
<gpx xmlns="http://www.topografix.com/GPX/1/1" xmlns:xsi="http://www.w3.org/2001/XMLSchema-instance" xsi:schemaLocation="http://www.topografix.com/GPX/1/1 http://www.topografix.com/GPX/1/1/gpx.xsd" version="1.1" creator="VisuGPX - https://www.visugpx.com">
  <metadata>
    <name>Clairvaux-d'Aveyron, La Nayrague, Goutrens, Ruffepeyre, Balsac - 2022-09-18</name>
    <desc><![CDATA[Jean-Jacques toujours en vadrouille avec son VTT !]]></desc>
  </metadata>
  <trk>
    <name><![CDATA[Clairvaux-d'Aveyron-2022-09-18]]></name>
    <extensions>
      <line xmlns="http://www.topografix.com/GPX/gpx_style/0/2">
        <color>0000FF</color>
        <width>4</width>
          <extensions>
            <sens>1</sens>
          </extensions>
      </line>
    </extensions>
    <trkseg>
      <trkpt lat="44.42956" lon="2.41157">
        <ele>559.9</ele>
        <time>2022-09-18T06:12:43.000Z</time>
      </trkpt>
      <trkpt lat="44.42956" lon="2.41157">
        <ele>560</ele>
        <time>2022-09-18T06:12:48.000Z</time>
      </trkpt>
      <trkpt lat="44.42965" lon="2.41152">
        <ele>560.2</ele>
        <time>2022-09-18T06:12:56.000Z</time>
      </trkpt>
      <trkpt lat="44.42996" lon="2.41163">
        <ele>560.2</ele>
        <time>2022-09-18T06:13:00.000Z</time>
      </trkpt>
      <trkpt lat="44.43011" lon="2.41169">
        <ele>560.2</ele>
        <time>2022-09-18T06:13:01.000Z</time>
      </trkpt>
      <trkpt lat="44.43024" lon="2.41171">
        <ele>560.2</ele>
        <time>2022-09-18T06:13:02.000Z</time>
      </trkpt>
      <trkpt lat="44.43034" lon="2.41172">
        <ele>560.3</ele>
        <time>2022-09-18T06:13:03.000Z</time>
      </trkpt>
      <trkpt lat="44.43049" lon="2.41174">
        <ele>560.3</ele>
        <time>2022-09-18T06:13:05.000Z</time>
      </trkpt>
      <trkpt lat="44.43059" lon="2.41176">
        <ele>560.2</ele>
        <time>2022-09-18T06:13:06.000Z</time>
      </trkpt>
      <trkpt lat="44.43068" lon="2.41178">
        <ele>560.2</ele>
        <time>2022-09-18T06:13:07.000Z</time>
      </trkpt>
      <trkpt lat="44.43082" lon="2.41181">
        <ele>560.3</ele>
        <time>2022-09-18T06:13:09.000Z</time>
      </trkpt>
      <trkpt lat="44.43092" lon="2.41181">
        <ele>560.4</ele>
        <time>2022-09-18T06:13:11.000Z</time>
      </trkpt>
      <trkpt lat="44.43103" lon="2.41182">
        <ele>560.2</ele>
        <time>2022-09-18T06:13:13.000Z</time>
      </trkpt>
      <trkpt lat="44.43112" lon="2.41182">
        <ele>560.1</ele>
        <time>2022-09-18T06:13:15.000Z</time>
      </trkpt>
      <trkpt lat="44.43124" lon="2.41182">
        <ele>559.9</ele>
        <time>2022-09-18T06:13:18.000Z</time>
      </trkpt>
      <trkpt lat="44.43135" lon="2.41183">
        <ele>559.7</ele>
        <time>2022-09-18T06:13:21.000Z</time>
      </trkpt>
      <trkpt lat="44.43147" lon="2.41185">
        <ele>559.6</ele>
        <time>2022-09-18T06:13:24.000Z</time>
      </trkpt>
      <trkpt lat="44.43158" lon="2.41189">
        <ele>559.7</ele>
        <time>2022-09-18T06:13:27.000Z</time>
      </trkpt>
      <trkpt lat="44.43169" lon="2.41193">
        <ele>560</ele>
        <time>2022-09-18T06:13:30.000Z</time>
      </trkpt>
      <trkpt lat="44.4318" lon="2.41197">
        <ele>559.9</ele>
        <time>2022-09-18T06:13:33.000Z</time>
      </trkpt>
      <trkpt lat="44.43184" lon="2.41199">
        <ele>559.7</ele>
        <time>2022-09-18T06:13:38.000Z</time>
      </trkpt>
      <trkpt lat="44.43185" lon="2.41199">
        <ele>559.7</ele>
        <time>2022-09-18T06:13:41.000Z</time>
      </trkpt>
      <trkpt lat="44.43185" lon="2.41199">
        <ele>559.6</ele>
        <time>2022-09-18T06:13:44.000Z</time>
      </trkpt>
      <trkpt lat="44.43185" lon="2.41199">
        <ele>559.7</ele>
        <time>2022-09-18T06:13:59.000Z</time>
      </trkpt>
      <trkpt lat="44.43185" lon="2.41199">
        <ele>559.4</ele>
        <time>2022-09-18T06:14:06.000Z</time>
      </trkpt>
      <trkpt lat="44.43195" lon="2.41201">
        <ele>559.6</ele>
        <time>2022-09-18T06:14:12.000Z</time>
      </trkpt>
      <trkpt lat="44.43205" lon="2.41205">
        <ele>559.4</ele>
        <time>2022-09-18T06:14:15.000Z</time>
      </trkpt>
      <trkpt lat="44.43216" lon="2.41211">
        <ele>559.4</ele>
        <time>2022-09-18T06:14:18.000Z</time>
      </trkpt>
      <trkpt lat="44.43226" lon="2.4122">
        <ele>559.1</ele>
        <time>2022-09-18T06:14:21.000Z</time>
      </trkpt>
      <trkpt lat="44.43236" lon="2.41228">
        <ele>559.2</ele>
        <time>2022-09-18T06:14:24.000Z</time>
      </trkpt>
      <trkpt lat="44.43245" lon="2.41235">
        <ele>559.1</ele>
        <time>2022-09-18T06:14:27.000Z</time>
      </trkpt>
      <trkpt lat="44.43254" lon="2.4124">
        <ele>559.1</ele>
        <time>2022-09-18T06:14:32.000Z</time>
      </trkpt>
      <trkpt lat="44.43261" lon="2.41249">
        <ele>559.4</ele>
        <time>2022-09-18T06:14:35.000Z</time>
      </trkpt>
      <trkpt lat="44.43269" lon="2.41257">
        <ele>559.4</ele>
        <time>2022-09-18T06:14:38.000Z</time>
      </trkpt>
      <trkpt lat="44.43279" lon="2.41266">
        <ele>559.4</ele>
        <time>2022-09-18T06:14:41.000Z</time>
      </trkpt>
      <trkpt lat="44.43289" lon="2.41274">
        <ele>559.4</ele>
        <time>2022-09-18T06:14:44.000Z</time>
      </trkpt>
      <trkpt lat="44.43299" lon="2.41282">
        <ele>558.7</ele>
        <time>2022-09-18T06:14:47.000Z</time>
      </trkpt>
      <trkpt lat="44.43309" lon="2.41291">
        <ele>558.5</ele>
        <time>2022-09-18T06:14:50.000Z</time>
      </trkpt>
      <trkpt lat="44.43319" lon="2.41299">
        <ele>558.6</ele>
        <time>2022-09-18T06:14:53.000Z</time>
      </trkpt>
      <trkpt lat="44.4333" lon="2.41306">
        <ele>558.5</ele>
        <time>2022-09-18T06:14:56.000Z</time>
      </trkpt>
      <trkpt lat="44.43341" lon="2.41316">
        <ele>558</ele>
        <time>2022-09-18T06:14:59.000Z</time>
      </trkpt>
      <trkpt lat="44.43349" lon="2.41322">
        <ele>557.7</ele>
        <time>2022-09-18T06:15:01.000Z</time>
      </trkpt>
      <trkpt lat="44.43357" lon="2.41328">
        <ele>557.6</ele>
        <time>2022-09-18T06:15:03.000Z</time>
      </trkpt>
      <trkpt lat="44.43369" lon="2.41336">
        <ele>557.5</ele>
        <time>2022-09-18T06:15:06.000Z</time>
      </trkpt>
      <trkpt lat="44.43376" lon="2.41343">
        <ele>557.3</ele>
        <time>2022-09-18T06:15:08.000Z</time>
      </trkpt>
      <trkpt lat="44.43387" lon="2.41353">
        <ele>556.9</ele>
        <time>2022-09-18T06:15:11.000Z</time>
      </trkpt>
      <trkpt lat="44.43398" lon="2.41362">
        <ele>557.3</ele>
        <time>2022-09-18T06:15:14.000Z</time>
      </trkpt>
      <trkpt lat="44.4341" lon="2.41371">
        <ele>557.2</ele>
        <time>2022-09-18T06:15:17.000Z</time>
      </trkpt>
      <trkpt lat="44.4342" lon="2.41379">
        <ele>557.3</ele>
        <time>2022-09-18T06:15:20.000Z</time>
      </trkpt>
      <trkpt lat="44.43431" lon="2.41388">
        <ele>557.3</ele>
        <time>2022-09-18T06:15:23.000Z</time>
      </trkpt>
      <trkpt lat="44.43442" lon="2.41396">
        <ele>557.3</ele>
        <time>2022-09-18T06:15:26.000Z</time>
      </trkpt>
      <trkpt lat="44.43452" lon="2.41405">
        <ele>557.4</ele>
        <time>2022-09-18T06:15:29.000Z</time>
      </trkpt>
      <trkpt lat="44.43463" lon="2.41413">
        <ele>557.9</ele>
        <time>2022-09-18T06:15:32.000Z</time>
      </trkpt>
      <trkpt lat="44.43473" lon="2.41422">
        <ele>558.3</ele>
        <time>2022-09-18T06:15:35.000Z</time>
      </trkpt>
      <trkpt lat="44.43483" lon="2.41431">
        <ele>558.1</ele>
        <time>2022-09-18T06:15:38.000Z</time>
      </trkpt>
      <trkpt lat="44.43494" lon="2.41439">
        <ele>558.4</ele>
        <time>2022-09-18T06:15:41.000Z</time>
      </trkpt>
      <trkpt lat="44.43505" lon="2.41448">
        <ele>558.7</ele>
        <time>2022-09-18T06:15:44.000Z</time>
      </trkpt>
      <trkpt lat="44.43516" lon="2.41456">
        <ele>558.3</ele>
        <time>2022-09-18T06:15:47.000Z</time>
      </trkpt>
      <trkpt lat="44.43527" lon="2.41465">
        <ele>558.5</ele>
        <time>2022-09-18T06:15:50.000Z</time>
      </trkpt>
      <trkpt lat="44.43538" lon="2.41474">
        <ele>558.5</ele>
        <time>2022-09-18T06:15:53.000Z</time>
      </trkpt>
      <trkpt lat="44.43548" lon="2.41483">
        <ele>558.5</ele>
        <time>2022-09-18T06:15:56.000Z</time>
      </trkpt>
      <trkpt lat="44.43558" lon="2.41492">
        <ele>558.7</ele>
        <time>2022-09-18T06:15:59.000Z</time>
      </trkpt>
      <trkpt lat="44.43567" lon="2.415">
        <ele>559</ele>
        <time>2022-09-18T06:16:02.000Z</time>
      </trkpt>
      <trkpt lat="44.43577" lon="2.41508">
        <ele>559</ele>
        <time>2022-09-18T06:16:05.000Z</time>
      </trkpt>
      <trkpt lat="44.43586" lon="2.41516">
        <ele>559.3</ele>
        <time>2022-09-18T06:16:08.000Z</time>
      </trkpt>
      <trkpt lat="44.43595" lon="2.41523">
        <ele>559.7</ele>
        <time>2022-09-18T06:16:11.000Z</time>
      </trkpt>
      <trkpt lat="44.43598" lon="2.41537">
        <ele>558.8</ele>
        <time>2022-09-18T06:16:14.000Z</time>
      </trkpt>
      <trkpt lat="44.43598" lon="2.41551">
        <ele>558</ele>
        <time>2022-09-18T06:16:16.000Z</time>
      </trkpt>
      <trkpt lat="44.43599" lon="2.41567">
        <ele>557.2</ele>
        <time>2022-09-18T06:16:18.000Z</time>
      </trkpt>
      <trkpt lat="44.43601" lon="2.41584">
        <ele>556.5</ele>
        <time>2022-09-18T06:16:20.000Z</time>
      </trkpt>
      <trkpt lat="44.43605" lon="2.41601">
        <ele>556.4</ele>
        <time>2022-09-18T06:16:22.000Z</time>
      </trkpt>
      <trkpt lat="44.43608" lon="2.41618">
        <ele>555.9</ele>
        <time>2022-09-18T06:16:24.000Z</time>
      </trkpt>
      <trkpt lat="44.43611" lon="2.41635">
        <ele>555.6</ele>
        <time>2022-09-18T06:16:26.000Z</time>
      </trkpt>
      <trkpt lat="44.43613" lon="2.41651">
        <ele>555.7</ele>
        <time>2022-09-18T06:16:28.000Z</time>
      </trkpt>
      <trkpt lat="44.43613" lon="2.41665">
        <ele>555.4</ele>
        <time>2022-09-18T06:16:30.000Z</time>
      </trkpt>
      <trkpt lat="44.43612" lon="2.41678">
        <ele>555</ele>
        <time>2022-09-18T06:16:32.000Z</time>
      </trkpt>
      <trkpt lat="44.43604" lon="2.41692">
        <ele>554.3</ele>
        <time>2022-09-18T06:16:35.000Z</time>
      </trkpt>
      <trkpt lat="44.43595" lon="2.41694">
        <ele>554.5</ele>
        <time>2022-09-18T06:16:37.000Z</time>
      </trkpt>
      <trkpt lat="44.43583" lon="2.41698">
        <ele>554.5</ele>
        <time>2022-09-18T06:16:40.000Z</time>
      </trkpt>
      <trkpt lat="44.43573" lon="2.41704">
        <ele>554.3</ele>
        <time>2022-09-18T06:16:43.000Z</time>
      </trkpt>
      <trkpt lat="44.43562" lon="2.41709">
        <ele>554.4</ele>
        <time>2022-09-18T06:16:46.000Z</time>
      </trkpt>
      <trkpt lat="44.43551" lon="2.41711">
        <ele>555</ele>
        <time>2022-09-18T06:16:49.000Z</time>
      </trkpt>
      <trkpt lat="44.43539" lon="2.41708">
        <ele>554.8</ele>
        <time>2022-09-18T06:16:52.000Z</time>
      </trkpt>
      <trkpt lat="44.43528" lon="2.41703">
        <ele>554.6</ele>
        <time>2022-09-18T06:16:55.000Z</time>
      </trkpt>
      <trkpt lat="44.43517" lon="2.41696">
        <ele>554.4</ele>
        <time>2022-09-18T06:16:58.000Z</time>
      </trkpt>
      <trkpt lat="44.43507" lon="2.41687">
        <ele>554.4</ele>
        <time>2022-09-18T06:17:01.000Z</time>
      </trkpt>
      <trkpt lat="44.43498" lon="2.41677">
        <ele>554.3</ele>
        <time>2022-09-18T06:17:04.000Z</time>
      </trkpt>
      <trkpt lat="44.43489" lon="2.41667">
        <ele>554.9</ele>
        <time>2022-09-18T06:17:07.000Z</time>
      </trkpt>
      <trkpt lat="44.4348" lon="2.41656">
        <ele>554.5</ele>
        <time>2022-09-18T06:17:10.000Z</time>
      </trkpt>
      <trkpt lat="44.43471" lon="2.41646">
        <ele>554.9</ele>
        <time>2022-09-18T06:17:13.000Z</time>
      </trkpt>
      <trkpt lat="44.43462" lon="2.41635">
        <ele>554.8</ele>
        <time>2022-09-18T06:17:16.000Z</time>
      </trkpt>
      <trkpt lat="44.43453" lon="2.41625">
        <ele>554.6</ele>
        <time>2022-09-18T06:17:19.000Z</time>
      </trkpt>
      <trkpt lat="44.43444" lon="2.41616">
        <ele>554</ele>
        <time>2022-09-18T06:17:22.000Z</time>
      </trkpt>
      <trkpt lat="44.43434" lon="2.41607">
        <ele>553</ele>
        <time>2022-09-18T06:17:25.000Z</time>
      </trkpt>
      <trkpt lat="44.43424" lon="2.41598">
        <ele>552.8</ele>
        <time>2022-09-18T06:17:28.000Z</time>
      </trkpt>
      <trkpt lat="44.43414" lon="2.41588">
        <ele>551.8</ele>
        <time>2022-09-18T06:17:31.000Z</time>
      </trkpt>
      <trkpt lat="44.43405" lon="2.41578">
        <ele>551.9</ele>
        <time>2022-09-18T06:17:34.000Z</time>
      </trkpt>
      <trkpt lat="44.43396" lon="2.41568">
        <ele>551.3</ele>
        <time>2022-09-18T06:17:37.000Z</time>
      </trkpt>
      <trkpt lat="44.43388" lon="2.41557">
        <ele>551.2</ele>
        <time>2022-09-18T06:17:40.000Z</time>
      </trkpt>
      <trkpt lat="44.4338" lon="2.41545">
        <ele>550.5</ele>
        <time>2022-09-18T06:17:43.000Z</time>
      </trkpt>
      <trkpt lat="44.43375" lon="2.4153">
        <ele>550.2</ele>
        <time>2022-09-18T06:17:46.000Z</time>
      </trkpt>
      <trkpt lat="44.43369" lon="2.41514">
        <ele>550</ele>
        <time>2022-09-18T06:17:49.000Z</time>
      </trkpt>
      <trkpt lat="44.43364" lon="2.41499">
        <ele>549.7</ele>
        <time>2022-09-18T06:17:52.000Z</time>
      </trkpt>
      <trkpt lat="44.43357" lon="2.41487">
        <ele>549.3</ele>
        <time>2022-09-18T06:17:55.000Z</time>
      </trkpt>
      <trkpt lat="44.43348" lon="2.41476">
        <ele>549.1</ele>
        <time>2022-09-18T06:17:58.000Z</time>
      </trkpt>
      <trkpt lat="44.43339" lon="2.41466">
        <ele>548.2</ele>
        <time>2022-09-18T06:18:01.000Z</time>
      </trkpt>
      <trkpt lat="44.4333" lon="2.41456">
        <ele>548.3</ele>
        <time>2022-09-18T06:18:04.000Z</time>
      </trkpt>
      <trkpt lat="44.43322" lon="2.41445">
        <ele>548.3</ele>
        <time>2022-09-18T06:18:07.000Z</time>
      </trkpt>
      <trkpt lat="44.43313" lon="2.41434">
        <ele>548</ele>
        <time>2022-09-18T06:18:10.000Z</time>
      </trkpt>
      <trkpt lat="44.43305" lon="2.41423">
        <ele>547.6</ele>
        <time>2022-09-18T06:18:13.000Z</time>
      </trkpt>
      <trkpt lat="44.43297" lon="2.41415">
        <ele>547.3</ele>
        <time>2022-09-18T06:18:16.000Z</time>
      </trkpt>
      <trkpt lat="44.43287" lon="2.4141">
        <ele>547.2</ele>
        <time>2022-09-18T06:18:19.000Z</time>
      </trkpt>
      <trkpt lat="44.43276" lon="2.41408">
        <ele>547</ele>
        <time>2022-09-18T06:18:22.000Z</time>
      </trkpt>
      <trkpt lat="44.43266" lon="2.41405">
        <ele>546.6</ele>
        <time>2022-09-18T06:18:25.000Z</time>
      </trkpt>
      <trkpt lat="44.43255" lon="2.41401">
        <ele>546.4</ele>
        <time>2022-09-18T06:18:28.000Z</time>
      </trkpt>
      <trkpt lat="44.43245" lon="2.41396">
        <ele>546.1</ele>
        <time>2022-09-18T06:18:31.000Z</time>
      </trkpt>
      <trkpt lat="44.43237" lon="2.4139">
        <ele>546.1</ele>
        <time>2022-09-18T06:18:34.000Z</time>
      </trkpt>
      <trkpt lat="44.43228" lon="2.41384">
        <ele>545.7</ele>
        <time>2022-09-18T06:18:37.000Z</time>
      </trkpt>
      <trkpt lat="44.4322" lon="2.41378">
        <ele>545.7</ele>
        <time>2022-09-18T06:18:40.000Z</time>
      </trkpt>
      <trkpt lat="44.4321" lon="2.41373">
        <ele>545.4</ele>
        <time>2022-09-18T06:18:43.000Z</time>
      </trkpt>
      <trkpt lat="44.43201" lon="2.41368">
        <ele>545.1</ele>
        <time>2022-09-18T06:18:46.000Z</time>
      </trkpt>
      <trkpt lat="44.43191" lon="2.41366">
        <ele>545.2</ele>
        <time>2022-09-18T06:18:49.000Z</time>
      </trkpt>
      <trkpt lat="44.43181" lon="2.41367">
        <ele>545.7</ele>
        <time>2022-09-18T06:18:52.000Z</time>
      </trkpt>
      <trkpt lat="44.4317" lon="2.4137">
        <ele>545.8</ele>
        <time>2022-09-18T06:18:56.000Z</time>
      </trkpt>
      <trkpt lat="44.43161" lon="2.4137">
        <ele>545.5</ele>
        <time>2022-09-18T06:18:59.000Z</time>
      </trkpt>
      <trkpt lat="44.43152" lon="2.41371">
        <ele>545.2</ele>
        <time>2022-09-18T06:19:02.000Z</time>
      </trkpt>
      <trkpt lat="44.43142" lon="2.41371">
        <ele>545.3</ele>
        <time>2022-09-18T06:19:05.000Z</time>
      </trkpt>
      <trkpt lat="44.43131" lon="2.41372">
        <ele>544.8</ele>
        <time>2022-09-18T06:19:08.000Z</time>
      </trkpt>
      <trkpt lat="44.43121" lon="2.41372">
        <ele>544.8</ele>
        <time>2022-09-18T06:19:11.000Z</time>
      </trkpt>
      <trkpt lat="44.4311" lon="2.41373">
        <ele>544.9</ele>
        <time>2022-09-18T06:19:14.000Z</time>
      </trkpt>
      <trkpt lat="44.431" lon="2.41374">
        <ele>545.4</ele>
        <time>2022-09-18T06:19:17.000Z</time>
      </trkpt>
      <trkpt lat="44.43091" lon="2.41376">
        <ele>545.3</ele>
        <time>2022-09-18T06:19:20.000Z</time>
      </trkpt>
      <trkpt lat="44.43082" lon="2.41377">
        <ele>545.7</ele>
        <time>2022-09-18T06:19:23.000Z</time>
      </trkpt>
      <trkpt lat="44.4307" lon="2.4138">
        <ele>545.3</ele>
        <time>2022-09-18T06:19:27.000Z</time>
      </trkpt>
      <trkpt lat="44.43062" lon="2.41383">
        <ele>545.2</ele>
        <time>2022-09-18T06:19:30.000Z</time>
      </trkpt>
      <trkpt lat="44.4305" lon="2.41386">
        <ele>545.4</ele>
        <time>2022-09-18T06:19:34.000Z</time>
      </trkpt>
      <trkpt lat="44.43039" lon="2.4139">
        <ele>545.9</ele>
        <time>2022-09-18T06:19:38.000Z</time>
      </trkpt>
      <trkpt lat="44.43028" lon="2.41392">
        <ele>545.5</ele>
        <time>2022-09-18T06:19:42.000Z</time>
      </trkpt>
      <trkpt lat="44.43018" lon="2.41393">
        <ele>546.7</ele>
        <time>2022-09-18T06:19:46.000Z</time>
      </trkpt>
      <trkpt lat="44.43007" lon="2.41396">
        <ele>546.2</ele>
        <time>2022-09-18T06:19:50.000Z</time>
      </trkpt>
      <trkpt lat="44.42997" lon="2.41398">
        <ele>544.8</ele>
        <time>2022-09-18T06:19:53.000Z</time>
      </trkpt>
      <trkpt lat="44.42986" lon="2.41401">
        <ele>544.1</ele>
        <time>2022-09-18T06:19:56.000Z</time>
      </trkpt>
      <trkpt lat="44.42974" lon="2.41405">
        <ele>543.1</ele>
        <time>2022-09-18T06:19:59.000Z</time>
      </trkpt>
      <trkpt lat="44.42962" lon="2.4141">
        <ele>542.3</ele>
        <time>2022-09-18T06:20:02.000Z</time>
      </trkpt>
      <trkpt lat="44.42951" lon="2.41414">
        <ele>541.8</ele>
        <time>2022-09-18T06:20:05.000Z</time>
      </trkpt>
      <trkpt lat="44.42941" lon="2.41417">
        <ele>541.5</ele>
        <time>2022-09-18T06:20:08.000Z</time>
      </trkpt>
      <trkpt lat="44.4293" lon="2.41421">
        <ele>541.2</ele>
        <time>2022-09-18T06:20:11.000Z</time>
      </trkpt>
      <trkpt lat="44.42919" lon="2.41424">
        <ele>540.9</ele>
        <time>2022-09-18T06:20:14.000Z</time>
      </trkpt>
      <trkpt lat="44.42908" lon="2.41427">
        <ele>540.8</ele>
        <time>2022-09-18T06:20:17.000Z</time>
      </trkpt>
      <trkpt lat="44.42898" lon="2.4143">
        <ele>540.1</ele>
        <time>2022-09-18T06:20:20.000Z</time>
      </trkpt>
      <trkpt lat="44.42887" lon="2.41431">
        <ele>539.9</ele>
        <time>2022-09-18T06:20:23.000Z</time>
      </trkpt>
      <trkpt lat="44.42877" lon="2.41434">
        <ele>539.5</ele>
        <time>2022-09-18T06:20:26.000Z</time>
      </trkpt>
      <trkpt lat="44.42866" lon="2.41438">
        <ele>538.8</ele>
        <time>2022-09-18T06:20:29.000Z</time>
      </trkpt>
      <trkpt lat="44.42856" lon="2.41443">
        <ele>538.8</ele>
        <time>2022-09-18T06:20:32.000Z</time>
      </trkpt>
      <trkpt lat="44.42847" lon="2.41446">
        <ele>538.6</ele>
        <time>2022-09-18T06:20:35.000Z</time>
      </trkpt>
      <trkpt lat="44.42837" lon="2.41443">
        <ele>538.1</ele>
        <time>2022-09-18T06:20:38.000Z</time>
      </trkpt>
      <trkpt lat="44.42828" lon="2.41437">
        <ele>537.1</ele>
        <time>2022-09-18T06:20:41.000Z</time>
      </trkpt>
      <trkpt lat="44.42821" lon="2.41429">
        <ele>536.8</ele>
        <time>2022-09-18T06:20:44.000Z</time>
      </trkpt>
      <trkpt lat="44.42812" lon="2.41422">
        <ele>536.2</ele>
        <time>2022-09-18T06:20:47.000Z</time>
      </trkpt>
      <trkpt lat="44.42803" lon="2.41414">
        <ele>535.7</ele>
        <time>2022-09-18T06:20:50.000Z</time>
      </trkpt>
      <trkpt lat="44.42795" lon="2.41405">
        <ele>535.2</ele>
        <time>2022-09-18T06:20:53.000Z</time>
      </trkpt>
      <trkpt lat="44.42788" lon="2.41394">
        <ele>534.4</ele>
        <time>2022-09-18T06:20:56.000Z</time>
      </trkpt>
      <trkpt lat="44.42781" lon="2.41382">
        <ele>534.5</ele>
        <time>2022-09-18T06:20:59.000Z</time>
      </trkpt>
      <trkpt lat="44.42773" lon="2.41371">
        <ele>533.9</ele>
        <time>2022-09-18T06:21:02.000Z</time>
      </trkpt>
      <trkpt lat="44.42765" lon="2.41362">
        <ele>533.5</ele>
        <time>2022-09-18T06:21:05.000Z</time>
      </trkpt>
      <trkpt lat="44.42756" lon="2.41354">
        <ele>532.9</ele>
        <time>2022-09-18T06:21:08.000Z</time>
      </trkpt>
      <trkpt lat="44.42746" lon="2.41347">
        <ele>532.5</ele>
        <time>2022-09-18T06:21:11.000Z</time>
      </trkpt>
      <trkpt lat="44.42737" lon="2.41338">
        <ele>531.8</ele>
        <time>2022-09-18T06:21:14.000Z</time>
      </trkpt>
      <trkpt lat="44.42727" lon="2.41332">
        <ele>531.2</ele>
        <time>2022-09-18T06:21:17.000Z</time>
      </trkpt>
      <trkpt lat="44.42718" lon="2.4133">
        <ele>531</ele>
        <time>2022-09-18T06:21:20.000Z</time>
      </trkpt>
      <trkpt lat="44.42708" lon="2.41328">
        <ele>530.6</ele>
        <time>2022-09-18T06:21:23.000Z</time>
      </trkpt>
      <trkpt lat="44.42698" lon="2.41328">
        <ele>530.5</ele>
        <time>2022-09-18T06:21:26.000Z</time>
      </trkpt>
      <trkpt lat="44.42696" lon="2.41344">
        <ele>529.7</ele>
        <time>2022-09-18T06:21:30.000Z</time>
      </trkpt>
      <trkpt lat="44.42698" lon="2.41359">
        <ele>529.5</ele>
        <time>2022-09-18T06:21:33.000Z</time>
      </trkpt>
      <trkpt lat="44.42701" lon="2.41374">
        <ele>529.5</ele>
        <time>2022-09-18T06:21:36.000Z</time>
      </trkpt>
      <trkpt lat="44.42705" lon="2.41387">
        <ele>529.5</ele>
        <time>2022-09-18T06:21:39.000Z</time>
      </trkpt>
      <trkpt lat="44.4271" lon="2.414">
        <ele>529.5</ele>
        <time>2022-09-18T06:21:42.000Z</time>
      </trkpt>
      <trkpt lat="44.42715" lon="2.41413">
        <ele>529.7</ele>
        <time>2022-09-18T06:21:45.000Z</time>
      </trkpt>
      <trkpt lat="44.42718" lon="2.41427">
        <ele>529.2</ele>
        <time>2022-09-18T06:21:48.000Z</time>
      </trkpt>
      <trkpt lat="44.42716" lon="2.4144">
        <ele>529.7</ele>
        <time>2022-09-18T06:21:51.000Z</time>
      </trkpt>
      <trkpt lat="44.42711" lon="2.41453">
        <ele>529.9</ele>
        <time>2022-09-18T06:21:54.000Z</time>
      </trkpt>
      <trkpt lat="44.42705" lon="2.41466">
        <ele>530</ele>
        <time>2022-09-18T06:21:57.000Z</time>
      </trkpt>
      <trkpt lat="44.427" lon="2.41477">
        <ele>529.8</ele>
        <time>2022-09-18T06:22:00.000Z</time>
      </trkpt>
      <trkpt lat="44.42695" lon="2.41489">
        <ele>530.2</ele>
        <time>2022-09-18T06:22:03.000Z</time>
      </trkpt>
      <trkpt lat="44.42692" lon="2.41501">
        <ele>530.5</ele>
        <time>2022-09-18T06:22:07.000Z</time>
      </trkpt>
      <trkpt lat="44.42691" lon="2.41505">
        <ele>530.2</ele>
        <time>2022-09-18T06:22:11.000Z</time>
      </trkpt>
      <trkpt lat="44.42691" lon="2.41505">
        <ele>529.3</ele>
        <time>2022-09-18T06:22:16.000Z</time>
      </trkpt>
      <trkpt lat="44.42691" lon="2.41505">
        <ele>529.5</ele>
        <time>2022-09-18T06:22:18.000Z</time>
      </trkpt>
      <trkpt lat="44.4269" lon="2.4152">
        <ele>529.7</ele>
        <time>2022-09-18T06:22:24.000Z</time>
      </trkpt>
      <trkpt lat="44.42689" lon="2.41536">
        <ele>530</ele>
        <time>2022-09-18T06:22:28.000Z</time>
      </trkpt>
      <trkpt lat="44.42689" lon="2.41548">
        <ele>530</ele>
        <time>2022-09-18T06:22:31.000Z</time>
      </trkpt>
      <trkpt lat="44.42688" lon="2.41562">
        <ele>530.7</ele>
        <time>2022-09-18T06:22:34.000Z</time>
      </trkpt>
      <trkpt lat="44.42688" lon="2.41575">
        <ele>531</ele>
        <time>2022-09-18T06:22:37.000Z</time>
      </trkpt>
      <trkpt lat="44.42685" lon="2.41587">
        <ele>531.4</ele>
        <time>2022-09-18T06:22:40.000Z</time>
      </trkpt>
      <trkpt lat="44.42681" lon="2.41599">
        <ele>532.4</ele>
        <time>2022-09-18T06:22:43.000Z</time>
      </trkpt>
      <trkpt lat="44.42675" lon="2.4161">
        <ele>532.5</ele>
        <time>2022-09-18T06:22:46.000Z</time>
      </trkpt>
      <trkpt lat="44.42668" lon="2.41619">
        <ele>533.4</ele>
        <time>2022-09-18T06:22:49.000Z</time>
      </trkpt>
      <trkpt lat="44.42661" lon="2.41628">
        <ele>534.2</ele>
        <time>2022-09-18T06:22:52.000Z</time>
      </trkpt>
      <trkpt lat="44.42653" lon="2.41636">
        <ele>534.5</ele>
        <time>2022-09-18T06:22:55.000Z</time>
      </trkpt>
      <trkpt lat="44.42646" lon="2.41643">
        <ele>534.9</ele>
        <time>2022-09-18T06:22:58.000Z</time>
      </trkpt>
      <trkpt lat="44.42638" lon="2.41651">
        <ele>534.8</ele>
        <time>2022-09-18T06:23:01.000Z</time>
      </trkpt>
      <trkpt lat="44.42631" lon="2.4166">
        <ele>535.6</ele>
        <time>2022-09-18T06:23:04.000Z</time>
      </trkpt>
      <trkpt lat="44.42624" lon="2.41669">
        <ele>535.7</ele>
        <time>2022-09-18T06:23:07.000Z</time>
      </trkpt>
      <trkpt lat="44.42617" lon="2.41679">
        <ele>535.6</ele>
        <time>2022-09-18T06:23:10.000Z</time>
      </trkpt>
      <trkpt lat="44.4261" lon="2.41689">
        <ele>535.9</ele>
        <time>2022-09-18T06:23:13.000Z</time>
      </trkpt>
      <trkpt lat="44.42605" lon="2.417">
        <ele>535.9</ele>
        <time>2022-09-18T06:23:16.000Z</time>
      </trkpt>
      <trkpt lat="44.426" lon="2.41711">
        <ele>536.7</ele>
        <time>2022-09-18T06:23:19.000Z</time>
      </trkpt>
      <trkpt lat="44.42595" lon="2.41724">
        <ele>536.8</ele>
        <time>2022-09-18T06:23:22.000Z</time>
      </trkpt>
      <trkpt lat="44.42592" lon="2.41737">
        <ele>536.9</ele>
        <time>2022-09-18T06:23:25.000Z</time>
      </trkpt>
      <trkpt lat="44.42589" lon="2.4175">
        <ele>536.8</ele>
        <time>2022-09-18T06:23:28.000Z</time>
      </trkpt>
      <trkpt lat="44.42586" lon="2.41762">
        <ele>536.7</ele>
        <time>2022-09-18T06:23:31.000Z</time>
      </trkpt>
      <trkpt lat="44.42581" lon="2.41775">
        <ele>537.3</ele>
        <time>2022-09-18T06:23:34.000Z</time>
      </trkpt>
      <trkpt lat="44.42575" lon="2.41786">
        <ele>537.4</ele>
        <time>2022-09-18T06:23:37.000Z</time>
      </trkpt>
      <trkpt lat="44.42569" lon="2.41796">
        <ele>537.8</ele>
        <time>2022-09-18T06:23:40.000Z</time>
      </trkpt>
      <trkpt lat="44.42562" lon="2.41804">
        <ele>538.3</ele>
        <time>2022-09-18T06:23:43.000Z</time>
      </trkpt>
      <trkpt lat="44.42552" lon="2.41814">
        <ele>538.9</ele>
        <time>2022-09-18T06:23:47.000Z</time>
      </trkpt>
      <trkpt lat="44.42545" lon="2.41822">
        <ele>539.5</ele>
        <time>2022-09-18T06:23:50.000Z</time>
      </trkpt>
      <trkpt lat="44.42539" lon="2.41831">
        <ele>539.6</ele>
        <time>2022-09-18T06:23:53.000Z</time>
      </trkpt>
      <trkpt lat="44.42532" lon="2.41839">
        <ele>539.3</ele>
        <time>2022-09-18T06:23:56.000Z</time>
      </trkpt>
      <trkpt lat="44.42524" lon="2.41849">
        <ele>538.9</ele>
        <time>2022-09-18T06:23:59.000Z</time>
      </trkpt>
      <trkpt lat="44.42516" lon="2.4186">
        <ele>538.1</ele>
        <time>2022-09-18T06:24:02.000Z</time>
      </trkpt>
      <trkpt lat="44.42509" lon="2.41872">
        <ele>537.7</ele>
        <time>2022-09-18T06:24:05.000Z</time>
      </trkpt>
      <trkpt lat="44.42502" lon="2.41885">
        <ele>536.8</ele>
        <time>2022-09-18T06:24:08.000Z</time>
      </trkpt>
      <trkpt lat="44.42499" lon="2.419">
        <ele>535.8</ele>
        <time>2022-09-18T06:24:11.000Z</time>
      </trkpt>
      <trkpt lat="44.425" lon="2.41914">
        <ele>535.9</ele>
        <time>2022-09-18T06:24:14.000Z</time>
      </trkpt>
      <trkpt lat="44.42505" lon="2.41928">
        <ele>535.5</ele>
        <time>2022-09-18T06:24:17.000Z</time>
      </trkpt>
      <trkpt lat="44.42511" lon="2.41941">
        <ele>535.3</ele>
        <time>2022-09-18T06:24:20.000Z</time>
      </trkpt>
      <trkpt lat="44.42517" lon="2.41953">
        <ele>534.6</ele>
        <time>2022-09-18T06:24:23.000Z</time>
      </trkpt>
      <trkpt lat="44.42524" lon="2.41964">
        <ele>534.9</ele>
        <time>2022-09-18T06:24:26.000Z</time>
      </trkpt>
      <trkpt lat="44.4253" lon="2.41975">
        <ele>534.8</ele>
        <time>2022-09-18T06:24:29.000Z</time>
      </trkpt>
      <trkpt lat="44.42534" lon="2.41987">
        <ele>534.4</ele>
        <time>2022-09-18T06:24:33.000Z</time>
      </trkpt>
      <trkpt lat="44.42528" lon="2.41999">
        <ele>533.3</ele>
        <time>2022-09-18T06:24:36.000Z</time>
      </trkpt>
      <trkpt lat="44.42519" lon="2.4201">
        <ele>532.1</ele>
        <time>2022-09-18T06:24:39.000Z</time>
      </trkpt>
      <trkpt lat="44.42516" lon="2.42024">
        <ele>530.8</ele>
        <time>2022-09-18T06:24:44.000Z</time>
      </trkpt>
      <trkpt lat="44.42512" lon="2.42037">
        <ele>530.7</ele>
        <time>2022-09-18T06:24:49.000Z</time>
      </trkpt>
      <trkpt lat="44.42511" lon="2.4205">
        <ele>530.8</ele>
        <time>2022-09-18T06:24:52.000Z</time>
      </trkpt>
      <trkpt lat="44.42508" lon="2.42063">
        <ele>531.1</ele>
        <time>2022-09-18T06:24:55.000Z</time>
      </trkpt>
      <trkpt lat="44.42506" lon="2.42079">
        <ele>532.6</ele>
        <time>2022-09-18T06:24:59.000Z</time>
      </trkpt>
      <trkpt lat="44.42505" lon="2.42095">
        <ele>534</ele>
        <time>2022-09-18T06:25:03.000Z</time>
      </trkpt>
      <trkpt lat="44.42504" lon="2.42112">
        <ele>534.1</ele>
        <time>2022-09-18T06:25:07.000Z</time>
      </trkpt>
      <trkpt lat="44.42505" lon="2.42125">
        <ele>534.7</ele>
        <time>2022-09-18T06:25:10.000Z</time>
      </trkpt>
      <trkpt lat="44.42509" lon="2.42137">
        <ele>533.8</ele>
        <time>2022-09-18T06:25:13.000Z</time>
      </trkpt>
      <trkpt lat="44.42514" lon="2.42148">
        <ele>533.8</ele>
        <time>2022-09-18T06:25:16.000Z</time>
      </trkpt>
      <trkpt lat="44.42516" lon="2.42161">
        <ele>534.5</ele>
        <time>2022-09-18T06:25:19.000Z</time>
      </trkpt>
      <trkpt lat="44.42515" lon="2.42175">
        <ele>534.3</ele>
        <time>2022-09-18T06:25:22.000Z</time>
      </trkpt>
      <trkpt lat="44.42514" lon="2.42188">
        <ele>534</ele>
        <time>2022-09-18T06:25:25.000Z</time>
      </trkpt>
      <trkpt lat="44.42514" lon="2.42202">
        <ele>534.1</ele>
        <time>2022-09-18T06:25:28.000Z</time>
      </trkpt>
      <trkpt lat="44.42515" lon="2.42215">
        <ele>533.7</ele>
        <time>2022-09-18T06:25:31.000Z</time>
      </trkpt>
      <trkpt lat="44.42515" lon="2.42228">
        <ele>533.9</ele>
        <time>2022-09-18T06:25:34.000Z</time>
      </trkpt>
      <trkpt lat="44.42518" lon="2.42242">
        <ele>532.9</ele>
        <time>2022-09-18T06:25:38.000Z</time>
      </trkpt>
      <trkpt lat="44.42524" lon="2.42253">
        <ele>532.1</ele>
        <time>2022-09-18T06:25:42.000Z</time>
      </trkpt>
      <trkpt lat="44.42527" lon="2.42266">
        <ele>531.4</ele>
        <time>2022-09-18T06:25:47.000Z</time>
      </trkpt>
      <trkpt lat="44.42528" lon="2.42273">
        <ele>530.5</ele>
        <time>2022-09-18T06:25:54.000Z</time>
      </trkpt>
      <trkpt lat="44.42528" lon="2.42273">
        <ele>530.7</ele>
        <time>2022-09-18T06:25:57.000Z</time>
      </trkpt>
      <trkpt lat="44.42528" lon="2.42274">
        <ele>530.7</ele>
        <time>2022-09-18T06:25:59.000Z</time>
      </trkpt>
      <trkpt lat="44.42528" lon="2.42274">
        <ele>530.5</ele>
        <time>2022-09-18T06:26:01.000Z</time>
      </trkpt>
      <trkpt lat="44.42529" lon="2.42274">
        <ele>530.7</ele>
        <time>2022-09-18T06:26:03.000Z</time>
      </trkpt>
      <trkpt lat="44.42529" lon="2.42275">
        <ele>530.3</ele>
        <time>2022-09-18T06:26:06.000Z</time>
      </trkpt>
      <trkpt lat="44.42534" lon="2.42287">
        <ele>529.7</ele>
        <time>2022-09-18T06:26:11.000Z</time>
      </trkpt>
      <trkpt lat="44.42542" lon="2.42294">
        <ele>529.1</ele>
        <time>2022-09-18T06:26:17.000Z</time>
      </trkpt>
      <trkpt lat="44.4255" lon="2.42301">
        <ele>527.9</ele>
        <time>2022-09-18T06:26:30.000Z</time>
      </trkpt>
      <trkpt lat="44.42557" lon="2.42313">
        <ele>528.7</ele>
        <time>2022-09-18T06:26:34.000Z</time>
      </trkpt>
      <trkpt lat="44.4256" lon="2.42326">
        <ele>529.2</ele>
        <time>2022-09-18T06:26:38.000Z</time>
      </trkpt>
      <trkpt lat="44.42567" lon="2.42337">
        <ele>529.7</ele>
        <time>2022-09-18T06:26:42.000Z</time>
      </trkpt>
      <trkpt lat="44.42574" lon="2.42349">
        <ele>530.3</ele>
        <time>2022-09-18T06:26:46.000Z</time>
      </trkpt>
      <trkpt lat="44.42578" lon="2.42363">
        <ele>531.9</ele>
        <time>2022-09-18T06:26:50.000Z</time>
      </trkpt>
      <trkpt lat="44.42581" lon="2.42378">
        <ele>533.8</ele>
        <time>2022-09-18T06:26:55.000Z</time>
      </trkpt>
      <trkpt lat="44.42581" lon="2.42392">
        <ele>533.7</ele>
        <time>2022-09-18T06:26:59.000Z</time>
      </trkpt>
      <trkpt lat="44.42582" lon="2.42405">
        <ele>533.3</ele>
        <time>2022-09-18T06:27:02.000Z</time>
      </trkpt>
      <trkpt lat="44.42582" lon="2.4242">
        <ele>532.8</ele>
        <time>2022-09-18T06:27:06.000Z</time>
      </trkpt>
      <trkpt lat="44.42583" lon="2.42433">
        <ele>533.1</ele>
        <time>2022-09-18T06:27:09.000Z</time>
      </trkpt>
      <trkpt lat="44.42585" lon="2.42447">
        <ele>532</ele>
        <time>2022-09-18T06:27:12.000Z</time>
      </trkpt>
      <trkpt lat="44.42589" lon="2.4246">
        <ele>531.5</ele>
        <time>2022-09-18T06:27:15.000Z</time>
      </trkpt>
      <trkpt lat="44.42592" lon="2.42475">
        <ele>531.7</ele>
        <time>2022-09-18T06:27:18.000Z</time>
      </trkpt>
      <trkpt lat="44.42589" lon="2.42489">
        <ele>531.4</ele>
        <time>2022-09-18T06:27:21.000Z</time>
      </trkpt>
      <trkpt lat="44.42582" lon="2.42499">
        <ele>531.2</ele>
        <time>2022-09-18T06:27:24.000Z</time>
      </trkpt>
      <trkpt lat="44.42576" lon="2.42513">
        <ele>531.9</ele>
        <time>2022-09-18T06:27:27.000Z</time>
      </trkpt>
      <trkpt lat="44.42577" lon="2.42527">
        <ele>532.8</ele>
        <time>2022-09-18T06:27:30.000Z</time>
      </trkpt>
      <trkpt lat="44.42579" lon="2.42539">
        <ele>533.5</ele>
        <time>2022-09-18T06:27:33.000Z</time>
      </trkpt>
      <trkpt lat="44.42584" lon="2.42551">
        <ele>533.5</ele>
        <time>2022-09-18T06:27:36.000Z</time>
      </trkpt>
      <trkpt lat="44.42587" lon="2.42563">
        <ele>533.9</ele>
        <time>2022-09-18T06:27:39.000Z</time>
      </trkpt>
      <trkpt lat="44.42592" lon="2.42574">
        <ele>533.7</ele>
        <time>2022-09-18T06:27:42.000Z</time>
      </trkpt>
      <trkpt lat="44.42596" lon="2.42585">
        <ele>533.9</ele>
        <time>2022-09-18T06:27:45.000Z</time>
      </trkpt>
      <trkpt lat="44.42602" lon="2.42596">
        <ele>534.1</ele>
        <time>2022-09-18T06:27:48.000Z</time>
      </trkpt>
      <trkpt lat="44.42608" lon="2.42607">
        <ele>533.6</ele>
        <time>2022-09-18T06:27:51.000Z</time>
      </trkpt>
      <trkpt lat="44.42613" lon="2.42618">
        <ele>533.7</ele>
        <time>2022-09-18T06:27:54.000Z</time>
      </trkpt>
      <trkpt lat="44.42621" lon="2.42626">
        <ele>534.1</ele>
        <time>2022-09-18T06:27:57.000Z</time>
      </trkpt>
      <trkpt lat="44.4263" lon="2.42632">
        <ele>534</ele>
        <time>2022-09-18T06:28:00.000Z</time>
      </trkpt>
      <trkpt lat="44.42638" lon="2.42642">
        <ele>534.9</ele>
        <time>2022-09-18T06:28:04.000Z</time>
      </trkpt>
      <trkpt lat="44.42647" lon="2.42649">
        <ele>535</ele>
        <time>2022-09-18T06:28:07.000Z</time>
      </trkpt>
      <trkpt lat="44.42655" lon="2.42657">
        <ele>536.4</ele>
        <time>2022-09-18T06:28:10.000Z</time>
      </trkpt>
      <trkpt lat="44.42661" lon="2.42671">
        <ele>537.5</ele>
        <time>2022-09-18T06:28:14.000Z</time>
      </trkpt>
      <trkpt lat="44.42664" lon="2.42687">
        <ele>538.3</ele>
        <time>2022-09-18T06:28:18.000Z</time>
      </trkpt>
      <trkpt lat="44.42665" lon="2.42703">
        <ele>539</ele>
        <time>2022-09-18T06:28:22.000Z</time>
      </trkpt>
      <trkpt lat="44.42666" lon="2.4272">
        <ele>539.8</ele>
        <time>2022-09-18T06:28:26.000Z</time>
      </trkpt>
      <trkpt lat="44.42667" lon="2.42734">
        <ele>539.7</ele>
        <time>2022-09-18T06:28:29.000Z</time>
      </trkpt>
      <trkpt lat="44.42671" lon="2.42747">
        <ele>539.8</ele>
        <time>2022-09-18T06:28:32.000Z</time>
      </trkpt>
      <trkpt lat="44.42675" lon="2.4276">
        <ele>540.3</ele>
        <time>2022-09-18T06:28:35.000Z</time>
      </trkpt>
      <trkpt lat="44.42678" lon="2.42772">
        <ele>540.9</ele>
        <time>2022-09-18T06:28:38.000Z</time>
      </trkpt>
      <trkpt lat="44.42679" lon="2.42785">
        <ele>541</ele>
        <time>2022-09-18T06:28:41.000Z</time>
      </trkpt>
      <trkpt lat="44.42688" lon="2.42788">
        <ele>542.7</ele>
        <time>2022-09-18T06:28:48.000Z</time>
      </trkpt>
      <trkpt lat="44.42694" lon="2.42774">
        <ele>543.2</ele>
        <time>2022-09-18T06:28:52.000Z</time>
      </trkpt>
      <trkpt lat="44.42699" lon="2.42761">
        <ele>543.9</ele>
        <time>2022-09-18T06:28:56.000Z</time>
      </trkpt>
      <trkpt lat="44.42704" lon="2.42747">
        <ele>544.1</ele>
        <time>2022-09-18T06:29:00.000Z</time>
      </trkpt>
      <trkpt lat="44.4271" lon="2.42733">
        <ele>544.1</ele>
        <time>2022-09-18T06:29:04.000Z</time>
      </trkpt>
      <trkpt lat="44.42716" lon="2.42723">
        <ele>544</ele>
        <time>2022-09-18T06:29:07.000Z</time>
      </trkpt>
      <trkpt lat="44.42721" lon="2.42709">
        <ele>543.9</ele>
        <time>2022-09-18T06:29:11.000Z</time>
      </trkpt>
      <trkpt lat="44.42727" lon="2.42694">
        <ele>543.8</ele>
        <time>2022-09-18T06:29:15.000Z</time>
      </trkpt>
      <trkpt lat="44.42732" lon="2.42684">
        <ele>543.5</ele>
        <time>2022-09-18T06:29:18.000Z</time>
      </trkpt>
      <trkpt lat="44.42738" lon="2.42673">
        <ele>543.6</ele>
        <time>2022-09-18T06:29:21.000Z</time>
      </trkpt>
      <trkpt lat="44.42743" lon="2.42663">
        <ele>544.1</ele>
        <time>2022-09-18T06:29:24.000Z</time>
      </trkpt>
      <trkpt lat="44.4275" lon="2.42653">
        <ele>544.4</ele>
        <time>2022-09-18T06:29:27.000Z</time>
      </trkpt>
      <trkpt lat="44.42757" lon="2.42642">
        <ele>545.8</ele>
        <time>2022-09-18T06:29:31.000Z</time>
      </trkpt>
      <trkpt lat="44.42763" lon="2.42631">
        <ele>547.1</ele>
        <time>2022-09-18T06:29:35.000Z</time>
      </trkpt>
      <trkpt lat="44.4277" lon="2.42621">
        <ele>548</ele>
        <time>2022-09-18T06:29:39.000Z</time>
      </trkpt>
      <trkpt lat="44.4278" lon="2.42614">
        <ele>549.6</ele>
        <time>2022-09-18T06:29:43.000Z</time>
      </trkpt>
      <trkpt lat="44.42789" lon="2.42609">
        <ele>550.6</ele>
        <time>2022-09-18T06:29:47.000Z</time>
      </trkpt>
      <trkpt lat="44.42798" lon="2.42604">
        <ele>552.4</ele>
        <time>2022-09-18T06:29:51.000Z</time>
      </trkpt>
      <trkpt lat="44.42807" lon="2.42599">
        <ele>553.8</ele>
        <time>2022-09-18T06:29:55.000Z</time>
      </trkpt>
      <trkpt lat="44.42816" lon="2.42592">
        <ele>555.3</ele>
        <time>2022-09-18T06:30:00.000Z</time>
      </trkpt>
      <trkpt lat="44.42815" lon="2.42605">
        <ele>556.7</ele>
        <time>2022-09-18T06:30:06.000Z</time>
      </trkpt>
      <trkpt lat="44.42809" lon="2.42616">
        <ele>557.7</ele>
        <time>2022-09-18T06:30:10.000Z</time>
      </trkpt>
      <trkpt lat="44.42802" lon="2.42627">
        <ele>557.4</ele>
        <time>2022-09-18T06:30:14.000Z</time>
      </trkpt>
      <trkpt lat="44.42793" lon="2.42639">
        <ele>556.2</ele>
        <time>2022-09-18T06:30:18.000Z</time>
      </trkpt>
      <trkpt lat="44.42787" lon="2.42649">
        <ele>555.3</ele>
        <time>2022-09-18T06:30:20.000Z</time>
      </trkpt>
      <trkpt lat="44.42781" lon="2.42664">
        <ele>554.3</ele>
        <time>2022-09-18T06:30:22.000Z</time>
      </trkpt>
      <trkpt lat="44.42777" lon="2.4268">
        <ele>553.5</ele>
        <time>2022-09-18T06:30:24.000Z</time>
      </trkpt>
      <trkpt lat="44.42773" lon="2.42694">
        <ele>552.9</ele>
        <time>2022-09-18T06:30:26.000Z</time>
      </trkpt>
      <trkpt lat="44.42769" lon="2.42707">
        <ele>553.6</ele>
        <time>2022-09-18T06:30:29.000Z</time>
      </trkpt>
      <trkpt lat="44.42765" lon="2.42721">
        <ele>554.2</ele>
        <time>2022-09-18T06:30:33.000Z</time>
      </trkpt>
      <trkpt lat="44.42765" lon="2.42737">
        <ele>554.6</ele>
        <time>2022-09-18T06:30:37.000Z</time>
      </trkpt>
      <trkpt lat="44.42764" lon="2.42752">
        <ele>555.7</ele>
        <time>2022-09-18T06:30:41.000Z</time>
      </trkpt>
      <trkpt lat="44.42761" lon="2.42768">
        <ele>556.5</ele>
        <time>2022-09-18T06:30:45.000Z</time>
      </trkpt>
      <trkpt lat="44.42758" lon="2.42783">
        <ele>557</ele>
        <time>2022-09-18T06:30:49.000Z</time>
      </trkpt>
      <trkpt lat="44.42755" lon="2.42799">
        <ele>557.2</ele>
        <time>2022-09-18T06:30:53.000Z</time>
      </trkpt>
      <trkpt lat="44.42752" lon="2.42814">
        <ele>558</ele>
        <time>2022-09-18T06:30:57.000Z</time>
      </trkpt>
      <trkpt lat="44.4275" lon="2.42829">
        <ele>558.2</ele>
        <time>2022-09-18T06:31:01.000Z</time>
      </trkpt>
      <trkpt lat="44.42748" lon="2.42844">
        <ele>558.7</ele>
        <time>2022-09-18T06:31:05.000Z</time>
      </trkpt>
      <trkpt lat="44.42748" lon="2.4286">
        <ele>559.2</ele>
        <time>2022-09-18T06:31:09.000Z</time>
      </trkpt>
      <trkpt lat="44.42749" lon="2.42876">
        <ele>559.1</ele>
        <time>2022-09-18T06:31:13.000Z</time>
      </trkpt>
      <trkpt lat="44.42751" lon="2.42892">
        <ele>559.3</ele>
        <time>2022-09-18T06:31:17.000Z</time>
      </trkpt>
      <trkpt lat="44.42751" lon="2.42907">
        <ele>560.2</ele>
        <time>2022-09-18T06:31:21.000Z</time>
      </trkpt>
      <trkpt lat="44.42751" lon="2.42922">
        <ele>560.3</ele>
        <time>2022-09-18T06:31:25.000Z</time>
      </trkpt>
      <trkpt lat="44.42753" lon="2.42936">
        <ele>560.9</ele>
        <time>2022-09-18T06:31:29.000Z</time>
      </trkpt>
      <trkpt lat="44.42755" lon="2.4295">
        <ele>561.8</ele>
        <time>2022-09-18T06:31:33.000Z</time>
      </trkpt>
      <trkpt lat="44.42757" lon="2.42963">
        <ele>562.1</ele>
        <time>2022-09-18T06:31:37.000Z</time>
      </trkpt>
      <trkpt lat="44.42762" lon="2.42976">
        <ele>563.6</ele>
        <time>2022-09-18T06:31:41.000Z</time>
      </trkpt>
      <trkpt lat="44.42768" lon="2.42987">
        <ele>565.1</ele>
        <time>2022-09-18T06:31:45.000Z</time>
      </trkpt>
      <trkpt lat="44.42775" lon="2.42997">
        <ele>566.4</ele>
        <time>2022-09-18T06:31:49.000Z</time>
      </trkpt>
      <trkpt lat="44.4278" lon="2.43011">
        <ele>566.7</ele>
        <time>2022-09-18T06:31:53.000Z</time>
      </trkpt>
      <trkpt lat="44.42784" lon="2.43023">
        <ele>566.9</ele>
        <time>2022-09-18T06:31:57.000Z</time>
      </trkpt>
      <trkpt lat="44.42781" lon="2.43037">
        <ele>565.7</ele>
        <time>2022-09-18T06:32:00.000Z</time>
      </trkpt>
      <trkpt lat="44.42776" lon="2.43052">
        <ele>565.2</ele>
        <time>2022-09-18T06:32:03.000Z</time>
      </trkpt>
      <trkpt lat="44.42768" lon="2.4306">
        <ele>565.1</ele>
        <time>2022-09-18T06:32:06.000Z</time>
      </trkpt>
      <trkpt lat="44.42754" lon="2.43062">
        <ele>562.1</ele>
        <time>2022-09-18T06:32:09.000Z</time>
      </trkpt>
      <trkpt lat="44.42743" lon="2.4306">
        <ele>559.9</ele>
        <time>2022-09-18T06:32:11.000Z</time>
      </trkpt>
      <trkpt lat="44.42732" lon="2.43056">
        <ele>557.1</ele>
        <time>2022-09-18T06:32:13.000Z</time>
      </trkpt>
      <trkpt lat="44.42722" lon="2.43054">
        <ele>555.5</ele>
        <time>2022-09-18T06:32:15.000Z</time>
      </trkpt>
      <trkpt lat="44.42712" lon="2.43059">
        <ele>553.7</ele>
        <time>2022-09-18T06:32:18.000Z</time>
      </trkpt>
      <trkpt lat="44.4271" lon="2.43071">
        <ele>554.3</ele>
        <time>2022-09-18T06:32:22.000Z</time>
      </trkpt>
      <trkpt lat="44.42704" lon="2.43087">
        <ele>554.6</ele>
        <time>2022-09-18T06:32:27.000Z</time>
      </trkpt>
      <trkpt lat="44.427" lon="2.431">
        <ele>552.1</ele>
        <time>2022-09-18T06:32:29.000Z</time>
      </trkpt>
      <trkpt lat="44.42692" lon="2.43117">
        <ele>550.1</ele>
        <time>2022-09-18T06:32:31.000Z</time>
      </trkpt>
      <trkpt lat="44.42683" lon="2.43134">
        <ele>547.1</ele>
        <time>2022-09-18T06:32:33.000Z</time>
      </trkpt>
      <trkpt lat="44.42677" lon="2.43153">
        <ele>545</ele>
        <time>2022-09-18T06:32:35.000Z</time>
      </trkpt>
      <trkpt lat="44.42673" lon="2.43173">
        <ele>543.1</ele>
        <time>2022-09-18T06:32:37.000Z</time>
      </trkpt>
      <trkpt lat="44.42667" lon="2.43194">
        <ele>541.7</ele>
        <time>2022-09-18T06:32:39.000Z</time>
      </trkpt>
      <trkpt lat="44.42661" lon="2.43214">
        <ele>540.1</ele>
        <time>2022-09-18T06:32:41.000Z</time>
      </trkpt>
      <trkpt lat="44.42657" lon="2.43233">
        <ele>538.6</ele>
        <time>2022-09-18T06:32:43.000Z</time>
      </trkpt>
      <trkpt lat="44.42651" lon="2.4325">
        <ele>537.4</ele>
        <time>2022-09-18T06:32:45.000Z</time>
      </trkpt>
      <trkpt lat="44.42648" lon="2.43266">
        <ele>537.9</ele>
        <time>2022-09-18T06:32:47.000Z</time>
      </trkpt>
      <trkpt lat="44.42648" lon="2.43282">
        <ele>538.4</ele>
        <time>2022-09-18T06:32:50.000Z</time>
      </trkpt>
      <trkpt lat="44.42652" lon="2.43294">
        <ele>539.4</ele>
        <time>2022-09-18T06:32:54.000Z</time>
      </trkpt>
      <trkpt lat="44.42654" lon="2.43309">
        <ele>541.4</ele>
        <time>2022-09-18T06:32:59.000Z</time>
      </trkpt>
      <trkpt lat="44.42657" lon="2.43322">
        <ele>544.1</ele>
        <time>2022-09-18T06:33:03.000Z</time>
      </trkpt>
      <trkpt lat="44.42659" lon="2.43335">
        <ele>546.3</ele>
        <time>2022-09-18T06:33:08.000Z</time>
      </trkpt>
      <trkpt lat="44.42652" lon="2.43345">
        <ele>548.3</ele>
        <time>2022-09-18T06:33:13.000Z</time>
      </trkpt>
      <trkpt lat="44.42644" lon="2.43353">
        <ele>549.6</ele>
        <time>2022-09-18T06:33:18.000Z</time>
      </trkpt>
      <trkpt lat="44.42637" lon="2.43363">
        <ele>550</ele>
        <time>2022-09-18T06:33:23.000Z</time>
      </trkpt>
      <trkpt lat="44.42632" lon="2.43373">
        <ele>550.7</ele>
        <time>2022-09-18T06:33:28.000Z</time>
      </trkpt>
      <trkpt lat="44.42633" lon="2.43386">
        <ele>551.9</ele>
        <time>2022-09-18T06:33:34.000Z</time>
      </trkpt>
      <trkpt lat="44.42637" lon="2.434">
        <ele>552.4</ele>
        <time>2022-09-18T06:33:40.000Z</time>
      </trkpt>
      <trkpt lat="44.42645" lon="2.43408">
        <ele>553.3</ele>
        <time>2022-09-18T06:33:44.000Z</time>
      </trkpt>
      <trkpt lat="44.42653" lon="2.43419">
        <ele>554.3</ele>
        <time>2022-09-18T06:33:48.000Z</time>
      </trkpt>
      <trkpt lat="44.42657" lon="2.43433">
        <ele>554.7</ele>
        <time>2022-09-18T06:33:52.000Z</time>
      </trkpt>
      <trkpt lat="44.42661" lon="2.43446">
        <ele>555.4</ele>
        <time>2022-09-18T06:33:56.000Z</time>
      </trkpt>
      <trkpt lat="44.42665" lon="2.43458">
        <ele>556</ele>
        <time>2022-09-18T06:34:00.000Z</time>
      </trkpt>
      <trkpt lat="44.42668" lon="2.43472">
        <ele>557.3</ele>
        <time>2022-09-18T06:34:05.000Z</time>
      </trkpt>
      <trkpt lat="44.42672" lon="2.43485">
        <ele>557.4</ele>
        <time>2022-09-18T06:34:09.000Z</time>
      </trkpt>
      <trkpt lat="44.42676" lon="2.43497">
        <ele>558</ele>
        <time>2022-09-18T06:34:13.000Z</time>
      </trkpt>
      <trkpt lat="44.42673" lon="2.43511">
        <ele>558</ele>
        <time>2022-09-18T06:34:18.000Z</time>
      </trkpt>
      <trkpt lat="44.42663" lon="2.43516">
        <ele>558.5</ele>
        <time>2022-09-18T06:34:22.000Z</time>
      </trkpt>
      <trkpt lat="44.42652" lon="2.43523">
        <ele>559</ele>
        <time>2022-09-18T06:34:26.000Z</time>
      </trkpt>
      <trkpt lat="44.42641" lon="2.43525">
        <ele>560.1</ele>
        <time>2022-09-18T06:34:30.000Z</time>
      </trkpt>
      <trkpt lat="44.42631" lon="2.43521">
        <ele>561.6</ele>
        <time>2022-09-18T06:34:34.000Z</time>
      </trkpt>
      <trkpt lat="44.42622" lon="2.43515">
        <ele>562.6</ele>
        <time>2022-09-18T06:34:38.000Z</time>
      </trkpt>
      <trkpt lat="44.42614" lon="2.43508">
        <ele>563.1</ele>
        <time>2022-09-18T06:34:42.000Z</time>
      </trkpt>
      <trkpt lat="44.42607" lon="2.43498">
        <ele>562.4</ele>
        <time>2022-09-18T06:34:45.000Z</time>
      </trkpt>
      <trkpt lat="44.42597" lon="2.43488">
        <ele>561.5</ele>
        <time>2022-09-18T06:34:48.000Z</time>
      </trkpt>
      <trkpt lat="44.42587" lon="2.43484">
        <ele>561.7</ele>
        <time>2022-09-18T06:34:51.000Z</time>
      </trkpt>
      <trkpt lat="44.42579" lon="2.43475">
        <ele>561.7</ele>
        <time>2022-09-18T06:34:56.000Z</time>
      </trkpt>
      <trkpt lat="44.42574" lon="2.43464">
        <ele>562.1</ele>
        <time>2022-09-18T06:35:01.000Z</time>
      </trkpt>
      <trkpt lat="44.42572" lon="2.43451">
        <ele>562.2</ele>
        <time>2022-09-18T06:35:06.000Z</time>
      </trkpt>
      <trkpt lat="44.42566" lon="2.43439">
        <ele>562.5</ele>
        <time>2022-09-18T06:35:10.000Z</time>
      </trkpt>
      <trkpt lat="44.42559" lon="2.4343">
        <ele>562.6</ele>
        <time>2022-09-18T06:35:14.000Z</time>
      </trkpt>
      <trkpt lat="44.42551" lon="2.43421">
        <ele>562.8</ele>
        <time>2022-09-18T06:35:18.000Z</time>
      </trkpt>
      <trkpt lat="44.42543" lon="2.43412">
        <ele>563</ele>
        <time>2022-09-18T06:35:22.000Z</time>
      </trkpt>
      <trkpt lat="44.42535" lon="2.43402">
        <ele>563.4</ele>
        <time>2022-09-18T06:35:26.000Z</time>
      </trkpt>
      <trkpt lat="44.42528" lon="2.43393">
        <ele>564.3</ele>
        <time>2022-09-18T06:35:30.000Z</time>
      </trkpt>
      <trkpt lat="44.42524" lon="2.43381">
        <ele>564.1</ele>
        <time>2022-09-18T06:35:33.000Z</time>
      </trkpt>
      <trkpt lat="44.42523" lon="2.43366">
        <ele>564.6</ele>
        <time>2022-09-18T06:35:37.000Z</time>
      </trkpt>
      <trkpt lat="44.42521" lon="2.43351">
        <ele>565</ele>
        <time>2022-09-18T06:35:41.000Z</time>
      </trkpt>
      <trkpt lat="44.42518" lon="2.43338">
        <ele>566.2</ele>
        <time>2022-09-18T06:35:45.000Z</time>
      </trkpt>
      <trkpt lat="44.42514" lon="2.43323">
        <ele>566.5</ele>
        <time>2022-09-18T06:35:49.000Z</time>
      </trkpt>
      <trkpt lat="44.42509" lon="2.4331">
        <ele>567.9</ele>
        <time>2022-09-18T06:35:53.000Z</time>
      </trkpt>
      <trkpt lat="44.42504" lon="2.43297">
        <ele>568.2</ele>
        <time>2022-09-18T06:35:57.000Z</time>
      </trkpt>
      <trkpt lat="44.425" lon="2.43284">
        <ele>568.6</ele>
        <time>2022-09-18T06:36:01.000Z</time>
      </trkpt>
      <trkpt lat="44.42494" lon="2.43273">
        <ele>568.7</ele>
        <time>2022-09-18T06:36:05.000Z</time>
      </trkpt>
      <trkpt lat="44.42486" lon="2.43263">
        <ele>568.8</ele>
        <time>2022-09-18T06:36:09.000Z</time>
      </trkpt>
      <trkpt lat="44.42481" lon="2.43251">
        <ele>569.8</ele>
        <time>2022-09-18T06:36:13.000Z</time>
      </trkpt>
      <trkpt lat="44.42474" lon="2.4324">
        <ele>569.7</ele>
        <time>2022-09-18T06:36:17.000Z</time>
      </trkpt>
      <trkpt lat="44.42466" lon="2.43229">
        <ele>570.2</ele>
        <time>2022-09-18T06:36:21.000Z</time>
      </trkpt>
      <trkpt lat="44.42459" lon="2.43216">
        <ele>570</ele>
        <time>2022-09-18T06:36:25.000Z</time>
      </trkpt>
      <trkpt lat="44.42454" lon="2.43204">
        <ele>570.1</ele>
        <time>2022-09-18T06:36:29.000Z</time>
      </trkpt>
      <trkpt lat="44.42448" lon="2.43192">
        <ele>569.8</ele>
        <time>2022-09-18T06:36:33.000Z</time>
      </trkpt>
      <trkpt lat="44.42443" lon="2.4318">
        <ele>569.6</ele>
        <time>2022-09-18T06:36:37.000Z</time>
      </trkpt>
      <trkpt lat="44.42438" lon="2.43166">
        <ele>570.5</ele>
        <time>2022-09-18T06:36:43.000Z</time>
      </trkpt>
      <trkpt lat="44.42434" lon="2.43153">
        <ele>571</ele>
        <time>2022-09-18T06:36:47.000Z</time>
      </trkpt>
      <trkpt lat="44.42429" lon="2.4314">
        <ele>571.4</ele>
        <time>2022-09-18T06:36:51.000Z</time>
      </trkpt>
      <trkpt lat="44.42426" lon="2.43128">
        <ele>571</ele>
        <time>2022-09-18T06:36:54.000Z</time>
      </trkpt>
      <trkpt lat="44.42427" lon="2.43111">
        <ele>571.3</ele>
        <time>2022-09-18T06:36:58.000Z</time>
      </trkpt>
      <trkpt lat="44.4243" lon="2.43097">
        <ele>571.4</ele>
        <time>2022-09-18T06:37:01.000Z</time>
      </trkpt>
      <trkpt lat="44.42431" lon="2.43084">
        <ele>572</ele>
        <time>2022-09-18T06:37:04.000Z</time>
      </trkpt>
      <trkpt lat="44.42431" lon="2.4307">
        <ele>572.4</ele>
        <time>2022-09-18T06:37:07.000Z</time>
      </trkpt>
      <trkpt lat="44.42428" lon="2.43055">
        <ele>572.9</ele>
        <time>2022-09-18T06:37:11.000Z</time>
      </trkpt>
      <trkpt lat="44.42424" lon="2.4304">
        <ele>573.2</ele>
        <time>2022-09-18T06:37:15.000Z</time>
      </trkpt>
      <trkpt lat="44.42418" lon="2.43026">
        <ele>575.2</ele>
        <time>2022-09-18T06:37:19.000Z</time>
      </trkpt>
      <trkpt lat="44.42415" lon="2.4301">
        <ele>574.8</ele>
        <time>2022-09-18T06:37:23.000Z</time>
      </trkpt>
      <trkpt lat="44.42415" lon="2.42994">
        <ele>574.1</ele>
        <time>2022-09-18T06:37:26.000Z</time>
      </trkpt>
      <trkpt lat="44.42415" lon="2.42975">
        <ele>573</ele>
        <time>2022-09-18T06:37:29.000Z</time>
      </trkpt>
      <trkpt lat="44.4241" lon="2.42959">
        <ele>572.2</ele>
        <time>2022-09-18T06:37:32.000Z</time>
      </trkpt>
      <trkpt lat="44.42402" lon="2.42946">
        <ele>571.8</ele>
        <time>2022-09-18T06:37:35.000Z</time>
      </trkpt>
      <trkpt lat="44.42395" lon="2.4293">
        <ele>571.7</ele>
        <time>2022-09-18T06:37:38.000Z</time>
      </trkpt>
      <trkpt lat="44.42389" lon="2.42921">
        <ele>571.4</ele>
        <time>2022-09-18T06:37:40.000Z</time>
      </trkpt>
      <trkpt lat="44.42382" lon="2.42909">
        <ele>570</ele>
        <time>2022-09-18T06:37:43.000Z</time>
      </trkpt>
      <trkpt lat="44.42377" lon="2.42896">
        <ele>569.7</ele>
        <time>2022-09-18T06:37:46.000Z</time>
      </trkpt>
      <trkpt lat="44.42373" lon="2.4288">
        <ele>571</ele>
        <time>2022-09-18T06:37:49.000Z</time>
      </trkpt>
      <trkpt lat="44.42369" lon="2.42865">
        <ele>571.2</ele>
        <time>2022-09-18T06:37:52.000Z</time>
      </trkpt>
      <trkpt lat="44.42368" lon="2.42849">
        <ele>572.1</ele>
        <time>2022-09-18T06:37:55.000Z</time>
      </trkpt>
      <trkpt lat="44.42369" lon="2.42834">
        <ele>573.1</ele>
        <time>2022-09-18T06:37:58.000Z</time>
      </trkpt>
      <trkpt lat="44.42366" lon="2.42821">
        <ele>572.7</ele>
        <time>2022-09-18T06:38:01.000Z</time>
      </trkpt>
      <trkpt lat="44.42362" lon="2.42804">
        <ele>572.3</ele>
        <time>2022-09-18T06:38:04.000Z</time>
      </trkpt>
      <trkpt lat="44.42359" lon="2.42791">
        <ele>570.7</ele>
        <time>2022-09-18T06:38:06.000Z</time>
      </trkpt>
      <trkpt lat="44.42352" lon="2.42778">
        <ele>567.4</ele>
        <time>2022-09-18T06:38:09.000Z</time>
      </trkpt>
      <trkpt lat="44.42353" lon="2.42766">
        <ele>565.5</ele>
        <time>2022-09-18T06:38:12.000Z</time>
      </trkpt>
      <trkpt lat="44.4236" lon="2.42756">
        <ele>563.4</ele>
        <time>2022-09-18T06:38:15.000Z</time>
      </trkpt>
      <trkpt lat="44.42364" lon="2.42742">
        <ele>559</ele>
        <time>2022-09-18T06:38:18.000Z</time>
      </trkpt>
      <trkpt lat="44.42354" lon="2.4273">
        <ele>555</ele>
        <time>2022-09-18T06:38:21.000Z</time>
      </trkpt>
      <trkpt lat="44.42345" lon="2.42726">
        <ele>553.3</ele>
        <time>2022-09-18T06:38:23.000Z</time>
      </trkpt>
      <trkpt lat="44.42334" lon="2.42729">
        <ele>551.9</ele>
        <time>2022-09-18T06:38:25.000Z</time>
      </trkpt>
      <trkpt lat="44.4232" lon="2.42733">
        <ele>549.9</ele>
        <time>2022-09-18T06:38:27.000Z</time>
      </trkpt>
      <trkpt lat="44.42309" lon="2.42728">
        <ele>548.7</ele>
        <time>2022-09-18T06:38:29.000Z</time>
      </trkpt>
      <trkpt lat="44.42301" lon="2.42716">
        <ele>548.4</ele>
        <time>2022-09-18T06:38:31.000Z</time>
      </trkpt>
      <trkpt lat="44.42296" lon="2.42705">
        <ele>547.3</ele>
        <time>2022-09-18T06:38:33.000Z</time>
      </trkpt>
      <trkpt lat="44.42283" lon="2.42707">
        <ele>545.1</ele>
        <time>2022-09-18T06:38:36.000Z</time>
      </trkpt>
      <trkpt lat="44.42272" lon="2.42705">
        <ele>544</ele>
        <time>2022-09-18T06:38:39.000Z</time>
      </trkpt>
      <trkpt lat="44.42263" lon="2.42692">
        <ele>541.6</ele>
        <time>2022-09-18T06:38:42.000Z</time>
      </trkpt>
      <trkpt lat="44.42254" lon="2.42686">
        <ele>540.4</ele>
        <time>2022-09-18T06:38:44.000Z</time>
      </trkpt>
      <trkpt lat="44.42241" lon="2.42681">
        <ele>539.7</ele>
        <time>2022-09-18T06:38:47.000Z</time>
      </trkpt>
      <trkpt lat="44.4223" lon="2.42679">
        <ele>537.6</ele>
        <time>2022-09-18T06:38:49.000Z</time>
      </trkpt>
      <trkpt lat="44.4222" lon="2.42679">
        <ele>535.3</ele>
        <time>2022-09-18T06:38:51.000Z</time>
      </trkpt>
      <trkpt lat="44.4221" lon="2.42677">
        <ele>533.2</ele>
        <time>2022-09-18T06:38:53.000Z</time>
      </trkpt>
      <trkpt lat="44.42201" lon="2.42677">
        <ele>531.7</ele>
        <time>2022-09-18T06:38:55.000Z</time>
      </trkpt>
      <trkpt lat="44.42192" lon="2.42682">
        <ele>530.1</ele>
        <time>2022-09-18T06:38:57.000Z</time>
      </trkpt>
      <trkpt lat="44.4218" lon="2.42685">
        <ele>528</ele>
        <time>2022-09-18T06:39:00.000Z</time>
      </trkpt>
      <trkpt lat="44.42166" lon="2.42686">
        <ele>525.1</ele>
        <time>2022-09-18T06:39:03.000Z</time>
      </trkpt>
      <trkpt lat="44.42155" lon="2.42694">
        <ele>522.5</ele>
        <time>2022-09-18T06:39:06.000Z</time>
      </trkpt>
      <trkpt lat="44.42144" lon="2.42697">
        <ele>520.2</ele>
        <time>2022-09-18T06:39:09.000Z</time>
      </trkpt>
      <trkpt lat="44.42133" lon="2.42701">
        <ele>518.6</ele>
        <time>2022-09-18T06:39:12.000Z</time>
      </trkpt>
      <trkpt lat="44.42128" lon="2.42715">
        <ele>516.1</ele>
        <time>2022-09-18T06:39:15.000Z</time>
      </trkpt>
      <trkpt lat="44.42122" lon="2.42726">
        <ele>514.9</ele>
        <time>2022-09-18T06:39:17.000Z</time>
      </trkpt>
      <trkpt lat="44.42117" lon="2.42736">
        <ele>512.7</ele>
        <time>2022-09-18T06:39:19.000Z</time>
      </trkpt>
      <trkpt lat="44.42106" lon="2.42742">
        <ele>511.1</ele>
        <time>2022-09-18T06:39:22.000Z</time>
      </trkpt>
      <trkpt lat="44.42095" lon="2.42734">
        <ele>508.1</ele>
        <time>2022-09-18T06:39:25.000Z</time>
      </trkpt>
      <trkpt lat="44.42085" lon="2.42739">
        <ele>505.7</ele>
        <time>2022-09-18T06:39:28.000Z</time>
      </trkpt>
      <trkpt lat="44.42077" lon="2.42747">
        <ele>504</ele>
        <time>2022-09-18T06:39:31.000Z</time>
      </trkpt>
      <trkpt lat="44.42071" lon="2.42757">
        <ele>504.4</ele>
        <time>2022-09-18T06:39:35.000Z</time>
      </trkpt>
      <trkpt lat="44.42067" lon="2.4277">
        <ele>506.3</ele>
        <time>2022-09-18T06:39:40.000Z</time>
      </trkpt>
      <trkpt lat="44.42064" lon="2.42785">
        <ele>509.2</ele>
        <time>2022-09-18T06:39:45.000Z</time>
      </trkpt>
      <trkpt lat="44.42063" lon="2.42791">
        <ele>510.4</ele>
        <time>2022-09-18T06:39:50.000Z</time>
      </trkpt>
      <trkpt lat="44.42063" lon="2.42792">
        <ele>510.4</ele>
        <time>2022-09-18T06:39:51.000Z</time>
      </trkpt>
      <trkpt lat="44.42062" lon="2.42806">
        <ele>511.1</ele>
        <time>2022-09-18T06:39:57.000Z</time>
      </trkpt>
      <trkpt lat="44.4206" lon="2.42819">
        <ele>512.6</ele>
        <time>2022-09-18T06:40:02.000Z</time>
      </trkpt>
      <trkpt lat="44.42059" lon="2.42832">
        <ele>513.9</ele>
        <time>2022-09-18T06:40:07.000Z</time>
      </trkpt>
      <trkpt lat="44.4206" lon="2.42847">
        <ele>515.5</ele>
        <time>2022-09-18T06:40:12.000Z</time>
      </trkpt>
      <trkpt lat="44.42063" lon="2.42859">
        <ele>517.1</ele>
        <time>2022-09-18T06:40:17.000Z</time>
      </trkpt>
      <trkpt lat="44.42065" lon="2.42873">
        <ele>518.2</ele>
        <time>2022-09-18T06:40:22.000Z</time>
      </trkpt>
      <trkpt lat="44.42067" lon="2.42887">
        <ele>520.3</ele>
        <time>2022-09-18T06:40:27.000Z</time>
      </trkpt>
      <trkpt lat="44.42069" lon="2.42901">
        <ele>522.6</ele>
        <time>2022-09-18T06:40:32.000Z</time>
      </trkpt>
      <trkpt lat="44.42066" lon="2.42914">
        <ele>524.1</ele>
        <time>2022-09-18T06:40:37.000Z</time>
      </trkpt>
      <trkpt lat="44.4206" lon="2.42927">
        <ele>525.4</ele>
        <time>2022-09-18T06:40:42.000Z</time>
      </trkpt>
      <trkpt lat="44.42055" lon="2.4294">
        <ele>526.3</ele>
        <time>2022-09-18T06:40:47.000Z</time>
      </trkpt>
      <trkpt lat="44.42053" lon="2.42955">
        <ele>527.1</ele>
        <time>2022-09-18T06:40:52.000Z</time>
      </trkpt>
      <trkpt lat="44.42052" lon="2.4297">
        <ele>528.4</ele>
        <time>2022-09-18T06:40:57.000Z</time>
      </trkpt>
      <trkpt lat="44.42049" lon="2.42984">
        <ele>529.3</ele>
        <time>2022-09-18T06:41:03.000Z</time>
      </trkpt>
      <trkpt lat="44.42044" lon="2.42997">
        <ele>531.5</ele>
        <time>2022-09-18T06:41:09.000Z</time>
      </trkpt>
      <trkpt lat="44.42038" lon="2.43007">
        <ele>532.8</ele>
        <time>2022-09-18T06:41:14.000Z</time>
      </trkpt>
      <trkpt lat="44.42031" lon="2.43016">
        <ele>533.4</ele>
        <time>2022-09-18T06:41:19.000Z</time>
      </trkpt>
      <trkpt lat="44.42024" lon="2.43024">
        <ele>534.1</ele>
        <time>2022-09-18T06:41:25.000Z</time>
      </trkpt>
      <trkpt lat="44.42018" lon="2.43035">
        <ele>534.7</ele>
        <time>2022-09-18T06:41:31.000Z</time>
      </trkpt>
      <trkpt lat="44.42012" lon="2.43047">
        <ele>535.8</ele>
        <time>2022-09-18T06:41:37.000Z</time>
      </trkpt>
      <trkpt lat="44.42007" lon="2.43057">
        <ele>537.4</ele>
        <time>2022-09-18T06:41:43.000Z</time>
      </trkpt>
      <trkpt lat="44.42008" lon="2.43071">
        <ele>538.5</ele>
        <time>2022-09-18T06:41:50.000Z</time>
      </trkpt>
      <trkpt lat="44.42003" lon="2.43081">
        <ele>539.6</ele>
        <time>2022-09-18T06:41:55.000Z</time>
      </trkpt>
      <trkpt lat="44.41997" lon="2.43091">
        <ele>540.4</ele>
        <time>2022-09-18T06:41:59.000Z</time>
      </trkpt>
      <trkpt lat="44.41991" lon="2.43101">
        <ele>541.3</ele>
        <time>2022-09-18T06:42:03.000Z</time>
      </trkpt>
      <trkpt lat="44.41985" lon="2.43111">
        <ele>541.7</ele>
        <time>2022-09-18T06:42:07.000Z</time>
      </trkpt>
      <trkpt lat="44.41979" lon="2.43121">
        <ele>542.3</ele>
        <time>2022-09-18T06:42:11.000Z</time>
      </trkpt>
      <trkpt lat="44.41974" lon="2.43131">
        <ele>542.5</ele>
        <time>2022-09-18T06:42:15.000Z</time>
      </trkpt>
      <trkpt lat="44.41969" lon="2.43145">
        <ele>543.8</ele>
        <time>2022-09-18T06:42:20.000Z</time>
      </trkpt>
      <trkpt lat="44.41965" lon="2.43157">
        <ele>544.6</ele>
        <time>2022-09-18T06:42:24.000Z</time>
      </trkpt>
      <trkpt lat="44.41962" lon="2.43169">
        <ele>545.8</ele>
        <time>2022-09-18T06:42:28.000Z</time>
      </trkpt>
      <trkpt lat="44.41956" lon="2.4318">
        <ele>547.1</ele>
        <time>2022-09-18T06:42:32.000Z</time>
      </trkpt>
      <trkpt lat="44.41951" lon="2.43191">
        <ele>548.1</ele>
        <time>2022-09-18T06:42:36.000Z</time>
      </trkpt>
      <trkpt lat="44.41945" lon="2.43201">
        <ele>548.8</ele>
        <time>2022-09-18T06:42:40.000Z</time>
      </trkpt>
      <trkpt lat="44.4194" lon="2.43211">
        <ele>549.6</ele>
        <time>2022-09-18T06:42:44.000Z</time>
      </trkpt>
      <trkpt lat="44.41934" lon="2.43222">
        <ele>550</ele>
        <time>2022-09-18T06:42:48.000Z</time>
      </trkpt>
      <trkpt lat="44.41929" lon="2.43233">
        <ele>550.3</ele>
        <time>2022-09-18T06:42:52.000Z</time>
      </trkpt>
      <trkpt lat="44.41923" lon="2.43246">
        <ele>551.1</ele>
        <time>2022-09-18T06:42:57.000Z</time>
      </trkpt>
      <trkpt lat="44.41918" lon="2.43258">
        <ele>551.5</ele>
        <time>2022-09-18T06:43:01.000Z</time>
      </trkpt>
      <trkpt lat="44.41913" lon="2.43268">
        <ele>552.2</ele>
        <time>2022-09-18T06:43:05.000Z</time>
      </trkpt>
      <trkpt lat="44.41906" lon="2.43281">
        <ele>553.3</ele>
        <time>2022-09-18T06:43:10.000Z</time>
      </trkpt>
      <trkpt lat="44.41903" lon="2.43293">
        <ele>553.9</ele>
        <time>2022-09-18T06:43:15.000Z</time>
      </trkpt>
      <trkpt lat="44.419" lon="2.43307">
        <ele>555.9</ele>
        <time>2022-09-18T06:43:21.000Z</time>
      </trkpt>
      <trkpt lat="44.41894" lon="2.43318">
        <ele>557.8</ele>
        <time>2022-09-18T06:43:27.000Z</time>
      </trkpt>
      <trkpt lat="44.41887" lon="2.4333">
        <ele>559.3</ele>
        <time>2022-09-18T06:43:33.000Z</time>
      </trkpt>
      <trkpt lat="44.4188" lon="2.43341">
        <ele>561</ele>
        <time>2022-09-18T06:43:39.000Z</time>
      </trkpt>
      <trkpt lat="44.41874" lon="2.43351">
        <ele>562.3</ele>
        <time>2022-09-18T06:43:45.000Z</time>
      </trkpt>
      <trkpt lat="44.41869" lon="2.43364">
        <ele>563.6</ele>
        <time>2022-09-18T06:43:51.000Z</time>
      </trkpt>
      <trkpt lat="44.41864" lon="2.43375">
        <ele>564.4</ele>
        <time>2022-09-18T06:43:56.000Z</time>
      </trkpt>
      <trkpt lat="44.41859" lon="2.43386">
        <ele>565.8</ele>
        <time>2022-09-18T06:44:01.000Z</time>
      </trkpt>
      <trkpt lat="44.41855" lon="2.434">
        <ele>567.5</ele>
        <time>2022-09-18T06:44:07.000Z</time>
      </trkpt>
      <trkpt lat="44.41852" lon="2.43413">
        <ele>569.5</ele>
        <time>2022-09-18T06:44:12.000Z</time>
      </trkpt>
      <trkpt lat="44.41849" lon="2.43425">
        <ele>571.2</ele>
        <time>2022-09-18T06:44:17.000Z</time>
      </trkpt>
      <trkpt lat="44.41846" lon="2.43439">
        <ele>572.8</ele>
        <time>2022-09-18T06:44:23.000Z</time>
      </trkpt>
      <trkpt lat="44.41843" lon="2.43453">
        <ele>575</ele>
        <time>2022-09-18T06:44:29.000Z</time>
      </trkpt>
      <trkpt lat="44.4184" lon="2.43467">
        <ele>576.7</ele>
        <time>2022-09-18T06:44:35.000Z</time>
      </trkpt>
      <trkpt lat="44.41836" lon="2.4348">
        <ele>577</ele>
        <time>2022-09-18T06:44:41.000Z</time>
      </trkpt>
      <trkpt lat="44.41833" lon="2.43493">
        <ele>578.4</ele>
        <time>2022-09-18T06:44:46.000Z</time>
      </trkpt>
      <trkpt lat="44.41831" lon="2.43506">
        <ele>578.5</ele>
        <time>2022-09-18T06:44:51.000Z</time>
      </trkpt>
      <trkpt lat="44.41828" lon="2.43521">
        <ele>579</ele>
        <time>2022-09-18T06:44:56.000Z</time>
      </trkpt>
      <trkpt lat="44.41825" lon="2.43535">
        <ele>579.4</ele>
        <time>2022-09-18T06:45:01.000Z</time>
      </trkpt>
      <trkpt lat="44.41823" lon="2.4355">
        <ele>579.7</ele>
        <time>2022-09-18T06:45:06.000Z</time>
      </trkpt>
      <trkpt lat="44.41821" lon="2.43562">
        <ele>580.9</ele>
        <time>2022-09-18T06:45:10.000Z</time>
      </trkpt>
      <trkpt lat="44.41819" lon="2.43576">
        <ele>582.1</ele>
        <time>2022-09-18T06:45:15.000Z</time>
      </trkpt>
      <trkpt lat="44.41817" lon="2.4359">
        <ele>583.5</ele>
        <time>2022-09-18T06:45:20.000Z</time>
      </trkpt>
      <trkpt lat="44.41814" lon="2.43602">
        <ele>584.6</ele>
        <time>2022-09-18T06:45:25.000Z</time>
      </trkpt>
      <trkpt lat="44.41807" lon="2.43612">
        <ele>586.1</ele>
        <time>2022-09-18T06:45:30.000Z</time>
      </trkpt>
      <trkpt lat="44.41801" lon="2.43622">
        <ele>587</ele>
        <time>2022-09-18T06:45:35.000Z</time>
      </trkpt>
      <trkpt lat="44.41795" lon="2.43634">
        <ele>587.7</ele>
        <time>2022-09-18T06:45:41.000Z</time>
      </trkpt>
      <trkpt lat="44.41789" lon="2.43643">
        <ele>588.9</ele>
        <time>2022-09-18T06:45:46.000Z</time>
      </trkpt>
      <trkpt lat="44.41781" lon="2.43654">
        <ele>589.6</ele>
        <time>2022-09-18T06:45:51.000Z</time>
      </trkpt>
      <trkpt lat="44.41775" lon="2.43665">
        <ele>589.5</ele>
        <time>2022-09-18T06:45:55.000Z</time>
      </trkpt>
      <trkpt lat="44.41768" lon="2.43675">
        <ele>589.6</ele>
        <time>2022-09-18T06:46:00.000Z</time>
      </trkpt>
      <trkpt lat="44.41758" lon="2.43675">
        <ele>587.8</ele>
        <time>2022-09-18T06:46:04.000Z</time>
      </trkpt>
      <trkpt lat="44.41749" lon="2.43673">
        <ele>585.3</ele>
        <time>2022-09-18T06:46:06.000Z</time>
      </trkpt>
      <trkpt lat="44.41736" lon="2.43669">
        <ele>584.2</ele>
        <time>2022-09-18T06:46:09.000Z</time>
      </trkpt>
      <trkpt lat="44.41727" lon="2.43665">
        <ele>582.4</ele>
        <time>2022-09-18T06:46:11.000Z</time>
      </trkpt>
      <trkpt lat="44.41717" lon="2.43662">
        <ele>580</ele>
        <time>2022-09-18T06:46:13.000Z</time>
      </trkpt>
      <trkpt lat="44.41708" lon="2.43657">
        <ele>578.5</ele>
        <time>2022-09-18T06:46:15.000Z</time>
      </trkpt>
      <trkpt lat="44.417" lon="2.43648">
        <ele>576.1</ele>
        <time>2022-09-18T06:46:17.000Z</time>
      </trkpt>
      <trkpt lat="44.4169" lon="2.43641">
        <ele>574.1</ele>
        <time>2022-09-18T06:46:19.000Z</time>
      </trkpt>
      <trkpt lat="44.4168" lon="2.43632">
        <ele>571.6</ele>
        <time>2022-09-18T06:46:21.000Z</time>
      </trkpt>
      <trkpt lat="44.41666" lon="2.43625">
        <ele>570.4</ele>
        <time>2022-09-18T06:46:23.000Z</time>
      </trkpt>
      <trkpt lat="44.41652" lon="2.43618">
        <ele>567.5</ele>
        <time>2022-09-18T06:46:25.000Z</time>
      </trkpt>
      <trkpt lat="44.41642" lon="2.43612">
        <ele>565.6</ele>
        <time>2022-09-18T06:46:27.000Z</time>
      </trkpt>
      <trkpt lat="44.41634" lon="2.43605">
        <ele>563.2</ele>
        <time>2022-09-18T06:46:29.000Z</time>
      </trkpt>
      <trkpt lat="44.41623" lon="2.43592">
        <ele>559.4</ele>
        <time>2022-09-18T06:46:32.000Z</time>
      </trkpt>
      <trkpt lat="44.41616" lon="2.43579">
        <ele>555.5</ele>
        <time>2022-09-18T06:46:34.000Z</time>
      </trkpt>
      <trkpt lat="44.41608" lon="2.43566">
        <ele>553</ele>
        <time>2022-09-18T06:46:36.000Z</time>
      </trkpt>
      <trkpt lat="44.41599" lon="2.43553">
        <ele>549.1</ele>
        <time>2022-09-18T06:46:38.000Z</time>
      </trkpt>
      <trkpt lat="44.41592" lon="2.43545">
        <ele>547.1</ele>
        <time>2022-09-18T06:46:40.000Z</time>
      </trkpt>
      <trkpt lat="44.41583" lon="2.43533">
        <ele>543</ele>
        <time>2022-09-18T06:46:43.000Z</time>
      </trkpt>
      <trkpt lat="44.41575" lon="2.43523">
        <ele>540.3</ele>
        <time>2022-09-18T06:46:45.000Z</time>
      </trkpt>
      <trkpt lat="44.41565" lon="2.43518">
        <ele>537.3</ele>
        <time>2022-09-18T06:46:49.000Z</time>
      </trkpt>
      <trkpt lat="44.41555" lon="2.43512">
        <ele>533.6</ele>
        <time>2022-09-18T06:46:53.000Z</time>
      </trkpt>
      <trkpt lat="44.41543" lon="2.43501">
        <ele>531.5</ele>
        <time>2022-09-18T06:46:56.000Z</time>
      </trkpt>
      <trkpt lat="44.41533" lon="2.43488">
        <ele>529.3</ele>
        <time>2022-09-18T06:46:58.000Z</time>
      </trkpt>
      <trkpt lat="44.41521" lon="2.43474">
        <ele>526.7</ele>
        <time>2022-09-18T06:47:00.000Z</time>
      </trkpt>
      <trkpt lat="44.41508" lon="2.43459">
        <ele>525.2</ele>
        <time>2022-09-18T06:47:02.000Z</time>
      </trkpt>
      <trkpt lat="44.41496" lon="2.43446">
        <ele>522.1</ele>
        <time>2022-09-18T06:47:04.000Z</time>
      </trkpt>
      <trkpt lat="44.41485" lon="2.43438">
        <ele>518.8</ele>
        <time>2022-09-18T06:47:06.000Z</time>
      </trkpt>
      <trkpt lat="44.41473" lon="2.43429">
        <ele>516.8</ele>
        <time>2022-09-18T06:47:08.000Z</time>
      </trkpt>
      <trkpt lat="44.41462" lon="2.43416">
        <ele>514.9</ele>
        <time>2022-09-18T06:47:10.000Z</time>
      </trkpt>
      <trkpt lat="44.4145" lon="2.43404">
        <ele>512.5</ele>
        <time>2022-09-18T06:47:12.000Z</time>
      </trkpt>
      <trkpt lat="44.4144" lon="2.43391">
        <ele>510.5</ele>
        <time>2022-09-18T06:47:14.000Z</time>
      </trkpt>
      <trkpt lat="44.4143" lon="2.43377">
        <ele>506.8</ele>
        <time>2022-09-18T06:47:16.000Z</time>
      </trkpt>
      <trkpt lat="44.41419" lon="2.43371">
        <ele>506</ele>
        <time>2022-09-18T06:47:18.000Z</time>
      </trkpt>
      <trkpt lat="44.41409" lon="2.43374">
        <ele>505.1</ele>
        <time>2022-09-18T06:47:20.000Z</time>
      </trkpt>
      <trkpt lat="44.41397" lon="2.43376">
        <ele>503.6</ele>
        <time>2022-09-18T06:47:23.000Z</time>
      </trkpt>
      <trkpt lat="44.41385" lon="2.43379">
        <ele>502.2</ele>
        <time>2022-09-18T06:47:26.000Z</time>
      </trkpt>
      <trkpt lat="44.41387" lon="2.43365">
        <ele>500.3</ele>
        <time>2022-09-18T06:47:29.000Z</time>
      </trkpt>
      <trkpt lat="44.41396" lon="2.43355">
        <ele>499</ele>
        <time>2022-09-18T06:47:31.000Z</time>
      </trkpt>
      <trkpt lat="44.41407" lon="2.43342">
        <ele>496.2</ele>
        <time>2022-09-18T06:47:33.000Z</time>
      </trkpt>
      <trkpt lat="44.41416" lon="2.43326">
        <ele>494.7</ele>
        <time>2022-09-18T06:47:35.000Z</time>
      </trkpt>
      <trkpt lat="44.41424" lon="2.43309">
        <ele>492.1</ele>
        <time>2022-09-18T06:47:37.000Z</time>
      </trkpt>
      <trkpt lat="44.41434" lon="2.43297">
        <ele>489.5</ele>
        <time>2022-09-18T06:47:39.000Z</time>
      </trkpt>
      <trkpt lat="44.41448" lon="2.43295">
        <ele>488.2</ele>
        <time>2022-09-18T06:47:41.000Z</time>
      </trkpt>
      <trkpt lat="44.41463" lon="2.433">
        <ele>485</ele>
        <time>2022-09-18T06:47:43.000Z</time>
      </trkpt>
      <trkpt lat="44.4148" lon="2.43304">
        <ele>483.1</ele>
        <time>2022-09-18T06:47:45.000Z</time>
      </trkpt>
      <trkpt lat="44.41493" lon="2.43302">
        <ele>481.4</ele>
        <time>2022-09-18T06:47:47.000Z</time>
      </trkpt>
      <trkpt lat="44.41503" lon="2.43295">
        <ele>479.3</ele>
        <time>2022-09-18T06:47:49.000Z</time>
      </trkpt>
      <trkpt lat="44.41506" lon="2.43282">
        <ele>477.8</ele>
        <time>2022-09-18T06:47:51.000Z</time>
      </trkpt>
      <trkpt lat="44.41501" lon="2.4327">
        <ele>476</ele>
        <time>2022-09-18T06:47:53.000Z</time>
      </trkpt>
      <trkpt lat="44.4149" lon="2.4326">
        <ele>474.6</ele>
        <time>2022-09-18T06:47:55.000Z</time>
      </trkpt>
      <trkpt lat="44.4148" lon="2.43251">
        <ele>472.7</ele>
        <time>2022-09-18T06:47:57.000Z</time>
      </trkpt>
      <trkpt lat="44.41478" lon="2.43237">
        <ele>470.6</ele>
        <time>2022-09-18T06:48:00.000Z</time>
      </trkpt>
      <trkpt lat="44.41487" lon="2.43237">
        <ele>470.1</ele>
        <time>2022-09-18T06:48:03.000Z</time>
      </trkpt>
      <trkpt lat="44.41498" lon="2.43242">
        <ele>469.8</ele>
        <time>2022-09-18T06:48:06.000Z</time>
      </trkpt>
      <trkpt lat="44.41508" lon="2.43246">
        <ele>469.8</ele>
        <time>2022-09-18T06:48:09.000Z</time>
      </trkpt>
      <trkpt lat="44.41519" lon="2.43248">
        <ele>470.4</ele>
        <time>2022-09-18T06:48:12.000Z</time>
      </trkpt>
      <trkpt lat="44.4153" lon="2.43249">
        <ele>469.8</ele>
        <time>2022-09-18T06:48:15.000Z</time>
      </trkpt>
      <trkpt lat="44.41544" lon="2.4325">
        <ele>468.9</ele>
        <time>2022-09-18T06:48:18.000Z</time>
      </trkpt>
      <trkpt lat="44.41557" lon="2.43251">
        <ele>466.9</ele>
        <time>2022-09-18T06:48:20.000Z</time>
      </trkpt>
      <trkpt lat="44.41572" lon="2.43249">
        <ele>464.7</ele>
        <time>2022-09-18T06:48:22.000Z</time>
      </trkpt>
      <trkpt lat="44.41586" lon="2.43249">
        <ele>464</ele>
        <time>2022-09-18T06:48:24.000Z</time>
      </trkpt>
      <trkpt lat="44.41595" lon="2.43255">
        <ele>463.5</ele>
        <time>2022-09-18T06:48:26.000Z</time>
      </trkpt>
      <trkpt lat="44.41603" lon="2.43267">
        <ele>461.9</ele>
        <time>2022-09-18T06:48:28.000Z</time>
      </trkpt>
      <trkpt lat="44.41612" lon="2.43275">
        <ele>460.7</ele>
        <time>2022-09-18T06:48:30.000Z</time>
      </trkpt>
      <trkpt lat="44.41622" lon="2.43273">
        <ele>460</ele>
        <time>2022-09-18T06:48:32.000Z</time>
      </trkpt>
      <trkpt lat="44.41631" lon="2.4326">
        <ele>458.1</ele>
        <time>2022-09-18T06:48:34.000Z</time>
      </trkpt>
      <trkpt lat="44.41639" lon="2.43244">
        <ele>456.7</ele>
        <time>2022-09-18T06:48:36.000Z</time>
      </trkpt>
      <trkpt lat="44.41649" lon="2.43227">
        <ele>455.1</ele>
        <time>2022-09-18T06:48:38.000Z</time>
      </trkpt>
      <trkpt lat="44.41659" lon="2.43209">
        <ele>454.1</ele>
        <time>2022-09-18T06:48:40.000Z</time>
      </trkpt>
      <trkpt lat="44.41665" lon="2.43189">
        <ele>452.8</ele>
        <time>2022-09-18T06:48:42.000Z</time>
      </trkpt>
      <trkpt lat="44.41669" lon="2.4317">
        <ele>450.5</ele>
        <time>2022-09-18T06:48:44.000Z</time>
      </trkpt>
      <trkpt lat="44.4167" lon="2.4315">
        <ele>448.6</ele>
        <time>2022-09-18T06:48:46.000Z</time>
      </trkpt>
      <trkpt lat="44.41667" lon="2.43131">
        <ele>445.6</ele>
        <time>2022-09-18T06:48:48.000Z</time>
      </trkpt>
      <trkpt lat="44.41663" lon="2.43113">
        <ele>443.6</ele>
        <time>2022-09-18T06:48:50.000Z</time>
      </trkpt>
      <trkpt lat="44.4166" lon="2.43092">
        <ele>442.2</ele>
        <time>2022-09-18T06:48:52.000Z</time>
      </trkpt>
      <trkpt lat="44.41656" lon="2.43074">
        <ele>440.2</ele>
        <time>2022-09-18T06:48:54.000Z</time>
      </trkpt>
      <trkpt lat="44.41652" lon="2.4306">
        <ele>437.7</ele>
        <time>2022-09-18T06:48:56.000Z</time>
      </trkpt>
      <trkpt lat="44.41653" lon="2.43044">
        <ele>436.1</ele>
        <time>2022-09-18T06:48:59.000Z</time>
      </trkpt>
      <trkpt lat="44.41661" lon="2.43033">
        <ele>434.9</ele>
        <time>2022-09-18T06:49:01.000Z</time>
      </trkpt>
      <trkpt lat="44.4167" lon="2.43019">
        <ele>431.4</ele>
        <time>2022-09-18T06:49:03.000Z</time>
      </trkpt>
      <trkpt lat="44.41677" lon="2.43001">
        <ele>429.2</ele>
        <time>2022-09-18T06:49:05.000Z</time>
      </trkpt>
      <trkpt lat="44.41685" lon="2.42982">
        <ele>427.4</ele>
        <time>2022-09-18T06:49:07.000Z</time>
      </trkpt>
      <trkpt lat="44.4169" lon="2.42963">
        <ele>424.7</ele>
        <time>2022-09-18T06:49:09.000Z</time>
      </trkpt>
      <trkpt lat="44.41693" lon="2.42943">
        <ele>423.6</ele>
        <time>2022-09-18T06:49:11.000Z</time>
      </trkpt>
      <trkpt lat="44.41696" lon="2.42924">
        <ele>422.1</ele>
        <time>2022-09-18T06:49:13.000Z</time>
      </trkpt>
      <trkpt lat="44.41699" lon="2.42904">
        <ele>421.2</ele>
        <time>2022-09-18T06:49:15.000Z</time>
      </trkpt>
      <trkpt lat="44.41701" lon="2.42885">
        <ele>420</ele>
        <time>2022-09-18T06:49:17.000Z</time>
      </trkpt>
      <trkpt lat="44.41703" lon="2.42867">
        <ele>417.8</ele>
        <time>2022-09-18T06:49:19.000Z</time>
      </trkpt>
      <trkpt lat="44.41704" lon="2.4285">
        <ele>417.7</ele>
        <time>2022-09-18T06:49:21.000Z</time>
      </trkpt>
      <trkpt lat="44.41705" lon="2.42834">
        <ele>416.6</ele>
        <time>2022-09-18T06:49:23.000Z</time>
      </trkpt>
      <trkpt lat="44.41706" lon="2.42821">
        <ele>415</ele>
        <time>2022-09-18T06:49:25.000Z</time>
      </trkpt>
      <trkpt lat="44.41708" lon="2.42804">
        <ele>413.6</ele>
        <time>2022-09-18T06:49:28.000Z</time>
      </trkpt>
      <trkpt lat="44.41709" lon="2.42791">
        <ele>412.4</ele>
        <time>2022-09-18T06:49:31.000Z</time>
      </trkpt>
      <trkpt lat="44.41719" lon="2.42786">
        <ele>412.3</ele>
        <time>2022-09-18T06:49:36.000Z</time>
      </trkpt>
      <trkpt lat="44.41729" lon="2.4279">
        <ele>413.7</ele>
        <time>2022-09-18T06:49:41.000Z</time>
      </trkpt>
      <trkpt lat="44.41739" lon="2.42795">
        <ele>414</ele>
        <time>2022-09-18T06:49:46.000Z</time>
      </trkpt>
      <trkpt lat="44.41747" lon="2.42798">
        <ele>414.8</ele>
        <time>2022-09-18T06:49:52.000Z</time>
      </trkpt>
      <trkpt lat="44.41748" lon="2.42798">
        <ele>414.6</ele>
        <time>2022-09-18T06:50:02.000Z</time>
      </trkpt>
      <trkpt lat="44.41756" lon="2.42804">
        <ele>415.4</ele>
        <time>2022-09-18T06:50:06.000Z</time>
      </trkpt>
      <trkpt lat="44.41766" lon="2.42809">
        <ele>416.5</ele>
        <time>2022-09-18T06:50:10.000Z</time>
      </trkpt>
      <trkpt lat="44.41777" lon="2.42812">
        <ele>417.8</ele>
        <time>2022-09-18T06:50:14.000Z</time>
      </trkpt>
      <trkpt lat="44.41788" lon="2.42815">
        <ele>419.2</ele>
        <time>2022-09-18T06:50:18.000Z</time>
      </trkpt>
      <trkpt lat="44.41799" lon="2.42817">
        <ele>419.6</ele>
        <time>2022-09-18T06:50:22.000Z</time>
      </trkpt>
      <trkpt lat="44.4181" lon="2.42816">
        <ele>420</ele>
        <time>2022-09-18T06:50:26.000Z</time>
      </trkpt>
      <trkpt lat="44.41821" lon="2.42815">
        <ele>421</ele>
        <time>2022-09-18T06:50:30.000Z</time>
      </trkpt>
      <trkpt lat="44.41833" lon="2.42813">
        <ele>422</ele>
        <time>2022-09-18T06:50:34.000Z</time>
      </trkpt>
      <trkpt lat="44.41843" lon="2.4281">
        <ele>422.7</ele>
        <time>2022-09-18T06:50:37.000Z</time>
      </trkpt>
      <trkpt lat="44.41852" lon="2.42805">
        <ele>423.2</ele>
        <time>2022-09-18T06:50:40.000Z</time>
      </trkpt>
      <trkpt lat="44.41863" lon="2.42801">
        <ele>424.1</ele>
        <time>2022-09-18T06:50:44.000Z</time>
      </trkpt>
      <trkpt lat="44.41875" lon="2.42796">
        <ele>425.5</ele>
        <time>2022-09-18T06:50:48.000Z</time>
      </trkpt>
      <trkpt lat="44.41886" lon="2.42791">
        <ele>426.1</ele>
        <time>2022-09-18T06:50:52.000Z</time>
      </trkpt>
      <trkpt lat="44.41897" lon="2.42787">
        <ele>426.8</ele>
        <time>2022-09-18T06:50:56.000Z</time>
      </trkpt>
      <trkpt lat="44.41907" lon="2.42782">
        <ele>427.8</ele>
        <time>2022-09-18T06:51:00.000Z</time>
      </trkpt>
      <trkpt lat="44.41917" lon="2.42776">
        <ele>428.4</ele>
        <time>2022-09-18T06:51:04.000Z</time>
      </trkpt>
      <trkpt lat="44.41925" lon="2.42767">
        <ele>429.2</ele>
        <time>2022-09-18T06:51:08.000Z</time>
      </trkpt>
      <trkpt lat="44.4193" lon="2.42754">
        <ele>429.7</ele>
        <time>2022-09-18T06:51:12.000Z</time>
      </trkpt>
      <trkpt lat="44.41936" lon="2.42742">
        <ele>430.7</ele>
        <time>2022-09-18T06:51:16.000Z</time>
      </trkpt>
      <trkpt lat="44.41941" lon="2.42731">
        <ele>431.4</ele>
        <time>2022-09-18T06:51:20.000Z</time>
      </trkpt>
      <trkpt lat="44.41948" lon="2.42721">
        <ele>432.1</ele>
        <time>2022-09-18T06:51:24.000Z</time>
      </trkpt>
      <trkpt lat="44.41956" lon="2.42713">
        <ele>432.6</ele>
        <time>2022-09-18T06:51:28.000Z</time>
      </trkpt>
      <trkpt lat="44.41965" lon="2.42705">
        <ele>433.8</ele>
        <time>2022-09-18T06:51:32.000Z</time>
      </trkpt>
      <trkpt lat="44.41974" lon="2.42697">
        <ele>434.2</ele>
        <time>2022-09-18T06:51:36.000Z</time>
      </trkpt>
      <trkpt lat="44.41982" lon="2.42689">
        <ele>434.7</ele>
        <time>2022-09-18T06:51:39.000Z</time>
      </trkpt>
      <trkpt lat="44.41992" lon="2.4268">
        <ele>434.1</ele>
        <time>2022-09-18T06:51:42.000Z</time>
      </trkpt>
      <trkpt lat="44.42001" lon="2.42673">
        <ele>433.6</ele>
        <time>2022-09-18T06:51:44.000Z</time>
      </trkpt>
      <trkpt lat="44.4201" lon="2.42667">
        <ele>433.2</ele>
        <time>2022-09-18T06:51:46.000Z</time>
      </trkpt>
      <trkpt lat="44.4202" lon="2.42661">
        <ele>433</ele>
        <time>2022-09-18T06:51:48.000Z</time>
      </trkpt>
      <trkpt lat="44.42029" lon="2.42655">
        <ele>432.7</ele>
        <time>2022-09-18T06:51:50.000Z</time>
      </trkpt>
      <trkpt lat="44.42037" lon="2.42648">
        <ele>432.8</ele>
        <time>2022-09-18T06:51:52.000Z</time>
      </trkpt>
      <trkpt lat="44.42046" lon="2.42642">
        <ele>432.6</ele>
        <time>2022-09-18T06:51:54.000Z</time>
      </trkpt>
      <trkpt lat="44.42054" lon="2.42635">
        <ele>432.1</ele>
        <time>2022-09-18T06:51:56.000Z</time>
      </trkpt>
      <trkpt lat="44.42065" lon="2.42624">
        <ele>432.1</ele>
        <time>2022-09-18T06:51:59.000Z</time>
      </trkpt>
      <trkpt lat="44.42074" lon="2.42613">
        <ele>431.2</ele>
        <time>2022-09-18T06:52:02.000Z</time>
      </trkpt>
      <trkpt lat="44.42085" lon="2.42601">
        <ele>430.2</ele>
        <time>2022-09-18T06:52:05.000Z</time>
      </trkpt>
      <trkpt lat="44.42095" lon="2.42589">
        <ele>428.8</ele>
        <time>2022-09-18T06:52:07.000Z</time>
      </trkpt>
      <trkpt lat="44.42104" lon="2.42573">
        <ele>426.6</ele>
        <time>2022-09-18T06:52:09.000Z</time>
      </trkpt>
      <trkpt lat="44.42113" lon="2.42555">
        <ele>425.3</ele>
        <time>2022-09-18T06:52:11.000Z</time>
      </trkpt>
      <trkpt lat="44.42123" lon="2.42537">
        <ele>423.1</ele>
        <time>2022-09-18T06:52:13.000Z</time>
      </trkpt>
      <trkpt lat="44.42132" lon="2.4252">
        <ele>422</ele>
        <time>2022-09-18T06:52:15.000Z</time>
      </trkpt>
      <trkpt lat="44.42143" lon="2.42504">
        <ele>421.1</ele>
        <time>2022-09-18T06:52:17.000Z</time>
      </trkpt>
      <trkpt lat="44.42153" lon="2.42488">
        <ele>419.3</ele>
        <time>2022-09-18T06:52:19.000Z</time>
      </trkpt>
      <trkpt lat="44.42162" lon="2.42475">
        <ele>418</ele>
        <time>2022-09-18T06:52:21.000Z</time>
      </trkpt>
      <trkpt lat="44.42171" lon="2.42461">
        <ele>414.9</ele>
        <time>2022-09-18T06:52:23.000Z</time>
      </trkpt>
      <trkpt lat="44.42178" lon="2.42446">
        <ele>413.3</ele>
        <time>2022-09-18T06:52:25.000Z</time>
      </trkpt>
      <trkpt lat="44.42181" lon="2.4243">
        <ele>411.6</ele>
        <time>2022-09-18T06:52:27.000Z</time>
      </trkpt>
      <trkpt lat="44.42185" lon="2.42415">
        <ele>408.3</ele>
        <time>2022-09-18T06:52:29.000Z</time>
      </trkpt>
      <trkpt lat="44.42192" lon="2.42404">
        <ele>406.1</ele>
        <time>2022-09-18T06:52:31.000Z</time>
      </trkpt>
      <trkpt lat="44.422" lon="2.42396">
        <ele>405.1</ele>
        <time>2022-09-18T06:52:33.000Z</time>
      </trkpt>
      <trkpt lat="44.42199" lon="2.42383">
        <ele>403.8</ele>
        <time>2022-09-18T06:52:35.000Z</time>
      </trkpt>
      <trkpt lat="44.4219" lon="2.42369">
        <ele>402.4</ele>
        <time>2022-09-18T06:52:37.000Z</time>
      </trkpt>
      <trkpt lat="44.42184" lon="2.42352">
        <ele>400.5</ele>
        <time>2022-09-18T06:52:39.000Z</time>
      </trkpt>
      <trkpt lat="44.42183" lon="2.42333">
        <ele>399.6</ele>
        <time>2022-09-18T06:52:41.000Z</time>
      </trkpt>
      <trkpt lat="44.42179" lon="2.42314">
        <ele>398.6</ele>
        <time>2022-09-18T06:52:43.000Z</time>
      </trkpt>
      <trkpt lat="44.42175" lon="2.42295">
        <ele>398.2</ele>
        <time>2022-09-18T06:52:45.000Z</time>
      </trkpt>
      <trkpt lat="44.42174" lon="2.42274">
        <ele>396.9</ele>
        <time>2022-09-18T06:52:47.000Z</time>
      </trkpt>
      <trkpt lat="44.42177" lon="2.42253">
        <ele>395.6</ele>
        <time>2022-09-18T06:52:49.000Z</time>
      </trkpt>
      <trkpt lat="44.4218" lon="2.42235">
        <ele>394.7</ele>
        <time>2022-09-18T06:52:51.000Z</time>
      </trkpt>
      <trkpt lat="44.42183" lon="2.42218">
        <ele>393.3</ele>
        <time>2022-09-18T06:52:53.000Z</time>
      </trkpt>
      <trkpt lat="44.42185" lon="2.42202">
        <ele>393.2</ele>
        <time>2022-09-18T06:52:55.000Z</time>
      </trkpt>
      <trkpt lat="44.42188" lon="2.42186">
        <ele>392.8</ele>
        <time>2022-09-18T06:52:57.000Z</time>
      </trkpt>
      <trkpt lat="44.4219" lon="2.42169">
        <ele>391.4</ele>
        <time>2022-09-18T06:52:59.000Z</time>
      </trkpt>
      <trkpt lat="44.42194" lon="2.4215">
        <ele>390.2</ele>
        <time>2022-09-18T06:53:01.000Z</time>
      </trkpt>
      <trkpt lat="44.422" lon="2.42129">
        <ele>388.8</ele>
        <time>2022-09-18T06:53:03.000Z</time>
      </trkpt>
      <trkpt lat="44.42207" lon="2.42108">
        <ele>387.5</ele>
        <time>2022-09-18T06:53:05.000Z</time>
      </trkpt>
      <trkpt lat="44.42212" lon="2.42087">
        <ele>386.2</ele>
        <time>2022-09-18T06:53:07.000Z</time>
      </trkpt>
      <trkpt lat="44.42215" lon="2.42065">
        <ele>385.3</ele>
        <time>2022-09-18T06:53:09.000Z</time>
      </trkpt>
      <trkpt lat="44.42218" lon="2.42043">
        <ele>384.9</ele>
        <time>2022-09-18T06:53:11.000Z</time>
      </trkpt>
      <trkpt lat="44.4222" lon="2.4202">
        <ele>383.1</ele>
        <time>2022-09-18T06:53:13.000Z</time>
      </trkpt>
      <trkpt lat="44.42222" lon="2.41997">
        <ele>382.2</ele>
        <time>2022-09-18T06:53:15.000Z</time>
      </trkpt>
      <trkpt lat="44.42223" lon="2.41974">
        <ele>381.3</ele>
        <time>2022-09-18T06:53:17.000Z</time>
      </trkpt>
      <trkpt lat="44.42225" lon="2.41953">
        <ele>380.1</ele>
        <time>2022-09-18T06:53:19.000Z</time>
      </trkpt>
      <trkpt lat="44.42228" lon="2.41934">
        <ele>379.6</ele>
        <time>2022-09-18T06:53:21.000Z</time>
      </trkpt>
      <trkpt lat="44.42235" lon="2.41915">
        <ele>378.2</ele>
        <time>2022-09-18T06:53:23.000Z</time>
      </trkpt>
      <trkpt lat="44.42243" lon="2.41896">
        <ele>377.7</ele>
        <time>2022-09-18T06:53:25.000Z</time>
      </trkpt>
      <trkpt lat="44.42252" lon="2.41877">
        <ele>376.5</ele>
        <time>2022-09-18T06:53:27.000Z</time>
      </trkpt>
      <trkpt lat="44.42263" lon="2.41859">
        <ele>375.2</ele>
        <time>2022-09-18T06:53:29.000Z</time>
      </trkpt>
      <trkpt lat="44.42274" lon="2.41842">
        <ele>373</ele>
        <time>2022-09-18T06:53:31.000Z</time>
      </trkpt>
      <trkpt lat="44.42287" lon="2.41826">
        <ele>373.1</ele>
        <time>2022-09-18T06:53:33.000Z</time>
      </trkpt>
      <trkpt lat="44.423" lon="2.41812">
        <ele>372.3</ele>
        <time>2022-09-18T06:53:35.000Z</time>
      </trkpt>
      <trkpt lat="44.42313" lon="2.41797">
        <ele>371.3</ele>
        <time>2022-09-18T06:53:37.000Z</time>
      </trkpt>
      <trkpt lat="44.42324" lon="2.41784">
        <ele>370.1</ele>
        <time>2022-09-18T06:53:39.000Z</time>
      </trkpt>
      <trkpt lat="44.42331" lon="2.41774">
        <ele>370.3</ele>
        <time>2022-09-18T06:53:41.000Z</time>
      </trkpt>
      <trkpt lat="44.42331" lon="2.41761">
        <ele>369.8</ele>
        <time>2022-09-18T06:53:44.000Z</time>
      </trkpt>
      <trkpt lat="44.42322" lon="2.4175">
        <ele>370.4</ele>
        <time>2022-09-18T06:53:47.000Z</time>
      </trkpt>
      <trkpt lat="44.42311" lon="2.4174">
        <ele>370.8</ele>
        <time>2022-09-18T06:53:50.000Z</time>
      </trkpt>
      <trkpt lat="44.42301" lon="2.41729">
        <ele>371.3</ele>
        <time>2022-09-18T06:53:53.000Z</time>
      </trkpt>
      <trkpt lat="44.42294" lon="2.4172">
        <ele>371.5</ele>
        <time>2022-09-18T06:53:55.000Z</time>
      </trkpt>
      <trkpt lat="44.42286" lon="2.4171">
        <ele>371.2</ele>
        <time>2022-09-18T06:53:57.000Z</time>
      </trkpt>
      <trkpt lat="44.42278" lon="2.417">
        <ele>370.8</ele>
        <time>2022-09-18T06:53:59.000Z</time>
      </trkpt>
      <trkpt lat="44.4227" lon="2.41691">
        <ele>370.4</ele>
        <time>2022-09-18T06:54:01.000Z</time>
      </trkpt>
      <trkpt lat="44.42261" lon="2.41683">
        <ele>370.4</ele>
        <time>2022-09-18T06:54:03.000Z</time>
      </trkpt>
      <trkpt lat="44.42251" lon="2.41676">
        <ele>370.7</ele>
        <time>2022-09-18T06:54:05.000Z</time>
      </trkpt>
      <trkpt lat="44.42241" lon="2.41666">
        <ele>370.2</ele>
        <time>2022-09-18T06:54:07.000Z</time>
      </trkpt>
      <trkpt lat="44.42232" lon="2.41655">
        <ele>370</ele>
        <time>2022-09-18T06:54:09.000Z</time>
      </trkpt>
      <trkpt lat="44.42223" lon="2.41644">
        <ele>369.8</ele>
        <time>2022-09-18T06:54:11.000Z</time>
      </trkpt>
      <trkpt lat="44.42212" lon="2.41634">
        <ele>369.3</ele>
        <time>2022-09-18T06:54:13.000Z</time>
      </trkpt>
      <trkpt lat="44.42201" lon="2.41624">
        <ele>369.4</ele>
        <time>2022-09-18T06:54:15.000Z</time>
      </trkpt>
      <trkpt lat="44.4219" lon="2.41616">
        <ele>368.7</ele>
        <time>2022-09-18T06:54:17.000Z</time>
      </trkpt>
      <trkpt lat="44.42177" lon="2.4161">
        <ele>367.8</ele>
        <time>2022-09-18T06:54:19.000Z</time>
      </trkpt>
      <trkpt lat="44.42163" lon="2.41605">
        <ele>366.1</ele>
        <time>2022-09-18T06:54:21.000Z</time>
      </trkpt>
      <trkpt lat="44.42151" lon="2.41596">
        <ele>365.4</ele>
        <time>2022-09-18T06:54:23.000Z</time>
      </trkpt>
      <trkpt lat="44.42141" lon="2.41583">
        <ele>364.7</ele>
        <time>2022-09-18T06:54:25.000Z</time>
      </trkpt>
      <trkpt lat="44.42129" lon="2.41575">
        <ele>363.9</ele>
        <time>2022-09-18T06:54:27.000Z</time>
      </trkpt>
      <trkpt lat="44.42116" lon="2.41572">
        <ele>362.8</ele>
        <time>2022-09-18T06:54:29.000Z</time>
      </trkpt>
      <trkpt lat="44.42102" lon="2.41571">
        <ele>361.5</ele>
        <time>2022-09-18T06:54:31.000Z</time>
      </trkpt>
      <trkpt lat="44.42088" lon="2.41568">
        <ele>359.8</ele>
        <time>2022-09-18T06:54:33.000Z</time>
      </trkpt>
      <trkpt lat="44.42073" lon="2.41559">
        <ele>358.8</ele>
        <time>2022-09-18T06:54:35.000Z</time>
      </trkpt>
      <trkpt lat="44.42057" lon="2.41548">
        <ele>357.6</ele>
        <time>2022-09-18T06:54:37.000Z</time>
      </trkpt>
      <trkpt lat="44.42043" lon="2.41537">
        <ele>356.4</ele>
        <time>2022-09-18T06:54:39.000Z</time>
      </trkpt>
      <trkpt lat="44.42034" lon="2.41527">
        <ele>355</ele>
        <time>2022-09-18T06:54:41.000Z</time>
      </trkpt>
      <trkpt lat="44.42031" lon="2.41515">
        <ele>354.4</ele>
        <time>2022-09-18T06:54:43.000Z</time>
      </trkpt>
      <trkpt lat="44.42037" lon="2.41503">
        <ele>354.8</ele>
        <time>2022-09-18T06:54:45.000Z</time>
      </trkpt>
      <trkpt lat="44.42046" lon="2.41494">
        <ele>354.8</ele>
        <time>2022-09-18T06:54:47.000Z</time>
      </trkpt>
      <trkpt lat="44.42054" lon="2.41483">
        <ele>354.8</ele>
        <time>2022-09-18T06:54:49.000Z</time>
      </trkpt>
      <trkpt lat="44.42061" lon="2.41472">
        <ele>355.1</ele>
        <time>2022-09-18T06:54:51.000Z</time>
      </trkpt>
      <trkpt lat="44.42068" lon="2.41461">
        <ele>355.3</ele>
        <time>2022-09-18T06:54:53.000Z</time>
      </trkpt>
      <trkpt lat="44.42076" lon="2.4145">
        <ele>355.6</ele>
        <time>2022-09-18T06:54:55.000Z</time>
      </trkpt>
      <trkpt lat="44.42084" lon="2.4144">
        <ele>355.7</ele>
        <time>2022-09-18T06:54:57.000Z</time>
      </trkpt>
      <trkpt lat="44.42092" lon="2.4143">
        <ele>355.3</ele>
        <time>2022-09-18T06:54:59.000Z</time>
      </trkpt>
      <trkpt lat="44.42101" lon="2.4142">
        <ele>355.6</ele>
        <time>2022-09-18T06:55:01.000Z</time>
      </trkpt>
      <trkpt lat="44.42109" lon="2.4141">
        <ele>355.8</ele>
        <time>2022-09-18T06:55:03.000Z</time>
      </trkpt>
      <trkpt lat="44.42117" lon="2.414">
        <ele>355.6</ele>
        <time>2022-09-18T06:55:05.000Z</time>
      </trkpt>
      <trkpt lat="44.42125" lon="2.4139">
        <ele>355.4</ele>
        <time>2022-09-18T06:55:07.000Z</time>
      </trkpt>
      <trkpt lat="44.42134" lon="2.4138">
        <ele>355.3</ele>
        <time>2022-09-18T06:55:09.000Z</time>
      </trkpt>
      <trkpt lat="44.42143" lon="2.41369">
        <ele>354.9</ele>
        <time>2022-09-18T06:55:11.000Z</time>
      </trkpt>
      <trkpt lat="44.42153" lon="2.41358">
        <ele>354.4</ele>
        <time>2022-09-18T06:55:13.000Z</time>
      </trkpt>
      <trkpt lat="44.42162" lon="2.41347">
        <ele>354</ele>
        <time>2022-09-18T06:55:15.000Z</time>
      </trkpt>
      <trkpt lat="44.42172" lon="2.41337">
        <ele>353.8</ele>
        <time>2022-09-18T06:55:17.000Z</time>
      </trkpt>
      <trkpt lat="44.42182" lon="2.41326">
        <ele>353.6</ele>
        <time>2022-09-18T06:55:19.000Z</time>
      </trkpt>
      <trkpt lat="44.42192" lon="2.41317">
        <ele>353.2</ele>
        <time>2022-09-18T06:55:21.000Z</time>
      </trkpt>
      <trkpt lat="44.42204" lon="2.41309">
        <ele>352.4</ele>
        <time>2022-09-18T06:55:23.000Z</time>
      </trkpt>
      <trkpt lat="44.42217" lon="2.41305">
        <ele>352.3</ele>
        <time>2022-09-18T06:55:25.000Z</time>
      </trkpt>
      <trkpt lat="44.4223" lon="2.41303">
        <ele>351.9</ele>
        <time>2022-09-18T06:55:27.000Z</time>
      </trkpt>
      <trkpt lat="44.42244" lon="2.413">
        <ele>351.3</ele>
        <time>2022-09-18T06:55:29.000Z</time>
      </trkpt>
      <trkpt lat="44.42257" lon="2.41295">
        <ele>351.5</ele>
        <time>2022-09-18T06:55:31.000Z</time>
      </trkpt>
      <trkpt lat="44.4227" lon="2.41289">
        <ele>351.2</ele>
        <time>2022-09-18T06:55:33.000Z</time>
      </trkpt>
      <trkpt lat="44.42282" lon="2.41282">
        <ele>351</ele>
        <time>2022-09-18T06:55:35.000Z</time>
      </trkpt>
      <trkpt lat="44.42294" lon="2.41275">
        <ele>350.6</ele>
        <time>2022-09-18T06:55:37.000Z</time>
      </trkpt>
      <trkpt lat="44.42307" lon="2.41269">
        <ele>350.1</ele>
        <time>2022-09-18T06:55:39.000Z</time>
      </trkpt>
      <trkpt lat="44.4232" lon="2.41266">
        <ele>349.7</ele>
        <time>2022-09-18T06:55:41.000Z</time>
      </trkpt>
      <trkpt lat="44.42334" lon="2.41266">
        <ele>349.9</ele>
        <time>2022-09-18T06:55:43.000Z</time>
      </trkpt>
      <trkpt lat="44.42348" lon="2.41269">
        <ele>349.7</ele>
        <time>2022-09-18T06:55:45.000Z</time>
      </trkpt>
      <trkpt lat="44.42361" lon="2.41273">
        <ele>349.3</ele>
        <time>2022-09-18T06:55:47.000Z</time>
      </trkpt>
      <trkpt lat="44.42373" lon="2.41277">
        <ele>349.2</ele>
        <time>2022-09-18T06:55:49.000Z</time>
      </trkpt>
      <trkpt lat="44.42384" lon="2.41281">
        <ele>349.5</ele>
        <time>2022-09-18T06:55:51.000Z</time>
      </trkpt>
      <trkpt lat="44.42394" lon="2.41284">
        <ele>349.5</ele>
        <time>2022-09-18T06:55:53.000Z</time>
      </trkpt>
      <trkpt lat="44.42405" lon="2.41285">
        <ele>349.4</ele>
        <time>2022-09-18T06:55:55.000Z</time>
      </trkpt>
      <trkpt lat="44.42416" lon="2.41286">
        <ele>349</ele>
        <time>2022-09-18T06:55:57.000Z</time>
      </trkpt>
      <trkpt lat="44.42427" lon="2.41287">
        <ele>348.7</ele>
        <time>2022-09-18T06:55:59.000Z</time>
      </trkpt>
      <trkpt lat="44.42439" lon="2.41291">
        <ele>348.6</ele>
        <time>2022-09-18T06:56:01.000Z</time>
      </trkpt>
      <trkpt lat="44.4245" lon="2.41294">
        <ele>348.6</ele>
        <time>2022-09-18T06:56:03.000Z</time>
      </trkpt>
      <trkpt lat="44.42461" lon="2.41296">
        <ele>348.8</ele>
        <time>2022-09-18T06:56:05.000Z</time>
      </trkpt>
      <trkpt lat="44.42472" lon="2.41298">
        <ele>348.7</ele>
        <time>2022-09-18T06:56:07.000Z</time>
      </trkpt>
      <trkpt lat="44.42484" lon="2.413">
        <ele>348.6</ele>
        <time>2022-09-18T06:56:09.000Z</time>
      </trkpt>
      <trkpt lat="44.42495" lon="2.41301">
        <ele>347.9</ele>
        <time>2022-09-18T06:56:11.000Z</time>
      </trkpt>
      <trkpt lat="44.42506" lon="2.41301">
        <ele>347.9</ele>
        <time>2022-09-18T06:56:13.000Z</time>
      </trkpt>
      <trkpt lat="44.42518" lon="2.41302">
        <ele>348</ele>
        <time>2022-09-18T06:56:15.000Z</time>
      </trkpt>
      <trkpt lat="44.42529" lon="2.41301">
        <ele>348.3</ele>
        <time>2022-09-18T06:56:17.000Z</time>
      </trkpt>
      <trkpt lat="44.4254" lon="2.41301">
        <ele>348</ele>
        <time>2022-09-18T06:56:19.000Z</time>
      </trkpt>
      <trkpt lat="44.42551" lon="2.413">
        <ele>347.7</ele>
        <time>2022-09-18T06:56:21.000Z</time>
      </trkpt>
      <trkpt lat="44.42561" lon="2.413">
        <ele>347.8</ele>
        <time>2022-09-18T06:56:23.000Z</time>
      </trkpt>
      <trkpt lat="44.42571" lon="2.41301">
        <ele>347.3</ele>
        <time>2022-09-18T06:56:25.000Z</time>
      </trkpt>
      <trkpt lat="44.4258" lon="2.41304">
        <ele>347.3</ele>
        <time>2022-09-18T06:56:27.000Z</time>
      </trkpt>
      <trkpt lat="44.4259" lon="2.41308">
        <ele>347.7</ele>
        <time>2022-09-18T06:56:29.000Z</time>
      </trkpt>
      <trkpt lat="44.426" lon="2.41312">
        <ele>347.8</ele>
        <time>2022-09-18T06:56:31.000Z</time>
      </trkpt>
      <trkpt lat="44.4261" lon="2.41318">
        <ele>347.6</ele>
        <time>2022-09-18T06:56:33.000Z</time>
      </trkpt>
      <trkpt lat="44.4262" lon="2.41322">
        <ele>347.3</ele>
        <time>2022-09-18T06:56:35.000Z</time>
      </trkpt>
      <trkpt lat="44.42631" lon="2.41322">
        <ele>347.1</ele>
        <time>2022-09-18T06:56:37.000Z</time>
      </trkpt>
      <trkpt lat="44.42641" lon="2.41315">
        <ele>347.7</ele>
        <time>2022-09-18T06:56:39.000Z</time>
      </trkpt>
      <trkpt lat="44.42649" lon="2.41304">
        <ele>347.8</ele>
        <time>2022-09-18T06:56:41.000Z</time>
      </trkpt>
      <trkpt lat="44.42653" lon="2.41292">
        <ele>347.6</ele>
        <time>2022-09-18T06:56:43.000Z</time>
      </trkpt>
      <trkpt lat="44.42656" lon="2.41279">
        <ele>347.7</ele>
        <time>2022-09-18T06:56:45.000Z</time>
      </trkpt>
      <trkpt lat="44.42659" lon="2.41266">
        <ele>348.1</ele>
        <time>2022-09-18T06:56:47.000Z</time>
      </trkpt>
      <trkpt lat="44.42662" lon="2.41253">
        <ele>348.4</ele>
        <time>2022-09-18T06:56:49.000Z</time>
      </trkpt>
      <trkpt lat="44.42665" lon="2.41241">
        <ele>348.7</ele>
        <time>2022-09-18T06:56:51.000Z</time>
      </trkpt>
      <trkpt lat="44.42668" lon="2.41228">
        <ele>348.5</ele>
        <time>2022-09-18T06:56:53.000Z</time>
      </trkpt>
      <trkpt lat="44.42672" lon="2.41216">
        <ele>348.5</ele>
        <time>2022-09-18T06:56:55.000Z</time>
      </trkpt>
      <trkpt lat="44.42675" lon="2.41202">
        <ele>348.7</ele>
        <time>2022-09-18T06:56:57.000Z</time>
      </trkpt>
      <trkpt lat="44.42678" lon="2.4119">
        <ele>348.8</ele>
        <time>2022-09-18T06:56:59.000Z</time>
      </trkpt>
      <trkpt lat="44.42682" lon="2.41177">
        <ele>348.9</ele>
        <time>2022-09-18T06:57:01.000Z</time>
      </trkpt>
      <trkpt lat="44.42685" lon="2.41165">
        <ele>349.2</ele>
        <time>2022-09-18T06:57:03.000Z</time>
      </trkpt>
      <trkpt lat="44.42689" lon="2.41148">
        <ele>349.9</ele>
        <time>2022-09-18T06:57:06.000Z</time>
      </trkpt>
      <trkpt lat="44.42694" lon="2.41131">
        <ele>350.3</ele>
        <time>2022-09-18T06:57:09.000Z</time>
      </trkpt>
      <trkpt lat="44.42697" lon="2.41116">
        <ele>351.1</ele>
        <time>2022-09-18T06:57:12.000Z</time>
      </trkpt>
      <trkpt lat="44.42701" lon="2.411">
        <ele>351.5</ele>
        <time>2022-09-18T06:57:15.000Z</time>
      </trkpt>
      <trkpt lat="44.42705" lon="2.41084">
        <ele>352.3</ele>
        <time>2022-09-18T06:57:18.000Z</time>
      </trkpt>
      <trkpt lat="44.42712" lon="2.41072">
        <ele>352</ele>
        <time>2022-09-18T06:57:21.000Z</time>
      </trkpt>
      <trkpt lat="44.42723" lon="2.41071">
        <ele>352.5</ele>
        <time>2022-09-18T06:57:24.000Z</time>
      </trkpt>
      <trkpt lat="44.42735" lon="2.41077">
        <ele>352.6</ele>
        <time>2022-09-18T06:57:27.000Z</time>
      </trkpt>
      <trkpt lat="44.42746" lon="2.41084">
        <ele>352.4</ele>
        <time>2022-09-18T06:57:30.000Z</time>
      </trkpt>
      <trkpt lat="44.42758" lon="2.4109">
        <ele>352.8</ele>
        <time>2022-09-18T06:57:33.000Z</time>
      </trkpt>
      <trkpt lat="44.4277" lon="2.41093">
        <ele>352.7</ele>
        <time>2022-09-18T06:57:36.000Z</time>
      </trkpt>
      <trkpt lat="44.4278" lon="2.41081">
        <ele>352.8</ele>
        <time>2022-09-18T06:57:39.000Z</time>
      </trkpt>
      <trkpt lat="44.42785" lon="2.4107">
        <ele>352.9</ele>
        <time>2022-09-18T06:57:41.000Z</time>
      </trkpt>
      <trkpt lat="44.4279" lon="2.41054">
        <ele>353.6</ele>
        <time>2022-09-18T06:57:44.000Z</time>
      </trkpt>
      <trkpt lat="44.42795" lon="2.41038">
        <ele>353.1</ele>
        <time>2022-09-18T06:57:47.000Z</time>
      </trkpt>
      <trkpt lat="44.42799" lon="2.41022">
        <ele>353.2</ele>
        <time>2022-09-18T06:57:50.000Z</time>
      </trkpt>
      <trkpt lat="44.42803" lon="2.41006">
        <ele>353.9</ele>
        <time>2022-09-18T06:57:53.000Z</time>
      </trkpt>
      <trkpt lat="44.42809" lon="2.40991">
        <ele>354.1</ele>
        <time>2022-09-18T06:57:56.000Z</time>
      </trkpt>
      <trkpt lat="44.42817" lon="2.4098">
        <ele>354.9</ele>
        <time>2022-09-18T06:57:59.000Z</time>
      </trkpt>
      <trkpt lat="44.42828" lon="2.40975">
        <ele>355.2</ele>
        <time>2022-09-18T06:58:02.000Z</time>
      </trkpt>
      <trkpt lat="44.4284" lon="2.40971">
        <ele>355.4</ele>
        <time>2022-09-18T06:58:05.000Z</time>
      </trkpt>
      <trkpt lat="44.42849" lon="2.40969">
        <ele>355.3</ele>
        <time>2022-09-18T06:58:07.000Z</time>
      </trkpt>
      <trkpt lat="44.42858" lon="2.40968">
        <ele>354.8</ele>
        <time>2022-09-18T06:58:09.000Z</time>
      </trkpt>
      <trkpt lat="44.42867" lon="2.40967">
        <ele>355</ele>
        <time>2022-09-18T06:58:11.000Z</time>
      </trkpt>
      <trkpt lat="44.4288" lon="2.40964">
        <ele>355.4</ele>
        <time>2022-09-18T06:58:14.000Z</time>
      </trkpt>
      <trkpt lat="44.4289" lon="2.40952">
        <ele>355.8</ele>
        <time>2022-09-18T06:58:17.000Z</time>
      </trkpt>
      <trkpt lat="44.42896" lon="2.40938">
        <ele>356.5</ele>
        <time>2022-09-18T06:58:20.000Z</time>
      </trkpt>
      <trkpt lat="44.429" lon="2.40925">
        <ele>357.5</ele>
        <time>2022-09-18T06:58:23.000Z</time>
      </trkpt>
      <trkpt lat="44.42905" lon="2.40912">
        <ele>358.5</ele>
        <time>2022-09-18T06:58:26.000Z</time>
      </trkpt>
      <trkpt lat="44.4291" lon="2.409">
        <ele>359.7</ele>
        <time>2022-09-18T06:58:29.000Z</time>
      </trkpt>
      <trkpt lat="44.42917" lon="2.4089">
        <ele>361.3</ele>
        <time>2022-09-18T06:58:32.000Z</time>
      </trkpt>
      <trkpt lat="44.42924" lon="2.40882">
        <ele>362.7</ele>
        <time>2022-09-18T06:58:35.000Z</time>
      </trkpt>
      <trkpt lat="44.42931" lon="2.40873">
        <ele>364.3</ele>
        <time>2022-09-18T06:58:38.000Z</time>
      </trkpt>
      <trkpt lat="44.4294" lon="2.40862">
        <ele>365.8</ele>
        <time>2022-09-18T06:58:42.000Z</time>
      </trkpt>
      <trkpt lat="44.42949" lon="2.40853">
        <ele>367.8</ele>
        <time>2022-09-18T06:58:46.000Z</time>
      </trkpt>
      <trkpt lat="44.42957" lon="2.40846">
        <ele>369.5</ele>
        <time>2022-09-18T06:58:49.000Z</time>
      </trkpt>
      <trkpt lat="44.42967" lon="2.40838">
        <ele>371.5</ele>
        <time>2022-09-18T06:58:53.000Z</time>
      </trkpt>
      <trkpt lat="44.42977" lon="2.40831">
        <ele>373.3</ele>
        <time>2022-09-18T06:58:57.000Z</time>
      </trkpt>
      <trkpt lat="44.42988" lon="2.40823">
        <ele>375.1</ele>
        <time>2022-09-18T06:59:01.000Z</time>
      </trkpt>
      <trkpt lat="44.42998" lon="2.40819">
        <ele>376.1</ele>
        <time>2022-09-18T06:59:05.000Z</time>
      </trkpt>
      <trkpt lat="44.43008" lon="2.40814">
        <ele>378.7</ele>
        <time>2022-09-18T06:59:09.000Z</time>
      </trkpt>
      <trkpt lat="44.43017" lon="2.40807">
        <ele>379.9</ele>
        <time>2022-09-18T06:59:13.000Z</time>
      </trkpt>
      <trkpt lat="44.43025" lon="2.40798">
        <ele>381.5</ele>
        <time>2022-09-18T06:59:17.000Z</time>
      </trkpt>
      <trkpt lat="44.43033" lon="2.40788">
        <ele>383.1</ele>
        <time>2022-09-18T06:59:21.000Z</time>
      </trkpt>
      <trkpt lat="44.43041" lon="2.40778">
        <ele>385</ele>
        <time>2022-09-18T06:59:25.000Z</time>
      </trkpt>
      <trkpt lat="44.4305" lon="2.40771">
        <ele>387.1</ele>
        <time>2022-09-18T06:59:29.000Z</time>
      </trkpt>
      <trkpt lat="44.43057" lon="2.4076">
        <ele>389.2</ele>
        <time>2022-09-18T06:59:33.000Z</time>
      </trkpt>
      <trkpt lat="44.43065" lon="2.40749">
        <ele>390.8</ele>
        <time>2022-09-18T06:59:37.000Z</time>
      </trkpt>
      <trkpt lat="44.43073" lon="2.40738">
        <ele>392.4</ele>
        <time>2022-09-18T06:59:41.000Z</time>
      </trkpt>
      <trkpt lat="44.43081" lon="2.40731">
        <ele>394</ele>
        <time>2022-09-18T06:59:44.000Z</time>
      </trkpt>
      <trkpt lat="44.43089" lon="2.40725">
        <ele>394.9</ele>
        <time>2022-09-18T06:59:47.000Z</time>
      </trkpt>
      <trkpt lat="44.43097" lon="2.40719">
        <ele>395.9</ele>
        <time>2022-09-18T06:59:50.000Z</time>
      </trkpt>
      <trkpt lat="44.43105" lon="2.40713">
        <ele>396.7</ele>
        <time>2022-09-18T06:59:53.000Z</time>
      </trkpt>
      <trkpt lat="44.43114" lon="2.40703">
        <ele>397.9</ele>
        <time>2022-09-18T06:59:57.000Z</time>
      </trkpt>
      <trkpt lat="44.43124" lon="2.40693">
        <ele>399.2</ele>
        <time>2022-09-18T07:00:01.000Z</time>
      </trkpt>
      <trkpt lat="44.43131" lon="2.40685">
        <ele>400.4</ele>
        <time>2022-09-18T07:00:04.000Z</time>
      </trkpt>
      <trkpt lat="44.43139" lon="2.40678">
        <ele>401.4</ele>
        <time>2022-09-18T07:00:07.000Z</time>
      </trkpt>
      <trkpt lat="44.43146" lon="2.40671">
        <ele>402.6</ele>
        <time>2022-09-18T07:00:10.000Z</time>
      </trkpt>
      <trkpt lat="44.43153" lon="2.40662">
        <ele>404</ele>
        <time>2022-09-18T07:00:13.000Z</time>
      </trkpt>
      <trkpt lat="44.43159" lon="2.40653">
        <ele>404.8</ele>
        <time>2022-09-18T07:00:16.000Z</time>
      </trkpt>
      <trkpt lat="44.43166" lon="2.40644">
        <ele>405.8</ele>
        <time>2022-09-18T07:00:19.000Z</time>
      </trkpt>
      <trkpt lat="44.43172" lon="2.40635">
        <ele>406.5</ele>
        <time>2022-09-18T07:00:22.000Z</time>
      </trkpt>
      <trkpt lat="44.4318" lon="2.40623">
        <ele>408.1</ele>
        <time>2022-09-18T07:00:26.000Z</time>
      </trkpt>
      <trkpt lat="44.43188" lon="2.4061">
        <ele>409.4</ele>
        <time>2022-09-18T07:00:30.000Z</time>
      </trkpt>
      <trkpt lat="44.43194" lon="2.40601">
        <ele>410.4</ele>
        <time>2022-09-18T07:00:33.000Z</time>
      </trkpt>
      <trkpt lat="44.43201" lon="2.40593">
        <ele>411.2</ele>
        <time>2022-09-18T07:00:36.000Z</time>
      </trkpt>
      <trkpt lat="44.43208" lon="2.40585">
        <ele>412.2</ele>
        <time>2022-09-18T07:00:39.000Z</time>
      </trkpt>
      <trkpt lat="44.43216" lon="2.40573">
        <ele>413.8</ele>
        <time>2022-09-18T07:00:43.000Z</time>
      </trkpt>
      <trkpt lat="44.43221" lon="2.40558">
        <ele>415</ele>
        <time>2022-09-18T07:00:47.000Z</time>
      </trkpt>
      <trkpt lat="44.43222" lon="2.40545">
        <ele>416.3</ele>
        <time>2022-09-18T07:00:50.000Z</time>
      </trkpt>
      <trkpt lat="44.43222" lon="2.40531">
        <ele>416.9</ele>
        <time>2022-09-18T07:00:53.000Z</time>
      </trkpt>
      <trkpt lat="44.43223" lon="2.40517">
        <ele>418</ele>
        <time>2022-09-18T07:00:56.000Z</time>
      </trkpt>
      <trkpt lat="44.43223" lon="2.40503">
        <ele>419.2</ele>
        <time>2022-09-18T07:00:59.000Z</time>
      </trkpt>
      <trkpt lat="44.43224" lon="2.40488">
        <ele>420.8</ele>
        <time>2022-09-18T07:01:02.000Z</time>
      </trkpt>
      <trkpt lat="44.43224" lon="2.40473">
        <ele>421.4</ele>
        <time>2022-09-18T07:01:05.000Z</time>
      </trkpt>
      <trkpt lat="44.43222" lon="2.40458">
        <ele>422.6</ele>
        <time>2022-09-18T07:01:08.000Z</time>
      </trkpt>
      <trkpt lat="44.43219" lon="2.40444">
        <ele>423.2</ele>
        <time>2022-09-18T07:01:11.000Z</time>
      </trkpt>
      <trkpt lat="44.43216" lon="2.4043">
        <ele>424.1</ele>
        <time>2022-09-18T07:01:14.000Z</time>
      </trkpt>
      <trkpt lat="44.43212" lon="2.40442">
        <ele>423.5</ele>
        <time>2022-09-18T07:01:25.000Z</time>
      </trkpt>
      <trkpt lat="44.43199" lon="2.40446">
        <ele>421.4</ele>
        <time>2022-09-18T07:01:28.000Z</time>
      </trkpt>
      <trkpt lat="44.43189" lon="2.40446">
        <ele>421.1</ele>
        <time>2022-09-18T07:01:30.000Z</time>
      </trkpt>
      <trkpt lat="44.4318" lon="2.40446">
        <ele>420.7</ele>
        <time>2022-09-18T07:01:32.000Z</time>
      </trkpt>
      <trkpt lat="44.43168" lon="2.40451">
        <ele>420.7</ele>
        <time>2022-09-18T07:01:35.000Z</time>
      </trkpt>
      <trkpt lat="44.43157" lon="2.40454">
        <ele>421.6</ele>
        <time>2022-09-18T07:01:38.000Z</time>
      </trkpt>
      <trkpt lat="44.43144" lon="2.40456">
        <ele>422.9</ele>
        <time>2022-09-18T07:01:41.000Z</time>
      </trkpt>
      <trkpt lat="44.43132" lon="2.40457">
        <ele>423.3</ele>
        <time>2022-09-18T07:01:44.000Z</time>
      </trkpt>
      <trkpt lat="44.43121" lon="2.40458">
        <ele>423.7</ele>
        <time>2022-09-18T07:01:47.000Z</time>
      </trkpt>
      <trkpt lat="44.43109" lon="2.40458">
        <ele>424</ele>
        <time>2022-09-18T07:01:50.000Z</time>
      </trkpt>
      <trkpt lat="44.43099" lon="2.40458">
        <ele>424.1</ele>
        <time>2022-09-18T07:01:52.000Z</time>
      </trkpt>
      <trkpt lat="44.43087" lon="2.40457">
        <ele>423.5</ele>
        <time>2022-09-18T07:01:54.000Z</time>
      </trkpt>
      <trkpt lat="44.43074" lon="2.40456">
        <ele>422.5</ele>
        <time>2022-09-18T07:01:56.000Z</time>
      </trkpt>
      <trkpt lat="44.43062" lon="2.40458">
        <ele>422.5</ele>
        <time>2022-09-18T07:01:58.000Z</time>
      </trkpt>
      <trkpt lat="44.43051" lon="2.40461">
        <ele>422.4</ele>
        <time>2022-09-18T07:02:00.000Z</time>
      </trkpt>
      <trkpt lat="44.43041" lon="2.40464">
        <ele>422.7</ele>
        <time>2022-09-18T07:02:02.000Z</time>
      </trkpt>
      <trkpt lat="44.4303" lon="2.40466">
        <ele>423.5</ele>
        <time>2022-09-18T07:02:04.000Z</time>
      </trkpt>
      <trkpt lat="44.43019" lon="2.40469">
        <ele>423.1</ele>
        <time>2022-09-18T07:02:06.000Z</time>
      </trkpt>
      <trkpt lat="44.43007" lon="2.40472">
        <ele>422.4</ele>
        <time>2022-09-18T07:02:08.000Z</time>
      </trkpt>
      <trkpt lat="44.42994" lon="2.40475">
        <ele>421.8</ele>
        <time>2022-09-18T07:02:10.000Z</time>
      </trkpt>
      <trkpt lat="44.42982" lon="2.40478">
        <ele>421.7</ele>
        <time>2022-09-18T07:02:12.000Z</time>
      </trkpt>
      <trkpt lat="44.4297" lon="2.40477">
        <ele>421.1</ele>
        <time>2022-09-18T07:02:14.000Z</time>
      </trkpt>
      <trkpt lat="44.4296" lon="2.40469">
        <ele>421.1</ele>
        <time>2022-09-18T07:02:17.000Z</time>
      </trkpt>
      <trkpt lat="44.42963" lon="2.40457">
        <ele>423.3</ele>
        <time>2022-09-18T07:02:20.000Z</time>
      </trkpt>
      <trkpt lat="44.42968" lon="2.40444">
        <ele>425.6</ele>
        <time>2022-09-18T07:02:24.000Z</time>
      </trkpt>
      <trkpt lat="44.42974" lon="2.40432">
        <ele>427.7</ele>
        <time>2022-09-18T07:02:28.000Z</time>
      </trkpt>
      <trkpt lat="44.42979" lon="2.4042">
        <ele>429.7</ele>
        <time>2022-09-18T07:02:32.000Z</time>
      </trkpt>
      <trkpt lat="44.42977" lon="2.40406">
        <ele>432</ele>
        <time>2022-09-18T07:02:37.000Z</time>
      </trkpt>
      <trkpt lat="44.42971" lon="2.40395">
        <ele>433</ele>
        <time>2022-09-18T07:02:41.000Z</time>
      </trkpt>
      <trkpt lat="44.42965" lon="2.40383">
        <ele>435</ele>
        <time>2022-09-18T07:02:45.000Z</time>
      </trkpt>
      <trkpt lat="44.42959" lon="2.40372">
        <ele>436.8</ele>
        <time>2022-09-18T07:02:49.000Z</time>
      </trkpt>
      <trkpt lat="44.42954" lon="2.40361">
        <ele>438.9</ele>
        <time>2022-09-18T07:02:53.000Z</time>
      </trkpt>
      <trkpt lat="44.4295" lon="2.40348">
        <ele>440.4</ele>
        <time>2022-09-18T07:02:57.000Z</time>
      </trkpt>
      <trkpt lat="44.42948" lon="2.40334">
        <ele>441.9</ele>
        <time>2022-09-18T07:03:01.000Z</time>
      </trkpt>
      <trkpt lat="44.42949" lon="2.4032">
        <ele>442.6</ele>
        <time>2022-09-18T07:03:05.000Z</time>
      </trkpt>
      <trkpt lat="44.42954" lon="2.4031">
        <ele>443.3</ele>
        <time>2022-09-18T07:03:09.000Z</time>
      </trkpt>
      <trkpt lat="44.42963" lon="2.40301">
        <ele>445.6</ele>
        <time>2022-09-18T07:03:13.000Z</time>
      </trkpt>
      <trkpt lat="44.42971" lon="2.40296">
        <ele>447.1</ele>
        <time>2022-09-18T07:03:17.000Z</time>
      </trkpt>
      <trkpt lat="44.42981" lon="2.40299">
        <ele>448.4</ele>
        <time>2022-09-18T07:03:21.000Z</time>
      </trkpt>
      <trkpt lat="44.4299" lon="2.40303">
        <ele>449</ele>
        <time>2022-09-18T07:03:24.000Z</time>
      </trkpt>
      <trkpt lat="44.43" lon="2.40306">
        <ele>450.1</ele>
        <time>2022-09-18T07:03:27.000Z</time>
      </trkpt>
      <trkpt lat="44.43011" lon="2.40305">
        <ele>450.6</ele>
        <time>2022-09-18T07:03:30.000Z</time>
      </trkpt>
      <trkpt lat="44.43021" lon="2.40299">
        <ele>451.3</ele>
        <time>2022-09-18T07:03:33.000Z</time>
      </trkpt>
      <trkpt lat="44.43032" lon="2.40291">
        <ele>452.5</ele>
        <time>2022-09-18T07:03:36.000Z</time>
      </trkpt>
      <trkpt lat="44.43043" lon="2.40282">
        <ele>454</ele>
        <time>2022-09-18T07:03:39.000Z</time>
      </trkpt>
      <trkpt lat="44.43054" lon="2.40273">
        <ele>454.9</ele>
        <time>2022-09-18T07:03:42.000Z</time>
      </trkpt>
      <trkpt lat="44.43065" lon="2.40265">
        <ele>456.6</ele>
        <time>2022-09-18T07:03:45.000Z</time>
      </trkpt>
      <trkpt lat="44.43077" lon="2.40259">
        <ele>458.1</ele>
        <time>2022-09-18T07:03:48.000Z</time>
      </trkpt>
      <trkpt lat="44.43087" lon="2.4026">
        <ele>457.9</ele>
        <time>2022-09-18T07:03:50.000Z</time>
      </trkpt>
      <trkpt lat="44.43098" lon="2.40262">
        <ele>457.1</ele>
        <time>2022-09-18T07:03:52.000Z</time>
      </trkpt>
      <trkpt lat="44.4311" lon="2.40264">
        <ele>456.8</ele>
        <time>2022-09-18T07:03:54.000Z</time>
      </trkpt>
      <trkpt lat="44.43121" lon="2.40268">
        <ele>457</ele>
        <time>2022-09-18T07:03:56.000Z</time>
      </trkpt>
      <trkpt lat="44.43132" lon="2.4027">
        <ele>457</ele>
        <time>2022-09-18T07:03:58.000Z</time>
      </trkpt>
      <trkpt lat="44.43142" lon="2.40272">
        <ele>457.1</ele>
        <time>2022-09-18T07:04:00.000Z</time>
      </trkpt>
      <trkpt lat="44.43153" lon="2.40274">
        <ele>457</ele>
        <time>2022-09-18T07:04:02.000Z</time>
      </trkpt>
      <trkpt lat="44.43164" lon="2.40277">
        <ele>457.6</ele>
        <time>2022-09-18T07:04:04.000Z</time>
      </trkpt>
      <trkpt lat="44.43175" lon="2.40279">
        <ele>457.9</ele>
        <time>2022-09-18T07:04:06.000Z</time>
      </trkpt>
      <trkpt lat="44.43186" lon="2.4028">
        <ele>457.5</ele>
        <time>2022-09-18T07:04:08.000Z</time>
      </trkpt>
      <trkpt lat="44.43197" lon="2.40281">
        <ele>457.7</ele>
        <time>2022-09-18T07:04:10.000Z</time>
      </trkpt>
      <trkpt lat="44.43208" lon="2.4028">
        <ele>458.3</ele>
        <time>2022-09-18T07:04:12.000Z</time>
      </trkpt>
      <trkpt lat="44.43219" lon="2.4028">
        <ele>458.8</ele>
        <time>2022-09-18T07:04:14.000Z</time>
      </trkpt>
      <trkpt lat="44.4323" lon="2.4028">
        <ele>458.7</ele>
        <time>2022-09-18T07:04:16.000Z</time>
      </trkpt>
      <trkpt lat="44.4324" lon="2.40281">
        <ele>459.3</ele>
        <time>2022-09-18T07:04:18.000Z</time>
      </trkpt>
      <trkpt lat="44.4325" lon="2.40286">
        <ele>460</ele>
        <time>2022-09-18T07:04:20.000Z</time>
      </trkpt>
      <trkpt lat="44.43258" lon="2.40294">
        <ele>460.2</ele>
        <time>2022-09-18T07:04:22.000Z</time>
      </trkpt>
      <trkpt lat="44.43265" lon="2.40305">
        <ele>459.8</ele>
        <time>2022-09-18T07:04:24.000Z</time>
      </trkpt>
      <trkpt lat="44.43271" lon="2.40317">
        <ele>460.7</ele>
        <time>2022-09-18T07:04:26.000Z</time>
      </trkpt>
      <trkpt lat="44.43274" lon="2.40331">
        <ele>460.9</ele>
        <time>2022-09-18T07:04:28.000Z</time>
      </trkpt>
      <trkpt lat="44.43277" lon="2.40345">
        <ele>460.7</ele>
        <time>2022-09-18T07:04:30.000Z</time>
      </trkpt>
      <trkpt lat="44.43281" lon="2.4036">
        <ele>461.3</ele>
        <time>2022-09-18T07:04:32.000Z</time>
      </trkpt>
      <trkpt lat="44.43285" lon="2.40373">
        <ele>461.9</ele>
        <time>2022-09-18T07:04:34.000Z</time>
      </trkpt>
      <trkpt lat="44.43289" lon="2.40387">
        <ele>463.1</ele>
        <time>2022-09-18T07:04:36.000Z</time>
      </trkpt>
      <trkpt lat="44.43293" lon="2.40401">
        <ele>463.7</ele>
        <time>2022-09-18T07:04:38.000Z</time>
      </trkpt>
      <trkpt lat="44.43296" lon="2.40415">
        <ele>464</ele>
        <time>2022-09-18T07:04:40.000Z</time>
      </trkpt>
      <trkpt lat="44.43297" lon="2.40429">
        <ele>464</ele>
        <time>2022-09-18T07:04:42.000Z</time>
      </trkpt>
      <trkpt lat="44.43297" lon="2.40443">
        <ele>463.8</ele>
        <time>2022-09-18T07:04:44.000Z</time>
      </trkpt>
      <trkpt lat="44.43297" lon="2.40457">
        <ele>463.9</ele>
        <time>2022-09-18T07:04:46.000Z</time>
      </trkpt>
      <trkpt lat="44.43297" lon="2.40471">
        <ele>463.7</ele>
        <time>2022-09-18T07:04:48.000Z</time>
      </trkpt>
      <trkpt lat="44.43297" lon="2.40486">
        <ele>463.5</ele>
        <time>2022-09-18T07:04:50.000Z</time>
      </trkpt>
      <trkpt lat="44.43298" lon="2.40502">
        <ele>463</ele>
        <time>2022-09-18T07:04:52.000Z</time>
      </trkpt>
      <trkpt lat="44.433" lon="2.40515">
        <ele>462.3</ele>
        <time>2022-09-18T07:04:54.000Z</time>
      </trkpt>
      <trkpt lat="44.43306" lon="2.40529">
        <ele>462.6</ele>
        <time>2022-09-18T07:04:57.000Z</time>
      </trkpt>
      <trkpt lat="44.43315" lon="2.40531">
        <ele>464</ele>
        <time>2022-09-18T07:05:01.000Z</time>
      </trkpt>
      <trkpt lat="44.43321" lon="2.40518">
        <ele>465.6</ele>
        <time>2022-09-18T07:05:08.000Z</time>
      </trkpt>
      <trkpt lat="44.43326" lon="2.40509">
        <ele>466</ele>
        <time>2022-09-18T07:05:15.000Z</time>
      </trkpt>
      <trkpt lat="44.43326" lon="2.40509">
        <ele>466.3</ele>
        <time>2022-09-18T07:05:18.000Z</time>
      </trkpt>
      <trkpt lat="44.43328" lon="2.40506">
        <ele>466.6</ele>
        <time>2022-09-18T07:05:23.000Z</time>
      </trkpt>
      <trkpt lat="44.43328" lon="2.40506">
        <ele>466.6</ele>
        <time>2022-09-18T07:05:27.000Z</time>
      </trkpt>
      <trkpt lat="44.43328" lon="2.40505">
        <ele>467.2</ele>
        <time>2022-09-18T07:06:44.000Z</time>
      </trkpt>
      <trkpt lat="44.43328" lon="2.40505">
        <ele>467.2</ele>
        <time>2022-09-18T07:06:45.000Z</time>
      </trkpt>
      <trkpt lat="44.43328" lon="2.40505">
        <ele>467.4</ele>
        <time>2022-09-18T07:06:48.000Z</time>
      </trkpt>
      <trkpt lat="44.43329" lon="2.40502">
        <ele>467.5</ele>
        <time>2022-09-18T07:06:54.000Z</time>
      </trkpt>
      <trkpt lat="44.43329" lon="2.40502">
        <ele>467.6</ele>
        <time>2022-09-18T07:09:00.000Z</time>
      </trkpt>
      <trkpt lat="44.43329" lon="2.40502">
        <ele>467.4</ele>
        <time>2022-09-18T07:10:32.000Z</time>
      </trkpt>
      <trkpt lat="44.43329" lon="2.40501">
        <ele>466.2</ele>
        <time>2022-09-18T07:23:14.000Z</time>
      </trkpt>
      <trkpt lat="44.43329" lon="2.40501">
        <ele>466.3</ele>
        <time>2022-09-18T07:23:16.000Z</time>
      </trkpt>
      <trkpt lat="44.43329" lon="2.40501">
        <ele>466.5</ele>
        <time>2022-09-18T07:23:17.000Z</time>
      </trkpt>
      <trkpt lat="44.43329" lon="2.405">
        <ele>466.2</ele>
        <time>2022-09-18T07:23:34.000Z</time>
      </trkpt>
      <trkpt lat="44.43334" lon="2.40488">
        <ele>466.5</ele>
        <time>2022-09-18T07:23:41.000Z</time>
      </trkpt>
      <trkpt lat="44.4334" lon="2.40477">
        <ele>467.2</ele>
        <time>2022-09-18T07:23:46.000Z</time>
      </trkpt>
      <trkpt lat="44.43347" lon="2.40466">
        <ele>467.3</ele>
        <time>2022-09-18T07:23:50.000Z</time>
      </trkpt>
      <trkpt lat="44.43354" lon="2.40457">
        <ele>467.5</ele>
        <time>2022-09-18T07:23:54.000Z</time>
      </trkpt>
      <trkpt lat="44.43362" lon="2.4045">
        <ele>468.3</ele>
        <time>2022-09-18T07:23:58.000Z</time>
      </trkpt>
      <trkpt lat="44.43371" lon="2.40444">
        <ele>468.8</ele>
        <time>2022-09-18T07:24:02.000Z</time>
      </trkpt>
      <trkpt lat="44.4338" lon="2.40441">
        <ele>469.4</ele>
        <time>2022-09-18T07:24:06.000Z</time>
      </trkpt>
      <trkpt lat="44.43391" lon="2.40439">
        <ele>470.4</ele>
        <time>2022-09-18T07:24:11.000Z</time>
      </trkpt>
      <trkpt lat="44.43402" lon="2.40438">
        <ele>471.7</ele>
        <time>2022-09-18T07:24:16.000Z</time>
      </trkpt>
      <trkpt lat="44.43413" lon="2.40438">
        <ele>473.8</ele>
        <time>2022-09-18T07:24:21.000Z</time>
      </trkpt>
      <trkpt lat="44.43423" lon="2.40441">
        <ele>474.8</ele>
        <time>2022-09-18T07:24:26.000Z</time>
      </trkpt>
      <trkpt lat="44.43433" lon="2.40435">
        <ele>476.6</ele>
        <time>2022-09-18T07:24:31.000Z</time>
      </trkpt>
      <trkpt lat="44.43441" lon="2.40427">
        <ele>476.7</ele>
        <time>2022-09-18T07:24:35.000Z</time>
      </trkpt>
      <trkpt lat="44.43448" lon="2.40417">
        <ele>478.2</ele>
        <time>2022-09-18T07:24:39.000Z</time>
      </trkpt>
      <trkpt lat="44.43455" lon="2.40406">
        <ele>480</ele>
        <time>2022-09-18T07:24:43.000Z</time>
      </trkpt>
      <trkpt lat="44.43461" lon="2.40395">
        <ele>480.6</ele>
        <time>2022-09-18T07:24:47.000Z</time>
      </trkpt>
      <trkpt lat="44.4347" lon="2.40387">
        <ele>482</ele>
        <time>2022-09-18T07:24:51.000Z</time>
      </trkpt>
      <trkpt lat="44.43479" lon="2.40385">
        <ele>482.5</ele>
        <time>2022-09-18T07:24:55.000Z</time>
      </trkpt>
      <trkpt lat="44.4349" lon="2.40388">
        <ele>483.9</ele>
        <time>2022-09-18T07:24:59.000Z</time>
      </trkpt>
      <trkpt lat="44.435" lon="2.40393">
        <ele>485.5</ele>
        <time>2022-09-18T07:25:03.000Z</time>
      </trkpt>
      <trkpt lat="44.43509" lon="2.404">
        <ele>485.9</ele>
        <time>2022-09-18T07:25:07.000Z</time>
      </trkpt>
      <trkpt lat="44.43519" lon="2.40407">
        <ele>486.3</ele>
        <time>2022-09-18T07:25:11.000Z</time>
      </trkpt>
      <trkpt lat="44.4353" lon="2.40414">
        <ele>486.4</ele>
        <time>2022-09-18T07:25:15.000Z</time>
      </trkpt>
      <trkpt lat="44.43539" lon="2.40421">
        <ele>486.3</ele>
        <time>2022-09-18T07:25:18.000Z</time>
      </trkpt>
      <trkpt lat="44.43551" lon="2.4043">
        <ele>485.6</ele>
        <time>2022-09-18T07:25:21.000Z</time>
      </trkpt>
      <trkpt lat="44.43561" lon="2.4044">
        <ele>484.2</ele>
        <time>2022-09-18T07:25:23.000Z</time>
      </trkpt>
      <trkpt lat="44.43574" lon="2.40451">
        <ele>483</ele>
        <time>2022-09-18T07:25:25.000Z</time>
      </trkpt>
      <trkpt lat="44.43588" lon="2.40463">
        <ele>480.6</ele>
        <time>2022-09-18T07:25:27.000Z</time>
      </trkpt>
      <trkpt lat="44.43602" lon="2.40472">
        <ele>479.8</ele>
        <time>2022-09-18T07:25:29.000Z</time>
      </trkpt>
      <trkpt lat="44.43612" lon="2.40478">
        <ele>481.4</ele>
        <time>2022-09-18T07:25:31.000Z</time>
      </trkpt>
      <trkpt lat="44.43622" lon="2.40489">
        <ele>482.9</ele>
        <time>2022-09-18T07:25:34.000Z</time>
      </trkpt>
      <trkpt lat="44.4363" lon="2.40501">
        <ele>483.3</ele>
        <time>2022-09-18T07:25:37.000Z</time>
      </trkpt>
      <trkpt lat="44.43639" lon="2.40511">
        <ele>483.9</ele>
        <time>2022-09-18T07:25:40.000Z</time>
      </trkpt>
      <trkpt lat="44.43651" lon="2.40514">
        <ele>483.2</ele>
        <time>2022-09-18T07:25:43.000Z</time>
      </trkpt>
      <trkpt lat="44.43661" lon="2.40516">
        <ele>483.2</ele>
        <time>2022-09-18T07:25:45.000Z</time>
      </trkpt>
      <trkpt lat="44.4367" lon="2.40518">
        <ele>483.5</ele>
        <time>2022-09-18T07:25:47.000Z</time>
      </trkpt>
      <trkpt lat="44.43682" lon="2.40525">
        <ele>483.2</ele>
        <time>2022-09-18T07:25:50.000Z</time>
      </trkpt>
      <trkpt lat="44.4369" lon="2.40531">
        <ele>483.7</ele>
        <time>2022-09-18T07:25:52.000Z</time>
      </trkpt>
      <trkpt lat="44.43698" lon="2.40539">
        <ele>484.4</ele>
        <time>2022-09-18T07:25:54.000Z</time>
      </trkpt>
      <trkpt lat="44.43704" lon="2.40547">
        <ele>484.9</ele>
        <time>2022-09-18T07:25:56.000Z</time>
      </trkpt>
      <trkpt lat="44.43715" lon="2.40558">
        <ele>485.7</ele>
        <time>2022-09-18T07:25:59.000Z</time>
      </trkpt>
      <trkpt lat="44.43725" lon="2.40567">
        <ele>486.1</ele>
        <time>2022-09-18T07:26:02.000Z</time>
      </trkpt>
      <trkpt lat="44.43734" lon="2.40576">
        <ele>486.9</ele>
        <time>2022-09-18T07:26:05.000Z</time>
      </trkpt>
      <trkpt lat="44.43741" lon="2.40584">
        <ele>488.4</ele>
        <time>2022-09-18T07:26:08.000Z</time>
      </trkpt>
      <trkpt lat="44.43749" lon="2.40595">
        <ele>489.3</ele>
        <time>2022-09-18T07:26:12.000Z</time>
      </trkpt>
      <trkpt lat="44.43758" lon="2.40604">
        <ele>490.7</ele>
        <time>2022-09-18T07:26:16.000Z</time>
      </trkpt>
      <trkpt lat="44.43767" lon="2.40613">
        <ele>492</ele>
        <time>2022-09-18T07:26:20.000Z</time>
      </trkpt>
      <trkpt lat="44.43775" lon="2.4062">
        <ele>493.3</ele>
        <time>2022-09-18T07:26:24.000Z</time>
      </trkpt>
      <trkpt lat="44.43784" lon="2.40626">
        <ele>495.2</ele>
        <time>2022-09-18T07:26:29.000Z</time>
      </trkpt>
      <trkpt lat="44.43783" lon="2.40611">
        <ele>497.2</ele>
        <time>2022-09-18T07:26:35.000Z</time>
      </trkpt>
      <trkpt lat="44.43776" lon="2.40602">
        <ele>498</ele>
        <time>2022-09-18T07:26:39.000Z</time>
      </trkpt>
      <trkpt lat="44.4377" lon="2.4059">
        <ele>498.6</ele>
        <time>2022-09-18T07:26:43.000Z</time>
      </trkpt>
      <trkpt lat="44.43766" lon="2.40578">
        <ele>499.7</ele>
        <time>2022-09-18T07:26:47.000Z</time>
      </trkpt>
      <trkpt lat="44.43764" lon="2.40563">
        <ele>501.6</ele>
        <time>2022-09-18T07:26:52.000Z</time>
      </trkpt>
      <trkpt lat="44.43765" lon="2.40549">
        <ele>503.1</ele>
        <time>2022-09-18T07:26:57.000Z</time>
      </trkpt>
      <trkpt lat="44.43765" lon="2.40537">
        <ele>503.9</ele>
        <time>2022-09-18T07:27:03.000Z</time>
      </trkpt>
      <trkpt lat="44.43769" lon="2.40549">
        <ele>505.3</ele>
        <time>2022-09-18T07:27:09.000Z</time>
      </trkpt>
      <trkpt lat="44.43771" lon="2.40562">
        <ele>505.6</ele>
        <time>2022-09-18T07:27:13.000Z</time>
      </trkpt>
      <trkpt lat="44.43778" lon="2.40575">
        <ele>506.3</ele>
        <time>2022-09-18T07:27:18.000Z</time>
      </trkpt>
      <trkpt lat="44.43787" lon="2.40582">
        <ele>507.8</ele>
        <time>2022-09-18T07:27:23.000Z</time>
      </trkpt>
      <trkpt lat="44.43796" lon="2.40588">
        <ele>509</ele>
        <time>2022-09-18T07:27:28.000Z</time>
      </trkpt>
      <trkpt lat="44.43804" lon="2.40596">
        <ele>510.1</ele>
        <time>2022-09-18T07:27:33.000Z</time>
      </trkpt>
      <trkpt lat="44.43811" lon="2.40607">
        <ele>511.6</ele>
        <time>2022-09-18T07:27:38.000Z</time>
      </trkpt>
      <trkpt lat="44.43815" lon="2.40618">
        <ele>512.5</ele>
        <time>2022-09-18T07:27:42.000Z</time>
      </trkpt>
      <trkpt lat="44.43819" lon="2.40632">
        <ele>513.8</ele>
        <time>2022-09-18T07:27:47.000Z</time>
      </trkpt>
      <trkpt lat="44.43823" lon="2.40643">
        <ele>515.1</ele>
        <time>2022-09-18T07:27:51.000Z</time>
      </trkpt>
      <trkpt lat="44.43827" lon="2.40656">
        <ele>516.3</ele>
        <time>2022-09-18T07:27:55.000Z</time>
      </trkpt>
      <trkpt lat="44.43831" lon="2.4067">
        <ele>517.1</ele>
        <time>2022-09-18T07:28:00.000Z</time>
      </trkpt>
      <trkpt lat="44.43835" lon="2.40683">
        <ele>517.9</ele>
        <time>2022-09-18T07:28:05.000Z</time>
      </trkpt>
      <trkpt lat="44.43838" lon="2.40696">
        <ele>519.3</ele>
        <time>2022-09-18T07:28:10.000Z</time>
      </trkpt>
      <trkpt lat="44.43843" lon="2.40708">
        <ele>521.4</ele>
        <time>2022-09-18T07:28:16.000Z</time>
      </trkpt>
      <trkpt lat="44.43843" lon="2.40694">
        <ele>522.5</ele>
        <time>2022-09-18T07:28:23.000Z</time>
      </trkpt>
      <trkpt lat="44.43842" lon="2.40679">
        <ele>524.2</ele>
        <time>2022-09-18T07:28:29.000Z</time>
      </trkpt>
      <trkpt lat="44.43841" lon="2.40663">
        <ele>525.7</ele>
        <time>2022-09-18T07:28:34.000Z</time>
      </trkpt>
      <trkpt lat="44.43841" lon="2.4065">
        <ele>527</ele>
        <time>2022-09-18T07:28:38.000Z</time>
      </trkpt>
      <trkpt lat="44.43842" lon="2.40636">
        <ele>528.2</ele>
        <time>2022-09-18T07:28:43.000Z</time>
      </trkpt>
      <trkpt lat="44.43843" lon="2.40622">
        <ele>530</ele>
        <time>2022-09-18T07:28:48.000Z</time>
      </trkpt>
      <trkpt lat="44.43845" lon="2.40608">
        <ele>531.5</ele>
        <time>2022-09-18T07:28:53.000Z</time>
      </trkpt>
      <trkpt lat="44.43848" lon="2.40595">
        <ele>533.5</ele>
        <time>2022-09-18T07:28:58.000Z</time>
      </trkpt>
      <trkpt lat="44.43852" lon="2.40581">
        <ele>535.9</ele>
        <time>2022-09-18T07:29:03.000Z</time>
      </trkpt>
      <trkpt lat="44.43853" lon="2.40567">
        <ele>538.4</ele>
        <time>2022-09-18T07:29:08.000Z</time>
      </trkpt>
      <trkpt lat="44.43852" lon="2.40554">
        <ele>540.2</ele>
        <time>2022-09-18T07:29:13.000Z</time>
      </trkpt>
      <trkpt lat="44.4385" lon="2.40539">
        <ele>542.5</ele>
        <time>2022-09-18T07:29:19.000Z</time>
      </trkpt>
      <trkpt lat="44.43848" lon="2.40527">
        <ele>544.5</ele>
        <time>2022-09-18T07:29:24.000Z</time>
      </trkpt>
      <trkpt lat="44.43846" lon="2.40514">
        <ele>546.8</ele>
        <time>2022-09-18T07:29:29.000Z</time>
      </trkpt>
      <trkpt lat="44.43844" lon="2.40502">
        <ele>548.3</ele>
        <time>2022-09-18T07:29:34.000Z</time>
      </trkpt>
      <trkpt lat="44.43842" lon="2.4049">
        <ele>550.5</ele>
        <time>2022-09-18T07:29:39.000Z</time>
      </trkpt>
      <trkpt lat="44.4384" lon="2.40477">
        <ele>552.5</ele>
        <time>2022-09-18T07:29:44.000Z</time>
      </trkpt>
      <trkpt lat="44.43837" lon="2.40465">
        <ele>554.3</ele>
        <time>2022-09-18T07:29:49.000Z</time>
      </trkpt>
      <trkpt lat="44.43833" lon="2.40452">
        <ele>556</ele>
        <time>2022-09-18T07:29:54.000Z</time>
      </trkpt>
      <trkpt lat="44.43829" lon="2.40439">
        <ele>557.5</ele>
        <time>2022-09-18T07:29:59.000Z</time>
      </trkpt>
      <trkpt lat="44.43825" lon="2.40426">
        <ele>558.6</ele>
        <time>2022-09-18T07:30:04.000Z</time>
      </trkpt>
      <trkpt lat="44.43821" lon="2.40413">
        <ele>559.9</ele>
        <time>2022-09-18T07:30:09.000Z</time>
      </trkpt>
      <trkpt lat="44.43815" lon="2.404">
        <ele>561.5</ele>
        <time>2022-09-18T07:30:14.000Z</time>
      </trkpt>
      <trkpt lat="44.4381" lon="2.40386">
        <ele>562.6</ele>
        <time>2022-09-18T07:30:19.000Z</time>
      </trkpt>
      <trkpt lat="44.43807" lon="2.40373">
        <ele>563.5</ele>
        <time>2022-09-18T07:30:24.000Z</time>
      </trkpt>
      <trkpt lat="44.43803" lon="2.4036">
        <ele>565.1</ele>
        <time>2022-09-18T07:30:29.000Z</time>
      </trkpt>
      <trkpt lat="44.43798" lon="2.40347">
        <ele>566.8</ele>
        <time>2022-09-18T07:30:34.000Z</time>
      </trkpt>
      <trkpt lat="44.43793" lon="2.40333">
        <ele>568.7</ele>
        <time>2022-09-18T07:30:39.000Z</time>
      </trkpt>
      <trkpt lat="44.43787" lon="2.4032">
        <ele>570.1</ele>
        <time>2022-09-18T07:30:44.000Z</time>
      </trkpt>
      <trkpt lat="44.43781" lon="2.40308">
        <ele>572.1</ele>
        <time>2022-09-18T07:30:49.000Z</time>
      </trkpt>
      <trkpt lat="44.4379" lon="2.40312">
        <ele>573.5</ele>
        <time>2022-09-18T07:30:57.000Z</time>
      </trkpt>
      <trkpt lat="44.43797" lon="2.40323">
        <ele>573.8</ele>
        <time>2022-09-18T07:31:00.000Z</time>
      </trkpt>
      <trkpt lat="44.43804" lon="2.40335">
        <ele>573.5</ele>
        <time>2022-09-18T07:31:03.000Z</time>
      </trkpt>
      <trkpt lat="44.43811" lon="2.40348">
        <ele>573.3</ele>
        <time>2022-09-18T07:31:06.000Z</time>
      </trkpt>
      <trkpt lat="44.43818" lon="2.40361">
        <ele>573.7</ele>
        <time>2022-09-18T07:31:09.000Z</time>
      </trkpt>
      <trkpt lat="44.43825" lon="2.40372">
        <ele>574.1</ele>
        <time>2022-09-18T07:31:12.000Z</time>
      </trkpt>
      <trkpt lat="44.43831" lon="2.40384">
        <ele>574.5</ele>
        <time>2022-09-18T07:31:15.000Z</time>
      </trkpt>
      <trkpt lat="44.43837" lon="2.40396">
        <ele>575.6</ele>
        <time>2022-09-18T07:31:18.000Z</time>
      </trkpt>
      <trkpt lat="44.43841" lon="2.40409">
        <ele>575.2</ele>
        <time>2022-09-18T07:31:21.000Z</time>
      </trkpt>
      <trkpt lat="44.43845" lon="2.40421">
        <ele>574.6</ele>
        <time>2022-09-18T07:31:23.000Z</time>
      </trkpt>
      <trkpt lat="44.4385" lon="2.40433">
        <ele>573.7</ele>
        <time>2022-09-18T07:31:25.000Z</time>
      </trkpt>
      <trkpt lat="44.43856" lon="2.40447">
        <ele>572.7</ele>
        <time>2022-09-18T07:31:27.000Z</time>
      </trkpt>
      <trkpt lat="44.43863" lon="2.40463">
        <ele>571.3</ele>
        <time>2022-09-18T07:31:29.000Z</time>
      </trkpt>
      <trkpt lat="44.4387" lon="2.40482">
        <ele>570.4</ele>
        <time>2022-09-18T07:31:31.000Z</time>
      </trkpt>
      <trkpt lat="44.43877" lon="2.40502">
        <ele>569.1</ele>
        <time>2022-09-18T07:31:33.000Z</time>
      </trkpt>
      <trkpt lat="44.43884" lon="2.40523">
        <ele>567.7</ele>
        <time>2022-09-18T07:31:35.000Z</time>
      </trkpt>
      <trkpt lat="44.4389" lon="2.40546">
        <ele>566.1</ele>
        <time>2022-09-18T07:31:37.000Z</time>
      </trkpt>
      <trkpt lat="44.43892" lon="2.40558">
        <ele>565.2</ele>
        <time>2022-09-18T07:31:38.000Z</time>
      </trkpt>
      <trkpt lat="44.43895" lon="2.40582">
        <ele>564.4</ele>
        <time>2022-09-18T07:31:40.000Z</time>
      </trkpt>
      <trkpt lat="44.43893" lon="2.40605">
        <ele>563.2</ele>
        <time>2022-09-18T07:31:42.000Z</time>
      </trkpt>
      <trkpt lat="44.4389" lon="2.40627">
        <ele>562</ele>
        <time>2022-09-18T07:31:44.000Z</time>
      </trkpt>
      <trkpt lat="44.43889" lon="2.40648">
        <ele>560.5</ele>
        <time>2022-09-18T07:31:46.000Z</time>
      </trkpt>
      <trkpt lat="44.43892" lon="2.40668">
        <ele>558.3</ele>
        <time>2022-09-18T07:31:48.000Z</time>
      </trkpt>
      <trkpt lat="44.43897" lon="2.4069">
        <ele>556.5</ele>
        <time>2022-09-18T07:31:50.000Z</time>
      </trkpt>
      <trkpt lat="44.43902" lon="2.4071">
        <ele>554.4</ele>
        <time>2022-09-18T07:31:52.000Z</time>
      </trkpt>
      <trkpt lat="44.43904" lon="2.40728">
        <ele>552.6</ele>
        <time>2022-09-18T07:31:54.000Z</time>
      </trkpt>
      <trkpt lat="44.43907" lon="2.40747">
        <ele>551.7</ele>
        <time>2022-09-18T07:31:56.000Z</time>
      </trkpt>
      <trkpt lat="44.4391" lon="2.40765">
        <ele>549.4</ele>
        <time>2022-09-18T07:31:58.000Z</time>
      </trkpt>
      <trkpt lat="44.43915" lon="2.40781">
        <ele>549</ele>
        <time>2022-09-18T07:32:00.000Z</time>
      </trkpt>
      <trkpt lat="44.43918" lon="2.40796">
        <ele>548.2</ele>
        <time>2022-09-18T07:32:02.000Z</time>
      </trkpt>
      <trkpt lat="44.43926" lon="2.40806">
        <ele>546.4</ele>
        <time>2022-09-18T07:32:04.000Z</time>
      </trkpt>
      <trkpt lat="44.43941" lon="2.40807">
        <ele>544.7</ele>
        <time>2022-09-18T07:32:06.000Z</time>
      </trkpt>
      <trkpt lat="44.43959" lon="2.40803">
        <ele>541.5</ele>
        <time>2022-09-18T07:32:08.000Z</time>
      </trkpt>
      <trkpt lat="44.43968" lon="2.408">
        <ele>540.3</ele>
        <time>2022-09-18T07:32:09.000Z</time>
      </trkpt>
      <trkpt lat="44.43978" lon="2.40796">
        <ele>539</ele>
        <time>2022-09-18T07:32:10.000Z</time>
      </trkpt>
      <trkpt lat="44.43987" lon="2.40791">
        <ele>537.7</ele>
        <time>2022-09-18T07:32:11.000Z</time>
      </trkpt>
      <trkpt lat="44.43996" lon="2.40785">
        <ele>536.5</ele>
        <time>2022-09-18T07:32:12.000Z</time>
      </trkpt>
      <trkpt lat="44.44012" lon="2.40776">
        <ele>533.7</ele>
        <time>2022-09-18T07:32:14.000Z</time>
      </trkpt>
      <trkpt lat="44.44027" lon="2.40776">
        <ele>531.4</ele>
        <time>2022-09-18T07:32:16.000Z</time>
      </trkpt>
      <trkpt lat="44.44043" lon="2.40789">
        <ele>528.6</ele>
        <time>2022-09-18T07:32:18.000Z</time>
      </trkpt>
      <trkpt lat="44.4405" lon="2.40799">
        <ele>527.7</ele>
        <time>2022-09-18T07:32:19.000Z</time>
      </trkpt>
      <trkpt lat="44.44058" lon="2.4081">
        <ele>526.4</ele>
        <time>2022-09-18T07:32:20.000Z</time>
      </trkpt>
      <trkpt lat="44.44066" lon="2.40821">
        <ele>525.7</ele>
        <time>2022-09-18T07:32:21.000Z</time>
      </trkpt>
      <trkpt lat="44.44073" lon="2.40832">
        <ele>524.8</ele>
        <time>2022-09-18T07:32:22.000Z</time>
      </trkpt>
      <trkpt lat="44.4408" lon="2.40843">
        <ele>524.2</ele>
        <time>2022-09-18T07:32:23.000Z</time>
      </trkpt>
      <trkpt lat="44.44086" lon="2.40854">
        <ele>524</ele>
        <time>2022-09-18T07:32:24.000Z</time>
      </trkpt>
      <trkpt lat="44.44092" lon="2.40864">
        <ele>524.5</ele>
        <time>2022-09-18T07:32:25.000Z</time>
      </trkpt>
      <trkpt lat="44.44104" lon="2.40879">
        <ele>525.2</ele>
        <time>2022-09-18T07:32:27.000Z</time>
      </trkpt>
      <trkpt lat="44.44114" lon="2.40892">
        <ele>525.1</ele>
        <time>2022-09-18T07:32:29.000Z</time>
      </trkpt>
      <trkpt lat="44.44125" lon="2.40901">
        <ele>525</ele>
        <time>2022-09-18T07:32:31.000Z</time>
      </trkpt>
      <trkpt lat="44.44134" lon="2.40909">
        <ele>525.1</ele>
        <time>2022-09-18T07:32:33.000Z</time>
      </trkpt>
      <trkpt lat="44.44143" lon="2.40915">
        <ele>525.2</ele>
        <time>2022-09-18T07:32:35.000Z</time>
      </trkpt>
      <trkpt lat="44.44151" lon="2.4092">
        <ele>525.4</ele>
        <time>2022-09-18T07:32:37.000Z</time>
      </trkpt>
      <trkpt lat="44.44163" lon="2.40925">
        <ele>525.4</ele>
        <time>2022-09-18T07:32:40.000Z</time>
      </trkpt>
      <trkpt lat="44.44173" lon="2.40924">
        <ele>526.3</ele>
        <time>2022-09-18T07:32:43.000Z</time>
      </trkpt>
      <trkpt lat="44.44182" lon="2.40921">
        <ele>526.8</ele>
        <time>2022-09-18T07:32:46.000Z</time>
      </trkpt>
      <trkpt lat="44.44192" lon="2.40918">
        <ele>527</ele>
        <time>2022-09-18T07:32:49.000Z</time>
      </trkpt>
      <trkpt lat="44.44205" lon="2.40915">
        <ele>525.8</ele>
        <time>2022-09-18T07:32:52.000Z</time>
      </trkpt>
      <trkpt lat="44.44215" lon="2.4091">
        <ele>523.7</ele>
        <time>2022-09-18T07:32:54.000Z</time>
      </trkpt>
      <trkpt lat="44.44224" lon="2.409">
        <ele>520.9</ele>
        <time>2022-09-18T07:32:56.000Z</time>
      </trkpt>
      <trkpt lat="44.44231" lon="2.40885">
        <ele>518.2</ele>
        <time>2022-09-18T07:32:58.000Z</time>
      </trkpt>
      <trkpt lat="44.4424" lon="2.40867">
        <ele>515.9</ele>
        <time>2022-09-18T07:33:00.000Z</time>
      </trkpt>
      <trkpt lat="44.44248" lon="2.40847">
        <ele>514.3</ele>
        <time>2022-09-18T07:33:02.000Z</time>
      </trkpt>
      <trkpt lat="44.44256" lon="2.40832">
        <ele>513.2</ele>
        <time>2022-09-18T07:33:04.000Z</time>
      </trkpt>
      <trkpt lat="44.44266" lon="2.40831">
        <ele>513.4</ele>
        <time>2022-09-18T07:33:06.000Z</time>
      </trkpt>
      <trkpt lat="44.44277" lon="2.40833">
        <ele>513.2</ele>
        <time>2022-09-18T07:33:09.000Z</time>
      </trkpt>
      <trkpt lat="44.44287" lon="2.40831">
        <ele>512.2</ele>
        <time>2022-09-18T07:33:13.000Z</time>
      </trkpt>
      <trkpt lat="44.44297" lon="2.40831">
        <ele>510.9</ele>
        <time>2022-09-18T07:33:17.000Z</time>
      </trkpt>
      <trkpt lat="44.44307" lon="2.40835">
        <ele>509.1</ele>
        <time>2022-09-18T07:33:20.000Z</time>
      </trkpt>
      <trkpt lat="44.44317" lon="2.40837">
        <ele>507.8</ele>
        <time>2022-09-18T07:33:22.000Z</time>
      </trkpt>
      <trkpt lat="44.44327" lon="2.40839">
        <ele>504.4</ele>
        <time>2022-09-18T07:33:24.000Z</time>
      </trkpt>
      <trkpt lat="44.44336" lon="2.40837">
        <ele>502.7</ele>
        <time>2022-09-18T07:33:26.000Z</time>
      </trkpt>
      <trkpt lat="44.44347" lon="2.40834">
        <ele>500.6</ele>
        <time>2022-09-18T07:33:28.000Z</time>
      </trkpt>
      <trkpt lat="44.44356" lon="2.4083">
        <ele>499.2</ele>
        <time>2022-09-18T07:33:30.000Z</time>
      </trkpt>
      <trkpt lat="44.44366" lon="2.40831">
        <ele>498.4</ele>
        <time>2022-09-18T07:33:32.000Z</time>
      </trkpt>
      <trkpt lat="44.44375" lon="2.40839">
        <ele>497.3</ele>
        <time>2022-09-18T07:33:34.000Z</time>
      </trkpt>
      <trkpt lat="44.44385" lon="2.40849">
        <ele>495.2</ele>
        <time>2022-09-18T07:33:36.000Z</time>
      </trkpt>
      <trkpt lat="44.44395" lon="2.40858">
        <ele>493.4</ele>
        <time>2022-09-18T07:33:38.000Z</time>
      </trkpt>
      <trkpt lat="44.44404" lon="2.4087">
        <ele>491.7</ele>
        <time>2022-09-18T07:33:40.000Z</time>
      </trkpt>
      <trkpt lat="44.4441" lon="2.40881">
        <ele>491</ele>
        <time>2022-09-18T07:33:42.000Z</time>
      </trkpt>
      <trkpt lat="44.44417" lon="2.40892">
        <ele>489.1</ele>
        <time>2022-09-18T07:33:44.000Z</time>
      </trkpt>
      <trkpt lat="44.44424" lon="2.40902">
        <ele>486.4</ele>
        <time>2022-09-18T07:33:46.000Z</time>
      </trkpt>
      <trkpt lat="44.44432" lon="2.40912">
        <ele>484</ele>
        <time>2022-09-18T07:33:48.000Z</time>
      </trkpt>
      <trkpt lat="44.44441" lon="2.40926">
        <ele>481.9</ele>
        <time>2022-09-18T07:33:51.000Z</time>
      </trkpt>
      <trkpt lat="44.44447" lon="2.40938">
        <ele>479.5</ele>
        <time>2022-09-18T07:33:53.000Z</time>
      </trkpt>
      <trkpt lat="44.44454" lon="2.40951">
        <ele>477.6</ele>
        <time>2022-09-18T07:33:55.000Z</time>
      </trkpt>
      <trkpt lat="44.44461" lon="2.40961">
        <ele>476.1</ele>
        <time>2022-09-18T07:33:57.000Z</time>
      </trkpt>
      <trkpt lat="44.44472" lon="2.40961">
        <ele>475.7</ele>
        <time>2022-09-18T07:34:00.000Z</time>
      </trkpt>
      <trkpt lat="44.44481" lon="2.40957">
        <ele>474.3</ele>
        <time>2022-09-18T07:34:02.000Z</time>
      </trkpt>
      <trkpt lat="44.44492" lon="2.40951">
        <ele>473.6</ele>
        <time>2022-09-18T07:34:04.000Z</time>
      </trkpt>
      <trkpt lat="44.44504" lon="2.40946">
        <ele>472.6</ele>
        <time>2022-09-18T07:34:06.000Z</time>
      </trkpt>
      <trkpt lat="44.44517" lon="2.40945">
        <ele>471.8</ele>
        <time>2022-09-18T07:34:08.000Z</time>
      </trkpt>
      <trkpt lat="44.44528" lon="2.40952">
        <ele>471.8</ele>
        <time>2022-09-18T07:34:10.000Z</time>
      </trkpt>
      <trkpt lat="44.44539" lon="2.40961">
        <ele>471.7</ele>
        <time>2022-09-18T07:34:12.000Z</time>
      </trkpt>
      <trkpt lat="44.44549" lon="2.40969">
        <ele>470.8</ele>
        <time>2022-09-18T07:34:14.000Z</time>
      </trkpt>
      <trkpt lat="44.44559" lon="2.40976">
        <ele>471.2</ele>
        <time>2022-09-18T07:34:16.000Z</time>
      </trkpt>
      <trkpt lat="44.4457" lon="2.40984">
        <ele>471.9</ele>
        <time>2022-09-18T07:34:19.000Z</time>
      </trkpt>
      <trkpt lat="44.44579" lon="2.40994">
        <ele>471.5</ele>
        <time>2022-09-18T07:34:22.000Z</time>
      </trkpt>
      <trkpt lat="44.44586" lon="2.41003">
        <ele>471.1</ele>
        <time>2022-09-18T07:34:25.000Z</time>
      </trkpt>
      <trkpt lat="44.44593" lon="2.41011">
        <ele>470.8</ele>
        <time>2022-09-18T07:34:29.000Z</time>
      </trkpt>
      <trkpt lat="44.446" lon="2.41">
        <ele>472.4</ele>
        <time>2022-09-18T07:34:35.000Z</time>
      </trkpt>
      <trkpt lat="44.44602" lon="2.40985">
        <ele>475.8</ele>
        <time>2022-09-18T07:34:40.000Z</time>
      </trkpt>
      <trkpt lat="44.44607" lon="2.40974">
        <ele>479</ele>
        <time>2022-09-18T07:34:45.000Z</time>
      </trkpt>
      <trkpt lat="44.44617" lon="2.40975">
        <ele>481</ele>
        <time>2022-09-18T07:34:51.000Z</time>
      </trkpt>
      <trkpt lat="44.44626" lon="2.40979">
        <ele>480.8</ele>
        <time>2022-09-18T07:34:56.000Z</time>
      </trkpt>
      <trkpt lat="44.44634" lon="2.40974">
        <ele>482</ele>
        <time>2022-09-18T07:35:01.000Z</time>
      </trkpt>
      <trkpt lat="44.44641" lon="2.40966">
        <ele>483.8</ele>
        <time>2022-09-18T07:35:06.000Z</time>
      </trkpt>
      <trkpt lat="44.44648" lon="2.40956">
        <ele>485.6</ele>
        <time>2022-09-18T07:35:11.000Z</time>
      </trkpt>
      <trkpt lat="44.44654" lon="2.40946">
        <ele>487.6</ele>
        <time>2022-09-18T07:35:16.000Z</time>
      </trkpt>
      <trkpt lat="44.44658" lon="2.40933">
        <ele>490.6</ele>
        <time>2022-09-18T07:35:22.000Z</time>
      </trkpt>
      <trkpt lat="44.44662" lon="2.40919">
        <ele>493.2</ele>
        <time>2022-09-18T07:35:28.000Z</time>
      </trkpt>
      <trkpt lat="44.44658" lon="2.40906">
        <ele>494</ele>
        <time>2022-09-18T07:35:34.000Z</time>
      </trkpt>
      <trkpt lat="44.44649" lon="2.409">
        <ele>494.1</ele>
        <time>2022-09-18T07:35:38.000Z</time>
      </trkpt>
      <trkpt lat="44.44643" lon="2.40891">
        <ele>495.1</ele>
        <time>2022-09-18T07:35:42.000Z</time>
      </trkpt>
      <trkpt lat="44.44636" lon="2.40881">
        <ele>496.7</ele>
        <time>2022-09-18T07:35:47.000Z</time>
      </trkpt>
      <trkpt lat="44.44628" lon="2.40873">
        <ele>497.2</ele>
        <time>2022-09-18T07:35:52.000Z</time>
      </trkpt>
      <trkpt lat="44.44619" lon="2.40865">
        <ele>498.2</ele>
        <time>2022-09-18T07:35:57.000Z</time>
      </trkpt>
      <trkpt lat="44.4463" lon="2.40863">
        <ele>501.3</ele>
        <time>2022-09-18T07:36:07.000Z</time>
      </trkpt>
      <trkpt lat="44.44639" lon="2.40867">
        <ele>502.1</ele>
        <time>2022-09-18T07:36:11.000Z</time>
      </trkpt>
      <trkpt lat="44.44649" lon="2.40867">
        <ele>502.9</ele>
        <time>2022-09-18T07:36:15.000Z</time>
      </trkpt>
      <trkpt lat="44.44658" lon="2.40867">
        <ele>503.2</ele>
        <time>2022-09-18T07:36:19.000Z</time>
      </trkpt>
      <trkpt lat="44.44667" lon="2.40864">
        <ele>503.2</ele>
        <time>2022-09-18T07:36:23.000Z</time>
      </trkpt>
      <trkpt lat="44.44676" lon="2.40861">
        <ele>503.1</ele>
        <time>2022-09-18T07:36:26.000Z</time>
      </trkpt>
      <trkpt lat="44.44686" lon="2.40854">
        <ele>503.4</ele>
        <time>2022-09-18T07:36:30.000Z</time>
      </trkpt>
      <trkpt lat="44.44691" lon="2.4084">
        <ele>504.4</ele>
        <time>2022-09-18T07:36:34.000Z</time>
      </trkpt>
      <trkpt lat="44.44693" lon="2.40826">
        <ele>505.9</ele>
        <time>2022-09-18T07:36:38.000Z</time>
      </trkpt>
      <trkpt lat="44.44695" lon="2.40812">
        <ele>506.6</ele>
        <time>2022-09-18T07:36:42.000Z</time>
      </trkpt>
      <trkpt lat="44.44698" lon="2.40798">
        <ele>507.5</ele>
        <time>2022-09-18T07:36:46.000Z</time>
      </trkpt>
      <trkpt lat="44.447" lon="2.40785">
        <ele>508.2</ele>
        <time>2022-09-18T07:36:50.000Z</time>
      </trkpt>
      <trkpt lat="44.44702" lon="2.40771">
        <ele>508.7</ele>
        <time>2022-09-18T07:36:54.000Z</time>
      </trkpt>
      <trkpt lat="44.44699" lon="2.40758">
        <ele>510.8</ele>
        <time>2022-09-18T07:36:58.000Z</time>
      </trkpt>
      <trkpt lat="44.44691" lon="2.40747">
        <ele>511.9</ele>
        <time>2022-09-18T07:37:02.000Z</time>
      </trkpt>
      <trkpt lat="44.44684" lon="2.40738">
        <ele>512.8</ele>
        <time>2022-09-18T07:37:06.000Z</time>
      </trkpt>
      <trkpt lat="44.44675" lon="2.40729">
        <ele>514.3</ele>
        <time>2022-09-18T07:37:10.000Z</time>
      </trkpt>
      <trkpt lat="44.44666" lon="2.40721">
        <ele>515.4</ele>
        <time>2022-09-18T07:37:14.000Z</time>
      </trkpt>
      <trkpt lat="44.44658" lon="2.40713">
        <ele>517.1</ele>
        <time>2022-09-18T07:37:18.000Z</time>
      </trkpt>
      <trkpt lat="44.44648" lon="2.40706">
        <ele>517.5</ele>
        <time>2022-09-18T07:37:22.000Z</time>
      </trkpt>
      <trkpt lat="44.44639" lon="2.40698">
        <ele>519.2</ele>
        <time>2022-09-18T07:37:26.000Z</time>
      </trkpt>
      <trkpt lat="44.4463" lon="2.4069">
        <ele>520.2</ele>
        <time>2022-09-18T07:37:30.000Z</time>
      </trkpt>
      <trkpt lat="44.44621" lon="2.40681">
        <ele>521.2</ele>
        <time>2022-09-18T07:37:34.000Z</time>
      </trkpt>
      <trkpt lat="44.44613" lon="2.40673">
        <ele>522.4</ele>
        <time>2022-09-18T07:37:38.000Z</time>
      </trkpt>
      <trkpt lat="44.44604" lon="2.40667">
        <ele>523.9</ele>
        <time>2022-09-18T07:37:42.000Z</time>
      </trkpt>
      <trkpt lat="44.44595" lon="2.40661">
        <ele>525.2</ele>
        <time>2022-09-18T07:37:46.000Z</time>
      </trkpt>
      <trkpt lat="44.44586" lon="2.40656">
        <ele>527.3</ele>
        <time>2022-09-18T07:37:50.000Z</time>
      </trkpt>
      <trkpt lat="44.44576" lon="2.40655">
        <ele>528.7</ele>
        <time>2022-09-18T07:37:54.000Z</time>
      </trkpt>
      <trkpt lat="44.44566" lon="2.40656">
        <ele>529.4</ele>
        <time>2022-09-18T07:37:58.000Z</time>
      </trkpt>
      <trkpt lat="44.44557" lon="2.4066">
        <ele>530.6</ele>
        <time>2022-09-18T07:38:02.000Z</time>
      </trkpt>
      <trkpt lat="44.4455" lon="2.40668">
        <ele>531.5</ele>
        <time>2022-09-18T07:38:06.000Z</time>
      </trkpt>
      <trkpt lat="44.44544" lon="2.40679">
        <ele>532.7</ele>
        <time>2022-09-18T07:38:10.000Z</time>
      </trkpt>
      <trkpt lat="44.44538" lon="2.40689">
        <ele>534</ele>
        <time>2022-09-18T07:38:14.000Z</time>
      </trkpt>
      <trkpt lat="44.44532" lon="2.40699">
        <ele>535.5</ele>
        <time>2022-09-18T07:38:18.000Z</time>
      </trkpt>
      <trkpt lat="44.44525" lon="2.40709">
        <ele>536.3</ele>
        <time>2022-09-18T07:38:22.000Z</time>
      </trkpt>
      <trkpt lat="44.44518" lon="2.40718">
        <ele>538.2</ele>
        <time>2022-09-18T07:38:26.000Z</time>
      </trkpt>
      <trkpt lat="44.44511" lon="2.40727">
        <ele>539.3</ele>
        <time>2022-09-18T07:38:30.000Z</time>
      </trkpt>
      <trkpt lat="44.44504" lon="2.40737">
        <ele>540.5</ele>
        <time>2022-09-18T07:38:34.000Z</time>
      </trkpt>
      <trkpt lat="44.44498" lon="2.40746">
        <ele>542.1</ele>
        <time>2022-09-18T07:38:38.000Z</time>
      </trkpt>
      <trkpt lat="44.44491" lon="2.40755">
        <ele>543</ele>
        <time>2022-09-18T07:38:42.000Z</time>
      </trkpt>
      <trkpt lat="44.44481" lon="2.40763">
        <ele>544.1</ele>
        <time>2022-09-18T07:38:47.000Z</time>
      </trkpt>
      <trkpt lat="44.44472" lon="2.40764">
        <ele>546</ele>
        <time>2022-09-18T07:38:51.000Z</time>
      </trkpt>
      <trkpt lat="44.44473" lon="2.40749">
        <ele>547.9</ele>
        <time>2022-09-18T07:38:57.000Z</time>
      </trkpt>
      <trkpt lat="44.44482" lon="2.4074">
        <ele>548.5</ele>
        <time>2022-09-18T07:39:01.000Z</time>
      </trkpt>
      <trkpt lat="44.44489" lon="2.4073">
        <ele>548.8</ele>
        <time>2022-09-18T07:39:04.000Z</time>
      </trkpt>
      <trkpt lat="44.44497" lon="2.40717">
        <ele>547.9</ele>
        <time>2022-09-18T07:39:07.000Z</time>
      </trkpt>
      <trkpt lat="44.44502" lon="2.40703">
        <ele>548.4</ele>
        <time>2022-09-18T07:39:10.000Z</time>
      </trkpt>
      <trkpt lat="44.44507" lon="2.40687">
        <ele>548.4</ele>
        <time>2022-09-18T07:39:13.000Z</time>
      </trkpt>
      <trkpt lat="44.4451" lon="2.40671">
        <ele>548.7</ele>
        <time>2022-09-18T07:39:16.000Z</time>
      </trkpt>
      <trkpt lat="44.44509" lon="2.40655">
        <ele>550</ele>
        <time>2022-09-18T07:39:19.000Z</time>
      </trkpt>
      <trkpt lat="44.44503" lon="2.40642">
        <ele>550.6</ele>
        <time>2022-09-18T07:39:22.000Z</time>
      </trkpt>
      <trkpt lat="44.44495" lon="2.40631">
        <ele>552.6</ele>
        <time>2022-09-18T07:39:25.000Z</time>
      </trkpt>
      <trkpt lat="44.44488" lon="2.40621">
        <ele>553.4</ele>
        <time>2022-09-18T07:39:28.000Z</time>
      </trkpt>
      <trkpt lat="44.4448" lon="2.4061">
        <ele>552.8</ele>
        <time>2022-09-18T07:39:31.000Z</time>
      </trkpt>
      <trkpt lat="44.44473" lon="2.40601">
        <ele>552.2</ele>
        <time>2022-09-18T07:39:33.000Z</time>
      </trkpt>
      <trkpt lat="44.44466" lon="2.4059">
        <ele>551.6</ele>
        <time>2022-09-18T07:39:35.000Z</time>
      </trkpt>
      <trkpt lat="44.44457" lon="2.40576">
        <ele>550.4</ele>
        <time>2022-09-18T07:39:37.000Z</time>
      </trkpt>
      <trkpt lat="44.44448" lon="2.40562">
        <ele>550</ele>
        <time>2022-09-18T07:39:39.000Z</time>
      </trkpt>
      <trkpt lat="44.4444" lon="2.40548">
        <ele>549.6</ele>
        <time>2022-09-18T07:39:41.000Z</time>
      </trkpt>
      <trkpt lat="44.44432" lon="2.40537">
        <ele>550.1</ele>
        <time>2022-09-18T07:39:43.000Z</time>
      </trkpt>
      <trkpt lat="44.44425" lon="2.40526">
        <ele>550.3</ele>
        <time>2022-09-18T07:39:45.000Z</time>
      </trkpt>
      <trkpt lat="44.44419" lon="2.40515">
        <ele>550.9</ele>
        <time>2022-09-18T07:39:47.000Z</time>
      </trkpt>
      <trkpt lat="44.44412" lon="2.40504">
        <ele>551.7</ele>
        <time>2022-09-18T07:39:49.000Z</time>
      </trkpt>
      <trkpt lat="44.44406" lon="2.40494">
        <ele>552.6</ele>
        <time>2022-09-18T07:39:51.000Z</time>
      </trkpt>
      <trkpt lat="44.44398" lon="2.4048">
        <ele>554.4</ele>
        <time>2022-09-18T07:39:54.000Z</time>
      </trkpt>
      <trkpt lat="44.44393" lon="2.40468">
        <ele>556</ele>
        <time>2022-09-18T07:39:57.000Z</time>
      </trkpt>
      <trkpt lat="44.44391" lon="2.40455">
        <ele>557.1</ele>
        <time>2022-09-18T07:40:00.000Z</time>
      </trkpt>
      <trkpt lat="44.44395" lon="2.40442">
        <ele>557.5</ele>
        <time>2022-09-18T07:40:03.000Z</time>
      </trkpt>
      <trkpt lat="44.44399" lon="2.4043">
        <ele>558.1</ele>
        <time>2022-09-18T07:40:06.000Z</time>
      </trkpt>
      <trkpt lat="44.44403" lon="2.40417">
        <ele>558.6</ele>
        <time>2022-09-18T07:40:09.000Z</time>
      </trkpt>
      <trkpt lat="44.44408" lon="2.40405">
        <ele>559.1</ele>
        <time>2022-09-18T07:40:12.000Z</time>
      </trkpt>
      <trkpt lat="44.44412" lon="2.40391">
        <ele>559.5</ele>
        <time>2022-09-18T07:40:15.000Z</time>
      </trkpt>
      <trkpt lat="44.44417" lon="2.40377">
        <ele>560.1</ele>
        <time>2022-09-18T07:40:18.000Z</time>
      </trkpt>
      <trkpt lat="44.44422" lon="2.40363">
        <ele>560.9</ele>
        <time>2022-09-18T07:40:21.000Z</time>
      </trkpt>
      <trkpt lat="44.44427" lon="2.40349">
        <ele>561.5</ele>
        <time>2022-09-18T07:40:24.000Z</time>
      </trkpt>
      <trkpt lat="44.44431" lon="2.40335">
        <ele>562.8</ele>
        <time>2022-09-18T07:40:27.000Z</time>
      </trkpt>
      <trkpt lat="44.44437" lon="2.40322">
        <ele>563.4</ele>
        <time>2022-09-18T07:40:30.000Z</time>
      </trkpt>
      <trkpt lat="44.44442" lon="2.40309">
        <ele>564.4</ele>
        <time>2022-09-18T07:40:33.000Z</time>
      </trkpt>
      <trkpt lat="44.44448" lon="2.40297">
        <ele>565</ele>
        <time>2022-09-18T07:40:36.000Z</time>
      </trkpt>
      <trkpt lat="44.44454" lon="2.40286">
        <ele>565.8</ele>
        <time>2022-09-18T07:40:39.000Z</time>
      </trkpt>
      <trkpt lat="44.4446" lon="2.40274">
        <ele>566.9</ele>
        <time>2022-09-18T07:40:42.000Z</time>
      </trkpt>
      <trkpt lat="44.44466" lon="2.40261">
        <ele>567.6</ele>
        <time>2022-09-18T07:40:45.000Z</time>
      </trkpt>
      <trkpt lat="44.44471" lon="2.40248">
        <ele>568.3</ele>
        <time>2022-09-18T07:40:48.000Z</time>
      </trkpt>
      <trkpt lat="44.44476" lon="2.40233">
        <ele>568.8</ele>
        <time>2022-09-18T07:40:51.000Z</time>
      </trkpt>
      <trkpt lat="44.4448" lon="2.40218">
        <ele>570</ele>
        <time>2022-09-18T07:40:54.000Z</time>
      </trkpt>
      <trkpt lat="44.44484" lon="2.40202">
        <ele>570.2</ele>
        <time>2022-09-18T07:40:57.000Z</time>
      </trkpt>
      <trkpt lat="44.44488" lon="2.40187">
        <ele>570.1</ele>
        <time>2022-09-18T07:41:00.000Z</time>
      </trkpt>
      <trkpt lat="44.44492" lon="2.40171">
        <ele>570.4</ele>
        <time>2022-09-18T07:41:03.000Z</time>
      </trkpt>
      <trkpt lat="44.44497" lon="2.40156">
        <ele>570.6</ele>
        <time>2022-09-18T07:41:06.000Z</time>
      </trkpt>
      <trkpt lat="44.44501" lon="2.40139">
        <ele>570.6</ele>
        <time>2022-09-18T07:41:09.000Z</time>
      </trkpt>
      <trkpt lat="44.44504" lon="2.40127">
        <ele>570.6</ele>
        <time>2022-09-18T07:41:11.000Z</time>
      </trkpt>
      <trkpt lat="44.44508" lon="2.4011">
        <ele>570.6</ele>
        <time>2022-09-18T07:41:14.000Z</time>
      </trkpt>
      <trkpt lat="44.4451" lon="2.40092">
        <ele>570.5</ele>
        <time>2022-09-18T07:41:17.000Z</time>
      </trkpt>
      <trkpt lat="44.44511" lon="2.40078">
        <ele>570.7</ele>
        <time>2022-09-18T07:41:19.000Z</time>
      </trkpt>
      <trkpt lat="44.4451" lon="2.40065">
        <ele>570.5</ele>
        <time>2022-09-18T07:41:21.000Z</time>
      </trkpt>
      <trkpt lat="44.4451" lon="2.40051">
        <ele>570.1</ele>
        <time>2022-09-18T07:41:23.000Z</time>
      </trkpt>
      <trkpt lat="44.44512" lon="2.40038">
        <ele>569.8</ele>
        <time>2022-09-18T07:41:25.000Z</time>
      </trkpt>
      <trkpt lat="44.44515" lon="2.40024">
        <ele>569.9</ele>
        <time>2022-09-18T07:41:27.000Z</time>
      </trkpt>
      <trkpt lat="44.44519" lon="2.40012">
        <ele>569.7</ele>
        <time>2022-09-18T07:41:29.000Z</time>
      </trkpt>
      <trkpt lat="44.44522" lon="2.39999">
        <ele>569.9</ele>
        <time>2022-09-18T07:41:31.000Z</time>
      </trkpt>
      <trkpt lat="44.44526" lon="2.39986">
        <ele>569.8</ele>
        <time>2022-09-18T07:41:33.000Z</time>
      </trkpt>
      <trkpt lat="44.4453" lon="2.39973">
        <ele>569.5</ele>
        <time>2022-09-18T07:41:35.000Z</time>
      </trkpt>
      <trkpt lat="44.44533" lon="2.39961">
        <ele>569.4</ele>
        <time>2022-09-18T07:41:37.000Z</time>
      </trkpt>
      <trkpt lat="44.44537" lon="2.39948">
        <ele>569.5</ele>
        <time>2022-09-18T07:41:39.000Z</time>
      </trkpt>
      <trkpt lat="44.44541" lon="2.39935">
        <ele>569.2</ele>
        <time>2022-09-18T07:41:41.000Z</time>
      </trkpt>
      <trkpt lat="44.44545" lon="2.39922">
        <ele>569</ele>
        <time>2022-09-18T07:41:43.000Z</time>
      </trkpt>
      <trkpt lat="44.44549" lon="2.3991">
        <ele>569</ele>
        <time>2022-09-18T07:41:45.000Z</time>
      </trkpt>
      <trkpt lat="44.44554" lon="2.39897">
        <ele>569</ele>
        <time>2022-09-18T07:41:47.000Z</time>
      </trkpt>
      <trkpt lat="44.44559" lon="2.39885">
        <ele>568.6</ele>
        <time>2022-09-18T07:41:49.000Z</time>
      </trkpt>
      <trkpt lat="44.44565" lon="2.39873">
        <ele>568.5</ele>
        <time>2022-09-18T07:41:51.000Z</time>
      </trkpt>
      <trkpt lat="44.44573" lon="2.39862">
        <ele>568.2</ele>
        <time>2022-09-18T07:41:53.000Z</time>
      </trkpt>
      <trkpt lat="44.44581" lon="2.39852">
        <ele>567.9</ele>
        <time>2022-09-18T07:41:55.000Z</time>
      </trkpt>
      <trkpt lat="44.44589" lon="2.39842">
        <ele>567</ele>
        <time>2022-09-18T07:41:57.000Z</time>
      </trkpt>
      <trkpt lat="44.44598" lon="2.39833">
        <ele>567.1</ele>
        <time>2022-09-18T07:41:59.000Z</time>
      </trkpt>
      <trkpt lat="44.44602" lon="2.39821">
        <ele>566.9</ele>
        <time>2022-09-18T07:42:01.000Z</time>
      </trkpt>
      <trkpt lat="44.44596" lon="2.39806">
        <ele>567.6</ele>
        <time>2022-09-18T07:42:04.000Z</time>
      </trkpt>
      <trkpt lat="44.44589" lon="2.39793">
        <ele>568.5</ele>
        <time>2022-09-18T07:42:07.000Z</time>
      </trkpt>
      <trkpt lat="44.44582" lon="2.39781">
        <ele>569.4</ele>
        <time>2022-09-18T07:42:10.000Z</time>
      </trkpt>
      <trkpt lat="44.44576" lon="2.3977">
        <ele>569.5</ele>
        <time>2022-09-18T07:42:13.000Z</time>
      </trkpt>
      <trkpt lat="44.44569" lon="2.39758">
        <ele>568.7</ele>
        <time>2022-09-18T07:42:16.000Z</time>
      </trkpt>
      <trkpt lat="44.44561" lon="2.39744">
        <ele>568.6</ele>
        <time>2022-09-18T07:42:19.000Z</time>
      </trkpt>
      <trkpt lat="44.44555" lon="2.39732">
        <ele>567.7</ele>
        <time>2022-09-18T07:42:21.000Z</time>
      </trkpt>
      <trkpt lat="44.44549" lon="2.39717">
        <ele>566.7</ele>
        <time>2022-09-18T07:42:23.000Z</time>
      </trkpt>
      <trkpt lat="44.44546" lon="2.39701">
        <ele>566.4</ele>
        <time>2022-09-18T07:42:25.000Z</time>
      </trkpt>
      <trkpt lat="44.44546" lon="2.39685">
        <ele>566.9</ele>
        <time>2022-09-18T07:42:27.000Z</time>
      </trkpt>
      <trkpt lat="44.44549" lon="2.39672">
        <ele>566.8</ele>
        <time>2022-09-18T07:42:29.000Z</time>
      </trkpt>
      <trkpt lat="44.44554" lon="2.39655">
        <ele>566.8</ele>
        <time>2022-09-18T07:42:32.000Z</time>
      </trkpt>
      <trkpt lat="44.44558" lon="2.39637">
        <ele>567.1</ele>
        <time>2022-09-18T07:42:35.000Z</time>
      </trkpt>
      <trkpt lat="44.44562" lon="2.3962">
        <ele>567.5</ele>
        <time>2022-09-18T07:42:38.000Z</time>
      </trkpt>
      <trkpt lat="44.44566" lon="2.39602">
        <ele>568</ele>
        <time>2022-09-18T07:42:41.000Z</time>
      </trkpt>
      <trkpt lat="44.44569" lon="2.3959">
        <ele>567.8</ele>
        <time>2022-09-18T07:42:43.000Z</time>
      </trkpt>
      <trkpt lat="44.44572" lon="2.39577">
        <ele>567.7</ele>
        <time>2022-09-18T07:42:45.000Z</time>
      </trkpt>
      <trkpt lat="44.44575" lon="2.39565">
        <ele>567.7</ele>
        <time>2022-09-18T07:42:47.000Z</time>
      </trkpt>
      <trkpt lat="44.44578" lon="2.39553">
        <ele>567.9</ele>
        <time>2022-09-18T07:42:49.000Z</time>
      </trkpt>
      <trkpt lat="44.44582" lon="2.39535">
        <ele>568.8</ele>
        <time>2022-09-18T07:42:52.000Z</time>
      </trkpt>
      <trkpt lat="44.44586" lon="2.39518">
        <ele>569.1</ele>
        <time>2022-09-18T07:42:55.000Z</time>
      </trkpt>
      <trkpt lat="44.44589" lon="2.39502">
        <ele>569.7</ele>
        <time>2022-09-18T07:42:58.000Z</time>
      </trkpt>
      <trkpt lat="44.44593" lon="2.39484">
        <ele>569.9</ele>
        <time>2022-09-18T07:43:01.000Z</time>
      </trkpt>
      <trkpt lat="44.44598" lon="2.39467">
        <ele>569.9</ele>
        <time>2022-09-18T07:43:04.000Z</time>
      </trkpt>
      <trkpt lat="44.44602" lon="2.39449">
        <ele>570</ele>
        <time>2022-09-18T07:43:07.000Z</time>
      </trkpt>
      <trkpt lat="44.44605" lon="2.39433">
        <ele>570</ele>
        <time>2022-09-18T07:43:10.000Z</time>
      </trkpt>
      <trkpt lat="44.44609" lon="2.3942">
        <ele>570</ele>
        <time>2022-09-18T07:43:13.000Z</time>
      </trkpt>
      <trkpt lat="44.44612" lon="2.39407">
        <ele>569.8</ele>
        <time>2022-09-18T07:43:16.000Z</time>
      </trkpt>
      <trkpt lat="44.44615" lon="2.39391">
        <ele>570.1</ele>
        <time>2022-09-18T07:43:19.000Z</time>
      </trkpt>
      <trkpt lat="44.44618" lon="2.39378">
        <ele>569.9</ele>
        <time>2022-09-18T07:43:21.000Z</time>
      </trkpt>
      <trkpt lat="44.44621" lon="2.39364">
        <ele>569.7</ele>
        <time>2022-09-18T07:43:23.000Z</time>
      </trkpt>
      <trkpt lat="44.44625" lon="2.3935">
        <ele>569.2</ele>
        <time>2022-09-18T07:43:25.000Z</time>
      </trkpt>
      <trkpt lat="44.44628" lon="2.39335">
        <ele>568.2</ele>
        <time>2022-09-18T07:43:27.000Z</time>
      </trkpt>
      <trkpt lat="44.44632" lon="2.39321">
        <ele>568.6</ele>
        <time>2022-09-18T07:43:29.000Z</time>
      </trkpt>
      <trkpt lat="44.44635" lon="2.39307">
        <ele>568.3</ele>
        <time>2022-09-18T07:43:31.000Z</time>
      </trkpt>
      <trkpt lat="44.44639" lon="2.39292">
        <ele>567.5</ele>
        <time>2022-09-18T07:43:33.000Z</time>
      </trkpt>
      <trkpt lat="44.44642" lon="2.39277">
        <ele>567.4</ele>
        <time>2022-09-18T07:43:35.000Z</time>
      </trkpt>
      <trkpt lat="44.44646" lon="2.39261">
        <ele>567.2</ele>
        <time>2022-09-18T07:43:37.000Z</time>
      </trkpt>
      <trkpt lat="44.44651" lon="2.39248">
        <ele>567</ele>
        <time>2022-09-18T07:43:39.000Z</time>
      </trkpt>
      <trkpt lat="44.44659" lon="2.39242">
        <ele>567.5</ele>
        <time>2022-09-18T07:43:41.000Z</time>
      </trkpt>
      <trkpt lat="44.44672" lon="2.39241">
        <ele>568</ele>
        <time>2022-09-18T07:43:44.000Z</time>
      </trkpt>
      <trkpt lat="44.44681" lon="2.39229">
        <ele>568.1</ele>
        <time>2022-09-18T07:43:47.000Z</time>
      </trkpt>
      <trkpt lat="44.4468" lon="2.3921">
        <ele>568.3</ele>
        <time>2022-09-18T07:43:50.000Z</time>
      </trkpt>
      <trkpt lat="44.44678" lon="2.39198">
        <ele>568.4</ele>
        <time>2022-09-18T07:43:52.000Z</time>
      </trkpt>
      <trkpt lat="44.44675" lon="2.3918">
        <ele>568.8</ele>
        <time>2022-09-18T07:43:55.000Z</time>
      </trkpt>
      <trkpt lat="44.44672" lon="2.39164">
        <ele>569.2</ele>
        <time>2022-09-18T07:43:58.000Z</time>
      </trkpt>
      <trkpt lat="44.4467" lon="2.39149">
        <ele>569.5</ele>
        <time>2022-09-18T07:44:01.000Z</time>
      </trkpt>
      <trkpt lat="44.44667" lon="2.39133">
        <ele>569</ele>
        <time>2022-09-18T07:44:04.000Z</time>
      </trkpt>
      <trkpt lat="44.44663" lon="2.39115">
        <ele>568.6</ele>
        <time>2022-09-18T07:44:07.000Z</time>
      </trkpt>
      <trkpt lat="44.44659" lon="2.39103">
        <ele>567.8</ele>
        <time>2022-09-18T07:44:09.000Z</time>
      </trkpt>
      <trkpt lat="44.44657" lon="2.39089">
        <ele>567.3</ele>
        <time>2022-09-18T07:44:11.000Z</time>
      </trkpt>
      <trkpt lat="44.44655" lon="2.39074">
        <ele>566.8</ele>
        <time>2022-09-18T07:44:13.000Z</time>
      </trkpt>
      <trkpt lat="44.44654" lon="2.39058">
        <ele>566.2</ele>
        <time>2022-09-18T07:44:15.000Z</time>
      </trkpt>
      <trkpt lat="44.44653" lon="2.39045">
        <ele>565.8</ele>
        <time>2022-09-18T07:44:17.000Z</time>
      </trkpt>
      <trkpt lat="44.44648" lon="2.39033">
        <ele>565.4</ele>
        <time>2022-09-18T07:44:20.000Z</time>
      </trkpt>
      <trkpt lat="44.44639" lon="2.39036">
        <ele>564.8</ele>
        <time>2022-09-18T07:44:23.000Z</time>
      </trkpt>
      <trkpt lat="44.44632" lon="2.39048">
        <ele>564.7</ele>
        <time>2022-09-18T07:44:26.000Z</time>
      </trkpt>
      <trkpt lat="44.44625" lon="2.39056">
        <ele>564.1</ele>
        <time>2022-09-18T07:44:28.000Z</time>
      </trkpt>
      <trkpt lat="44.44617" lon="2.39065">
        <ele>563.7</ele>
        <time>2022-09-18T07:44:30.000Z</time>
      </trkpt>
      <trkpt lat="44.4461" lon="2.39072">
        <ele>564.3</ele>
        <time>2022-09-18T07:44:32.000Z</time>
      </trkpt>
      <trkpt lat="44.44602" lon="2.3908">
        <ele>564.5</ele>
        <time>2022-09-18T07:44:34.000Z</time>
      </trkpt>
      <trkpt lat="44.44594" lon="2.39088">
        <ele>564.3</ele>
        <time>2022-09-18T07:44:36.000Z</time>
      </trkpt>
      <trkpt lat="44.44586" lon="2.39097">
        <ele>563.9</ele>
        <time>2022-09-18T07:44:38.000Z</time>
      </trkpt>
      <trkpt lat="44.44577" lon="2.39105">
        <ele>563.9</ele>
        <time>2022-09-18T07:44:40.000Z</time>
      </trkpt>
      <trkpt lat="44.44568" lon="2.39114">
        <ele>563.5</ele>
        <time>2022-09-18T07:44:42.000Z</time>
      </trkpt>
      <trkpt lat="44.44559" lon="2.39124">
        <ele>562.9</ele>
        <time>2022-09-18T07:44:44.000Z</time>
      </trkpt>
      <trkpt lat="44.44551" lon="2.39135">
        <ele>562.9</ele>
        <time>2022-09-18T07:44:46.000Z</time>
      </trkpt>
      <trkpt lat="44.44542" lon="2.39146">
        <ele>562.2</ele>
        <time>2022-09-18T07:44:48.000Z</time>
      </trkpt>
      <trkpt lat="44.44533" lon="2.39157">
        <ele>561.4</ele>
        <time>2022-09-18T07:44:50.000Z</time>
      </trkpt>
      <trkpt lat="44.44523" lon="2.39169">
        <ele>560.4</ele>
        <time>2022-09-18T07:44:52.000Z</time>
      </trkpt>
      <trkpt lat="44.44513" lon="2.39182">
        <ele>559.6</ele>
        <time>2022-09-18T07:44:54.000Z</time>
      </trkpt>
      <trkpt lat="44.44502" lon="2.39193">
        <ele>559.7</ele>
        <time>2022-09-18T07:44:56.000Z</time>
      </trkpt>
      <trkpt lat="44.44493" lon="2.39204">
        <ele>560.2</ele>
        <time>2022-09-18T07:44:58.000Z</time>
      </trkpt>
      <trkpt lat="44.44484" lon="2.39215">
        <ele>560.2</ele>
        <time>2022-09-18T07:45:00.000Z</time>
      </trkpt>
      <trkpt lat="44.44476" lon="2.39225">
        <ele>560.4</ele>
        <time>2022-09-18T07:45:02.000Z</time>
      </trkpt>
      <trkpt lat="44.44469" lon="2.39236">
        <ele>561</ele>
        <time>2022-09-18T07:45:04.000Z</time>
      </trkpt>
      <trkpt lat="44.44463" lon="2.39248">
        <ele>560.4</ele>
        <time>2022-09-18T07:45:06.000Z</time>
      </trkpt>
      <trkpt lat="44.44457" lon="2.39259">
        <ele>560.3</ele>
        <time>2022-09-18T07:45:08.000Z</time>
      </trkpt>
      <trkpt lat="44.44451" lon="2.39271">
        <ele>560.5</ele>
        <time>2022-09-18T07:45:10.000Z</time>
      </trkpt>
      <trkpt lat="44.44445" lon="2.39282">
        <ele>560.2</ele>
        <time>2022-09-18T07:45:12.000Z</time>
      </trkpt>
      <trkpt lat="44.44437" lon="2.39293">
        <ele>559.8</ele>
        <time>2022-09-18T07:45:14.000Z</time>
      </trkpt>
      <trkpt lat="44.44428" lon="2.39302">
        <ele>559.1</ele>
        <time>2022-09-18T07:45:16.000Z</time>
      </trkpt>
      <trkpt lat="44.44419" lon="2.39311">
        <ele>559.2</ele>
        <time>2022-09-18T07:45:18.000Z</time>
      </trkpt>
      <trkpt lat="44.44409" lon="2.39318">
        <ele>559.3</ele>
        <time>2022-09-18T07:45:20.000Z</time>
      </trkpt>
      <trkpt lat="44.44399" lon="2.39325">
        <ele>558.8</ele>
        <time>2022-09-18T07:45:22.000Z</time>
      </trkpt>
      <trkpt lat="44.44388" lon="2.39331">
        <ele>558.2</ele>
        <time>2022-09-18T07:45:24.000Z</time>
      </trkpt>
      <trkpt lat="44.44378" lon="2.39338">
        <ele>558.4</ele>
        <time>2022-09-18T07:45:26.000Z</time>
      </trkpt>
      <trkpt lat="44.44368" lon="2.39348">
        <ele>557.6</ele>
        <time>2022-09-18T07:45:28.000Z</time>
      </trkpt>
      <trkpt lat="44.44358" lon="2.39358">
        <ele>557.4</ele>
        <time>2022-09-18T07:45:30.000Z</time>
      </trkpt>
      <trkpt lat="44.44348" lon="2.39369">
        <ele>556.7</ele>
        <time>2022-09-18T07:45:32.000Z</time>
      </trkpt>
      <trkpt lat="44.44337" lon="2.39379">
        <ele>555.8</ele>
        <time>2022-09-18T07:45:34.000Z</time>
      </trkpt>
      <trkpt lat="44.44326" lon="2.39388">
        <ele>555.9</ele>
        <time>2022-09-18T07:45:36.000Z</time>
      </trkpt>
      <trkpt lat="44.44316" lon="2.39396">
        <ele>555.7</ele>
        <time>2022-09-18T07:45:38.000Z</time>
      </trkpt>
      <trkpt lat="44.44307" lon="2.39406">
        <ele>555.7</ele>
        <time>2022-09-18T07:45:40.000Z</time>
      </trkpt>
      <trkpt lat="44.44299" lon="2.39416">
        <ele>555.9</ele>
        <time>2022-09-18T07:45:42.000Z</time>
      </trkpt>
      <trkpt lat="44.44293" lon="2.39426">
        <ele>555.5</ele>
        <time>2022-09-18T07:45:44.000Z</time>
      </trkpt>
      <trkpt lat="44.44286" lon="2.39435">
        <ele>555.9</ele>
        <time>2022-09-18T07:45:46.000Z</time>
      </trkpt>
      <trkpt lat="44.4428" lon="2.39445">
        <ele>556.1</ele>
        <time>2022-09-18T07:45:48.000Z</time>
      </trkpt>
      <trkpt lat="44.44274" lon="2.39455">
        <ele>556.3</ele>
        <time>2022-09-18T07:45:50.000Z</time>
      </trkpt>
      <trkpt lat="44.44268" lon="2.39465">
        <ele>556.4</ele>
        <time>2022-09-18T07:45:52.000Z</time>
      </trkpt>
      <trkpt lat="44.44263" lon="2.39475">
        <ele>556.6</ele>
        <time>2022-09-18T07:45:54.000Z</time>
      </trkpt>
      <trkpt lat="44.44257" lon="2.39486">
        <ele>556.5</ele>
        <time>2022-09-18T07:45:56.000Z</time>
      </trkpt>
      <trkpt lat="44.44252" lon="2.39497">
        <ele>556.9</ele>
        <time>2022-09-18T07:45:58.000Z</time>
      </trkpt>
      <trkpt lat="44.44246" lon="2.39508">
        <ele>557.2</ele>
        <time>2022-09-18T07:46:00.000Z</time>
      </trkpt>
      <trkpt lat="44.44242" lon="2.3952">
        <ele>558</ele>
        <time>2022-09-18T07:46:02.000Z</time>
      </trkpt>
      <trkpt lat="44.44238" lon="2.39532">
        <ele>558.2</ele>
        <time>2022-09-18T07:46:04.000Z</time>
      </trkpt>
      <trkpt lat="44.44235" lon="2.39543">
        <ele>558.6</ele>
        <time>2022-09-18T07:46:06.000Z</time>
      </trkpt>
      <trkpt lat="44.4423" lon="2.39561">
        <ele>559.2</ele>
        <time>2022-09-18T07:46:09.000Z</time>
      </trkpt>
      <trkpt lat="44.44225" lon="2.39578">
        <ele>559.8</ele>
        <time>2022-09-18T07:46:12.000Z</time>
      </trkpt>
      <trkpt lat="44.44221" lon="2.39595">
        <ele>560.2</ele>
        <time>2022-09-18T07:46:15.000Z</time>
      </trkpt>
      <trkpt lat="44.44217" lon="2.39612">
        <ele>560.4</ele>
        <time>2022-09-18T07:46:18.000Z</time>
      </trkpt>
      <trkpt lat="44.44214" lon="2.39629">
        <ele>560.8</ele>
        <time>2022-09-18T07:46:21.000Z</time>
      </trkpt>
      <trkpt lat="44.44211" lon="2.39648">
        <ele>560.5</ele>
        <time>2022-09-18T07:46:24.000Z</time>
      </trkpt>
      <trkpt lat="44.44209" lon="2.39665">
        <ele>560.9</ele>
        <time>2022-09-18T07:46:27.000Z</time>
      </trkpt>
      <trkpt lat="44.44208" lon="2.39683">
        <ele>560.4</ele>
        <time>2022-09-18T07:46:30.000Z</time>
      </trkpt>
      <trkpt lat="44.44208" lon="2.39697">
        <ele>560.2</ele>
        <time>2022-09-18T07:46:32.000Z</time>
      </trkpt>
      <trkpt lat="44.44208" lon="2.39713">
        <ele>559.7</ele>
        <time>2022-09-18T07:46:34.000Z</time>
      </trkpt>
      <trkpt lat="44.44206" lon="2.39729">
        <ele>559.2</ele>
        <time>2022-09-18T07:46:36.000Z</time>
      </trkpt>
      <trkpt lat="44.44205" lon="2.39745">
        <ele>558.9</ele>
        <time>2022-09-18T07:46:38.000Z</time>
      </trkpt>
      <trkpt lat="44.44203" lon="2.39761">
        <ele>558.1</ele>
        <time>2022-09-18T07:46:40.000Z</time>
      </trkpt>
      <trkpt lat="44.44201" lon="2.39775">
        <ele>558</ele>
        <time>2022-09-18T07:46:42.000Z</time>
      </trkpt>
      <trkpt lat="44.442" lon="2.39789">
        <ele>558</ele>
        <time>2022-09-18T07:46:44.000Z</time>
      </trkpt>
      <trkpt lat="44.44199" lon="2.39804">
        <ele>558</ele>
        <time>2022-09-18T07:46:46.000Z</time>
      </trkpt>
      <trkpt lat="44.44199" lon="2.39818">
        <ele>558.7</ele>
        <time>2022-09-18T07:46:48.000Z</time>
      </trkpt>
      <trkpt lat="44.44198" lon="2.39831">
        <ele>558.5</ele>
        <time>2022-09-18T07:46:50.000Z</time>
      </trkpt>
      <trkpt lat="44.44199" lon="2.39849">
        <ele>558</ele>
        <time>2022-09-18T07:46:53.000Z</time>
      </trkpt>
      <trkpt lat="44.44199" lon="2.39866">
        <ele>557.5</ele>
        <time>2022-09-18T07:46:56.000Z</time>
      </trkpt>
      <trkpt lat="44.44198" lon="2.39882">
        <ele>556.9</ele>
        <time>2022-09-18T07:47:00.000Z</time>
      </trkpt>
      <trkpt lat="44.44188" lon="2.39883">
        <ele>556.1</ele>
        <time>2022-09-18T07:47:03.000Z</time>
      </trkpt>
      <trkpt lat="44.4418" lon="2.39879">
        <ele>556.6</ele>
        <time>2022-09-18T07:47:05.000Z</time>
      </trkpt>
      <trkpt lat="44.44171" lon="2.39875">
        <ele>556.2</ele>
        <time>2022-09-18T07:47:07.000Z</time>
      </trkpt>
      <trkpt lat="44.44162" lon="2.39871">
        <ele>556</ele>
        <time>2022-09-18T07:47:09.000Z</time>
      </trkpt>
      <trkpt lat="44.44153" lon="2.39868">
        <ele>556.3</ele>
        <time>2022-09-18T07:47:11.000Z</time>
      </trkpt>
      <trkpt lat="44.44144" lon="2.39864">
        <ele>555.8</ele>
        <time>2022-09-18T07:47:13.000Z</time>
      </trkpt>
      <trkpt lat="44.44134" lon="2.39861">
        <ele>556</ele>
        <time>2022-09-18T07:47:15.000Z</time>
      </trkpt>
      <trkpt lat="44.44125" lon="2.39859">
        <ele>556</ele>
        <time>2022-09-18T07:47:17.000Z</time>
      </trkpt>
      <trkpt lat="44.44116" lon="2.39857">
        <ele>556.1</ele>
        <time>2022-09-18T07:47:19.000Z</time>
      </trkpt>
      <trkpt lat="44.44106" lon="2.39854">
        <ele>555.7</ele>
        <time>2022-09-18T07:47:21.000Z</time>
      </trkpt>
      <trkpt lat="44.44097" lon="2.39851">
        <ele>555.6</ele>
        <time>2022-09-18T07:47:23.000Z</time>
      </trkpt>
      <trkpt lat="44.44088" lon="2.39848">
        <ele>555.9</ele>
        <time>2022-09-18T07:47:25.000Z</time>
      </trkpt>
      <trkpt lat="44.44079" lon="2.39844">
        <ele>555.7</ele>
        <time>2022-09-18T07:47:27.000Z</time>
      </trkpt>
      <trkpt lat="44.4407" lon="2.3984">
        <ele>555.4</ele>
        <time>2022-09-18T07:47:29.000Z</time>
      </trkpt>
      <trkpt lat="44.44062" lon="2.39834">
        <ele>555.7</ele>
        <time>2022-09-18T07:47:31.000Z</time>
      </trkpt>
      <trkpt lat="44.44054" lon="2.39828">
        <ele>556.3</ele>
        <time>2022-09-18T07:47:33.000Z</time>
      </trkpt>
      <trkpt lat="44.44042" lon="2.39831">
        <ele>556.4</ele>
        <time>2022-09-18T07:47:36.000Z</time>
      </trkpt>
      <trkpt lat="44.44035" lon="2.39839">
        <ele>556.9</ele>
        <time>2022-09-18T07:47:38.000Z</time>
      </trkpt>
      <trkpt lat="44.44027" lon="2.39848">
        <ele>556.5</ele>
        <time>2022-09-18T07:47:40.000Z</time>
      </trkpt>
      <trkpt lat="44.44021" lon="2.39858">
        <ele>555.8</ele>
        <time>2022-09-18T07:47:42.000Z</time>
      </trkpt>
      <trkpt lat="44.44016" lon="2.39869">
        <ele>556.4</ele>
        <time>2022-09-18T07:47:44.000Z</time>
      </trkpt>
      <trkpt lat="44.44011" lon="2.39884">
        <ele>557.8</ele>
        <time>2022-09-18T07:47:47.000Z</time>
      </trkpt>
      <trkpt lat="44.44004" lon="2.39897">
        <ele>558.6</ele>
        <time>2022-09-18T07:47:50.000Z</time>
      </trkpt>
      <trkpt lat="44.43995" lon="2.39908">
        <ele>559.2</ele>
        <time>2022-09-18T07:47:53.000Z</time>
      </trkpt>
      <trkpt lat="44.43986" lon="2.39916">
        <ele>559.9</ele>
        <time>2022-09-18T07:47:56.000Z</time>
      </trkpt>
      <trkpt lat="44.43977" lon="2.39925">
        <ele>560.2</ele>
        <time>2022-09-18T07:47:59.000Z</time>
      </trkpt>
      <trkpt lat="44.43969" lon="2.39935">
        <ele>560.9</ele>
        <time>2022-09-18T07:48:02.000Z</time>
      </trkpt>
      <trkpt lat="44.43959" lon="2.39941">
        <ele>560.6</ele>
        <time>2022-09-18T07:48:05.000Z</time>
      </trkpt>
      <trkpt lat="44.43948" lon="2.39938">
        <ele>561</ele>
        <time>2022-09-18T07:48:08.000Z</time>
      </trkpt>
      <trkpt lat="44.43938" lon="2.39934">
        <ele>561.1</ele>
        <time>2022-09-18T07:48:11.000Z</time>
      </trkpt>
      <trkpt lat="44.43927" lon="2.39931">
        <ele>561.3</ele>
        <time>2022-09-18T07:48:14.000Z</time>
      </trkpt>
      <trkpt lat="44.43917" lon="2.39926">
        <ele>561</ele>
        <time>2022-09-18T07:48:17.000Z</time>
      </trkpt>
      <trkpt lat="44.43906" lon="2.3992">
        <ele>560.6</ele>
        <time>2022-09-18T07:48:20.000Z</time>
      </trkpt>
      <trkpt lat="44.43896" lon="2.39913">
        <ele>560.6</ele>
        <time>2022-09-18T07:48:23.000Z</time>
      </trkpt>
      <trkpt lat="44.43885" lon="2.39909">
        <ele>560.4</ele>
        <time>2022-09-18T07:48:26.000Z</time>
      </trkpt>
      <trkpt lat="44.43877" lon="2.39918">
        <ele>560.6</ele>
        <time>2022-09-18T07:48:29.000Z</time>
      </trkpt>
      <trkpt lat="44.43872" lon="2.39932">
        <ele>560.7</ele>
        <time>2022-09-18T07:48:32.000Z</time>
      </trkpt>
      <trkpt lat="44.43864" lon="2.39944">
        <ele>560.6</ele>
        <time>2022-09-18T07:48:35.000Z</time>
      </trkpt>
      <trkpt lat="44.43852" lon="2.3995">
        <ele>560.4</ele>
        <time>2022-09-18T07:48:38.000Z</time>
      </trkpt>
      <trkpt lat="44.4384" lon="2.39954">
        <ele>560.3</ele>
        <time>2022-09-18T07:48:41.000Z</time>
      </trkpt>
      <trkpt lat="44.43829" lon="2.39955">
        <ele>561.1</ele>
        <time>2022-09-18T07:48:44.000Z</time>
      </trkpt>
      <trkpt lat="44.43818" lon="2.39952">
        <ele>561.4</ele>
        <time>2022-09-18T07:48:47.000Z</time>
      </trkpt>
      <trkpt lat="44.43806" lon="2.3995">
        <ele>561.8</ele>
        <time>2022-09-18T07:48:50.000Z</time>
      </trkpt>
      <trkpt lat="44.43796" lon="2.39948">
        <ele>562.9</ele>
        <time>2022-09-18T07:48:53.000Z</time>
      </trkpt>
      <trkpt lat="44.43786" lon="2.39946">
        <ele>563.6</ele>
        <time>2022-09-18T07:48:56.000Z</time>
      </trkpt>
      <trkpt lat="44.43777" lon="2.39946">
        <ele>564.9</ele>
        <time>2022-09-18T07:48:59.000Z</time>
      </trkpt>
      <trkpt lat="44.43768" lon="2.39947">
        <ele>565.4</ele>
        <time>2022-09-18T07:49:02.000Z</time>
      </trkpt>
      <trkpt lat="44.43756" lon="2.39948">
        <ele>566.2</ele>
        <time>2022-09-18T07:49:06.000Z</time>
      </trkpt>
      <trkpt lat="44.43745" lon="2.39941">
        <ele>566.6</ele>
        <time>2022-09-18T07:49:10.000Z</time>
      </trkpt>
      <trkpt lat="44.43735" lon="2.39932">
        <ele>567.3</ele>
        <time>2022-09-18T07:49:14.000Z</time>
      </trkpt>
      <trkpt lat="44.43728" lon="2.39925">
        <ele>568.2</ele>
        <time>2022-09-18T07:49:17.000Z</time>
      </trkpt>
      <trkpt lat="44.43719" lon="2.39915">
        <ele>569.1</ele>
        <time>2022-09-18T07:49:21.000Z</time>
      </trkpt>
      <trkpt lat="44.43709" lon="2.39906">
        <ele>570.4</ele>
        <time>2022-09-18T07:49:25.000Z</time>
      </trkpt>
      <trkpt lat="44.43702" lon="2.39897">
        <ele>571.7</ele>
        <time>2022-09-18T07:49:29.000Z</time>
      </trkpt>
      <trkpt lat="44.43695" lon="2.39888">
        <ele>574.2</ele>
        <time>2022-09-18T07:49:35.000Z</time>
      </trkpt>
      <trkpt lat="44.43686" lon="2.3988">
        <ele>575.6</ele>
        <time>2022-09-18T07:49:41.000Z</time>
      </trkpt>
      <trkpt lat="44.43678" lon="2.39872">
        <ele>577</ele>
        <time>2022-09-18T07:49:46.000Z</time>
      </trkpt>
      <trkpt lat="44.4367" lon="2.39863">
        <ele>577.7</ele>
        <time>2022-09-18T07:49:52.000Z</time>
      </trkpt>
      <trkpt lat="44.4366" lon="2.39862">
        <ele>577.9</ele>
        <time>2022-09-18T07:49:58.000Z</time>
      </trkpt>
      <trkpt lat="44.43654" lon="2.39873">
        <ele>578.3</ele>
        <time>2022-09-18T07:50:02.000Z</time>
      </trkpt>
      <trkpt lat="44.43649" lon="2.39885">
        <ele>578.4</ele>
        <time>2022-09-18T07:50:06.000Z</time>
      </trkpt>
      <trkpt lat="44.43644" lon="2.39898">
        <ele>577.9</ele>
        <time>2022-09-18T07:50:10.000Z</time>
      </trkpt>
      <trkpt lat="44.43638" lon="2.3991">
        <ele>577.7</ele>
        <time>2022-09-18T07:50:14.000Z</time>
      </trkpt>
      <trkpt lat="44.43636" lon="2.39926">
        <ele>577.5</ele>
        <time>2022-09-18T07:50:18.000Z</time>
      </trkpt>
      <trkpt lat="44.43639" lon="2.39943">
        <ele>576.9</ele>
        <time>2022-09-18T07:50:21.000Z</time>
      </trkpt>
      <trkpt lat="44.43641" lon="2.39957">
        <ele>576.1</ele>
        <time>2022-09-18T07:50:23.000Z</time>
      </trkpt>
      <trkpt lat="44.43644" lon="2.39972">
        <ele>575.9</ele>
        <time>2022-09-18T07:50:25.000Z</time>
      </trkpt>
      <trkpt lat="44.43648" lon="2.39988">
        <ele>574.6</ele>
        <time>2022-09-18T07:50:27.000Z</time>
      </trkpt>
      <trkpt lat="44.43651" lon="2.40005">
        <ele>573</ele>
        <time>2022-09-18T07:50:29.000Z</time>
      </trkpt>
      <trkpt lat="44.43655" lon="2.40022">
        <ele>572.1</ele>
        <time>2022-09-18T07:50:31.000Z</time>
      </trkpt>
      <trkpt lat="44.43658" lon="2.4004">
        <ele>571.5</ele>
        <time>2022-09-18T07:50:33.000Z</time>
      </trkpt>
      <trkpt lat="44.43663" lon="2.40059">
        <ele>570.8</ele>
        <time>2022-09-18T07:50:35.000Z</time>
      </trkpt>
      <trkpt lat="44.43666" lon="2.4008">
        <ele>569.7</ele>
        <time>2022-09-18T07:50:37.000Z</time>
      </trkpt>
      <trkpt lat="44.4367" lon="2.40099">
        <ele>568.9</ele>
        <time>2022-09-18T07:50:39.000Z</time>
      </trkpt>
      <trkpt lat="44.43673" lon="2.40117">
        <ele>567.9</ele>
        <time>2022-09-18T07:50:41.000Z</time>
      </trkpt>
      <trkpt lat="44.43675" lon="2.4013">
        <ele>566.5</ele>
        <time>2022-09-18T07:50:43.000Z</time>
      </trkpt>
      <trkpt lat="44.43672" lon="2.40144">
        <ele>565.4</ele>
        <time>2022-09-18T07:50:46.000Z</time>
      </trkpt>
      <trkpt lat="44.43663" lon="2.4014">
        <ele>565.6</ele>
        <time>2022-09-18T07:50:49.000Z</time>
      </trkpt>
      <trkpt lat="44.43654" lon="2.40132">
        <ele>565.6</ele>
        <time>2022-09-18T07:50:52.000Z</time>
      </trkpt>
      <trkpt lat="44.43644" lon="2.40125">
        <ele>566</ele>
        <time>2022-09-18T07:50:55.000Z</time>
      </trkpt>
      <trkpt lat="44.43632" lon="2.4012">
        <ele>566.3</ele>
        <time>2022-09-18T07:50:58.000Z</time>
      </trkpt>
      <trkpt lat="44.43621" lon="2.40118">
        <ele>566.6</ele>
        <time>2022-09-18T07:51:01.000Z</time>
      </trkpt>
      <trkpt lat="44.43611" lon="2.40119">
        <ele>567.6</ele>
        <time>2022-09-18T07:51:04.000Z</time>
      </trkpt>
      <trkpt lat="44.43602" lon="2.40121">
        <ele>568.1</ele>
        <time>2022-09-18T07:51:07.000Z</time>
      </trkpt>
      <trkpt lat="44.43592" lon="2.40125">
        <ele>568.7</ele>
        <time>2022-09-18T07:51:11.000Z</time>
      </trkpt>
      <trkpt lat="44.43582" lon="2.40129">
        <ele>569.6</ele>
        <time>2022-09-18T07:51:16.000Z</time>
      </trkpt>
      <trkpt lat="44.43573" lon="2.40134">
        <ele>570.6</ele>
        <time>2022-09-18T07:51:21.000Z</time>
      </trkpt>
      <trkpt lat="44.43563" lon="2.40133">
        <ele>571.6</ele>
        <time>2022-09-18T07:51:27.000Z</time>
      </trkpt>
      <trkpt lat="44.43553" lon="2.4013">
        <ele>572.2</ele>
        <time>2022-09-18T07:51:32.000Z</time>
      </trkpt>
      <trkpt lat="44.4355" lon="2.40137">
        <ele>572.6</ele>
        <time>2022-09-18T07:51:38.000Z</time>
      </trkpt>
      <trkpt lat="44.4355" lon="2.40137">
        <ele>572.7</ele>
        <time>2022-09-18T07:51:40.000Z</time>
      </trkpt>
      <trkpt lat="44.43554" lon="2.40134">
        <ele>572.4</ele>
        <time>2022-09-18T07:51:50.000Z</time>
      </trkpt>
      <trkpt lat="44.43554" lon="2.40134">
        <ele>572.4</ele>
        <time>2022-09-18T07:52:00.000Z</time>
      </trkpt>
      <trkpt lat="44.43555" lon="2.40135">
        <ele>571.8</ele>
        <time>2022-09-18T07:53:44.000Z</time>
      </trkpt>
      <trkpt lat="44.43554" lon="2.40135">
        <ele>571.8</ele>
        <time>2022-09-18T07:54:50.000Z</time>
      </trkpt>
      <trkpt lat="44.43554" lon="2.40135">
        <ele>571.8</ele>
        <time>2022-09-18T07:54:51.000Z</time>
      </trkpt>
      <trkpt lat="44.43555" lon="2.40135">
        <ele>571.7</ele>
        <time>2022-09-18T07:55:09.000Z</time>
      </trkpt>
      <trkpt lat="44.43555" lon="2.40135">
        <ele>571.7</ele>
        <time>2022-09-18T07:56:24.000Z</time>
      </trkpt>
      <trkpt lat="44.43555" lon="2.40135">
        <ele>571.7</ele>
        <time>2022-09-18T07:57:46.000Z</time>
      </trkpt>
      <trkpt lat="44.43555" lon="2.40135">
        <ele>571.7</ele>
        <time>2022-09-18T08:03:06.000Z</time>
      </trkpt>
      <trkpt lat="44.43555" lon="2.40135">
        <ele>571.6</ele>
        <time>2022-09-18T08:03:14.000Z</time>
      </trkpt>
      <trkpt lat="44.43555" lon="2.40135">
        <ele>571.3</ele>
        <time>2022-09-18T08:03:33.000Z</time>
      </trkpt>
      <trkpt lat="44.43555" lon="2.40134">
        <ele>571.3</ele>
        <time>2022-09-18T08:03:35.000Z</time>
      </trkpt>
      <trkpt lat="44.43555" lon="2.40133">
        <ele>571.7</ele>
        <time>2022-09-18T08:03:48.000Z</time>
      </trkpt>
      <trkpt lat="44.43555" lon="2.40133">
        <ele>571.5</ele>
        <time>2022-09-18T08:03:50.000Z</time>
      </trkpt>
      <trkpt lat="44.43555" lon="2.40133">
        <ele>571.1</ele>
        <time>2022-09-18T08:03:57.000Z</time>
      </trkpt>
      <trkpt lat="44.43556" lon="2.40118">
        <ele>572.1</ele>
        <time>2022-09-18T08:04:03.000Z</time>
      </trkpt>
      <trkpt lat="44.43559" lon="2.40104">
        <ele>572.5</ele>
        <time>2022-09-18T08:04:07.000Z</time>
      </trkpt>
      <trkpt lat="44.43562" lon="2.40089">
        <ele>573.7</ele>
        <time>2022-09-18T08:04:11.000Z</time>
      </trkpt>
      <trkpt lat="44.43564" lon="2.40074">
        <ele>574.3</ele>
        <time>2022-09-18T08:04:15.000Z</time>
      </trkpt>
      <trkpt lat="44.43567" lon="2.40058">
        <ele>575</ele>
        <time>2022-09-18T08:04:19.000Z</time>
      </trkpt>
      <trkpt lat="44.43571" lon="2.40045">
        <ele>574.8</ele>
        <time>2022-09-18T08:04:22.000Z</time>
      </trkpt>
      <trkpt lat="44.43573" lon="2.40032">
        <ele>575.2</ele>
        <time>2022-09-18T08:04:25.000Z</time>
      </trkpt>
      <trkpt lat="44.43578" lon="2.4002">
        <ele>575.5</ele>
        <time>2022-09-18T08:04:28.000Z</time>
      </trkpt>
      <trkpt lat="44.43584" lon="2.40008">
        <ele>575.7</ele>
        <time>2022-09-18T08:04:31.000Z</time>
      </trkpt>
      <trkpt lat="44.43591" lon="2.39996">
        <ele>575.7</ele>
        <time>2022-09-18T08:04:35.000Z</time>
      </trkpt>
      <trkpt lat="44.43597" lon="2.39983">
        <ele>576</ele>
        <time>2022-09-18T08:04:39.000Z</time>
      </trkpt>
      <trkpt lat="44.43604" lon="2.39971">
        <ele>576.1</ele>
        <time>2022-09-18T08:04:42.000Z</time>
      </trkpt>
      <trkpt lat="44.4361" lon="2.3996">
        <ele>576.6</ele>
        <time>2022-09-18T08:04:45.000Z</time>
      </trkpt>
      <trkpt lat="44.43616" lon="2.39948">
        <ele>576.4</ele>
        <time>2022-09-18T08:04:48.000Z</time>
      </trkpt>
      <trkpt lat="44.43623" lon="2.39936">
        <ele>577</ele>
        <time>2022-09-18T08:04:51.000Z</time>
      </trkpt>
      <trkpt lat="44.4363" lon="2.39924">
        <ele>576.6</ele>
        <time>2022-09-18T08:04:54.000Z</time>
      </trkpt>
      <trkpt lat="44.43633" lon="2.39911">
        <ele>576.4</ele>
        <time>2022-09-18T08:04:57.000Z</time>
      </trkpt>
      <trkpt lat="44.4363" lon="2.39897">
        <ele>576.8</ele>
        <time>2022-09-18T08:05:00.000Z</time>
      </trkpt>
      <trkpt lat="44.43625" lon="2.39886">
        <ele>576.7</ele>
        <time>2022-09-18T08:05:03.000Z</time>
      </trkpt>
      <trkpt lat="44.43621" lon="2.39874">
        <ele>576.6</ele>
        <time>2022-09-18T08:05:06.000Z</time>
      </trkpt>
      <trkpt lat="44.43617" lon="2.3986">
        <ele>576.1</ele>
        <time>2022-09-18T08:05:09.000Z</time>
      </trkpt>
      <trkpt lat="44.43614" lon="2.39843">
        <ele>575.7</ele>
        <time>2022-09-18T08:05:12.000Z</time>
      </trkpt>
      <trkpt lat="44.43612" lon="2.3983">
        <ele>574.7</ele>
        <time>2022-09-18T08:05:14.000Z</time>
      </trkpt>
      <trkpt lat="44.43608" lon="2.39816">
        <ele>574.6</ele>
        <time>2022-09-18T08:05:16.000Z</time>
      </trkpt>
      <trkpt lat="44.43603" lon="2.39802">
        <ele>573.2</ele>
        <time>2022-09-18T08:05:18.000Z</time>
      </trkpt>
      <trkpt lat="44.43596" lon="2.39786">
        <ele>572.2</ele>
        <time>2022-09-18T08:05:20.000Z</time>
      </trkpt>
      <trkpt lat="44.43587" lon="2.39769">
        <ele>571.6</ele>
        <time>2022-09-18T08:05:22.000Z</time>
      </trkpt>
      <trkpt lat="44.43578" lon="2.3975">
        <ele>569.7</ele>
        <time>2022-09-18T08:05:24.000Z</time>
      </trkpt>
      <trkpt lat="44.43567" lon="2.39731">
        <ele>568.9</ele>
        <time>2022-09-18T08:05:26.000Z</time>
      </trkpt>
      <trkpt lat="44.43562" lon="2.39721">
        <ele>567.4</ele>
        <time>2022-09-18T08:05:27.000Z</time>
      </trkpt>
      <trkpt lat="44.43557" lon="2.3971">
        <ele>566.6</ele>
        <time>2022-09-18T08:05:28.000Z</time>
      </trkpt>
      <trkpt lat="44.43552" lon="2.39698">
        <ele>566.4</ele>
        <time>2022-09-18T08:05:29.000Z</time>
      </trkpt>
      <trkpt lat="44.43548" lon="2.39686">
        <ele>566</ele>
        <time>2022-09-18T08:05:30.000Z</time>
      </trkpt>
      <trkpt lat="44.43545" lon="2.39674">
        <ele>565.3</ele>
        <time>2022-09-18T08:05:31.000Z</time>
      </trkpt>
      <trkpt lat="44.43541" lon="2.39662">
        <ele>565.1</ele>
        <time>2022-09-18T08:05:32.000Z</time>
      </trkpt>
      <trkpt lat="44.43538" lon="2.3965">
        <ele>564.8</ele>
        <time>2022-09-18T08:05:33.000Z</time>
      </trkpt>
      <trkpt lat="44.43531" lon="2.39627">
        <ele>564.2</ele>
        <time>2022-09-18T08:05:35.000Z</time>
      </trkpt>
      <trkpt lat="44.43525" lon="2.39606">
        <ele>563.7</ele>
        <time>2022-09-18T08:05:37.000Z</time>
      </trkpt>
      <trkpt lat="44.43519" lon="2.39586">
        <ele>563.3</ele>
        <time>2022-09-18T08:05:39.000Z</time>
      </trkpt>
      <trkpt lat="44.43512" lon="2.39568">
        <ele>563.8</ele>
        <time>2022-09-18T08:05:41.000Z</time>
      </trkpt>
      <trkpt lat="44.43505" lon="2.39552">
        <ele>564.1</ele>
        <time>2022-09-18T08:05:43.000Z</time>
      </trkpt>
      <trkpt lat="44.43499" lon="2.39538">
        <ele>563.9</ele>
        <time>2022-09-18T08:05:45.000Z</time>
      </trkpt>
      <trkpt lat="44.43493" lon="2.39525">
        <ele>563.5</ele>
        <time>2022-09-18T08:05:47.000Z</time>
      </trkpt>
      <trkpt lat="44.43488" lon="2.39514">
        <ele>563.8</ele>
        <time>2022-09-18T08:05:49.000Z</time>
      </trkpt>
      <trkpt lat="44.43485" lon="2.39501">
        <ele>563.4</ele>
        <time>2022-09-18T08:05:52.000Z</time>
      </trkpt>
      <trkpt lat="44.43493" lon="2.39498">
        <ele>563</ele>
        <time>2022-09-18T08:05:55.000Z</time>
      </trkpt>
      <trkpt lat="44.43503" lon="2.39503">
        <ele>562.7</ele>
        <time>2022-09-18T08:05:57.000Z</time>
      </trkpt>
      <trkpt lat="44.43514" lon="2.39508">
        <ele>562.6</ele>
        <time>2022-09-18T08:05:59.000Z</time>
      </trkpt>
      <trkpt lat="44.43524" lon="2.39515">
        <ele>562.6</ele>
        <time>2022-09-18T08:06:01.000Z</time>
      </trkpt>
      <trkpt lat="44.43533" lon="2.39523">
        <ele>562.3</ele>
        <time>2022-09-18T08:06:03.000Z</time>
      </trkpt>
      <trkpt lat="44.43543" lon="2.39533">
        <ele>561.2</ele>
        <time>2022-09-18T08:06:05.000Z</time>
      </trkpt>
      <trkpt lat="44.43552" lon="2.39541">
        <ele>560.3</ele>
        <time>2022-09-18T08:06:07.000Z</time>
      </trkpt>
      <trkpt lat="44.43556" lon="2.39546">
        <ele>559.8</ele>
        <time>2022-09-18T08:06:11.000Z</time>
      </trkpt>
      <trkpt lat="44.43557" lon="2.39546">
        <ele>560</ele>
        <time>2022-09-18T08:06:25.000Z</time>
      </trkpt>
      <trkpt lat="44.43563" lon="2.39555">
        <ele>560</ele>
        <time>2022-09-18T08:06:30.000Z</time>
      </trkpt>
      <trkpt lat="44.43573" lon="2.39566">
        <ele>559.7</ele>
        <time>2022-09-18T08:06:33.000Z</time>
      </trkpt>
      <trkpt lat="44.43583" lon="2.39579">
        <ele>559.8</ele>
        <time>2022-09-18T08:06:36.000Z</time>
      </trkpt>
      <trkpt lat="44.43592" lon="2.39592">
        <ele>559.6</ele>
        <time>2022-09-18T08:06:39.000Z</time>
      </trkpt>
      <trkpt lat="44.43599" lon="2.39601">
        <ele>559.9</ele>
        <time>2022-09-18T08:06:41.000Z</time>
      </trkpt>
      <trkpt lat="44.43607" lon="2.39607">
        <ele>560.3</ele>
        <time>2022-09-18T08:06:43.000Z</time>
      </trkpt>
      <trkpt lat="44.4362" lon="2.3961">
        <ele>560.6</ele>
        <time>2022-09-18T08:06:46.000Z</time>
      </trkpt>
      <trkpt lat="44.43632" lon="2.39609">
        <ele>560.9</ele>
        <time>2022-09-18T08:06:49.000Z</time>
      </trkpt>
      <trkpt lat="44.43643" lon="2.39605">
        <ele>560.9</ele>
        <time>2022-09-18T08:06:52.000Z</time>
      </trkpt>
      <trkpt lat="44.43656" lon="2.39601">
        <ele>561.1</ele>
        <time>2022-09-18T08:06:55.000Z</time>
      </trkpt>
      <trkpt lat="44.43665" lon="2.39597">
        <ele>561.6</ele>
        <time>2022-09-18T08:06:57.000Z</time>
      </trkpt>
      <trkpt lat="44.43674" lon="2.39592">
        <ele>562.1</ele>
        <time>2022-09-18T08:06:59.000Z</time>
      </trkpt>
      <trkpt lat="44.43684" lon="2.39588">
        <ele>560.8</ele>
        <time>2022-09-18T08:07:01.000Z</time>
      </trkpt>
      <trkpt lat="44.43693" lon="2.39585">
        <ele>561.1</ele>
        <time>2022-09-18T08:07:03.000Z</time>
      </trkpt>
      <trkpt lat="44.43705" lon="2.39582">
        <ele>562.2</ele>
        <time>2022-09-18T08:07:06.000Z</time>
      </trkpt>
      <trkpt lat="44.43714" lon="2.39588">
        <ele>563.3</ele>
        <time>2022-09-18T08:07:09.000Z</time>
      </trkpt>
      <trkpt lat="44.43725" lon="2.39595">
        <ele>565</ele>
        <time>2022-09-18T08:07:13.000Z</time>
      </trkpt>
      <trkpt lat="44.43735" lon="2.39597">
        <ele>566.3</ele>
        <time>2022-09-18T08:07:17.000Z</time>
      </trkpt>
      <trkpt lat="44.43744" lon="2.39598">
        <ele>567.5</ele>
        <time>2022-09-18T08:07:20.000Z</time>
      </trkpt>
      <trkpt lat="44.43754" lon="2.39599">
        <ele>568.5</ele>
        <time>2022-09-18T08:07:23.000Z</time>
      </trkpt>
      <trkpt lat="44.43766" lon="2.39602">
        <ele>569.1</ele>
        <time>2022-09-18T08:07:27.000Z</time>
      </trkpt>
      <trkpt lat="44.43775" lon="2.39605">
        <ele>569.9</ele>
        <time>2022-09-18T08:07:30.000Z</time>
      </trkpt>
      <trkpt lat="44.43785" lon="2.39608">
        <ele>570.7</ele>
        <time>2022-09-18T08:07:34.000Z</time>
      </trkpt>
      <trkpt lat="44.43788" lon="2.39595">
        <ele>569.7</ele>
        <time>2022-09-18T08:07:38.000Z</time>
      </trkpt>
      <trkpt lat="44.43786" lon="2.39577">
        <ele>567.8</ele>
        <time>2022-09-18T08:07:40.000Z</time>
      </trkpt>
      <trkpt lat="44.43784" lon="2.39556">
        <ele>565.7</ele>
        <time>2022-09-18T08:07:42.000Z</time>
      </trkpt>
      <trkpt lat="44.4378" lon="2.39533">
        <ele>564.4</ele>
        <time>2022-09-18T08:07:44.000Z</time>
      </trkpt>
      <trkpt lat="44.43773" lon="2.3951">
        <ele>561.3</ele>
        <time>2022-09-18T08:07:46.000Z</time>
      </trkpt>
      <trkpt lat="44.43769" lon="2.39498">
        <ele>559.7</ele>
        <time>2022-09-18T08:07:47.000Z</time>
      </trkpt>
      <trkpt lat="44.43765" lon="2.39485">
        <ele>557.9</ele>
        <time>2022-09-18T08:07:48.000Z</time>
      </trkpt>
      <trkpt lat="44.4376" lon="2.39471">
        <ele>557.3</ele>
        <time>2022-09-18T08:07:49.000Z</time>
      </trkpt>
      <trkpt lat="44.43755" lon="2.39457">
        <ele>556.1</ele>
        <time>2022-09-18T08:07:50.000Z</time>
      </trkpt>
      <trkpt lat="44.43751" lon="2.39443">
        <ele>555.2</ele>
        <time>2022-09-18T08:07:51.000Z</time>
      </trkpt>
      <trkpt lat="44.43746" lon="2.3943">
        <ele>554.1</ele>
        <time>2022-09-18T08:07:52.000Z</time>
      </trkpt>
      <trkpt lat="44.43742" lon="2.39417">
        <ele>553.7</ele>
        <time>2022-09-18T08:07:53.000Z</time>
      </trkpt>
      <trkpt lat="44.43737" lon="2.39404">
        <ele>553.6</ele>
        <time>2022-09-18T08:07:54.000Z</time>
      </trkpt>
      <trkpt lat="44.43733" lon="2.39391">
        <ele>553.9</ele>
        <time>2022-09-18T08:07:55.000Z</time>
      </trkpt>
      <trkpt lat="44.43729" lon="2.39379">
        <ele>553</ele>
        <time>2022-09-18T08:07:56.000Z</time>
      </trkpt>
      <trkpt lat="44.43722" lon="2.39358">
        <ele>551.9</ele>
        <time>2022-09-18T08:07:58.000Z</time>
      </trkpt>
      <trkpt lat="44.43716" lon="2.39339">
        <ele>552.1</ele>
        <time>2022-09-18T08:08:00.000Z</time>
      </trkpt>
      <trkpt lat="44.43712" lon="2.39324">
        <ele>552.6</ele>
        <time>2022-09-18T08:08:02.000Z</time>
      </trkpt>
      <trkpt lat="44.43707" lon="2.39309">
        <ele>553.5</ele>
        <time>2022-09-18T08:08:05.000Z</time>
      </trkpt>
      <trkpt lat="44.43703" lon="2.39294">
        <ele>554.4</ele>
        <time>2022-09-18T08:08:08.000Z</time>
      </trkpt>
      <trkpt lat="44.43698" lon="2.39279">
        <ele>555.1</ele>
        <time>2022-09-18T08:08:11.000Z</time>
      </trkpt>
      <trkpt lat="44.43694" lon="2.39263">
        <ele>556.2</ele>
        <time>2022-09-18T08:08:14.000Z</time>
      </trkpt>
      <trkpt lat="44.43689" lon="2.39247">
        <ele>556.8</ele>
        <time>2022-09-18T08:08:17.000Z</time>
      </trkpt>
      <trkpt lat="44.43684" lon="2.39231">
        <ele>557.2</ele>
        <time>2022-09-18T08:08:20.000Z</time>
      </trkpt>
      <trkpt lat="44.43679" lon="2.39215">
        <ele>557.7</ele>
        <time>2022-09-18T08:08:23.000Z</time>
      </trkpt>
      <trkpt lat="44.43674" lon="2.39199">
        <ele>558.3</ele>
        <time>2022-09-18T08:08:26.000Z</time>
      </trkpt>
      <trkpt lat="44.43669" lon="2.39182">
        <ele>558.7</ele>
        <time>2022-09-18T08:08:29.000Z</time>
      </trkpt>
      <trkpt lat="44.43665" lon="2.39167">
        <ele>559.5</ele>
        <time>2022-09-18T08:08:32.000Z</time>
      </trkpt>
      <trkpt lat="44.43661" lon="2.39153">
        <ele>559.8</ele>
        <time>2022-09-18T08:08:35.000Z</time>
      </trkpt>
      <trkpt lat="44.43656" lon="2.39139">
        <ele>560</ele>
        <time>2022-09-18T08:08:38.000Z</time>
      </trkpt>
      <trkpt lat="44.43652" lon="2.39123">
        <ele>559.6</ele>
        <time>2022-09-18T08:08:41.000Z</time>
      </trkpt>
      <trkpt lat="44.43647" lon="2.39106">
        <ele>559.9</ele>
        <time>2022-09-18T08:08:44.000Z</time>
      </trkpt>
      <trkpt lat="44.43643" lon="2.39089">
        <ele>560.3</ele>
        <time>2022-09-18T08:08:47.000Z</time>
      </trkpt>
      <trkpt lat="44.43639" lon="2.39078">
        <ele>560</ele>
        <time>2022-09-18T08:08:49.000Z</time>
      </trkpt>
      <trkpt lat="44.43634" lon="2.39066">
        <ele>559.8</ele>
        <time>2022-09-18T08:08:51.000Z</time>
      </trkpt>
      <trkpt lat="44.43629" lon="2.39055">
        <ele>559.5</ele>
        <time>2022-09-18T08:08:53.000Z</time>
      </trkpt>
      <trkpt lat="44.43625" lon="2.39043">
        <ele>559.5</ele>
        <time>2022-09-18T08:08:55.000Z</time>
      </trkpt>
      <trkpt lat="44.43622" lon="2.39031">
        <ele>559.6</ele>
        <time>2022-09-18T08:08:57.000Z</time>
      </trkpt>
      <trkpt lat="44.4362" lon="2.39013">
        <ele>559.3</ele>
        <time>2022-09-18T08:09:00.000Z</time>
      </trkpt>
      <trkpt lat="44.43618" lon="2.38995">
        <ele>559.2</ele>
        <time>2022-09-18T08:09:03.000Z</time>
      </trkpt>
      <trkpt lat="44.43617" lon="2.38982">
        <ele>559.5</ele>
        <time>2022-09-18T08:09:05.000Z</time>
      </trkpt>
      <trkpt lat="44.43615" lon="2.3897">
        <ele>560</ele>
        <time>2022-09-18T08:09:07.000Z</time>
      </trkpt>
      <trkpt lat="44.43614" lon="2.38957">
        <ele>559.8</ele>
        <time>2022-09-18T08:09:09.000Z</time>
      </trkpt>
      <trkpt lat="44.43612" lon="2.38944">
        <ele>560.3</ele>
        <time>2022-09-18T08:09:11.000Z</time>
      </trkpt>
      <trkpt lat="44.4361" lon="2.38927">
        <ele>560.6</ele>
        <time>2022-09-18T08:09:14.000Z</time>
      </trkpt>
      <trkpt lat="44.43606" lon="2.3891">
        <ele>561.7</ele>
        <time>2022-09-18T08:09:17.000Z</time>
      </trkpt>
      <trkpt lat="44.43604" lon="2.38893">
        <ele>562.3</ele>
        <time>2022-09-18T08:09:20.000Z</time>
      </trkpt>
      <trkpt lat="44.43602" lon="2.38876">
        <ele>562.8</ele>
        <time>2022-09-18T08:09:23.000Z</time>
      </trkpt>
      <trkpt lat="44.43602" lon="2.38859">
        <ele>563.1</ele>
        <time>2022-09-18T08:09:26.000Z</time>
      </trkpt>
      <trkpt lat="44.43601" lon="2.38842">
        <ele>562.6</ele>
        <time>2022-09-18T08:09:29.000Z</time>
      </trkpt>
      <trkpt lat="44.43601" lon="2.38825">
        <ele>563.5</ele>
        <time>2022-09-18T08:09:32.000Z</time>
      </trkpt>
      <trkpt lat="44.436" lon="2.38808">
        <ele>563.2</ele>
        <time>2022-09-18T08:09:35.000Z</time>
      </trkpt>
      <trkpt lat="44.43601" lon="2.38791">
        <ele>563.4</ele>
        <time>2022-09-18T08:09:38.000Z</time>
      </trkpt>
      <trkpt lat="44.436" lon="2.38773">
        <ele>563.7</ele>
        <time>2022-09-18T08:09:41.000Z</time>
      </trkpt>
      <trkpt lat="44.43597" lon="2.38755">
        <ele>563.8</ele>
        <time>2022-09-18T08:09:44.000Z</time>
      </trkpt>
      <trkpt lat="44.43594" lon="2.38743">
        <ele>563</ele>
        <time>2022-09-18T08:09:46.000Z</time>
      </trkpt>
      <trkpt lat="44.4359" lon="2.3873">
        <ele>562.6</ele>
        <time>2022-09-18T08:09:48.000Z</time>
      </trkpt>
      <trkpt lat="44.43585" lon="2.38716">
        <ele>562.9</ele>
        <time>2022-09-18T08:09:50.000Z</time>
      </trkpt>
      <trkpt lat="44.43582" lon="2.38702">
        <ele>562.6</ele>
        <time>2022-09-18T08:09:52.000Z</time>
      </trkpt>
      <trkpt lat="44.43579" lon="2.38686">
        <ele>561.9</ele>
        <time>2022-09-18T08:09:54.000Z</time>
      </trkpt>
      <trkpt lat="44.43576" lon="2.38671">
        <ele>562.3</ele>
        <time>2022-09-18T08:09:56.000Z</time>
      </trkpt>
      <trkpt lat="44.43574" lon="2.38656">
        <ele>561.9</ele>
        <time>2022-09-18T08:09:58.000Z</time>
      </trkpt>
      <trkpt lat="44.43572" lon="2.38641">
        <ele>561.6</ele>
        <time>2022-09-18T08:10:00.000Z</time>
      </trkpt>
      <trkpt lat="44.4357" lon="2.38627">
        <ele>561.1</ele>
        <time>2022-09-18T08:10:02.000Z</time>
      </trkpt>
      <trkpt lat="44.43568" lon="2.38612">
        <ele>562</ele>
        <time>2022-09-18T08:10:04.000Z</time>
      </trkpt>
      <trkpt lat="44.43565" lon="2.38597">
        <ele>561.6</ele>
        <time>2022-09-18T08:10:06.000Z</time>
      </trkpt>
      <trkpt lat="44.43562" lon="2.38582">
        <ele>560.8</ele>
        <time>2022-09-18T08:10:08.000Z</time>
      </trkpt>
      <trkpt lat="44.4356" lon="2.38566">
        <ele>560.1</ele>
        <time>2022-09-18T08:10:10.000Z</time>
      </trkpt>
      <trkpt lat="44.43557" lon="2.38551">
        <ele>559.9</ele>
        <time>2022-09-18T08:10:12.000Z</time>
      </trkpt>
      <trkpt lat="44.43554" lon="2.38536">
        <ele>559.9</ele>
        <time>2022-09-18T08:10:14.000Z</time>
      </trkpt>
      <trkpt lat="44.43551" lon="2.3852">
        <ele>559.7</ele>
        <time>2022-09-18T08:10:16.000Z</time>
      </trkpt>
      <trkpt lat="44.43548" lon="2.38506">
        <ele>560.2</ele>
        <time>2022-09-18T08:10:18.000Z</time>
      </trkpt>
      <trkpt lat="44.43545" lon="2.3849">
        <ele>559.8</ele>
        <time>2022-09-18T08:10:20.000Z</time>
      </trkpt>
      <trkpt lat="44.43541" lon="2.38476">
        <ele>559</ele>
        <time>2022-09-18T08:10:22.000Z</time>
      </trkpt>
      <trkpt lat="44.43543" lon="2.3846">
        <ele>559.2</ele>
        <time>2022-09-18T08:10:25.000Z</time>
      </trkpt>
      <trkpt lat="44.43553" lon="2.38451">
        <ele>560.2</ele>
        <time>2022-09-18T08:10:28.000Z</time>
      </trkpt>
      <trkpt lat="44.43563" lon="2.38441">
        <ele>560.8</ele>
        <time>2022-09-18T08:10:31.000Z</time>
      </trkpt>
      <trkpt lat="44.43572" lon="2.38431">
        <ele>561.4</ele>
        <time>2022-09-18T08:10:34.000Z</time>
      </trkpt>
      <trkpt lat="44.43581" lon="2.3842">
        <ele>562</ele>
        <time>2022-09-18T08:10:37.000Z</time>
      </trkpt>
      <trkpt lat="44.43589" lon="2.38408">
        <ele>562.9</ele>
        <time>2022-09-18T08:10:40.000Z</time>
      </trkpt>
      <trkpt lat="44.43597" lon="2.38396">
        <ele>563.1</ele>
        <time>2022-09-18T08:10:43.000Z</time>
      </trkpt>
      <trkpt lat="44.43604" lon="2.38384">
        <ele>563.9</ele>
        <time>2022-09-18T08:10:46.000Z</time>
      </trkpt>
      <trkpt lat="44.43611" lon="2.38373">
        <ele>564.3</ele>
        <time>2022-09-18T08:10:49.000Z</time>
      </trkpt>
      <trkpt lat="44.43618" lon="2.38361">
        <ele>564.7</ele>
        <time>2022-09-18T08:10:52.000Z</time>
      </trkpt>
      <trkpt lat="44.43625" lon="2.38348">
        <ele>565.2</ele>
        <time>2022-09-18T08:10:55.000Z</time>
      </trkpt>
      <trkpt lat="44.43632" lon="2.38335">
        <ele>565.5</ele>
        <time>2022-09-18T08:10:58.000Z</time>
      </trkpt>
      <trkpt lat="44.43639" lon="2.38324">
        <ele>565.9</ele>
        <time>2022-09-18T08:11:01.000Z</time>
      </trkpt>
      <trkpt lat="44.43646" lon="2.38312">
        <ele>566.6</ele>
        <time>2022-09-18T08:11:04.000Z</time>
      </trkpt>
      <trkpt lat="44.43653" lon="2.38301">
        <ele>566.5</ele>
        <time>2022-09-18T08:11:07.000Z</time>
      </trkpt>
      <trkpt lat="44.43661" lon="2.3829">
        <ele>567.4</ele>
        <time>2022-09-18T08:11:10.000Z</time>
      </trkpt>
      <trkpt lat="44.4367" lon="2.38282">
        <ele>568.1</ele>
        <time>2022-09-18T08:11:13.000Z</time>
      </trkpt>
      <trkpt lat="44.43678" lon="2.38275">
        <ele>568.5</ele>
        <time>2022-09-18T08:11:16.000Z</time>
      </trkpt>
      <trkpt lat="44.43687" lon="2.3827">
        <ele>569.2</ele>
        <time>2022-09-18T08:11:19.000Z</time>
      </trkpt>
      <trkpt lat="44.43697" lon="2.38265">
        <ele>571.6</ele>
        <time>2022-09-18T08:11:23.000Z</time>
      </trkpt>
      <trkpt lat="44.43706" lon="2.3826">
        <ele>572.5</ele>
        <time>2022-09-18T08:11:27.000Z</time>
      </trkpt>
      <trkpt lat="44.43714" lon="2.38255">
        <ele>572.7</ele>
        <time>2022-09-18T08:11:30.000Z</time>
      </trkpt>
      <trkpt lat="44.43722" lon="2.38246">
        <ele>572.9</ele>
        <time>2022-09-18T08:11:33.000Z</time>
      </trkpt>
      <trkpt lat="44.4373" lon="2.38234">
        <ele>572.8</ele>
        <time>2022-09-18T08:11:37.000Z</time>
      </trkpt>
      <trkpt lat="44.43737" lon="2.38224">
        <ele>572.8</ele>
        <time>2022-09-18T08:11:41.000Z</time>
      </trkpt>
      <trkpt lat="44.43747" lon="2.38219">
        <ele>573.1</ele>
        <time>2022-09-18T08:11:45.000Z</time>
      </trkpt>
      <trkpt lat="44.43744" lon="2.38206">
        <ele>571.1</ele>
        <time>2022-09-18T08:11:49.000Z</time>
      </trkpt>
      <trkpt lat="44.43743" lon="2.38192">
        <ele>570.7</ele>
        <time>2022-09-18T08:11:53.000Z</time>
      </trkpt>
      <trkpt lat="44.43753" lon="2.38181">
        <ele>570.5</ele>
        <time>2022-09-18T08:11:56.000Z</time>
      </trkpt>
      <trkpt lat="44.43763" lon="2.3817">
        <ele>570.6</ele>
        <time>2022-09-18T08:11:59.000Z</time>
      </trkpt>
      <trkpt lat="44.43774" lon="2.38161">
        <ele>570.8</ele>
        <time>2022-09-18T08:12:02.000Z</time>
      </trkpt>
      <trkpt lat="44.43783" lon="2.3816">
        <ele>570.9</ele>
        <time>2022-09-18T08:12:04.000Z</time>
      </trkpt>
      <trkpt lat="44.43792" lon="2.38159">
        <ele>571.2</ele>
        <time>2022-09-18T08:12:06.000Z</time>
      </trkpt>
      <trkpt lat="44.43801" lon="2.38159">
        <ele>571.6</ele>
        <time>2022-09-18T08:12:08.000Z</time>
      </trkpt>
      <trkpt lat="44.43814" lon="2.38159">
        <ele>572</ele>
        <time>2022-09-18T08:12:11.000Z</time>
      </trkpt>
      <trkpt lat="44.43826" lon="2.38159">
        <ele>572.3</ele>
        <time>2022-09-18T08:12:14.000Z</time>
      </trkpt>
      <trkpt lat="44.43839" lon="2.38158">
        <ele>571.9</ele>
        <time>2022-09-18T08:12:17.000Z</time>
      </trkpt>
      <trkpt lat="44.4385" lon="2.38155">
        <ele>570.8</ele>
        <time>2022-09-18T08:12:20.000Z</time>
      </trkpt>
      <trkpt lat="44.43862" lon="2.38152">
        <ele>570.1</ele>
        <time>2022-09-18T08:12:24.000Z</time>
      </trkpt>
      <trkpt lat="44.43874" lon="2.38147">
        <ele>569.1</ele>
        <time>2022-09-18T08:12:27.000Z</time>
      </trkpt>
      <trkpt lat="44.43884" lon="2.38141">
        <ele>566.8</ele>
        <time>2022-09-18T08:12:29.000Z</time>
      </trkpt>
      <trkpt lat="44.43894" lon="2.38133">
        <ele>564.9</ele>
        <time>2022-09-18T08:12:31.000Z</time>
      </trkpt>
      <trkpt lat="44.43902" lon="2.38118">
        <ele>562.2</ele>
        <time>2022-09-18T08:12:33.000Z</time>
      </trkpt>
      <trkpt lat="44.43911" lon="2.38096">
        <ele>559.9</ele>
        <time>2022-09-18T08:12:35.000Z</time>
      </trkpt>
      <trkpt lat="44.43914" lon="2.38082">
        <ele>558.3</ele>
        <time>2022-09-18T08:12:36.000Z</time>
      </trkpt>
      <trkpt lat="44.43917" lon="2.38066">
        <ele>556.6</ele>
        <time>2022-09-18T08:12:37.000Z</time>
      </trkpt>
      <trkpt lat="44.43919" lon="2.3805">
        <ele>554.5</ele>
        <time>2022-09-18T08:12:38.000Z</time>
      </trkpt>
      <trkpt lat="44.43922" lon="2.38033">
        <ele>553.6</ele>
        <time>2022-09-18T08:12:39.000Z</time>
      </trkpt>
      <trkpt lat="44.43925" lon="2.38015">
        <ele>552.1</ele>
        <time>2022-09-18T08:12:40.000Z</time>
      </trkpt>
      <trkpt lat="44.43928" lon="2.37998">
        <ele>550</ele>
        <time>2022-09-18T08:12:41.000Z</time>
      </trkpt>
      <trkpt lat="44.43931" lon="2.37981">
        <ele>547.8</ele>
        <time>2022-09-18T08:12:42.000Z</time>
      </trkpt>
      <trkpt lat="44.43934" lon="2.37966">
        <ele>545.7</ele>
        <time>2022-09-18T08:12:43.000Z</time>
      </trkpt>
      <trkpt lat="44.43937" lon="2.37952">
        <ele>544.6</ele>
        <time>2022-09-18T08:12:44.000Z</time>
      </trkpt>
      <trkpt lat="44.43941" lon="2.37939">
        <ele>543.8</ele>
        <time>2022-09-18T08:12:45.000Z</time>
      </trkpt>
      <trkpt lat="44.43948" lon="2.37929">
        <ele>542.5</ele>
        <time>2022-09-18T08:12:46.000Z</time>
      </trkpt>
      <trkpt lat="44.43956" lon="2.3792">
        <ele>541.3</ele>
        <time>2022-09-18T08:12:47.000Z</time>
      </trkpt>
      <trkpt lat="44.43965" lon="2.37912">
        <ele>539.9</ele>
        <time>2022-09-18T08:12:48.000Z</time>
      </trkpt>
      <trkpt lat="44.43973" lon="2.37904">
        <ele>539.5</ele>
        <time>2022-09-18T08:12:49.000Z</time>
      </trkpt>
      <trkpt lat="44.43981" lon="2.37898">
        <ele>538.7</ele>
        <time>2022-09-18T08:12:50.000Z</time>
      </trkpt>
      <trkpt lat="44.4399" lon="2.37893">
        <ele>538</ele>
        <time>2022-09-18T08:12:51.000Z</time>
      </trkpt>
      <trkpt lat="44.43999" lon="2.37888">
        <ele>537.3</ele>
        <time>2022-09-18T08:12:52.000Z</time>
      </trkpt>
      <trkpt lat="44.44008" lon="2.37885">
        <ele>536.7</ele>
        <time>2022-09-18T08:12:53.000Z</time>
      </trkpt>
      <trkpt lat="44.44017" lon="2.37881">
        <ele>536.2</ele>
        <time>2022-09-18T08:12:54.000Z</time>
      </trkpt>
      <trkpt lat="44.44026" lon="2.37877">
        <ele>536</ele>
        <time>2022-09-18T08:12:55.000Z</time>
      </trkpt>
      <trkpt lat="44.44035" lon="2.37872">
        <ele>535.7</ele>
        <time>2022-09-18T08:12:56.000Z</time>
      </trkpt>
      <trkpt lat="44.44044" lon="2.37867">
        <ele>535.3</ele>
        <time>2022-09-18T08:12:57.000Z</time>
      </trkpt>
      <trkpt lat="44.44053" lon="2.37863">
        <ele>534.6</ele>
        <time>2022-09-18T08:12:58.000Z</time>
      </trkpt>
      <trkpt lat="44.44061" lon="2.37858">
        <ele>534.4</ele>
        <time>2022-09-18T08:12:59.000Z</time>
      </trkpt>
      <trkpt lat="44.44078" lon="2.3785">
        <ele>534.8</ele>
        <time>2022-09-18T08:13:01.000Z</time>
      </trkpt>
      <trkpt lat="44.44093" lon="2.37841">
        <ele>534.6</ele>
        <time>2022-09-18T08:13:03.000Z</time>
      </trkpt>
      <trkpt lat="44.44104" lon="2.37827">
        <ele>534.4</ele>
        <time>2022-09-18T08:13:05.000Z</time>
      </trkpt>
      <trkpt lat="44.44112" lon="2.3781">
        <ele>534.2</ele>
        <time>2022-09-18T08:13:07.000Z</time>
      </trkpt>
      <trkpt lat="44.44119" lon="2.37794">
        <ele>534.2</ele>
        <time>2022-09-18T08:13:09.000Z</time>
      </trkpt>
      <trkpt lat="44.44124" lon="2.37778">
        <ele>534.4</ele>
        <time>2022-09-18T08:13:11.000Z</time>
      </trkpt>
      <trkpt lat="44.4413" lon="2.37764">
        <ele>534.7</ele>
        <time>2022-09-18T08:13:13.000Z</time>
      </trkpt>
      <trkpt lat="44.44135" lon="2.3775">
        <ele>534.6</ele>
        <time>2022-09-18T08:13:15.000Z</time>
      </trkpt>
      <trkpt lat="44.44141" lon="2.37737">
        <ele>535.1</ele>
        <time>2022-09-18T08:13:17.000Z</time>
      </trkpt>
      <trkpt lat="44.44146" lon="2.37724">
        <ele>535.2</ele>
        <time>2022-09-18T08:13:19.000Z</time>
      </trkpt>
      <trkpt lat="44.44151" lon="2.37711">
        <ele>535.4</ele>
        <time>2022-09-18T08:13:21.000Z</time>
      </trkpt>
      <trkpt lat="44.44155" lon="2.37699">
        <ele>535.8</ele>
        <time>2022-09-18T08:13:23.000Z</time>
      </trkpt>
      <trkpt lat="44.44161" lon="2.37684">
        <ele>536.4</ele>
        <time>2022-09-18T08:13:26.000Z</time>
      </trkpt>
      <trkpt lat="44.44167" lon="2.3767">
        <ele>537</ele>
        <time>2022-09-18T08:13:29.000Z</time>
      </trkpt>
      <trkpt lat="44.44172" lon="2.37654">
        <ele>537.2</ele>
        <time>2022-09-18T08:13:32.000Z</time>
      </trkpt>
      <trkpt lat="44.44173" lon="2.37637">
        <ele>537.7</ele>
        <time>2022-09-18T08:13:35.000Z</time>
      </trkpt>
      <trkpt lat="44.44173" lon="2.37621">
        <ele>537.7</ele>
        <time>2022-09-18T08:13:38.000Z</time>
      </trkpt>
      <trkpt lat="44.44173" lon="2.37605">
        <ele>537.1</ele>
        <time>2022-09-18T08:13:41.000Z</time>
      </trkpt>
      <trkpt lat="44.44171" lon="2.3759">
        <ele>537</ele>
        <time>2022-09-18T08:13:44.000Z</time>
      </trkpt>
      <trkpt lat="44.44169" lon="2.37574">
        <ele>536.6</ele>
        <time>2022-09-18T08:13:47.000Z</time>
      </trkpt>
      <trkpt lat="44.44167" lon="2.37558">
        <ele>536.6</ele>
        <time>2022-09-18T08:13:50.000Z</time>
      </trkpt>
      <trkpt lat="44.44165" lon="2.3754">
        <ele>535.9</ele>
        <time>2022-09-18T08:13:53.000Z</time>
      </trkpt>
      <trkpt lat="44.44164" lon="2.37527">
        <ele>535.5</ele>
        <time>2022-09-18T08:13:55.000Z</time>
      </trkpt>
      <trkpt lat="44.44165" lon="2.37513">
        <ele>535.1</ele>
        <time>2022-09-18T08:13:57.000Z</time>
      </trkpt>
      <trkpt lat="44.44165" lon="2.37498">
        <ele>534.8</ele>
        <time>2022-09-18T08:13:59.000Z</time>
      </trkpt>
      <trkpt lat="44.44167" lon="2.37482">
        <ele>535.5</ele>
        <time>2022-09-18T08:14:01.000Z</time>
      </trkpt>
      <trkpt lat="44.4417" lon="2.37467">
        <ele>535</ele>
        <time>2022-09-18T08:14:03.000Z</time>
      </trkpt>
      <trkpt lat="44.44175" lon="2.37452">
        <ele>535</ele>
        <time>2022-09-18T08:14:05.000Z</time>
      </trkpt>
      <trkpt lat="44.4418" lon="2.37438">
        <ele>535.9</ele>
        <time>2022-09-18T08:14:07.000Z</time>
      </trkpt>
      <trkpt lat="44.44185" lon="2.37426">
        <ele>535.7</ele>
        <time>2022-09-18T08:14:09.000Z</time>
      </trkpt>
      <trkpt lat="44.4419" lon="2.37415">
        <ele>536.3</ele>
        <time>2022-09-18T08:14:11.000Z</time>
      </trkpt>
      <trkpt lat="44.44193" lon="2.37402">
        <ele>536.3</ele>
        <time>2022-09-18T08:14:13.000Z</time>
      </trkpt>
      <trkpt lat="44.44197" lon="2.37384">
        <ele>538.1</ele>
        <time>2022-09-18T08:14:16.000Z</time>
      </trkpt>
      <trkpt lat="44.44198" lon="2.37367">
        <ele>538.7</ele>
        <time>2022-09-18T08:14:19.000Z</time>
      </trkpt>
      <trkpt lat="44.44199" lon="2.37351">
        <ele>539.1</ele>
        <time>2022-09-18T08:14:22.000Z</time>
      </trkpt>
      <trkpt lat="44.44201" lon="2.37335">
        <ele>538.9</ele>
        <time>2022-09-18T08:14:25.000Z</time>
      </trkpt>
      <trkpt lat="44.44203" lon="2.37316">
        <ele>538.6</ele>
        <time>2022-09-18T08:14:28.000Z</time>
      </trkpt>
      <trkpt lat="44.44207" lon="2.37298">
        <ele>538.4</ele>
        <time>2022-09-18T08:14:31.000Z</time>
      </trkpt>
      <trkpt lat="44.44211" lon="2.37286">
        <ele>537.9</ele>
        <time>2022-09-18T08:14:33.000Z</time>
      </trkpt>
      <trkpt lat="44.44216" lon="2.37273">
        <ele>537.5</ele>
        <time>2022-09-18T08:14:35.000Z</time>
      </trkpt>
      <trkpt lat="44.44221" lon="2.37261">
        <ele>536.5</ele>
        <time>2022-09-18T08:14:37.000Z</time>
      </trkpt>
      <trkpt lat="44.44223" lon="2.37245">
        <ele>535.7</ele>
        <time>2022-09-18T08:14:40.000Z</time>
      </trkpt>
      <trkpt lat="44.44212" lon="2.37234">
        <ele>535.2</ele>
        <time>2022-09-18T08:14:43.000Z</time>
      </trkpt>
      <trkpt lat="44.44202" lon="2.37227">
        <ele>534.5</ele>
        <time>2022-09-18T08:14:45.000Z</time>
      </trkpt>
      <trkpt lat="44.44192" lon="2.37219">
        <ele>534.3</ele>
        <time>2022-09-18T08:14:47.000Z</time>
      </trkpt>
      <trkpt lat="44.44181" lon="2.3721">
        <ele>533.6</ele>
        <time>2022-09-18T08:14:49.000Z</time>
      </trkpt>
      <trkpt lat="44.44169" lon="2.37201">
        <ele>532.2</ele>
        <time>2022-09-18T08:14:51.000Z</time>
      </trkpt>
      <trkpt lat="44.44153" lon="2.37198">
        <ele>531.9</ele>
        <time>2022-09-18T08:14:53.000Z</time>
      </trkpt>
      <trkpt lat="44.44137" lon="2.37197">
        <ele>531.2</ele>
        <time>2022-09-18T08:14:55.000Z</time>
      </trkpt>
      <trkpt lat="44.4412" lon="2.37198">
        <ele>529.8</ele>
        <time>2022-09-18T08:14:57.000Z</time>
      </trkpt>
      <trkpt lat="44.44102" lon="2.372">
        <ele>529</ele>
        <time>2022-09-18T08:14:59.000Z</time>
      </trkpt>
      <trkpt lat="44.44086" lon="2.37196">
        <ele>528.8</ele>
        <time>2022-09-18T08:15:01.000Z</time>
      </trkpt>
      <trkpt lat="44.44072" lon="2.37188">
        <ele>528.1</ele>
        <time>2022-09-18T08:15:03.000Z</time>
      </trkpt>
      <trkpt lat="44.4406" lon="2.37179">
        <ele>528.1</ele>
        <time>2022-09-18T08:15:05.000Z</time>
      </trkpt>
      <trkpt lat="44.44047" lon="2.37174">
        <ele>528.7</ele>
        <time>2022-09-18T08:15:07.000Z</time>
      </trkpt>
      <trkpt lat="44.44033" lon="2.37172">
        <ele>528.7</ele>
        <time>2022-09-18T08:15:09.000Z</time>
      </trkpt>
      <trkpt lat="44.44021" lon="2.37173">
        <ele>528.6</ele>
        <time>2022-09-18T08:15:11.000Z</time>
      </trkpt>
      <trkpt lat="44.44009" lon="2.37174">
        <ele>528.9</ele>
        <time>2022-09-18T08:15:13.000Z</time>
      </trkpt>
      <trkpt lat="44.43997" lon="2.37175">
        <ele>528.7</ele>
        <time>2022-09-18T08:15:15.000Z</time>
      </trkpt>
      <trkpt lat="44.43986" lon="2.37177">
        <ele>529.3</ele>
        <time>2022-09-18T08:15:17.000Z</time>
      </trkpt>
      <trkpt lat="44.43976" lon="2.37179">
        <ele>529.4</ele>
        <time>2022-09-18T08:15:19.000Z</time>
      </trkpt>
      <trkpt lat="44.43965" lon="2.3718">
        <ele>529.5</ele>
        <time>2022-09-18T08:15:21.000Z</time>
      </trkpt>
      <trkpt lat="44.43955" lon="2.37181">
        <ele>530.2</ele>
        <time>2022-09-18T08:15:23.000Z</time>
      </trkpt>
      <trkpt lat="44.43944" lon="2.37179">
        <ele>530.5</ele>
        <time>2022-09-18T08:15:25.000Z</time>
      </trkpt>
      <trkpt lat="44.43935" lon="2.37175">
        <ele>530.8</ele>
        <time>2022-09-18T08:15:27.000Z</time>
      </trkpt>
      <trkpt lat="44.43925" lon="2.37171">
        <ele>530.6</ele>
        <time>2022-09-18T08:15:29.000Z</time>
      </trkpt>
      <trkpt lat="44.43916" lon="2.37166">
        <ele>530.7</ele>
        <time>2022-09-18T08:15:31.000Z</time>
      </trkpt>
      <trkpt lat="44.43906" lon="2.37162">
        <ele>530.8</ele>
        <time>2022-09-18T08:15:33.000Z</time>
      </trkpt>
      <trkpt lat="44.43896" lon="2.37157">
        <ele>531</ele>
        <time>2022-09-18T08:15:35.000Z</time>
      </trkpt>
      <trkpt lat="44.43886" lon="2.37153">
        <ele>531.2</ele>
        <time>2022-09-18T08:15:37.000Z</time>
      </trkpt>
      <trkpt lat="44.43876" lon="2.37149">
        <ele>531.3</ele>
        <time>2022-09-18T08:15:39.000Z</time>
      </trkpt>
      <trkpt lat="44.43865" lon="2.37147">
        <ele>531.4</ele>
        <time>2022-09-18T08:15:41.000Z</time>
      </trkpt>
      <trkpt lat="44.43855" lon="2.37148">
        <ele>531.7</ele>
        <time>2022-09-18T08:15:43.000Z</time>
      </trkpt>
      <trkpt lat="44.43845" lon="2.37149">
        <ele>531.7</ele>
        <time>2022-09-18T08:15:45.000Z</time>
      </trkpt>
      <trkpt lat="44.43833" lon="2.37149">
        <ele>533</ele>
        <time>2022-09-18T08:15:48.000Z</time>
      </trkpt>
      <trkpt lat="44.43821" lon="2.37149">
        <ele>533.8</ele>
        <time>2022-09-18T08:15:51.000Z</time>
      </trkpt>
      <trkpt lat="44.4381" lon="2.37147">
        <ele>534.4</ele>
        <time>2022-09-18T08:15:54.000Z</time>
      </trkpt>
      <trkpt lat="44.438" lon="2.37145">
        <ele>536.3</ele>
        <time>2022-09-18T08:15:57.000Z</time>
      </trkpt>
      <trkpt lat="44.4379" lon="2.37143">
        <ele>536.6</ele>
        <time>2022-09-18T08:16:00.000Z</time>
      </trkpt>
      <trkpt lat="44.4378" lon="2.3714">
        <ele>537.9</ele>
        <time>2022-09-18T08:16:03.000Z</time>
      </trkpt>
      <trkpt lat="44.43769" lon="2.37138">
        <ele>538.8</ele>
        <time>2022-09-18T08:16:06.000Z</time>
      </trkpt>
      <trkpt lat="44.43759" lon="2.37136">
        <ele>539.7</ele>
        <time>2022-09-18T08:16:09.000Z</time>
      </trkpt>
      <trkpt lat="44.43749" lon="2.37135">
        <ele>539.9</ele>
        <time>2022-09-18T08:16:12.000Z</time>
      </trkpt>
      <trkpt lat="44.43739" lon="2.37134">
        <ele>540.7</ele>
        <time>2022-09-18T08:16:15.000Z</time>
      </trkpt>
      <trkpt lat="44.43729" lon="2.37133">
        <ele>541.4</ele>
        <time>2022-09-18T08:16:18.000Z</time>
      </trkpt>
      <trkpt lat="44.4372" lon="2.37131">
        <ele>542.3</ele>
        <time>2022-09-18T08:16:21.000Z</time>
      </trkpt>
      <trkpt lat="44.43711" lon="2.37129">
        <ele>543</ele>
        <time>2022-09-18T08:16:24.000Z</time>
      </trkpt>
      <trkpt lat="44.43701" lon="2.37127">
        <ele>543.4</ele>
        <time>2022-09-18T08:16:27.000Z</time>
      </trkpt>
      <trkpt lat="44.4369" lon="2.37125">
        <ele>543.6</ele>
        <time>2022-09-18T08:16:30.000Z</time>
      </trkpt>
      <trkpt lat="44.43679" lon="2.37124">
        <ele>543.7</ele>
        <time>2022-09-18T08:16:33.000Z</time>
      </trkpt>
      <trkpt lat="44.43669" lon="2.37122">
        <ele>544.6</ele>
        <time>2022-09-18T08:16:36.000Z</time>
      </trkpt>
      <trkpt lat="44.43659" lon="2.37121">
        <ele>544.8</ele>
        <time>2022-09-18T08:16:39.000Z</time>
      </trkpt>
      <trkpt lat="44.43648" lon="2.37119">
        <ele>545.6</ele>
        <time>2022-09-18T08:16:42.000Z</time>
      </trkpt>
      <trkpt lat="44.43638" lon="2.37116">
        <ele>545.5</ele>
        <time>2022-09-18T08:16:45.000Z</time>
      </trkpt>
      <trkpt lat="44.43628" lon="2.37114">
        <ele>546.2</ele>
        <time>2022-09-18T08:16:48.000Z</time>
      </trkpt>
      <trkpt lat="44.43618" lon="2.37111">
        <ele>546.7</ele>
        <time>2022-09-18T08:16:51.000Z</time>
      </trkpt>
      <trkpt lat="44.43609" lon="2.37109">
        <ele>546.7</ele>
        <time>2022-09-18T08:16:54.000Z</time>
      </trkpt>
      <trkpt lat="44.43597" lon="2.37105">
        <ele>547.9</ele>
        <time>2022-09-18T08:16:58.000Z</time>
      </trkpt>
      <trkpt lat="44.43588" lon="2.37101">
        <ele>547.9</ele>
        <time>2022-09-18T08:17:01.000Z</time>
      </trkpt>
      <trkpt lat="44.43578" lon="2.37097">
        <ele>548.2</ele>
        <time>2022-09-18T08:17:04.000Z</time>
      </trkpt>
      <trkpt lat="44.43568" lon="2.37092">
        <ele>548.2</ele>
        <time>2022-09-18T08:17:07.000Z</time>
      </trkpt>
      <trkpt lat="44.43558" lon="2.37088">
        <ele>548.4</ele>
        <time>2022-09-18T08:17:10.000Z</time>
      </trkpt>
      <trkpt lat="44.43548" lon="2.37083">
        <ele>549.2</ele>
        <time>2022-09-18T08:17:13.000Z</time>
      </trkpt>
      <trkpt lat="44.43539" lon="2.37078">
        <ele>550</ele>
        <time>2022-09-18T08:17:16.000Z</time>
      </trkpt>
      <trkpt lat="44.43529" lon="2.37074">
        <ele>550.1</ele>
        <time>2022-09-18T08:17:19.000Z</time>
      </trkpt>
      <trkpt lat="44.4352" lon="2.37069">
        <ele>550.1</ele>
        <time>2022-09-18T08:17:22.000Z</time>
      </trkpt>
      <trkpt lat="44.43511" lon="2.37064">
        <ele>550.8</ele>
        <time>2022-09-18T08:17:25.000Z</time>
      </trkpt>
      <trkpt lat="44.43501" lon="2.37059">
        <ele>551.5</ele>
        <time>2022-09-18T08:17:28.000Z</time>
      </trkpt>
      <trkpt lat="44.43491" lon="2.37054">
        <ele>551.3</ele>
        <time>2022-09-18T08:17:31.000Z</time>
      </trkpt>
      <trkpt lat="44.43482" lon="2.37049">
        <ele>551.6</ele>
        <time>2022-09-18T08:17:34.000Z</time>
      </trkpt>
      <trkpt lat="44.43473" lon="2.37044">
        <ele>551.7</ele>
        <time>2022-09-18T08:17:37.000Z</time>
      </trkpt>
      <trkpt lat="44.43463" lon="2.37039">
        <ele>552.3</ele>
        <time>2022-09-18T08:17:40.000Z</time>
      </trkpt>
      <trkpt lat="44.43454" lon="2.37033">
        <ele>552.5</ele>
        <time>2022-09-18T08:17:43.000Z</time>
      </trkpt>
      <trkpt lat="44.43444" lon="2.37027">
        <ele>552.9</ele>
        <time>2022-09-18T08:17:46.000Z</time>
      </trkpt>
      <trkpt lat="44.43435" lon="2.37022">
        <ele>553</ele>
        <time>2022-09-18T08:17:49.000Z</time>
      </trkpt>
      <trkpt lat="44.43426" lon="2.37016">
        <ele>553</ele>
        <time>2022-09-18T08:17:52.000Z</time>
      </trkpt>
      <trkpt lat="44.43417" lon="2.37011">
        <ele>553.7</ele>
        <time>2022-09-18T08:17:55.000Z</time>
      </trkpt>
      <trkpt lat="44.43408" lon="2.37006">
        <ele>554</ele>
        <time>2022-09-18T08:17:58.000Z</time>
      </trkpt>
      <trkpt lat="44.43398" lon="2.37">
        <ele>554.4</ele>
        <time>2022-09-18T08:18:01.000Z</time>
      </trkpt>
      <trkpt lat="44.43389" lon="2.36995">
        <ele>554.9</ele>
        <time>2022-09-18T08:18:04.000Z</time>
      </trkpt>
      <trkpt lat="44.43381" lon="2.3699">
        <ele>554.9</ele>
        <time>2022-09-18T08:18:07.000Z</time>
      </trkpt>
      <trkpt lat="44.43372" lon="2.36985">
        <ele>555.7</ele>
        <time>2022-09-18T08:18:10.000Z</time>
      </trkpt>
      <trkpt lat="44.43363" lon="2.3698">
        <ele>555.8</ele>
        <time>2022-09-18T08:18:13.000Z</time>
      </trkpt>
      <trkpt lat="44.43354" lon="2.36975">
        <ele>556.2</ele>
        <time>2022-09-18T08:18:16.000Z</time>
      </trkpt>
      <trkpt lat="44.43344" lon="2.36969">
        <ele>556.6</ele>
        <time>2022-09-18T08:18:19.000Z</time>
      </trkpt>
      <trkpt lat="44.43335" lon="2.36964">
        <ele>556.8</ele>
        <time>2022-09-18T08:18:22.000Z</time>
      </trkpt>
      <trkpt lat="44.43326" lon="2.36958">
        <ele>557.4</ele>
        <time>2022-09-18T08:18:25.000Z</time>
      </trkpt>
      <trkpt lat="44.43316" lon="2.36953">
        <ele>557.4</ele>
        <time>2022-09-18T08:18:28.000Z</time>
      </trkpt>
      <trkpt lat="44.43308" lon="2.36949">
        <ele>558.1</ele>
        <time>2022-09-18T08:18:31.000Z</time>
      </trkpt>
      <trkpt lat="44.43298" lon="2.36945">
        <ele>558.7</ele>
        <time>2022-09-18T08:18:34.000Z</time>
      </trkpt>
      <trkpt lat="44.43289" lon="2.36941">
        <ele>559</ele>
        <time>2022-09-18T08:18:37.000Z</time>
      </trkpt>
      <trkpt lat="44.43279" lon="2.36938">
        <ele>559.2</ele>
        <time>2022-09-18T08:18:40.000Z</time>
      </trkpt>
      <trkpt lat="44.4327" lon="2.36934">
        <ele>559.1</ele>
        <time>2022-09-18T08:18:43.000Z</time>
      </trkpt>
      <trkpt lat="44.43262" lon="2.36931">
        <ele>559.8</ele>
        <time>2022-09-18T08:18:46.000Z</time>
      </trkpt>
      <trkpt lat="44.43252" lon="2.36928">
        <ele>560.5</ele>
        <time>2022-09-18T08:18:49.000Z</time>
      </trkpt>
      <trkpt lat="44.4324" lon="2.36927">
        <ele>560.7</ele>
        <time>2022-09-18T08:18:53.000Z</time>
      </trkpt>
      <trkpt lat="44.43231" lon="2.36929">
        <ele>561.8</ele>
        <time>2022-09-18T08:18:56.000Z</time>
      </trkpt>
      <trkpt lat="44.43221" lon="2.36931">
        <ele>562</ele>
        <time>2022-09-18T08:18:59.000Z</time>
      </trkpt>
      <trkpt lat="44.43212" lon="2.36934">
        <ele>562</ele>
        <time>2022-09-18T08:19:02.000Z</time>
      </trkpt>
      <trkpt lat="44.43201" lon="2.36937">
        <ele>562.2</ele>
        <time>2022-09-18T08:19:05.000Z</time>
      </trkpt>
      <trkpt lat="44.43189" lon="2.3694">
        <ele>563.4</ele>
        <time>2022-09-18T08:19:08.000Z</time>
      </trkpt>
      <trkpt lat="44.43178" lon="2.36942">
        <ele>563.8</ele>
        <time>2022-09-18T08:19:11.000Z</time>
      </trkpt>
      <trkpt lat="44.43167" lon="2.36944">
        <ele>564.3</ele>
        <time>2022-09-18T08:19:14.000Z</time>
      </trkpt>
      <trkpt lat="44.43155" lon="2.36947">
        <ele>565</ele>
        <time>2022-09-18T08:19:17.000Z</time>
      </trkpt>
      <trkpt lat="44.43144" lon="2.36951">
        <ele>565.6</ele>
        <time>2022-09-18T08:19:20.000Z</time>
      </trkpt>
      <trkpt lat="44.43133" lon="2.36955">
        <ele>566</ele>
        <time>2022-09-18T08:19:23.000Z</time>
      </trkpt>
      <trkpt lat="44.43121" lon="2.36959">
        <ele>566.9</ele>
        <time>2022-09-18T08:19:26.000Z</time>
      </trkpt>
      <trkpt lat="44.43111" lon="2.36965">
        <ele>568</ele>
        <time>2022-09-18T08:19:29.000Z</time>
      </trkpt>
      <trkpt lat="44.43102" lon="2.36972">
        <ele>568.8</ele>
        <time>2022-09-18T08:19:32.000Z</time>
      </trkpt>
      <trkpt lat="44.43093" lon="2.36984">
        <ele>569</ele>
        <time>2022-09-18T08:19:35.000Z</time>
      </trkpt>
      <trkpt lat="44.43092" lon="2.37">
        <ele>568.6</ele>
        <time>2022-09-18T08:19:38.000Z</time>
      </trkpt>
      <trkpt lat="44.43096" lon="2.37013">
        <ele>568.5</ele>
        <time>2022-09-18T08:19:40.000Z</time>
      </trkpt>
      <trkpt lat="44.43099" lon="2.37029">
        <ele>567.6</ele>
        <time>2022-09-18T08:19:42.000Z</time>
      </trkpt>
      <trkpt lat="44.43102" lon="2.37045">
        <ele>567.2</ele>
        <time>2022-09-18T08:19:44.000Z</time>
      </trkpt>
      <trkpt lat="44.43106" lon="2.37063">
        <ele>566.1</ele>
        <time>2022-09-18T08:19:46.000Z</time>
      </trkpt>
      <trkpt lat="44.43109" lon="2.3708">
        <ele>565.9</ele>
        <time>2022-09-18T08:19:48.000Z</time>
      </trkpt>
      <trkpt lat="44.43111" lon="2.37098">
        <ele>565.7</ele>
        <time>2022-09-18T08:19:50.000Z</time>
      </trkpt>
      <trkpt lat="44.43113" lon="2.37115">
        <ele>565.8</ele>
        <time>2022-09-18T08:19:52.000Z</time>
      </trkpt>
      <trkpt lat="44.43116" lon="2.37132">
        <ele>565.6</ele>
        <time>2022-09-18T08:19:54.000Z</time>
      </trkpt>
      <trkpt lat="44.43119" lon="2.37148">
        <ele>565.6</ele>
        <time>2022-09-18T08:19:56.000Z</time>
      </trkpt>
      <trkpt lat="44.43122" lon="2.37165">
        <ele>564.8</ele>
        <time>2022-09-18T08:19:58.000Z</time>
      </trkpt>
      <trkpt lat="44.43125" lon="2.3718">
        <ele>565.1</ele>
        <time>2022-09-18T08:20:00.000Z</time>
      </trkpt>
      <trkpt lat="44.43128" lon="2.37196">
        <ele>565.3</ele>
        <time>2022-09-18T08:20:02.000Z</time>
      </trkpt>
      <trkpt lat="44.43127" lon="2.37213">
        <ele>565.3</ele>
        <time>2022-09-18T08:20:04.000Z</time>
      </trkpt>
      <trkpt lat="44.43125" lon="2.37228">
        <ele>564.9</ele>
        <time>2022-09-18T08:20:06.000Z</time>
      </trkpt>
      <trkpt lat="44.43122" lon="2.37243">
        <ele>565.2</ele>
        <time>2022-09-18T08:20:08.000Z</time>
      </trkpt>
      <trkpt lat="44.43118" lon="2.37258">
        <ele>565.8</ele>
        <time>2022-09-18T08:20:10.000Z</time>
      </trkpt>
      <trkpt lat="44.43115" lon="2.37272">
        <ele>566</ele>
        <time>2022-09-18T08:20:12.000Z</time>
      </trkpt>
      <trkpt lat="44.43111" lon="2.37287">
        <ele>566.3</ele>
        <time>2022-09-18T08:20:14.000Z</time>
      </trkpt>
      <trkpt lat="44.43108" lon="2.37301">
        <ele>566.1</ele>
        <time>2022-09-18T08:20:16.000Z</time>
      </trkpt>
      <trkpt lat="44.43104" lon="2.37315">
        <ele>566.8</ele>
        <time>2022-09-18T08:20:18.000Z</time>
      </trkpt>
      <trkpt lat="44.43101" lon="2.37329">
        <ele>567.3</ele>
        <time>2022-09-18T08:20:20.000Z</time>
      </trkpt>
      <trkpt lat="44.43099" lon="2.37343">
        <ele>567.6</ele>
        <time>2022-09-18T08:20:22.000Z</time>
      </trkpt>
      <trkpt lat="44.43096" lon="2.37357">
        <ele>567.6</ele>
        <time>2022-09-18T08:20:24.000Z</time>
      </trkpt>
      <trkpt lat="44.43095" lon="2.37371">
        <ele>568.4</ele>
        <time>2022-09-18T08:20:26.000Z</time>
      </trkpt>
      <trkpt lat="44.43094" lon="2.37385">
        <ele>568.9</ele>
        <time>2022-09-18T08:20:28.000Z</time>
      </trkpt>
      <trkpt lat="44.43093" lon="2.37399">
        <ele>568.5</ele>
        <time>2022-09-18T08:20:30.000Z</time>
      </trkpt>
      <trkpt lat="44.43092" lon="2.37414">
        <ele>568.7</ele>
        <time>2022-09-18T08:20:32.000Z</time>
      </trkpt>
      <trkpt lat="44.43091" lon="2.37429">
        <ele>568.7</ele>
        <time>2022-09-18T08:20:34.000Z</time>
      </trkpt>
      <trkpt lat="44.43089" lon="2.37445">
        <ele>568.5</ele>
        <time>2022-09-18T08:20:36.000Z</time>
      </trkpt>
      <trkpt lat="44.43089" lon="2.37462">
        <ele>568.8</ele>
        <time>2022-09-18T08:20:38.000Z</time>
      </trkpt>
      <trkpt lat="44.4309" lon="2.37478">
        <ele>568.8</ele>
        <time>2022-09-18T08:20:40.000Z</time>
      </trkpt>
      <trkpt lat="44.4309" lon="2.37495">
        <ele>568.8</ele>
        <time>2022-09-18T08:20:42.000Z</time>
      </trkpt>
      <trkpt lat="44.4309" lon="2.37512">
        <ele>568.8</ele>
        <time>2022-09-18T08:20:44.000Z</time>
      </trkpt>
      <trkpt lat="44.43088" lon="2.37527">
        <ele>568.7</ele>
        <time>2022-09-18T08:20:46.000Z</time>
      </trkpt>
      <trkpt lat="44.43085" lon="2.3754">
        <ele>568.6</ele>
        <time>2022-09-18T08:20:48.000Z</time>
      </trkpt>
      <trkpt lat="44.43082" lon="2.37554">
        <ele>568.4</ele>
        <time>2022-09-18T08:20:50.000Z</time>
      </trkpt>
      <trkpt lat="44.43082" lon="2.37573">
        <ele>569</ele>
        <time>2022-09-18T08:20:53.000Z</time>
      </trkpt>
      <trkpt lat="44.43075" lon="2.37588">
        <ele>569.2</ele>
        <time>2022-09-18T08:20:56.000Z</time>
      </trkpt>
      <trkpt lat="44.43064" lon="2.37587">
        <ele>570.1</ele>
        <time>2022-09-18T08:20:59.000Z</time>
      </trkpt>
      <trkpt lat="44.43055" lon="2.37583">
        <ele>570.4</ele>
        <time>2022-09-18T08:21:02.000Z</time>
      </trkpt>
      <trkpt lat="44.43045" lon="2.37579">
        <ele>571.7</ele>
        <time>2022-09-18T08:21:06.000Z</time>
      </trkpt>
      <trkpt lat="44.43036" lon="2.37574">
        <ele>573.4</ele>
        <time>2022-09-18T08:21:10.000Z</time>
      </trkpt>
      <trkpt lat="44.43027" lon="2.37565">
        <ele>576.1</ele>
        <time>2022-09-18T08:21:16.000Z</time>
      </trkpt>
      <trkpt lat="44.43021" lon="2.37554">
        <ele>577.7</ele>
        <time>2022-09-18T08:21:20.000Z</time>
      </trkpt>
      <trkpt lat="44.43016" lon="2.37541">
        <ele>579.7</ele>
        <time>2022-09-18T08:21:25.000Z</time>
      </trkpt>
      <trkpt lat="44.43011" lon="2.37528">
        <ele>581.1</ele>
        <time>2022-09-18T08:21:30.000Z</time>
      </trkpt>
      <trkpt lat="44.43005" lon="2.37515">
        <ele>582.9</ele>
        <time>2022-09-18T08:21:35.000Z</time>
      </trkpt>
      <trkpt lat="44.42999" lon="2.37503">
        <ele>583.9</ele>
        <time>2022-09-18T08:21:40.000Z</time>
      </trkpt>
      <trkpt lat="44.42993" lon="2.37491">
        <ele>585.3</ele>
        <time>2022-09-18T08:21:45.000Z</time>
      </trkpt>
      <trkpt lat="44.42987" lon="2.3748">
        <ele>586.9</ele>
        <time>2022-09-18T08:21:50.000Z</time>
      </trkpt>
      <trkpt lat="44.42983" lon="2.37466">
        <ele>587.7</ele>
        <time>2022-09-18T08:21:54.000Z</time>
      </trkpt>
      <trkpt lat="44.42975" lon="2.37452">
        <ele>589.3</ele>
        <time>2022-09-18T08:21:58.000Z</time>
      </trkpt>
      <trkpt lat="44.42968" lon="2.37441">
        <ele>589.5</ele>
        <time>2022-09-18T08:22:01.000Z</time>
      </trkpt>
      <trkpt lat="44.42961" lon="2.3743">
        <ele>590.9</ele>
        <time>2022-09-18T08:22:05.000Z</time>
      </trkpt>
      <trkpt lat="44.42956" lon="2.37417">
        <ele>592.4</ele>
        <time>2022-09-18T08:22:09.000Z</time>
      </trkpt>
      <trkpt lat="44.4295" lon="2.37407">
        <ele>593.7</ele>
        <time>2022-09-18T08:22:12.000Z</time>
      </trkpt>
      <trkpt lat="44.42945" lon="2.37395">
        <ele>594.6</ele>
        <time>2022-09-18T08:22:15.000Z</time>
      </trkpt>
      <trkpt lat="44.42938" lon="2.37383">
        <ele>595.9</ele>
        <time>2022-09-18T08:22:18.000Z</time>
      </trkpt>
      <trkpt lat="44.42932" lon="2.37372">
        <ele>596.7</ele>
        <time>2022-09-18T08:22:21.000Z</time>
      </trkpt>
      <trkpt lat="44.42925" lon="2.37362">
        <ele>598</ele>
        <time>2022-09-18T08:22:24.000Z</time>
      </trkpt>
      <trkpt lat="44.42918" lon="2.37353">
        <ele>599.2</ele>
        <time>2022-09-18T08:22:27.000Z</time>
      </trkpt>
      <trkpt lat="44.42909" lon="2.37345">
        <ele>601.5</ele>
        <time>2022-09-18T08:22:31.000Z</time>
      </trkpt>
      <trkpt lat="44.429" lon="2.37339">
        <ele>604.3</ele>
        <time>2022-09-18T08:22:35.000Z</time>
      </trkpt>
      <trkpt lat="44.4289" lon="2.37332">
        <ele>606.7</ele>
        <time>2022-09-18T08:22:39.000Z</time>
      </trkpt>
      <trkpt lat="44.42883" lon="2.37324">
        <ele>608.2</ele>
        <time>2022-09-18T08:22:42.000Z</time>
      </trkpt>
      <trkpt lat="44.42874" lon="2.37313">
        <ele>610.7</ele>
        <time>2022-09-18T08:22:46.000Z</time>
      </trkpt>
      <trkpt lat="44.42868" lon="2.37304">
        <ele>611.9</ele>
        <time>2022-09-18T08:22:49.000Z</time>
      </trkpt>
      <trkpt lat="44.4286" lon="2.37295">
        <ele>612.6</ele>
        <time>2022-09-18T08:22:52.000Z</time>
      </trkpt>
      <trkpt lat="44.42852" lon="2.37285">
        <ele>614.9</ele>
        <time>2022-09-18T08:22:56.000Z</time>
      </trkpt>
      <trkpt lat="44.42844" lon="2.37273">
        <ele>616.8</ele>
        <time>2022-09-18T08:23:00.000Z</time>
      </trkpt>
      <trkpt lat="44.42837" lon="2.37262">
        <ele>618.8</ele>
        <time>2022-09-18T08:23:04.000Z</time>
      </trkpt>
      <trkpt lat="44.4283" lon="2.37251">
        <ele>619.8</ele>
        <time>2022-09-18T08:23:07.000Z</time>
      </trkpt>
      <trkpt lat="44.42823" lon="2.37242">
        <ele>620.8</ele>
        <time>2022-09-18T08:23:10.000Z</time>
      </trkpt>
      <trkpt lat="44.42815" lon="2.37233">
        <ele>622.2</ele>
        <time>2022-09-18T08:23:13.000Z</time>
      </trkpt>
      <trkpt lat="44.42807" lon="2.37225">
        <ele>623.7</ele>
        <time>2022-09-18T08:23:16.000Z</time>
      </trkpt>
      <trkpt lat="44.428" lon="2.37217">
        <ele>624.6</ele>
        <time>2022-09-18T08:23:19.000Z</time>
      </trkpt>
      <trkpt lat="44.42792" lon="2.3721">
        <ele>625.7</ele>
        <time>2022-09-18T08:23:22.000Z</time>
      </trkpt>
      <trkpt lat="44.42783" lon="2.372">
        <ele>626.7</ele>
        <time>2022-09-18T08:23:26.000Z</time>
      </trkpt>
      <trkpt lat="44.42776" lon="2.37192">
        <ele>627.2</ele>
        <time>2022-09-18T08:23:29.000Z</time>
      </trkpt>
      <trkpt lat="44.42768" lon="2.37185">
        <ele>627.8</ele>
        <time>2022-09-18T08:23:32.000Z</time>
      </trkpt>
      <trkpt lat="44.42757" lon="2.3718">
        <ele>628.6</ele>
        <time>2022-09-18T08:23:35.000Z</time>
      </trkpt>
      <trkpt lat="44.42745" lon="2.37173">
        <ele>628.1</ele>
        <time>2022-09-18T08:23:38.000Z</time>
      </trkpt>
      <trkpt lat="44.42735" lon="2.37163">
        <ele>629.6</ele>
        <time>2022-09-18T08:23:41.000Z</time>
      </trkpt>
      <trkpt lat="44.42727" lon="2.37151">
        <ele>629.8</ele>
        <time>2022-09-18T08:23:44.000Z</time>
      </trkpt>
      <trkpt lat="44.42719" lon="2.37138">
        <ele>630.2</ele>
        <time>2022-09-18T08:23:47.000Z</time>
      </trkpt>
      <trkpt lat="44.42711" lon="2.37127">
        <ele>631.2</ele>
        <time>2022-09-18T08:23:50.000Z</time>
      </trkpt>
      <trkpt lat="44.42705" lon="2.37119">
        <ele>632.7</ele>
        <time>2022-09-18T08:23:53.000Z</time>
      </trkpt>
      <trkpt lat="44.42699" lon="2.37108">
        <ele>634.2</ele>
        <time>2022-09-18T08:23:56.000Z</time>
      </trkpt>
      <trkpt lat="44.42693" lon="2.37095">
        <ele>636.6</ele>
        <time>2022-09-18T08:24:00.000Z</time>
      </trkpt>
      <trkpt lat="44.42687" lon="2.37083">
        <ele>638</ele>
        <time>2022-09-18T08:24:04.000Z</time>
      </trkpt>
      <trkpt lat="44.42681" lon="2.37071">
        <ele>640.3</ele>
        <time>2022-09-18T08:24:08.000Z</time>
      </trkpt>
      <trkpt lat="44.42674" lon="2.37059">
        <ele>642.2</ele>
        <time>2022-09-18T08:24:12.000Z</time>
      </trkpt>
      <trkpt lat="44.42669" lon="2.37047">
        <ele>644.4</ele>
        <time>2022-09-18T08:24:16.000Z</time>
      </trkpt>
      <trkpt lat="44.42663" lon="2.37035">
        <ele>646</ele>
        <time>2022-09-18T08:24:20.000Z</time>
      </trkpt>
      <trkpt lat="44.42657" lon="2.37025">
        <ele>648.6</ele>
        <time>2022-09-18T08:24:24.000Z</time>
      </trkpt>
      <trkpt lat="44.42648" lon="2.37016">
        <ele>650.4</ele>
        <time>2022-09-18T08:24:28.000Z</time>
      </trkpt>
      <trkpt lat="44.42642" lon="2.37008">
        <ele>651.7</ele>
        <time>2022-09-18T08:24:31.000Z</time>
      </trkpt>
      <trkpt lat="44.42635" lon="2.36998">
        <ele>654.5</ele>
        <time>2022-09-18T08:24:35.000Z</time>
      </trkpt>
      <trkpt lat="44.42628" lon="2.36988">
        <ele>656.5</ele>
        <time>2022-09-18T08:24:39.000Z</time>
      </trkpt>
      <trkpt lat="44.42622" lon="2.36978">
        <ele>658.2</ele>
        <time>2022-09-18T08:24:43.000Z</time>
      </trkpt>
      <trkpt lat="44.42616" lon="2.36967">
        <ele>659.7</ele>
        <time>2022-09-18T08:24:48.000Z</time>
      </trkpt>
      <trkpt lat="44.4261" lon="2.36957">
        <ele>661.5</ele>
        <time>2022-09-18T08:24:52.000Z</time>
      </trkpt>
      <trkpt lat="44.42602" lon="2.36948">
        <ele>663.4</ele>
        <time>2022-09-18T08:24:56.000Z</time>
      </trkpt>
      <trkpt lat="44.42595" lon="2.36937">
        <ele>665</ele>
        <time>2022-09-18T08:25:00.000Z</time>
      </trkpt>
      <trkpt lat="44.42589" lon="2.36924">
        <ele>666</ele>
        <time>2022-09-18T08:25:04.000Z</time>
      </trkpt>
      <trkpt lat="44.42582" lon="2.36912">
        <ele>667.4</ele>
        <time>2022-09-18T08:25:08.000Z</time>
      </trkpt>
      <trkpt lat="44.42576" lon="2.369">
        <ele>669.6</ele>
        <time>2022-09-18T08:25:12.000Z</time>
      </trkpt>
      <trkpt lat="44.4257" lon="2.36887">
        <ele>671.9</ele>
        <time>2022-09-18T08:25:16.000Z</time>
      </trkpt>
      <trkpt lat="44.42564" lon="2.36876">
        <ele>673.3</ele>
        <time>2022-09-18T08:25:20.000Z</time>
      </trkpt>
      <trkpt lat="44.42556" lon="2.36869">
        <ele>674.1</ele>
        <time>2022-09-18T08:25:24.000Z</time>
      </trkpt>
      <trkpt lat="44.42545" lon="2.36867">
        <ele>674.8</ele>
        <time>2022-09-18T08:25:28.000Z</time>
      </trkpt>
      <trkpt lat="44.42536" lon="2.36868">
        <ele>675.3</ele>
        <time>2022-09-18T08:25:31.000Z</time>
      </trkpt>
      <trkpt lat="44.42527" lon="2.36871">
        <ele>675.6</ele>
        <time>2022-09-18T08:25:34.000Z</time>
      </trkpt>
      <trkpt lat="44.42518" lon="2.36879">
        <ele>676.1</ele>
        <time>2022-09-18T08:25:38.000Z</time>
      </trkpt>
      <trkpt lat="44.42507" lon="2.36881">
        <ele>675.7</ele>
        <time>2022-09-18T08:25:43.000Z</time>
      </trkpt>
      <trkpt lat="44.42498" lon="2.36883">
        <ele>675.3</ele>
        <time>2022-09-18T08:25:46.000Z</time>
      </trkpt>
      <trkpt lat="44.42487" lon="2.36889">
        <ele>674.8</ele>
        <time>2022-09-18T08:25:49.000Z</time>
      </trkpt>
      <trkpt lat="44.42475" lon="2.36896">
        <ele>673.9</ele>
        <time>2022-09-18T08:25:52.000Z</time>
      </trkpt>
      <trkpt lat="44.42467" lon="2.36902">
        <ele>673.4</ele>
        <time>2022-09-18T08:25:54.000Z</time>
      </trkpt>
      <trkpt lat="44.42455" lon="2.36911">
        <ele>673.1</ele>
        <time>2022-09-18T08:25:57.000Z</time>
      </trkpt>
      <trkpt lat="44.42445" lon="2.36919">
        <ele>672.3</ele>
        <time>2022-09-18T08:26:00.000Z</time>
      </trkpt>
      <trkpt lat="44.42435" lon="2.3692">
        <ele>671.7</ele>
        <time>2022-09-18T08:26:07.000Z</time>
      </trkpt>
      <trkpt lat="44.42432" lon="2.36918">
        <ele>671.3</ele>
        <time>2022-09-18T08:26:12.000Z</time>
      </trkpt>
      <trkpt lat="44.42432" lon="2.36918">
        <ele>671.6</ele>
        <time>2022-09-18T08:26:45.000Z</time>
      </trkpt>
      <trkpt lat="44.42432" lon="2.36917">
        <ele>671.9</ele>
        <time>2022-09-18T08:26:49.000Z</time>
      </trkpt>
      <trkpt lat="44.42432" lon="2.36917">
        <ele>671.9</ele>
        <time>2022-09-18T08:26:51.000Z</time>
      </trkpt>
      <trkpt lat="44.42432" lon="2.36916">
        <ele>672</ele>
        <time>2022-09-18T08:26:57.000Z</time>
      </trkpt>
      <trkpt lat="44.42421" lon="2.3691">
        <ele>670.3</ele>
        <time>2022-09-18T08:27:01.000Z</time>
      </trkpt>
      <trkpt lat="44.4241" lon="2.36904">
        <ele>669.1</ele>
        <time>2022-09-18T08:27:03.000Z</time>
      </trkpt>
      <trkpt lat="44.42397" lon="2.36896">
        <ele>668.4</ele>
        <time>2022-09-18T08:27:05.000Z</time>
      </trkpt>
      <trkpt lat="44.42384" lon="2.36885">
        <ele>667.3</ele>
        <time>2022-09-18T08:27:07.000Z</time>
      </trkpt>
      <trkpt lat="44.42378" lon="2.36869">
        <ele>667.2</ele>
        <time>2022-09-18T08:27:09.000Z</time>
      </trkpt>
      <trkpt lat="44.42378" lon="2.36855">
        <ele>668.2</ele>
        <time>2022-09-18T08:27:11.000Z</time>
      </trkpt>
      <trkpt lat="44.42379" lon="2.3684">
        <ele>668.9</ele>
        <time>2022-09-18T08:27:14.000Z</time>
      </trkpt>
      <trkpt lat="44.4238" lon="2.36828">
        <ele>669.3</ele>
        <time>2022-09-18T08:27:17.000Z</time>
      </trkpt>
      <trkpt lat="44.42381" lon="2.36815">
        <ele>670.6</ele>
        <time>2022-09-18T08:27:20.000Z</time>
      </trkpt>
      <trkpt lat="44.42382" lon="2.36799">
        <ele>671.5</ele>
        <time>2022-09-18T08:27:23.000Z</time>
      </trkpt>
      <trkpt lat="44.42383" lon="2.36785">
        <ele>672.4</ele>
        <time>2022-09-18T08:27:26.000Z</time>
      </trkpt>
      <trkpt lat="44.42384" lon="2.36771">
        <ele>673</ele>
        <time>2022-09-18T08:27:29.000Z</time>
      </trkpt>
      <trkpt lat="44.42386" lon="2.36756">
        <ele>674.3</ele>
        <time>2022-09-18T08:27:32.000Z</time>
      </trkpt>
      <trkpt lat="44.42388" lon="2.36742">
        <ele>675.1</ele>
        <time>2022-09-18T08:27:35.000Z</time>
      </trkpt>
      <trkpt lat="44.42391" lon="2.36728">
        <ele>676.1</ele>
        <time>2022-09-18T08:27:38.000Z</time>
      </trkpt>
      <trkpt lat="44.42396" lon="2.36715">
        <ele>677</ele>
        <time>2022-09-18T08:27:41.000Z</time>
      </trkpt>
      <trkpt lat="44.42403" lon="2.36703">
        <ele>677.6</ele>
        <time>2022-09-18T08:27:44.000Z</time>
      </trkpt>
      <trkpt lat="44.42409" lon="2.36692">
        <ele>678.8</ele>
        <time>2022-09-18T08:27:47.000Z</time>
      </trkpt>
      <trkpt lat="44.42416" lon="2.36683">
        <ele>680</ele>
        <time>2022-09-18T08:27:50.000Z</time>
      </trkpt>
      <trkpt lat="44.42422" lon="2.36674">
        <ele>681.4</ele>
        <time>2022-09-18T08:27:53.000Z</time>
      </trkpt>
      <trkpt lat="44.42428" lon="2.36661">
        <ele>682</ele>
        <time>2022-09-18T08:27:57.000Z</time>
      </trkpt>
      <trkpt lat="44.42429" lon="2.36646">
        <ele>683.7</ele>
        <time>2022-09-18T08:28:01.000Z</time>
      </trkpt>
      <trkpt lat="44.42427" lon="2.3663">
        <ele>685.2</ele>
        <time>2022-09-18T08:28:05.000Z</time>
      </trkpt>
      <trkpt lat="44.42425" lon="2.36614">
        <ele>685.9</ele>
        <time>2022-09-18T08:28:09.000Z</time>
      </trkpt>
      <trkpt lat="44.42415" lon="2.3661">
        <ele>686.5</ele>
        <time>2022-09-18T08:28:13.000Z</time>
      </trkpt>
      <trkpt lat="44.42408" lon="2.36619">
        <ele>686.9</ele>
        <time>2022-09-18T08:28:16.000Z</time>
      </trkpt>
      <trkpt lat="44.42401" lon="2.36629">
        <ele>687.4</ele>
        <time>2022-09-18T08:28:19.000Z</time>
      </trkpt>
      <trkpt lat="44.42393" lon="2.3664">
        <ele>687.3</ele>
        <time>2022-09-18T08:28:22.000Z</time>
      </trkpt>
      <trkpt lat="44.42385" lon="2.36651">
        <ele>687.2</ele>
        <time>2022-09-18T08:28:25.000Z</time>
      </trkpt>
      <trkpt lat="44.42376" lon="2.36661">
        <ele>688.2</ele>
        <time>2022-09-18T08:28:28.000Z</time>
      </trkpt>
      <trkpt lat="44.42368" lon="2.36671">
        <ele>688.2</ele>
        <time>2022-09-18T08:28:31.000Z</time>
      </trkpt>
      <trkpt lat="44.4236" lon="2.36681">
        <ele>688.9</ele>
        <time>2022-09-18T08:28:34.000Z</time>
      </trkpt>
      <trkpt lat="44.42353" lon="2.36691">
        <ele>690</ele>
        <time>2022-09-18T08:28:37.000Z</time>
      </trkpt>
      <trkpt lat="44.42345" lon="2.36701">
        <ele>691.4</ele>
        <time>2022-09-18T08:28:40.000Z</time>
      </trkpt>
      <trkpt lat="44.42338" lon="2.3671">
        <ele>692.6</ele>
        <time>2022-09-18T08:28:43.000Z</time>
      </trkpt>
      <trkpt lat="44.4233" lon="2.3672">
        <ele>693.7</ele>
        <time>2022-09-18T08:28:46.000Z</time>
      </trkpt>
      <trkpt lat="44.42324" lon="2.3673">
        <ele>694.4</ele>
        <time>2022-09-18T08:28:49.000Z</time>
      </trkpt>
      <trkpt lat="44.42315" lon="2.36742">
        <ele>695.9</ele>
        <time>2022-09-18T08:28:53.000Z</time>
      </trkpt>
      <trkpt lat="44.42307" lon="2.36753">
        <ele>696.7</ele>
        <time>2022-09-18T08:28:57.000Z</time>
      </trkpt>
      <trkpt lat="44.42298" lon="2.36763">
        <ele>698.2</ele>
        <time>2022-09-18T08:29:01.000Z</time>
      </trkpt>
      <trkpt lat="44.42289" lon="2.36772">
        <ele>699.2</ele>
        <time>2022-09-18T08:29:05.000Z</time>
      </trkpt>
      <trkpt lat="44.4228" lon="2.36779">
        <ele>700.1</ele>
        <time>2022-09-18T08:29:09.000Z</time>
      </trkpt>
      <trkpt lat="44.42269" lon="2.36781">
        <ele>701.6</ele>
        <time>2022-09-18T08:29:13.000Z</time>
      </trkpt>
      <trkpt lat="44.42259" lon="2.3678">
        <ele>702.6</ele>
        <time>2022-09-18T08:29:17.000Z</time>
      </trkpt>
      <trkpt lat="44.4225" lon="2.36774">
        <ele>703.9</ele>
        <time>2022-09-18T08:29:21.000Z</time>
      </trkpt>
      <trkpt lat="44.42241" lon="2.36765">
        <ele>705</ele>
        <time>2022-09-18T08:29:25.000Z</time>
      </trkpt>
      <trkpt lat="44.42232" lon="2.36756">
        <ele>705.6</ele>
        <time>2022-09-18T08:29:29.000Z</time>
      </trkpt>
      <trkpt lat="44.42225" lon="2.36747">
        <ele>705.7</ele>
        <time>2022-09-18T08:29:32.000Z</time>
      </trkpt>
      <trkpt lat="44.42218" lon="2.36738">
        <ele>705.9</ele>
        <time>2022-09-18T08:29:35.000Z</time>
      </trkpt>
      <trkpt lat="44.42209" lon="2.36729">
        <ele>706.2</ele>
        <time>2022-09-18T08:29:38.000Z</time>
      </trkpt>
      <trkpt lat="44.42201" lon="2.36719">
        <ele>706.7</ele>
        <time>2022-09-18T08:29:41.000Z</time>
      </trkpt>
      <trkpt lat="44.42193" lon="2.36709">
        <ele>707.3</ele>
        <time>2022-09-18T08:29:44.000Z</time>
      </trkpt>
      <trkpt lat="44.42185" lon="2.367">
        <ele>707.7</ele>
        <time>2022-09-18T08:29:47.000Z</time>
      </trkpt>
      <trkpt lat="44.42177" lon="2.36691">
        <ele>708.3</ele>
        <time>2022-09-18T08:29:50.000Z</time>
      </trkpt>
      <trkpt lat="44.4217" lon="2.36681">
        <ele>709.2</ele>
        <time>2022-09-18T08:29:53.000Z</time>
      </trkpt>
      <trkpt lat="44.42163" lon="2.36672">
        <ele>709.6</ele>
        <time>2022-09-18T08:29:56.000Z</time>
      </trkpt>
      <trkpt lat="44.42155" lon="2.36664">
        <ele>710.1</ele>
        <time>2022-09-18T08:29:59.000Z</time>
      </trkpt>
      <trkpt lat="44.42146" lon="2.36657">
        <ele>710.4</ele>
        <time>2022-09-18T08:30:02.000Z</time>
      </trkpt>
      <trkpt lat="44.42136" lon="2.36649">
        <ele>710.8</ele>
        <time>2022-09-18T08:30:05.000Z</time>
      </trkpt>
      <trkpt lat="44.42127" lon="2.36642">
        <ele>710.9</ele>
        <time>2022-09-18T08:30:08.000Z</time>
      </trkpt>
      <trkpt lat="44.42117" lon="2.36637">
        <ele>711.3</ele>
        <time>2022-09-18T08:30:11.000Z</time>
      </trkpt>
      <trkpt lat="44.42106" lon="2.36633">
        <ele>712.3</ele>
        <time>2022-09-18T08:30:14.000Z</time>
      </trkpt>
      <trkpt lat="44.42095" lon="2.36632">
        <ele>712.1</ele>
        <time>2022-09-18T08:30:17.000Z</time>
      </trkpt>
      <trkpt lat="44.42084" lon="2.36632">
        <ele>712.4</ele>
        <time>2022-09-18T08:30:20.000Z</time>
      </trkpt>
      <trkpt lat="44.42074" lon="2.36632">
        <ele>713.5</ele>
        <time>2022-09-18T08:30:23.000Z</time>
      </trkpt>
      <trkpt lat="44.42063" lon="2.36633">
        <ele>713.9</ele>
        <time>2022-09-18T08:30:26.000Z</time>
      </trkpt>
      <trkpt lat="44.42052" lon="2.36635">
        <ele>714.8</ele>
        <time>2022-09-18T08:30:29.000Z</time>
      </trkpt>
      <trkpt lat="44.42041" lon="2.36636">
        <ele>715.8</ele>
        <time>2022-09-18T08:30:32.000Z</time>
      </trkpt>
      <trkpt lat="44.42031" lon="2.36636">
        <ele>717.2</ele>
        <time>2022-09-18T08:30:35.000Z</time>
      </trkpt>
      <trkpt lat="44.4202" lon="2.36637">
        <ele>718.4</ele>
        <time>2022-09-18T08:30:38.000Z</time>
      </trkpt>
      <trkpt lat="44.4201" lon="2.36638">
        <ele>719.4</ele>
        <time>2022-09-18T08:30:41.000Z</time>
      </trkpt>
      <trkpt lat="44.41999" lon="2.36638">
        <ele>720.1</ele>
        <time>2022-09-18T08:30:44.000Z</time>
      </trkpt>
      <trkpt lat="44.41988" lon="2.36638">
        <ele>721.2</ele>
        <time>2022-09-18T08:30:47.000Z</time>
      </trkpt>
      <trkpt lat="44.41977" lon="2.36638">
        <ele>721.8</ele>
        <time>2022-09-18T08:30:50.000Z</time>
      </trkpt>
      <trkpt lat="44.41966" lon="2.36638">
        <ele>722.6</ele>
        <time>2022-09-18T08:30:53.000Z</time>
      </trkpt>
      <trkpt lat="44.41956" lon="2.36636">
        <ele>722.8</ele>
        <time>2022-09-18T08:30:56.000Z</time>
      </trkpt>
      <trkpt lat="44.41945" lon="2.36635">
        <ele>723</ele>
        <time>2022-09-18T08:30:59.000Z</time>
      </trkpt>
      <trkpt lat="44.41936" lon="2.36634">
        <ele>723</ele>
        <time>2022-09-18T08:31:02.000Z</time>
      </trkpt>
      <trkpt lat="44.41929" lon="2.36623">
        <ele>722.2</ele>
        <time>2022-09-18T08:31:06.000Z</time>
      </trkpt>
      <trkpt lat="44.41935" lon="2.36608">
        <ele>721.2</ele>
        <time>2022-09-18T08:31:09.000Z</time>
      </trkpt>
      <trkpt lat="44.41942" lon="2.36599">
        <ele>721.3</ele>
        <time>2022-09-18T08:31:11.000Z</time>
      </trkpt>
      <trkpt lat="44.41947" lon="2.36588">
        <ele>721</ele>
        <time>2022-09-18T08:31:13.000Z</time>
      </trkpt>
      <trkpt lat="44.41952" lon="2.36577">
        <ele>720.6</ele>
        <time>2022-09-18T08:31:15.000Z</time>
      </trkpt>
      <trkpt lat="44.41958" lon="2.36564">
        <ele>719.4</ele>
        <time>2022-09-18T08:31:17.000Z</time>
      </trkpt>
      <trkpt lat="44.41964" lon="2.36551">
        <ele>718.4</ele>
        <time>2022-09-18T08:31:19.000Z</time>
      </trkpt>
      <trkpt lat="44.41971" lon="2.36537">
        <ele>718.8</ele>
        <time>2022-09-18T08:31:21.000Z</time>
      </trkpt>
      <trkpt lat="44.41977" lon="2.3652">
        <ele>717.3</ele>
        <time>2022-09-18T08:31:23.000Z</time>
      </trkpt>
      <trkpt lat="44.41982" lon="2.36501">
        <ele>716.4</ele>
        <time>2022-09-18T08:31:25.000Z</time>
      </trkpt>
      <trkpt lat="44.41989" lon="2.36481">
        <ele>715.7</ele>
        <time>2022-09-18T08:31:27.000Z</time>
      </trkpt>
      <trkpt lat="44.41995" lon="2.36461">
        <ele>714.1</ele>
        <time>2022-09-18T08:31:29.000Z</time>
      </trkpt>
      <trkpt lat="44.41999" lon="2.36439">
        <ele>713.7</ele>
        <time>2022-09-18T08:31:31.000Z</time>
      </trkpt>
      <trkpt lat="44.42002" lon="2.36417">
        <ele>712</ele>
        <time>2022-09-18T08:31:33.000Z</time>
      </trkpt>
      <trkpt lat="44.42005" lon="2.36395">
        <ele>711.3</ele>
        <time>2022-09-18T08:31:35.000Z</time>
      </trkpt>
      <trkpt lat="44.42007" lon="2.36373">
        <ele>711.1</ele>
        <time>2022-09-18T08:31:37.000Z</time>
      </trkpt>
      <trkpt lat="44.42009" lon="2.36353">
        <ele>710.2</ele>
        <time>2022-09-18T08:31:39.000Z</time>
      </trkpt>
      <trkpt lat="44.42011" lon="2.36336">
        <ele>710</ele>
        <time>2022-09-18T08:31:41.000Z</time>
      </trkpt>
      <trkpt lat="44.42012" lon="2.3632">
        <ele>708.8</ele>
        <time>2022-09-18T08:31:43.000Z</time>
      </trkpt>
      <trkpt lat="44.42014" lon="2.36307">
        <ele>707.9</ele>
        <time>2022-09-18T08:31:45.000Z</time>
      </trkpt>
      <trkpt lat="44.42015" lon="2.36295">
        <ele>707.6</ele>
        <time>2022-09-18T08:31:47.000Z</time>
      </trkpt>
      <trkpt lat="44.42017" lon="2.36282">
        <ele>706.8</ele>
        <time>2022-09-18T08:31:49.000Z</time>
      </trkpt>
      <trkpt lat="44.42018" lon="2.36268">
        <ele>707.3</ele>
        <time>2022-09-18T08:31:51.000Z</time>
      </trkpt>
      <trkpt lat="44.42021" lon="2.36254">
        <ele>706.2</ele>
        <time>2022-09-18T08:31:53.000Z</time>
      </trkpt>
      <trkpt lat="44.42024" lon="2.3624">
        <ele>705.9</ele>
        <time>2022-09-18T08:31:55.000Z</time>
      </trkpt>
      <trkpt lat="44.42027" lon="2.36227">
        <ele>705.8</ele>
        <time>2022-09-18T08:31:57.000Z</time>
      </trkpt>
      <trkpt lat="44.42031" lon="2.36214">
        <ele>705</ele>
        <time>2022-09-18T08:31:59.000Z</time>
      </trkpt>
      <trkpt lat="44.42034" lon="2.362">
        <ele>704.4</ele>
        <time>2022-09-18T08:32:01.000Z</time>
      </trkpt>
      <trkpt lat="44.42036" lon="2.36187">
        <ele>705</ele>
        <time>2022-09-18T08:32:03.000Z</time>
      </trkpt>
      <trkpt lat="44.42038" lon="2.36169">
        <ele>704.3</ele>
        <time>2022-09-18T08:32:06.000Z</time>
      </trkpt>
      <trkpt lat="44.42038" lon="2.36156">
        <ele>704.5</ele>
        <time>2022-09-18T08:32:08.000Z</time>
      </trkpt>
      <trkpt lat="44.42033" lon="2.36141">
        <ele>704.4</ele>
        <time>2022-09-18T08:32:10.000Z</time>
      </trkpt>
      <trkpt lat="44.42026" lon="2.36127">
        <ele>704.1</ele>
        <time>2022-09-18T08:32:12.000Z</time>
      </trkpt>
      <trkpt lat="44.42018" lon="2.36115">
        <ele>704.2</ele>
        <time>2022-09-18T08:32:14.000Z</time>
      </trkpt>
      <trkpt lat="44.4201" lon="2.36102">
        <ele>704.9</ele>
        <time>2022-09-18T08:32:16.000Z</time>
      </trkpt>
      <trkpt lat="44.42004" lon="2.36089">
        <ele>705.8</ele>
        <time>2022-09-18T08:32:18.000Z</time>
      </trkpt>
      <trkpt lat="44.42" lon="2.36076">
        <ele>706.4</ele>
        <time>2022-09-18T08:32:20.000Z</time>
      </trkpt>
      <trkpt lat="44.41998" lon="2.36063">
        <ele>706.9</ele>
        <time>2022-09-18T08:32:22.000Z</time>
      </trkpt>
      <trkpt lat="44.41999" lon="2.36048">
        <ele>707</ele>
        <time>2022-09-18T08:32:24.000Z</time>
      </trkpt>
      <trkpt lat="44.42" lon="2.36032">
        <ele>706.7</ele>
        <time>2022-09-18T08:32:26.000Z</time>
      </trkpt>
      <trkpt lat="44.42002" lon="2.36015">
        <ele>706.2</ele>
        <time>2022-09-18T08:32:28.000Z</time>
      </trkpt>
      <trkpt lat="44.42006" lon="2.35996">
        <ele>705.9</ele>
        <time>2022-09-18T08:32:30.000Z</time>
      </trkpt>
      <trkpt lat="44.4201" lon="2.35975">
        <ele>705</ele>
        <time>2022-09-18T08:32:32.000Z</time>
      </trkpt>
      <trkpt lat="44.42014" lon="2.35954">
        <ele>702.9</ele>
        <time>2022-09-18T08:32:34.000Z</time>
      </trkpt>
      <trkpt lat="44.42019" lon="2.35933">
        <ele>702</ele>
        <time>2022-09-18T08:32:36.000Z</time>
      </trkpt>
      <trkpt lat="44.42025" lon="2.35911">
        <ele>701.3</ele>
        <time>2022-09-18T08:32:38.000Z</time>
      </trkpt>
      <trkpt lat="44.42031" lon="2.35891">
        <ele>701.1</ele>
        <time>2022-09-18T08:32:40.000Z</time>
      </trkpt>
      <trkpt lat="44.42035" lon="2.35871">
        <ele>701.1</ele>
        <time>2022-09-18T08:32:42.000Z</time>
      </trkpt>
      <trkpt lat="44.42039" lon="2.35853">
        <ele>702</ele>
        <time>2022-09-18T08:32:44.000Z</time>
      </trkpt>
      <trkpt lat="44.42041" lon="2.35836">
        <ele>702.9</ele>
        <time>2022-09-18T08:32:46.000Z</time>
      </trkpt>
      <trkpt lat="44.42043" lon="2.35821">
        <ele>703.5</ele>
        <time>2022-09-18T08:32:48.000Z</time>
      </trkpt>
      <trkpt lat="44.42044" lon="2.35806">
        <ele>704.2</ele>
        <time>2022-09-18T08:32:50.000Z</time>
      </trkpt>
      <trkpt lat="44.42045" lon="2.35792">
        <ele>704.4</ele>
        <time>2022-09-18T08:32:52.000Z</time>
      </trkpt>
      <trkpt lat="44.42045" lon="2.35778">
        <ele>704.2</ele>
        <time>2022-09-18T08:32:54.000Z</time>
      </trkpt>
      <trkpt lat="44.42045" lon="2.35763">
        <ele>704.6</ele>
        <time>2022-09-18T08:32:56.000Z</time>
      </trkpt>
      <trkpt lat="44.42045" lon="2.35748">
        <ele>704.7</ele>
        <time>2022-09-18T08:32:58.000Z</time>
      </trkpt>
      <trkpt lat="44.42044" lon="2.35733">
        <ele>704.3</ele>
        <time>2022-09-18T08:33:00.000Z</time>
      </trkpt>
      <trkpt lat="44.42043" lon="2.35718">
        <ele>703.9</ele>
        <time>2022-09-18T08:33:02.000Z</time>
      </trkpt>
      <trkpt lat="44.42043" lon="2.35705">
        <ele>704.2</ele>
        <time>2022-09-18T08:33:04.000Z</time>
      </trkpt>
      <trkpt lat="44.42042" lon="2.3569">
        <ele>703.8</ele>
        <time>2022-09-18T08:33:06.000Z</time>
      </trkpt>
      <trkpt lat="44.42041" lon="2.35674">
        <ele>703.8</ele>
        <time>2022-09-18T08:33:08.000Z</time>
      </trkpt>
      <trkpt lat="44.4204" lon="2.35657">
        <ele>703.5</ele>
        <time>2022-09-18T08:33:10.000Z</time>
      </trkpt>
      <trkpt lat="44.4204" lon="2.3564">
        <ele>703.3</ele>
        <time>2022-09-18T08:33:12.000Z</time>
      </trkpt>
      <trkpt lat="44.4204" lon="2.35621">
        <ele>702.8</ele>
        <time>2022-09-18T08:33:14.000Z</time>
      </trkpt>
      <trkpt lat="44.4204" lon="2.35605">
        <ele>703</ele>
        <time>2022-09-18T08:33:16.000Z</time>
      </trkpt>
      <trkpt lat="44.42036" lon="2.35589">
        <ele>702</ele>
        <time>2022-09-18T08:33:18.000Z</time>
      </trkpt>
      <trkpt lat="44.42032" lon="2.35572">
        <ele>701.3</ele>
        <time>2022-09-18T08:33:20.000Z</time>
      </trkpt>
      <trkpt lat="44.42028" lon="2.35556">
        <ele>701.5</ele>
        <time>2022-09-18T08:33:22.000Z</time>
      </trkpt>
      <trkpt lat="44.42025" lon="2.35538">
        <ele>701.2</ele>
        <time>2022-09-18T08:33:24.000Z</time>
      </trkpt>
      <trkpt lat="44.42022" lon="2.35521">
        <ele>700.4</ele>
        <time>2022-09-18T08:33:26.000Z</time>
      </trkpt>
      <trkpt lat="44.42018" lon="2.35503">
        <ele>699.9</ele>
        <time>2022-09-18T08:33:28.000Z</time>
      </trkpt>
      <trkpt lat="44.42015" lon="2.35484">
        <ele>700</ele>
        <time>2022-09-18T08:33:30.000Z</time>
      </trkpt>
      <trkpt lat="44.42013" lon="2.35463">
        <ele>698.7</ele>
        <time>2022-09-18T08:33:32.000Z</time>
      </trkpt>
      <trkpt lat="44.42012" lon="2.3544">
        <ele>696.3</ele>
        <time>2022-09-18T08:33:34.000Z</time>
      </trkpt>
      <trkpt lat="44.42012" lon="2.35416">
        <ele>694.8</ele>
        <time>2022-09-18T08:33:36.000Z</time>
      </trkpt>
      <trkpt lat="44.42015" lon="2.35392">
        <ele>694.3</ele>
        <time>2022-09-18T08:33:38.000Z</time>
      </trkpt>
      <trkpt lat="44.42018" lon="2.35368">
        <ele>694.3</ele>
        <time>2022-09-18T08:33:40.000Z</time>
      </trkpt>
      <trkpt lat="44.4202" lon="2.35345">
        <ele>693.4</ele>
        <time>2022-09-18T08:33:42.000Z</time>
      </trkpt>
      <trkpt lat="44.4202" lon="2.35324">
        <ele>692.6</ele>
        <time>2022-09-18T08:33:44.000Z</time>
      </trkpt>
      <trkpt lat="44.42015" lon="2.35304">
        <ele>692.6</ele>
        <time>2022-09-18T08:33:46.000Z</time>
      </trkpt>
      <trkpt lat="44.42009" lon="2.35285">
        <ele>692.2</ele>
        <time>2022-09-18T08:33:48.000Z</time>
      </trkpt>
      <trkpt lat="44.42001" lon="2.35265">
        <ele>691.2</ele>
        <time>2022-09-18T08:33:50.000Z</time>
      </trkpt>
      <trkpt lat="44.41996" lon="2.35244">
        <ele>689.6</ele>
        <time>2022-09-18T08:33:52.000Z</time>
      </trkpt>
      <trkpt lat="44.41991" lon="2.3522">
        <ele>688.4</ele>
        <time>2022-09-18T08:33:54.000Z</time>
      </trkpt>
      <trkpt lat="44.41989" lon="2.35207">
        <ele>688.1</ele>
        <time>2022-09-18T08:33:55.000Z</time>
      </trkpt>
      <trkpt lat="44.41987" lon="2.35194">
        <ele>687.6</ele>
        <time>2022-09-18T08:33:56.000Z</time>
      </trkpt>
      <trkpt lat="44.41987" lon="2.3518">
        <ele>687.3</ele>
        <time>2022-09-18T08:33:57.000Z</time>
      </trkpt>
      <trkpt lat="44.41987" lon="2.35167">
        <ele>685.7</ele>
        <time>2022-09-18T08:33:58.000Z</time>
      </trkpt>
      <trkpt lat="44.41988" lon="2.35153">
        <ele>684.5</ele>
        <time>2022-09-18T08:33:59.000Z</time>
      </trkpt>
      <trkpt lat="44.4199" lon="2.35139">
        <ele>682.9</ele>
        <time>2022-09-18T08:34:00.000Z</time>
      </trkpt>
      <trkpt lat="44.41992" lon="2.35126">
        <ele>681.6</ele>
        <time>2022-09-18T08:34:01.000Z</time>
      </trkpt>
      <trkpt lat="44.41994" lon="2.35113">
        <ele>681</ele>
        <time>2022-09-18T08:34:02.000Z</time>
      </trkpt>
      <trkpt lat="44.41999" lon="2.3509">
        <ele>678.8</ele>
        <time>2022-09-18T08:34:04.000Z</time>
      </trkpt>
      <trkpt lat="44.42003" lon="2.35075">
        <ele>677.1</ele>
        <time>2022-09-18T08:34:06.000Z</time>
      </trkpt>
      <trkpt lat="44.42002" lon="2.35062">
        <ele>675.4</ele>
        <time>2022-09-18T08:34:10.000Z</time>
      </trkpt>
      <trkpt lat="44.41993" lon="2.35066">
        <ele>675.5</ele>
        <time>2022-09-18T08:34:14.000Z</time>
      </trkpt>
      <trkpt lat="44.41983" lon="2.35074">
        <ele>675.7</ele>
        <time>2022-09-18T08:34:18.000Z</time>
      </trkpt>
      <trkpt lat="44.41975" lon="2.35081">
        <ele>676</ele>
        <time>2022-09-18T08:34:21.000Z</time>
      </trkpt>
      <trkpt lat="44.41967" lon="2.35092">
        <ele>676.3</ele>
        <time>2022-09-18T08:34:24.000Z</time>
      </trkpt>
      <trkpt lat="44.4196" lon="2.35104">
        <ele>676.6</ele>
        <time>2022-09-18T08:34:27.000Z</time>
      </trkpt>
      <trkpt lat="44.41953" lon="2.35115">
        <ele>676.6</ele>
        <time>2022-09-18T08:34:30.000Z</time>
      </trkpt>
      <trkpt lat="44.41943" lon="2.35125">
        <ele>676.4</ele>
        <time>2022-09-18T08:34:33.000Z</time>
      </trkpt>
      <trkpt lat="44.41933" lon="2.3513">
        <ele>676.5</ele>
        <time>2022-09-18T08:34:35.000Z</time>
      </trkpt>
      <trkpt lat="44.41924" lon="2.35136">
        <ele>675.7</ele>
        <time>2022-09-18T08:34:37.000Z</time>
      </trkpt>
      <trkpt lat="44.41915" lon="2.35145">
        <ele>675.9</ele>
        <time>2022-09-18T08:34:39.000Z</time>
      </trkpt>
      <trkpt lat="44.41905" lon="2.35153">
        <ele>674.9</ele>
        <time>2022-09-18T08:34:41.000Z</time>
      </trkpt>
      <trkpt lat="44.41892" lon="2.3516">
        <ele>673.5</ele>
        <time>2022-09-18T08:34:43.000Z</time>
      </trkpt>
      <trkpt lat="44.41878" lon="2.35171">
        <ele>671.9</ele>
        <time>2022-09-18T08:34:45.000Z</time>
      </trkpt>
      <trkpt lat="44.41865" lon="2.35183">
        <ele>669.5</ele>
        <time>2022-09-18T08:34:47.000Z</time>
      </trkpt>
      <trkpt lat="44.41856" lon="2.35198">
        <ele>667.7</ele>
        <time>2022-09-18T08:34:49.000Z</time>
      </trkpt>
      <trkpt lat="44.4185" lon="2.35213">
        <ele>666.3</ele>
        <time>2022-09-18T08:34:51.000Z</time>
      </trkpt>
      <trkpt lat="44.41845" lon="2.35233">
        <ele>664.3</ele>
        <time>2022-09-18T08:34:53.000Z</time>
      </trkpt>
      <trkpt lat="44.41841" lon="2.3525">
        <ele>662</ele>
        <time>2022-09-18T08:34:55.000Z</time>
      </trkpt>
      <trkpt lat="44.41839" lon="2.35269">
        <ele>660.3</ele>
        <time>2022-09-18T08:34:57.000Z</time>
      </trkpt>
      <trkpt lat="44.4184" lon="2.35287">
        <ele>658.9</ele>
        <time>2022-09-18T08:34:59.000Z</time>
      </trkpt>
      <trkpt lat="44.41847" lon="2.353">
        <ele>656.7</ele>
        <time>2022-09-18T08:35:01.000Z</time>
      </trkpt>
      <trkpt lat="44.41855" lon="2.3531">
        <ele>654.8</ele>
        <time>2022-09-18T08:35:03.000Z</time>
      </trkpt>
      <trkpt lat="44.41862" lon="2.35323">
        <ele>653.6</ele>
        <time>2022-09-18T08:35:05.000Z</time>
      </trkpt>
      <trkpt lat="44.41867" lon="2.35336">
        <ele>651</ele>
        <time>2022-09-18T08:35:07.000Z</time>
      </trkpt>
      <trkpt lat="44.41863" lon="2.35353">
        <ele>649.2</ele>
        <time>2022-09-18T08:35:10.000Z</time>
      </trkpt>
      <trkpt lat="44.41851" lon="2.35362">
        <ele>647.2</ele>
        <time>2022-09-18T08:35:12.000Z</time>
      </trkpt>
      <trkpt lat="44.41836" lon="2.35372">
        <ele>645.2</ele>
        <time>2022-09-18T08:35:14.000Z</time>
      </trkpt>
      <trkpt lat="44.41819" lon="2.35374">
        <ele>643.2</ele>
        <time>2022-09-18T08:35:16.000Z</time>
      </trkpt>
      <trkpt lat="44.41802" lon="2.35379">
        <ele>639.5</ele>
        <time>2022-09-18T08:35:18.000Z</time>
      </trkpt>
      <trkpt lat="44.41786" lon="2.35384">
        <ele>638.2</ele>
        <time>2022-09-18T08:35:20.000Z</time>
      </trkpt>
      <trkpt lat="44.41776" lon="2.35392">
        <ele>637.6</ele>
        <time>2022-09-18T08:35:22.000Z</time>
      </trkpt>
      <trkpt lat="44.41769" lon="2.35407">
        <ele>635.6</ele>
        <time>2022-09-18T08:35:24.000Z</time>
      </trkpt>
      <trkpt lat="44.41767" lon="2.35427">
        <ele>633.7</ele>
        <time>2022-09-18T08:35:26.000Z</time>
      </trkpt>
      <trkpt lat="44.41766" lon="2.35449">
        <ele>630.9</ele>
        <time>2022-09-18T08:35:28.000Z</time>
      </trkpt>
      <trkpt lat="44.41764" lon="2.3547">
        <ele>629.6</ele>
        <time>2022-09-18T08:35:30.000Z</time>
      </trkpt>
      <trkpt lat="44.41762" lon="2.35486">
        <ele>627.1</ele>
        <time>2022-09-18T08:35:32.000Z</time>
      </trkpt>
      <trkpt lat="44.4176" lon="2.35501">
        <ele>625.6</ele>
        <time>2022-09-18T08:35:34.000Z</time>
      </trkpt>
      <trkpt lat="44.41761" lon="2.35517">
        <ele>624.8</ele>
        <time>2022-09-18T08:35:36.000Z</time>
      </trkpt>
      <trkpt lat="44.41762" lon="2.35531">
        <ele>625.7</ele>
        <time>2022-09-18T08:35:38.000Z</time>
      </trkpt>
      <trkpt lat="44.41766" lon="2.35548">
        <ele>625.3</ele>
        <time>2022-09-18T08:35:41.000Z</time>
      </trkpt>
      <trkpt lat="44.41772" lon="2.35559">
        <ele>626.3</ele>
        <time>2022-09-18T08:35:43.000Z</time>
      </trkpt>
      <trkpt lat="44.41778" lon="2.35571">
        <ele>626.9</ele>
        <time>2022-09-18T08:35:46.000Z</time>
      </trkpt>
      <trkpt lat="44.41785" lon="2.35579">
        <ele>627.6</ele>
        <time>2022-09-18T08:35:49.000Z</time>
      </trkpt>
      <trkpt lat="44.41794" lon="2.35586">
        <ele>629.6</ele>
        <time>2022-09-18T08:35:52.000Z</time>
      </trkpt>
      <trkpt lat="44.41792" lon="2.35599">
        <ele>630.3</ele>
        <time>2022-09-18T08:35:56.000Z</time>
      </trkpt>
      <trkpt lat="44.41781" lon="2.35603">
        <ele>630.7</ele>
        <time>2022-09-18T08:35:59.000Z</time>
      </trkpt>
      <trkpt lat="44.41771" lon="2.35613">
        <ele>631.2</ele>
        <time>2022-09-18T08:36:03.000Z</time>
      </trkpt>
      <trkpt lat="44.41765" lon="2.35627">
        <ele>631.7</ele>
        <time>2022-09-18T08:36:06.000Z</time>
      </trkpt>
      <trkpt lat="44.4176" lon="2.35639">
        <ele>630.8</ele>
        <time>2022-09-18T08:36:08.000Z</time>
      </trkpt>
      <trkpt lat="44.41754" lon="2.35654">
        <ele>629.8</ele>
        <time>2022-09-18T08:36:10.000Z</time>
      </trkpt>
      <trkpt lat="44.41749" lon="2.35672">
        <ele>627.7</ele>
        <time>2022-09-18T08:36:12.000Z</time>
      </trkpt>
      <trkpt lat="44.41745" lon="2.35693">
        <ele>626</ele>
        <time>2022-09-18T08:36:14.000Z</time>
      </trkpt>
      <trkpt lat="44.41739" lon="2.35711">
        <ele>624.7</ele>
        <time>2022-09-18T08:36:16.000Z</time>
      </trkpt>
      <trkpt lat="44.41737" lon="2.3573">
        <ele>623.1</ele>
        <time>2022-09-18T08:36:18.000Z</time>
      </trkpt>
      <trkpt lat="44.41738" lon="2.35749">
        <ele>623.1</ele>
        <time>2022-09-18T08:36:20.000Z</time>
      </trkpt>
      <trkpt lat="44.4174" lon="2.35763">
        <ele>624.1</ele>
        <time>2022-09-18T08:36:22.000Z</time>
      </trkpt>
      <trkpt lat="44.41741" lon="2.35777">
        <ele>624.1</ele>
        <time>2022-09-18T08:36:24.000Z</time>
      </trkpt>
      <trkpt lat="44.41738" lon="2.35795">
        <ele>624.3</ele>
        <time>2022-09-18T08:36:27.000Z</time>
      </trkpt>
      <trkpt lat="44.41731" lon="2.3581">
        <ele>624.8</ele>
        <time>2022-09-18T08:36:30.000Z</time>
      </trkpt>
      <trkpt lat="44.41724" lon="2.35826">
        <ele>624.9</ele>
        <time>2022-09-18T08:36:33.000Z</time>
      </trkpt>
      <trkpt lat="44.41718" lon="2.35841">
        <ele>625.7</ele>
        <time>2022-09-18T08:36:36.000Z</time>
      </trkpt>
      <trkpt lat="44.41711" lon="2.35854">
        <ele>626</ele>
        <time>2022-09-18T08:36:39.000Z</time>
      </trkpt>
      <trkpt lat="44.41705" lon="2.35866">
        <ele>626.4</ele>
        <time>2022-09-18T08:36:42.000Z</time>
      </trkpt>
      <trkpt lat="44.417" lon="2.35881">
        <ele>627.9</ele>
        <time>2022-09-18T08:36:45.000Z</time>
      </trkpt>
      <trkpt lat="44.41698" lon="2.35895">
        <ele>630.4</ele>
        <time>2022-09-18T08:36:48.000Z</time>
      </trkpt>
      <trkpt lat="44.41701" lon="2.3591">
        <ele>631.5</ele>
        <time>2022-09-18T08:36:52.000Z</time>
      </trkpt>
      <trkpt lat="44.4171" lon="2.35918">
        <ele>632.5</ele>
        <time>2022-09-18T08:36:56.000Z</time>
      </trkpt>
      <trkpt lat="44.41718" lon="2.35925">
        <ele>633.2</ele>
        <time>2022-09-18T08:36:59.000Z</time>
      </trkpt>
      <trkpt lat="44.41728" lon="2.35934">
        <ele>633.5</ele>
        <time>2022-09-18T08:37:02.000Z</time>
      </trkpt>
      <trkpt lat="44.41737" lon="2.35946">
        <ele>634.4</ele>
        <time>2022-09-18T08:37:05.000Z</time>
      </trkpt>
      <trkpt lat="44.41742" lon="2.3596">
        <ele>634.2</ele>
        <time>2022-09-18T08:37:08.000Z</time>
      </trkpt>
      <trkpt lat="44.41747" lon="2.35975">
        <ele>634.9</ele>
        <time>2022-09-18T08:37:11.000Z</time>
      </trkpt>
      <trkpt lat="44.41753" lon="2.35988">
        <ele>634.8</ele>
        <time>2022-09-18T08:37:14.000Z</time>
      </trkpt>
      <trkpt lat="44.41754" lon="2.36002">
        <ele>635.3</ele>
        <time>2022-09-18T08:37:17.000Z</time>
      </trkpt>
      <trkpt lat="44.41743" lon="2.36003">
        <ele>636.9</ele>
        <time>2022-09-18T08:37:21.000Z</time>
      </trkpt>
      <trkpt lat="44.41735" lon="2.35999">
        <ele>638.2</ele>
        <time>2022-09-18T08:37:24.000Z</time>
      </trkpt>
      <trkpt lat="44.41726" lon="2.35995">
        <ele>638.8</ele>
        <time>2022-09-18T08:37:27.000Z</time>
      </trkpt>
      <trkpt lat="44.41714" lon="2.35989">
        <ele>639.5</ele>
        <time>2022-09-18T08:37:31.000Z</time>
      </trkpt>
      <trkpt lat="44.41705" lon="2.35985">
        <ele>640.2</ele>
        <time>2022-09-18T08:37:34.000Z</time>
      </trkpt>
      <trkpt lat="44.41694" lon="2.35979">
        <ele>641.9</ele>
        <time>2022-09-18T08:37:38.000Z</time>
      </trkpt>
      <trkpt lat="44.41684" lon="2.35978">
        <ele>642.7</ele>
        <time>2022-09-18T08:37:41.000Z</time>
      </trkpt>
      <trkpt lat="44.41674" lon="2.35975">
        <ele>644.6</ele>
        <time>2022-09-18T08:37:44.000Z</time>
      </trkpt>
      <trkpt lat="44.41664" lon="2.35975">
        <ele>646.8</ele>
        <time>2022-09-18T08:37:48.000Z</time>
      </trkpt>
      <trkpt lat="44.41655" lon="2.3598">
        <ele>647.1</ele>
        <time>2022-09-18T08:37:51.000Z</time>
      </trkpt>
      <trkpt lat="44.41646" lon="2.35987">
        <ele>648</ele>
        <time>2022-09-18T08:37:55.000Z</time>
      </trkpt>
      <trkpt lat="44.41635" lon="2.35992">
        <ele>648.3</ele>
        <time>2022-09-18T08:37:59.000Z</time>
      </trkpt>
      <trkpt lat="44.41624" lon="2.35995">
        <ele>648.7</ele>
        <time>2022-09-18T08:38:02.000Z</time>
      </trkpt>
      <trkpt lat="44.41612" lon="2.35999">
        <ele>649.2</ele>
        <time>2022-09-18T08:38:06.000Z</time>
      </trkpt>
      <trkpt lat="44.41603" lon="2.36006">
        <ele>650</ele>
        <time>2022-09-18T08:38:09.000Z</time>
      </trkpt>
      <trkpt lat="44.41592" lon="2.36014">
        <ele>650.1</ele>
        <time>2022-09-18T08:38:12.000Z</time>
      </trkpt>
      <trkpt lat="44.41584" lon="2.36022">
        <ele>651.2</ele>
        <time>2022-09-18T08:38:15.000Z</time>
      </trkpt>
      <trkpt lat="44.41577" lon="2.36031">
        <ele>652.4</ele>
        <time>2022-09-18T08:38:18.000Z</time>
      </trkpt>
      <trkpt lat="44.41569" lon="2.36039">
        <ele>653.4</ele>
        <time>2022-09-18T08:38:21.000Z</time>
      </trkpt>
      <trkpt lat="44.41562" lon="2.3605">
        <ele>654.9</ele>
        <time>2022-09-18T08:38:25.000Z</time>
      </trkpt>
      <trkpt lat="44.41554" lon="2.36062">
        <ele>656.6</ele>
        <time>2022-09-18T08:38:29.000Z</time>
      </trkpt>
      <trkpt lat="44.41547" lon="2.36074">
        <ele>658.1</ele>
        <time>2022-09-18T08:38:33.000Z</time>
      </trkpt>
      <trkpt lat="44.41542" lon="2.36088">
        <ele>659.3</ele>
        <time>2022-09-18T08:38:37.000Z</time>
      </trkpt>
      <trkpt lat="44.41536" lon="2.36102">
        <ele>660.8</ele>
        <time>2022-09-18T08:38:41.000Z</time>
      </trkpt>
      <trkpt lat="44.41534" lon="2.36117">
        <ele>662.1</ele>
        <time>2022-09-18T08:38:45.000Z</time>
      </trkpt>
      <trkpt lat="44.41534" lon="2.3613">
        <ele>664</ele>
        <time>2022-09-18T08:38:49.000Z</time>
      </trkpt>
      <trkpt lat="44.41534" lon="2.36143">
        <ele>665.4</ele>
        <time>2022-09-18T08:38:53.000Z</time>
      </trkpt>
      <trkpt lat="44.41532" lon="2.36157">
        <ele>668.3</ele>
        <time>2022-09-18T08:38:58.000Z</time>
      </trkpt>
      <trkpt lat="44.4153" lon="2.3617">
        <ele>670.6</ele>
        <time>2022-09-18T08:39:05.000Z</time>
      </trkpt>
      <trkpt lat="44.41538" lon="2.36176">
        <ele>672.6</ele>
        <time>2022-09-18T08:39:11.000Z</time>
      </trkpt>
      <trkpt lat="44.41548" lon="2.36165">
        <ele>673.9</ele>
        <time>2022-09-18T08:39:16.000Z</time>
      </trkpt>
      <trkpt lat="44.41557" lon="2.36158">
        <ele>674.7</ele>
        <time>2022-09-18T08:39:19.000Z</time>
      </trkpt>
      <trkpt lat="44.41567" lon="2.36152">
        <ele>675.9</ele>
        <time>2022-09-18T08:39:23.000Z</time>
      </trkpt>
      <trkpt lat="44.41577" lon="2.36144">
        <ele>677.1</ele>
        <time>2022-09-18T08:39:28.000Z</time>
      </trkpt>
      <trkpt lat="44.41589" lon="2.3614">
        <ele>678.4</ele>
        <time>2022-09-18T08:39:32.000Z</time>
      </trkpt>
      <trkpt lat="44.416" lon="2.36141">
        <ele>680.2</ele>
        <time>2022-09-18T08:39:36.000Z</time>
      </trkpt>
      <trkpt lat="44.4161" lon="2.3614">
        <ele>681.6</ele>
        <time>2022-09-18T08:39:40.000Z</time>
      </trkpt>
      <trkpt lat="44.4162" lon="2.36142">
        <ele>683.6</ele>
        <time>2022-09-18T08:39:43.000Z</time>
      </trkpt>
      <trkpt lat="44.4163" lon="2.36143">
        <ele>684.7</ele>
        <time>2022-09-18T08:39:46.000Z</time>
      </trkpt>
      <trkpt lat="44.41641" lon="2.36143">
        <ele>687.1</ele>
        <time>2022-09-18T08:39:50.000Z</time>
      </trkpt>
      <trkpt lat="44.41652" lon="2.36145">
        <ele>688.7</ele>
        <time>2022-09-18T08:39:54.000Z</time>
      </trkpt>
      <trkpt lat="44.41662" lon="2.36149">
        <ele>690.4</ele>
        <time>2022-09-18T08:39:58.000Z</time>
      </trkpt>
      <trkpt lat="44.4167" lon="2.36158">
        <ele>692</ele>
        <time>2022-09-18T08:40:02.000Z</time>
      </trkpt>
      <trkpt lat="44.41678" lon="2.36167">
        <ele>692.5</ele>
        <time>2022-09-18T08:40:05.000Z</time>
      </trkpt>
      <trkpt lat="44.41685" lon="2.36176">
        <ele>693.6</ele>
        <time>2022-09-18T08:40:08.000Z</time>
      </trkpt>
      <trkpt lat="44.41692" lon="2.36188">
        <ele>694.4</ele>
        <time>2022-09-18T08:40:12.000Z</time>
      </trkpt>
      <trkpt lat="44.41693" lon="2.36202">
        <ele>696.1</ele>
        <time>2022-09-18T08:40:17.000Z</time>
      </trkpt>
      <trkpt lat="44.41685" lon="2.36209">
        <ele>698.7</ele>
        <time>2022-09-18T08:40:22.000Z</time>
      </trkpt>
      <trkpt lat="44.41675" lon="2.36215">
        <ele>700.8</ele>
        <time>2022-09-18T08:40:27.000Z</time>
      </trkpt>
      <trkpt lat="44.41667" lon="2.36222">
        <ele>703.1</ele>
        <time>2022-09-18T08:40:33.000Z</time>
      </trkpt>
      <trkpt lat="44.41664" lon="2.36235">
        <ele>705.3</ele>
        <time>2022-09-18T08:40:38.000Z</time>
      </trkpt>
      <trkpt lat="44.41665" lon="2.36249">
        <ele>707.5</ele>
        <time>2022-09-18T08:40:43.000Z</time>
      </trkpt>
      <trkpt lat="44.41666" lon="2.36262">
        <ele>709.2</ele>
        <time>2022-09-18T08:40:47.000Z</time>
      </trkpt>
      <trkpt lat="44.41665" lon="2.36275">
        <ele>710.4</ele>
        <time>2022-09-18T08:40:51.000Z</time>
      </trkpt>
      <trkpt lat="44.41662" lon="2.36288">
        <ele>711.9</ele>
        <time>2022-09-18T08:40:55.000Z</time>
      </trkpt>
      <trkpt lat="44.4166" lon="2.36302">
        <ele>713.9</ele>
        <time>2022-09-18T08:41:00.000Z</time>
      </trkpt>
      <trkpt lat="44.41657" lon="2.36316">
        <ele>715.9</ele>
        <time>2022-09-18T08:41:05.000Z</time>
      </trkpt>
      <trkpt lat="44.41654" lon="2.36329">
        <ele>717.4</ele>
        <time>2022-09-18T08:41:09.000Z</time>
      </trkpt>
      <trkpt lat="44.41651" lon="2.36342">
        <ele>718.5</ele>
        <time>2022-09-18T08:41:14.000Z</time>
      </trkpt>
      <trkpt lat="44.41647" lon="2.36354">
        <ele>719.8</ele>
        <time>2022-09-18T08:41:18.000Z</time>
      </trkpt>
      <trkpt lat="44.41642" lon="2.36365">
        <ele>720.9</ele>
        <time>2022-09-18T08:41:22.000Z</time>
      </trkpt>
      <trkpt lat="44.41637" lon="2.36377">
        <ele>721.9</ele>
        <time>2022-09-18T08:41:26.000Z</time>
      </trkpt>
      <trkpt lat="44.41634" lon="2.36389">
        <ele>723.9</ele>
        <time>2022-09-18T08:41:30.000Z</time>
      </trkpt>
      <trkpt lat="44.41629" lon="2.36402">
        <ele>724.3</ele>
        <time>2022-09-18T08:41:34.000Z</time>
      </trkpt>
      <trkpt lat="44.41625" lon="2.36414">
        <ele>725.2</ele>
        <time>2022-09-18T08:41:37.000Z</time>
      </trkpt>
      <trkpt lat="44.4162" lon="2.36425">
        <ele>726.2</ele>
        <time>2022-09-18T08:41:40.000Z</time>
      </trkpt>
      <trkpt lat="44.41614" lon="2.36436">
        <ele>726.7</ele>
        <time>2022-09-18T08:41:43.000Z</time>
      </trkpt>
      <trkpt lat="44.41609" lon="2.36447">
        <ele>728.1</ele>
        <time>2022-09-18T08:41:46.000Z</time>
      </trkpt>
      <trkpt lat="44.41603" lon="2.36458">
        <ele>728.3</ele>
        <time>2022-09-18T08:41:49.000Z</time>
      </trkpt>
      <trkpt lat="44.41596" lon="2.36469">
        <ele>728.7</ele>
        <time>2022-09-18T08:41:52.000Z</time>
      </trkpt>
      <trkpt lat="44.41588" lon="2.36479">
        <ele>728.7</ele>
        <time>2022-09-18T08:41:55.000Z</time>
      </trkpt>
      <trkpt lat="44.41579" lon="2.3649">
        <ele>728.3</ele>
        <time>2022-09-18T08:41:58.000Z</time>
      </trkpt>
      <trkpt lat="44.4157" lon="2.36499">
        <ele>728</ele>
        <time>2022-09-18T08:42:01.000Z</time>
      </trkpt>
      <trkpt lat="44.41558" lon="2.36509">
        <ele>727.2</ele>
        <time>2022-09-18T08:42:04.000Z</time>
      </trkpt>
      <trkpt lat="44.41549" lon="2.36515">
        <ele>726.7</ele>
        <time>2022-09-18T08:42:06.000Z</time>
      </trkpt>
      <trkpt lat="44.41539" lon="2.36519">
        <ele>726.1</ele>
        <time>2022-09-18T08:42:08.000Z</time>
      </trkpt>
      <trkpt lat="44.41529" lon="2.36523">
        <ele>725.6</ele>
        <time>2022-09-18T08:42:10.000Z</time>
      </trkpt>
      <trkpt lat="44.41519" lon="2.36526">
        <ele>725</ele>
        <time>2022-09-18T08:42:12.000Z</time>
      </trkpt>
      <trkpt lat="44.4151" lon="2.36529">
        <ele>724.4</ele>
        <time>2022-09-18T08:42:14.000Z</time>
      </trkpt>
      <trkpt lat="44.41498" lon="2.36534">
        <ele>725.2</ele>
        <time>2022-09-18T08:42:17.000Z</time>
      </trkpt>
      <trkpt lat="44.4149" lon="2.3654">
        <ele>725.4</ele>
        <time>2022-09-18T08:42:21.000Z</time>
      </trkpt>
      <trkpt lat="44.4149" lon="2.36539">
        <ele>725.4</ele>
        <time>2022-09-18T08:42:29.000Z</time>
      </trkpt>
      <trkpt lat="44.41481" lon="2.36537">
        <ele>724.7</ele>
        <time>2022-09-18T08:42:39.000Z</time>
      </trkpt>
      <trkpt lat="44.41478" lon="2.36535">
        <ele>724.2</ele>
        <time>2022-09-18T08:42:45.000Z</time>
      </trkpt>
      <trkpt lat="44.41477" lon="2.36535">
        <ele>724.6</ele>
        <time>2022-09-18T08:44:30.000Z</time>
      </trkpt>
      <trkpt lat="44.41477" lon="2.36536">
        <ele>726</ele>
        <time>2022-09-18T08:45:21.000Z</time>
      </trkpt>
      <trkpt lat="44.41477" lon="2.36536">
        <ele>726.2</ele>
        <time>2022-09-18T08:45:35.000Z</time>
      </trkpt>
      <trkpt lat="44.41477" lon="2.36536">
        <ele>726.1</ele>
        <time>2022-09-18T08:45:39.000Z</time>
      </trkpt>
      <trkpt lat="44.41477" lon="2.36536">
        <ele>726.1</ele>
        <time>2022-09-18T08:45:47.000Z</time>
      </trkpt>
      <trkpt lat="44.41477" lon="2.36537">
        <ele>726</ele>
        <time>2022-09-18T08:45:57.000Z</time>
      </trkpt>
      <trkpt lat="44.41476" lon="2.36537">
        <ele>726</ele>
        <time>2022-09-18T08:45:59.000Z</time>
      </trkpt>
      <trkpt lat="44.41477" lon="2.36538">
        <ele>726.1</ele>
        <time>2022-09-18T08:46:01.000Z</time>
      </trkpt>
      <trkpt lat="44.41477" lon="2.36538">
        <ele>726.1</ele>
        <time>2022-09-18T08:46:03.000Z</time>
      </trkpt>
      <trkpt lat="44.41477" lon="2.36537">
        <ele>726.1</ele>
        <time>2022-09-18T08:46:14.000Z</time>
      </trkpt>
      <trkpt lat="44.41477" lon="2.36538">
        <ele>725.9</ele>
        <time>2022-09-18T08:46:16.000Z</time>
      </trkpt>
      <trkpt lat="44.41477" lon="2.36538">
        <ele>725.9</ele>
        <time>2022-09-18T08:46:30.000Z</time>
      </trkpt>
      <trkpt lat="44.41487" lon="2.36539">
        <ele>726.2</ele>
        <time>2022-09-18T08:46:37.000Z</time>
      </trkpt>
      <trkpt lat="44.41494" lon="2.36533">
        <ele>726.2</ele>
        <time>2022-09-18T08:46:45.000Z</time>
      </trkpt>
      <trkpt lat="44.41495" lon="2.36533">
        <ele>726.5</ele>
        <time>2022-09-18T08:46:52.000Z</time>
      </trkpt>
      <trkpt lat="44.41496" lon="2.36532">
        <ele>726.5</ele>
        <time>2022-09-18T08:46:57.000Z</time>
      </trkpt>
      <trkpt lat="44.41496" lon="2.36532">
        <ele>726.3</ele>
        <time>2022-09-18T08:47:16.000Z</time>
      </trkpt>
      <trkpt lat="44.41496" lon="2.36533">
        <ele>726.5</ele>
        <time>2022-09-18T08:47:23.000Z</time>
      </trkpt>
      <trkpt lat="44.41496" lon="2.36532">
        <ele>726.5</ele>
        <time>2022-09-18T08:47:25.000Z</time>
      </trkpt>
      <trkpt lat="44.415" lon="2.36546">
        <ele>727.5</ele>
        <time>2022-09-18T08:47:34.000Z</time>
      </trkpt>
      <trkpt lat="44.41507" lon="2.36556">
        <ele>727.9</ele>
        <time>2022-09-18T08:47:38.000Z</time>
      </trkpt>
      <trkpt lat="44.41514" lon="2.36569">
        <ele>729.5</ele>
        <time>2022-09-18T08:47:42.000Z</time>
      </trkpt>
      <trkpt lat="44.41519" lon="2.3658">
        <ele>730.4</ele>
        <time>2022-09-18T08:47:45.000Z</time>
      </trkpt>
      <trkpt lat="44.41527" lon="2.36592">
        <ele>731.5</ele>
        <time>2022-09-18T08:47:49.000Z</time>
      </trkpt>
      <trkpt lat="44.41533" lon="2.36606">
        <ele>732.9</ele>
        <time>2022-09-18T08:47:53.000Z</time>
      </trkpt>
      <trkpt lat="44.4154" lon="2.36619">
        <ele>733.5</ele>
        <time>2022-09-18T08:47:57.000Z</time>
      </trkpt>
      <trkpt lat="44.41545" lon="2.3663">
        <ele>734.4</ele>
        <time>2022-09-18T08:48:00.000Z</time>
      </trkpt>
      <trkpt lat="44.41551" lon="2.3664">
        <ele>735</ele>
        <time>2022-09-18T08:48:03.000Z</time>
      </trkpt>
      <trkpt lat="44.41557" lon="2.3665">
        <ele>735.6</ele>
        <time>2022-09-18T08:48:06.000Z</time>
      </trkpt>
      <trkpt lat="44.41563" lon="2.3666">
        <ele>736.5</ele>
        <time>2022-09-18T08:48:09.000Z</time>
      </trkpt>
      <trkpt lat="44.41568" lon="2.36671">
        <ele>736.5</ele>
        <time>2022-09-18T08:48:12.000Z</time>
      </trkpt>
      <trkpt lat="44.41573" lon="2.36682">
        <ele>736.4</ele>
        <time>2022-09-18T08:48:15.000Z</time>
      </trkpt>
      <trkpt lat="44.41579" lon="2.36694">
        <ele>736.6</ele>
        <time>2022-09-18T08:48:18.000Z</time>
      </trkpt>
      <trkpt lat="44.41586" lon="2.36707">
        <ele>736.3</ele>
        <time>2022-09-18T08:48:21.000Z</time>
      </trkpt>
      <trkpt lat="44.41593" lon="2.36722">
        <ele>736.1</ele>
        <time>2022-09-18T08:48:24.000Z</time>
      </trkpt>
      <trkpt lat="44.41602" lon="2.36737">
        <ele>735.4</ele>
        <time>2022-09-18T08:48:27.000Z</time>
      </trkpt>
      <trkpt lat="44.41608" lon="2.36748">
        <ele>735</ele>
        <time>2022-09-18T08:48:29.000Z</time>
      </trkpt>
      <trkpt lat="44.41615" lon="2.36761">
        <ele>733.6</ele>
        <time>2022-09-18T08:48:31.000Z</time>
      </trkpt>
      <trkpt lat="44.41623" lon="2.36775">
        <ele>732.9</ele>
        <time>2022-09-18T08:48:33.000Z</time>
      </trkpt>
      <trkpt lat="44.4163" lon="2.36789">
        <ele>732.8</ele>
        <time>2022-09-18T08:48:35.000Z</time>
      </trkpt>
      <trkpt lat="44.41638" lon="2.36803">
        <ele>732.7</ele>
        <time>2022-09-18T08:48:37.000Z</time>
      </trkpt>
      <trkpt lat="44.41646" lon="2.36816">
        <ele>732.6</ele>
        <time>2022-09-18T08:48:39.000Z</time>
      </trkpt>
      <trkpt lat="44.41654" lon="2.36826">
        <ele>732.3</ele>
        <time>2022-09-18T08:48:41.000Z</time>
      </trkpt>
      <trkpt lat="44.41663" lon="2.36836">
        <ele>731.9</ele>
        <time>2022-09-18T08:48:43.000Z</time>
      </trkpt>
      <trkpt lat="44.41674" lon="2.36844">
        <ele>731.6</ele>
        <time>2022-09-18T08:48:45.000Z</time>
      </trkpt>
      <trkpt lat="44.41685" lon="2.3685">
        <ele>730.9</ele>
        <time>2022-09-18T08:48:47.000Z</time>
      </trkpt>
      <trkpt lat="44.41697" lon="2.36856">
        <ele>730.3</ele>
        <time>2022-09-18T08:48:49.000Z</time>
      </trkpt>
      <trkpt lat="44.4171" lon="2.3686">
        <ele>729.9</ele>
        <time>2022-09-18T08:48:51.000Z</time>
      </trkpt>
      <trkpt lat="44.41724" lon="2.36864">
        <ele>728.8</ele>
        <time>2022-09-18T08:48:53.000Z</time>
      </trkpt>
      <trkpt lat="44.41739" lon="2.36866">
        <ele>728.1</ele>
        <time>2022-09-18T08:48:55.000Z</time>
      </trkpt>
      <trkpt lat="44.41755" lon="2.3687">
        <ele>727.2</ele>
        <time>2022-09-18T08:48:57.000Z</time>
      </trkpt>
      <trkpt lat="44.41769" lon="2.36875">
        <ele>726.5</ele>
        <time>2022-09-18T08:48:59.000Z</time>
      </trkpt>
      <trkpt lat="44.41783" lon="2.36881">
        <ele>726.3</ele>
        <time>2022-09-18T08:49:01.000Z</time>
      </trkpt>
      <trkpt lat="44.41795" lon="2.36887">
        <ele>726</ele>
        <time>2022-09-18T08:49:03.000Z</time>
      </trkpt>
      <trkpt lat="44.41807" lon="2.36892">
        <ele>725.8</ele>
        <time>2022-09-18T08:49:05.000Z</time>
      </trkpt>
      <trkpt lat="44.41817" lon="2.36897">
        <ele>725.7</ele>
        <time>2022-09-18T08:49:07.000Z</time>
      </trkpt>
      <trkpt lat="44.41827" lon="2.36901">
        <ele>725.4</ele>
        <time>2022-09-18T08:49:09.000Z</time>
      </trkpt>
      <trkpt lat="44.41837" lon="2.36904">
        <ele>725.6</ele>
        <time>2022-09-18T08:49:11.000Z</time>
      </trkpt>
      <trkpt lat="44.41845" lon="2.3691">
        <ele>725.4</ele>
        <time>2022-09-18T08:49:13.000Z</time>
      </trkpt>
      <trkpt lat="44.4185" lon="2.36926">
        <ele>725.8</ele>
        <time>2022-09-18T08:49:16.000Z</time>
      </trkpt>
      <trkpt lat="44.41847" lon="2.36942">
        <ele>727.2</ele>
        <time>2022-09-18T08:49:19.000Z</time>
      </trkpt>
      <trkpt lat="44.41844" lon="2.36957">
        <ele>727.7</ele>
        <time>2022-09-18T08:49:22.000Z</time>
      </trkpt>
      <trkpt lat="44.41841" lon="2.36973">
        <ele>728.4</ele>
        <time>2022-09-18T08:49:25.000Z</time>
      </trkpt>
      <trkpt lat="44.41838" lon="2.36988">
        <ele>728.5</ele>
        <time>2022-09-18T08:49:28.000Z</time>
      </trkpt>
      <trkpt lat="44.41835" lon="2.37001">
        <ele>728.5</ele>
        <time>2022-09-18T08:49:32.000Z</time>
      </trkpt>
      <trkpt lat="44.41838" lon="2.36987">
        <ele>728.1</ele>
        <time>2022-09-18T08:49:40.000Z</time>
      </trkpt>
      <trkpt lat="44.4184" lon="2.36975">
        <ele>727.7</ele>
        <time>2022-09-18T08:49:43.000Z</time>
      </trkpt>
      <trkpt lat="44.4185" lon="2.36979">
        <ele>727.6</ele>
        <time>2022-09-18T08:49:47.000Z</time>
      </trkpt>
      <trkpt lat="44.41858" lon="2.36988">
        <ele>728.4</ele>
        <time>2022-09-18T08:49:50.000Z</time>
      </trkpt>
      <trkpt lat="44.41866" lon="2.36997">
        <ele>729.3</ele>
        <time>2022-09-18T08:49:53.000Z</time>
      </trkpt>
      <trkpt lat="44.41873" lon="2.37007">
        <ele>730</ele>
        <time>2022-09-18T08:49:56.000Z</time>
      </trkpt>
      <trkpt lat="44.41881" lon="2.37018">
        <ele>730.2</ele>
        <time>2022-09-18T08:49:59.000Z</time>
      </trkpt>
      <trkpt lat="44.41888" lon="2.37029">
        <ele>730.3</ele>
        <time>2022-09-18T08:50:02.000Z</time>
      </trkpt>
      <trkpt lat="44.41896" lon="2.3704">
        <ele>730.5</ele>
        <time>2022-09-18T08:50:05.000Z</time>
      </trkpt>
      <trkpt lat="44.41903" lon="2.37051">
        <ele>731.2</ele>
        <time>2022-09-18T08:50:08.000Z</time>
      </trkpt>
      <trkpt lat="44.41911" lon="2.37062">
        <ele>731.4</ele>
        <time>2022-09-18T08:50:11.000Z</time>
      </trkpt>
      <trkpt lat="44.4192" lon="2.37074">
        <ele>731.5</ele>
        <time>2022-09-18T08:50:14.000Z</time>
      </trkpt>
      <trkpt lat="44.41928" lon="2.37086">
        <ele>731.2</ele>
        <time>2022-09-18T08:50:17.000Z</time>
      </trkpt>
      <trkpt lat="44.41933" lon="2.371">
        <ele>730.9</ele>
        <time>2022-09-18T08:50:20.000Z</time>
      </trkpt>
      <trkpt lat="44.4194" lon="2.37114">
        <ele>730.2</ele>
        <time>2022-09-18T08:50:23.000Z</time>
      </trkpt>
      <trkpt lat="44.41948" lon="2.3713">
        <ele>729.4</ele>
        <time>2022-09-18T08:50:26.000Z</time>
      </trkpt>
      <trkpt lat="44.41954" lon="2.37142">
        <ele>728.8</ele>
        <time>2022-09-18T08:50:28.000Z</time>
      </trkpt>
      <trkpt lat="44.41961" lon="2.37155">
        <ele>727.6</ele>
        <time>2022-09-18T08:50:30.000Z</time>
      </trkpt>
      <trkpt lat="44.41969" lon="2.37167">
        <ele>726.9</ele>
        <time>2022-09-18T08:50:32.000Z</time>
      </trkpt>
      <trkpt lat="44.41977" lon="2.37177">
        <ele>727.3</ele>
        <time>2022-09-18T08:50:34.000Z</time>
      </trkpt>
      <trkpt lat="44.41985" lon="2.37187">
        <ele>727</ele>
        <time>2022-09-18T08:50:36.000Z</time>
      </trkpt>
      <trkpt lat="44.41993" lon="2.37196">
        <ele>727.2</ele>
        <time>2022-09-18T08:50:38.000Z</time>
      </trkpt>
      <trkpt lat="44.42" lon="2.37205">
        <ele>726.9</ele>
        <time>2022-09-18T08:50:40.000Z</time>
      </trkpt>
      <trkpt lat="44.42007" lon="2.37214">
        <ele>725.7</ele>
        <time>2022-09-18T08:50:42.000Z</time>
      </trkpt>
      <trkpt lat="44.42014" lon="2.37224">
        <ele>725.6</ele>
        <time>2022-09-18T08:50:44.000Z</time>
      </trkpt>
      <trkpt lat="44.42019" lon="2.37236">
        <ele>725</ele>
        <time>2022-09-18T08:50:46.000Z</time>
      </trkpt>
      <trkpt lat="44.42022" lon="2.37249">
        <ele>724.5</ele>
        <time>2022-09-18T08:50:48.000Z</time>
      </trkpt>
      <trkpt lat="44.42024" lon="2.37263">
        <ele>723.9</ele>
        <time>2022-09-18T08:50:50.000Z</time>
      </trkpt>
      <trkpt lat="44.42024" lon="2.37278">
        <ele>724.2</ele>
        <time>2022-09-18T08:50:52.000Z</time>
      </trkpt>
      <trkpt lat="44.42023" lon="2.37291">
        <ele>724</ele>
        <time>2022-09-18T08:50:54.000Z</time>
      </trkpt>
      <trkpt lat="44.42023" lon="2.37305">
        <ele>723.9</ele>
        <time>2022-09-18T08:50:56.000Z</time>
      </trkpt>
      <trkpt lat="44.42023" lon="2.3732">
        <ele>722.1</ele>
        <time>2022-09-18T08:50:58.000Z</time>
      </trkpt>
      <trkpt lat="44.42027" lon="2.37338">
        <ele>721.1</ele>
        <time>2022-09-18T08:51:00.000Z</time>
      </trkpt>
      <trkpt lat="44.42033" lon="2.37356">
        <ele>720.5</ele>
        <time>2022-09-18T08:51:02.000Z</time>
      </trkpt>
      <trkpt lat="44.42041" lon="2.37372">
        <ele>720.5</ele>
        <time>2022-09-18T08:51:04.000Z</time>
      </trkpt>
      <trkpt lat="44.4205" lon="2.37385">
        <ele>720.1</ele>
        <time>2022-09-18T08:51:06.000Z</time>
      </trkpt>
      <trkpt lat="44.42059" lon="2.37395">
        <ele>719.3</ele>
        <time>2022-09-18T08:51:08.000Z</time>
      </trkpt>
      <trkpt lat="44.42067" lon="2.37404">
        <ele>719.3</ele>
        <time>2022-09-18T08:51:10.000Z</time>
      </trkpt>
      <trkpt lat="44.42075" lon="2.37412">
        <ele>719.3</ele>
        <time>2022-09-18T08:51:12.000Z</time>
      </trkpt>
      <trkpt lat="44.42083" lon="2.37422">
        <ele>719.6</ele>
        <time>2022-09-18T08:51:15.000Z</time>
      </trkpt>
      <trkpt lat="44.42093" lon="2.3743">
        <ele>719.4</ele>
        <time>2022-09-18T08:51:19.000Z</time>
      </trkpt>
      <trkpt lat="44.42104" lon="2.37436">
        <ele>718.7</ele>
        <time>2022-09-18T08:51:22.000Z</time>
      </trkpt>
      <trkpt lat="44.42114" lon="2.37441">
        <ele>719</ele>
        <time>2022-09-18T08:51:24.000Z</time>
      </trkpt>
      <trkpt lat="44.42123" lon="2.37449">
        <ele>718.5</ele>
        <time>2022-09-18T08:51:26.000Z</time>
      </trkpt>
      <trkpt lat="44.42133" lon="2.37458">
        <ele>718.3</ele>
        <time>2022-09-18T08:51:28.000Z</time>
      </trkpt>
      <trkpt lat="44.42143" lon="2.3747">
        <ele>718.3</ele>
        <time>2022-09-18T08:51:30.000Z</time>
      </trkpt>
      <trkpt lat="44.42151" lon="2.37485">
        <ele>717.3</ele>
        <time>2022-09-18T08:51:32.000Z</time>
      </trkpt>
      <trkpt lat="44.4216" lon="2.37504">
        <ele>714.9</ele>
        <time>2022-09-18T08:51:34.000Z</time>
      </trkpt>
      <trkpt lat="44.42169" lon="2.37526">
        <ele>713.4</ele>
        <time>2022-09-18T08:51:36.000Z</time>
      </trkpt>
      <trkpt lat="44.42174" lon="2.37538">
        <ele>711.9</ele>
        <time>2022-09-18T08:51:37.000Z</time>
      </trkpt>
      <trkpt lat="44.42179" lon="2.37551">
        <ele>710.3</ele>
        <time>2022-09-18T08:51:38.000Z</time>
      </trkpt>
      <trkpt lat="44.42183" lon="2.37564">
        <ele>709.2</ele>
        <time>2022-09-18T08:51:39.000Z</time>
      </trkpt>
      <trkpt lat="44.42188" lon="2.37576">
        <ele>708.6</ele>
        <time>2022-09-18T08:51:40.000Z</time>
      </trkpt>
      <trkpt lat="44.42192" lon="2.37589">
        <ele>707.8</ele>
        <time>2022-09-18T08:51:41.000Z</time>
      </trkpt>
      <trkpt lat="44.42197" lon="2.37602">
        <ele>707.5</ele>
        <time>2022-09-18T08:51:42.000Z</time>
      </trkpt>
      <trkpt lat="44.42201" lon="2.37614">
        <ele>706.9</ele>
        <time>2022-09-18T08:51:43.000Z</time>
      </trkpt>
      <trkpt lat="44.42206" lon="2.37626">
        <ele>706.6</ele>
        <time>2022-09-18T08:51:44.000Z</time>
      </trkpt>
      <trkpt lat="44.4221" lon="2.37637">
        <ele>705.6</ele>
        <time>2022-09-18T08:51:45.000Z</time>
      </trkpt>
      <trkpt lat="44.42217" lon="2.37657">
        <ele>704.4</ele>
        <time>2022-09-18T08:51:47.000Z</time>
      </trkpt>
      <trkpt lat="44.42223" lon="2.37675">
        <ele>703</ele>
        <time>2022-09-18T08:51:49.000Z</time>
      </trkpt>
      <trkpt lat="44.42228" lon="2.37691">
        <ele>702.8</ele>
        <time>2022-09-18T08:51:51.000Z</time>
      </trkpt>
      <trkpt lat="44.42233" lon="2.37706">
        <ele>702.3</ele>
        <time>2022-09-18T08:51:53.000Z</time>
      </trkpt>
      <trkpt lat="44.42238" lon="2.37721">
        <ele>701.8</ele>
        <time>2022-09-18T08:51:55.000Z</time>
      </trkpt>
      <trkpt lat="44.42243" lon="2.37735">
        <ele>701.3</ele>
        <time>2022-09-18T08:51:57.000Z</time>
      </trkpt>
      <trkpt lat="44.42248" lon="2.3775">
        <ele>700.9</ele>
        <time>2022-09-18T08:51:59.000Z</time>
      </trkpt>
      <trkpt lat="44.42253" lon="2.37764">
        <ele>701.2</ele>
        <time>2022-09-18T08:52:01.000Z</time>
      </trkpt>
      <trkpt lat="44.42258" lon="2.37779">
        <ele>700.4</ele>
        <time>2022-09-18T08:52:03.000Z</time>
      </trkpt>
      <trkpt lat="44.42263" lon="2.37794">
        <ele>700.3</ele>
        <time>2022-09-18T08:52:05.000Z</time>
      </trkpt>
      <trkpt lat="44.42268" lon="2.3781">
        <ele>700.3</ele>
        <time>2022-09-18T08:52:07.000Z</time>
      </trkpt>
      <trkpt lat="44.42273" lon="2.37825">
        <ele>700.2</ele>
        <time>2022-09-18T08:52:09.000Z</time>
      </trkpt>
      <trkpt lat="44.42278" lon="2.3784">
        <ele>699.2</ele>
        <time>2022-09-18T08:52:11.000Z</time>
      </trkpt>
      <trkpt lat="44.42284" lon="2.37855">
        <ele>699.8</ele>
        <time>2022-09-18T08:52:13.000Z</time>
      </trkpt>
      <trkpt lat="44.42289" lon="2.3787">
        <ele>699.9</ele>
        <time>2022-09-18T08:52:15.000Z</time>
      </trkpt>
      <trkpt lat="44.42294" lon="2.37885">
        <ele>699.8</ele>
        <time>2022-09-18T08:52:17.000Z</time>
      </trkpt>
      <trkpt lat="44.423" lon="2.379">
        <ele>699.4</ele>
        <time>2022-09-18T08:52:19.000Z</time>
      </trkpt>
      <trkpt lat="44.42305" lon="2.37916">
        <ele>699.1</ele>
        <time>2022-09-18T08:52:21.000Z</time>
      </trkpt>
      <trkpt lat="44.42311" lon="2.37931">
        <ele>698.9</ele>
        <time>2022-09-18T08:52:23.000Z</time>
      </trkpt>
      <trkpt lat="44.42315" lon="2.37946">
        <ele>698.9</ele>
        <time>2022-09-18T08:52:25.000Z</time>
      </trkpt>
      <trkpt lat="44.42319" lon="2.37961">
        <ele>698.7</ele>
        <time>2022-09-18T08:52:27.000Z</time>
      </trkpt>
      <trkpt lat="44.42324" lon="2.37975">
        <ele>699</ele>
        <time>2022-09-18T08:52:29.000Z</time>
      </trkpt>
      <trkpt lat="44.42328" lon="2.37988">
        <ele>699</ele>
        <time>2022-09-18T08:52:31.000Z</time>
      </trkpt>
      <trkpt lat="44.42332" lon="2.37999">
        <ele>699.5</ele>
        <time>2022-09-18T08:52:33.000Z</time>
      </trkpt>
      <trkpt lat="44.42338" lon="2.38015">
        <ele>699.5</ele>
        <time>2022-09-18T08:52:36.000Z</time>
      </trkpt>
      <trkpt lat="44.42343" lon="2.38026">
        <ele>698.4</ele>
        <time>2022-09-18T08:52:38.000Z</time>
      </trkpt>
      <trkpt lat="44.42348" lon="2.38041">
        <ele>697.6</ele>
        <time>2022-09-18T08:52:40.000Z</time>
      </trkpt>
      <trkpt lat="44.42353" lon="2.38059">
        <ele>696.1</ele>
        <time>2022-09-18T08:52:42.000Z</time>
      </trkpt>
      <trkpt lat="44.42357" lon="2.38077">
        <ele>693.3</ele>
        <time>2022-09-18T08:52:44.000Z</time>
      </trkpt>
      <trkpt lat="44.42362" lon="2.38097">
        <ele>692</ele>
        <time>2022-09-18T08:52:46.000Z</time>
      </trkpt>
      <trkpt lat="44.42369" lon="2.38117">
        <ele>689</ele>
        <time>2022-09-18T08:52:48.000Z</time>
      </trkpt>
      <trkpt lat="44.42376" lon="2.3814">
        <ele>687.8</ele>
        <time>2022-09-18T08:52:50.000Z</time>
      </trkpt>
      <trkpt lat="44.42383" lon="2.38161">
        <ele>686.5</ele>
        <time>2022-09-18T08:52:52.000Z</time>
      </trkpt>
      <trkpt lat="44.42389" lon="2.38183">
        <ele>684.3</ele>
        <time>2022-09-18T08:52:54.000Z</time>
      </trkpt>
      <trkpt lat="44.42396" lon="2.38203">
        <ele>682.3</ele>
        <time>2022-09-18T08:52:56.000Z</time>
      </trkpt>
      <trkpt lat="44.42402" lon="2.38221">
        <ele>680.2</ele>
        <time>2022-09-18T08:52:58.000Z</time>
      </trkpt>
      <trkpt lat="44.42409" lon="2.38238">
        <ele>678.9</ele>
        <time>2022-09-18T08:53:00.000Z</time>
      </trkpt>
      <trkpt lat="44.42414" lon="2.38253">
        <ele>677.6</ele>
        <time>2022-09-18T08:53:02.000Z</time>
      </trkpt>
      <trkpt lat="44.42418" lon="2.38269">
        <ele>676.6</ele>
        <time>2022-09-18T08:53:04.000Z</time>
      </trkpt>
      <trkpt lat="44.4242" lon="2.38286">
        <ele>676</ele>
        <time>2022-09-18T08:53:06.000Z</time>
      </trkpt>
      <trkpt lat="44.42423" lon="2.38306">
        <ele>674.5</ele>
        <time>2022-09-18T08:53:08.000Z</time>
      </trkpt>
      <trkpt lat="44.42426" lon="2.38324">
        <ele>673.3</ele>
        <time>2022-09-18T08:53:10.000Z</time>
      </trkpt>
      <trkpt lat="44.42427" lon="2.3834">
        <ele>671.8</ele>
        <time>2022-09-18T08:53:12.000Z</time>
      </trkpt>
      <trkpt lat="44.42426" lon="2.38356">
        <ele>670.1</ele>
        <time>2022-09-18T08:53:14.000Z</time>
      </trkpt>
      <trkpt lat="44.42421" lon="2.38369">
        <ele>669.4</ele>
        <time>2022-09-18T08:53:16.000Z</time>
      </trkpt>
      <trkpt lat="44.42413" lon="2.38379">
        <ele>668.4</ele>
        <time>2022-09-18T08:53:18.000Z</time>
      </trkpt>
      <trkpt lat="44.42403" lon="2.38385">
        <ele>667.7</ele>
        <time>2022-09-18T08:53:20.000Z</time>
      </trkpt>
      <trkpt lat="44.42391" lon="2.38388">
        <ele>666.3</ele>
        <time>2022-09-18T08:53:22.000Z</time>
      </trkpt>
      <trkpt lat="44.42379" lon="2.3839">
        <ele>666</ele>
        <time>2022-09-18T08:53:24.000Z</time>
      </trkpt>
      <trkpt lat="44.42369" lon="2.38395">
        <ele>664.8</ele>
        <time>2022-09-18T08:53:26.000Z</time>
      </trkpt>
      <trkpt lat="44.42372" lon="2.38408">
        <ele>663.5</ele>
        <time>2022-09-18T08:53:29.000Z</time>
      </trkpt>
      <trkpt lat="44.42383" lon="2.38417">
        <ele>661.8</ele>
        <time>2022-09-18T08:53:32.000Z</time>
      </trkpt>
      <trkpt lat="44.42393" lon="2.38424">
        <ele>661.5</ele>
        <time>2022-09-18T08:53:34.000Z</time>
      </trkpt>
      <trkpt lat="44.42405" lon="2.38431">
        <ele>661.5</ele>
        <time>2022-09-18T08:53:36.000Z</time>
      </trkpt>
      <trkpt lat="44.42418" lon="2.38437">
        <ele>659.7</ele>
        <time>2022-09-18T08:53:38.000Z</time>
      </trkpt>
      <trkpt lat="44.42431" lon="2.38441">
        <ele>659.4</ele>
        <time>2022-09-18T08:53:40.000Z</time>
      </trkpt>
      <trkpt lat="44.42445" lon="2.38441">
        <ele>658.6</ele>
        <time>2022-09-18T08:53:42.000Z</time>
      </trkpt>
      <trkpt lat="44.42458" lon="2.38436">
        <ele>657.4</ele>
        <time>2022-09-18T08:53:44.000Z</time>
      </trkpt>
      <trkpt lat="44.42468" lon="2.38426">
        <ele>656.7</ele>
        <time>2022-09-18T08:53:46.000Z</time>
      </trkpt>
      <trkpt lat="44.42477" lon="2.38414">
        <ele>654.7</ele>
        <time>2022-09-18T08:53:48.000Z</time>
      </trkpt>
      <trkpt lat="44.42484" lon="2.38402">
        <ele>653.8</ele>
        <time>2022-09-18T08:53:50.000Z</time>
      </trkpt>
      <trkpt lat="44.42491" lon="2.38392">
        <ele>652.4</ele>
        <time>2022-09-18T08:53:52.000Z</time>
      </trkpt>
      <trkpt lat="44.42503" lon="2.38393">
        <ele>650.6</ele>
        <time>2022-09-18T08:53:55.000Z</time>
      </trkpt>
      <trkpt lat="44.42505" lon="2.38408">
        <ele>649.8</ele>
        <time>2022-09-18T08:53:57.000Z</time>
      </trkpt>
      <trkpt lat="44.42505" lon="2.38425">
        <ele>648.8</ele>
        <time>2022-09-18T08:53:59.000Z</time>
      </trkpt>
      <trkpt lat="44.42507" lon="2.38446">
        <ele>647.7</ele>
        <time>2022-09-18T08:54:01.000Z</time>
      </trkpt>
      <trkpt lat="44.42512" lon="2.38467">
        <ele>646.5</ele>
        <time>2022-09-18T08:54:03.000Z</time>
      </trkpt>
      <trkpt lat="44.42515" lon="2.38489">
        <ele>644.1</ele>
        <time>2022-09-18T08:54:05.000Z</time>
      </trkpt>
      <trkpt lat="44.42514" lon="2.38512">
        <ele>642.1</ele>
        <time>2022-09-18T08:54:07.000Z</time>
      </trkpt>
      <trkpt lat="44.42511" lon="2.38536">
        <ele>642</ele>
        <time>2022-09-18T08:54:09.000Z</time>
      </trkpt>
      <trkpt lat="44.42508" lon="2.3856">
        <ele>640.9</ele>
        <time>2022-09-18T08:54:11.000Z</time>
      </trkpt>
      <trkpt lat="44.42504" lon="2.38585">
        <ele>639.4</ele>
        <time>2022-09-18T08:54:13.000Z</time>
      </trkpt>
      <trkpt lat="44.42502" lon="2.38598">
        <ele>639</ele>
        <time>2022-09-18T08:54:14.000Z</time>
      </trkpt>
      <trkpt lat="44.42499" lon="2.38621">
        <ele>637.1</ele>
        <time>2022-09-18T08:54:16.000Z</time>
      </trkpt>
      <trkpt lat="44.42496" lon="2.3864">
        <ele>633.4</ele>
        <time>2022-09-18T08:54:18.000Z</time>
      </trkpt>
      <trkpt lat="44.42488" lon="2.38649">
        <ele>632.8</ele>
        <time>2022-09-18T08:54:20.000Z</time>
      </trkpt>
      <trkpt lat="44.42475" lon="2.38642">
        <ele>631.9</ele>
        <time>2022-09-18T08:54:23.000Z</time>
      </trkpt>
      <trkpt lat="44.42468" lon="2.38629">
        <ele>630.8</ele>
        <time>2022-09-18T08:54:25.000Z</time>
      </trkpt>
      <trkpt lat="44.42459" lon="2.38618">
        <ele>628.6</ele>
        <time>2022-09-18T08:54:28.000Z</time>
      </trkpt>
      <trkpt lat="44.4245" lon="2.38611">
        <ele>627.3</ele>
        <time>2022-09-18T08:54:32.000Z</time>
      </trkpt>
      <trkpt lat="44.42439" lon="2.38605">
        <ele>626.1</ele>
        <time>2022-09-18T08:54:36.000Z</time>
      </trkpt>
      <trkpt lat="44.4243" lon="2.38594">
        <ele>626.9</ele>
        <time>2022-09-18T08:54:41.000Z</time>
      </trkpt>
      <trkpt lat="44.42425" lon="2.38582">
        <ele>629</ele>
        <time>2022-09-18T08:54:44.000Z</time>
      </trkpt>
      <trkpt lat="44.42421" lon="2.3857">
        <ele>632.1</ele>
        <time>2022-09-18T08:54:48.000Z</time>
      </trkpt>
      <trkpt lat="44.42414" lon="2.38561">
        <ele>633.9</ele>
        <time>2022-09-18T08:54:52.000Z</time>
      </trkpt>
      <trkpt lat="44.42406" lon="2.38552">
        <ele>635.3</ele>
        <time>2022-09-18T08:54:56.000Z</time>
      </trkpt>
      <trkpt lat="44.42398" lon="2.38543">
        <ele>635.6</ele>
        <time>2022-09-18T08:55:00.000Z</time>
      </trkpt>
      <trkpt lat="44.42391" lon="2.38534">
        <ele>636.1</ele>
        <time>2022-09-18T08:55:04.000Z</time>
      </trkpt>
      <trkpt lat="44.42384" lon="2.38523">
        <ele>636.8</ele>
        <time>2022-09-18T08:55:08.000Z</time>
      </trkpt>
      <trkpt lat="44.42376" lon="2.38513">
        <ele>636.7</ele>
        <time>2022-09-18T08:55:12.000Z</time>
      </trkpt>
      <trkpt lat="44.42369" lon="2.38504">
        <ele>636.4</ele>
        <time>2022-09-18T08:55:16.000Z</time>
      </trkpt>
      <trkpt lat="44.42363" lon="2.38495">
        <ele>637</ele>
        <time>2022-09-18T08:55:21.000Z</time>
      </trkpt>
      <trkpt lat="44.42355" lon="2.38484">
        <ele>638.5</ele>
        <time>2022-09-18T08:55:27.000Z</time>
      </trkpt>
      <trkpt lat="44.42348" lon="2.38473">
        <ele>640</ele>
        <time>2022-09-18T08:55:32.000Z</time>
      </trkpt>
      <trkpt lat="44.42341" lon="2.38465">
        <ele>641</ele>
        <time>2022-09-18T08:55:37.000Z</time>
      </trkpt>
      <trkpt lat="44.42334" lon="2.38455">
        <ele>642.4</ele>
        <time>2022-09-18T08:55:42.000Z</time>
      </trkpt>
      <trkpt lat="44.42328" lon="2.38443">
        <ele>644.3</ele>
        <time>2022-09-18T08:55:47.000Z</time>
      </trkpt>
      <trkpt lat="44.42321" lon="2.38432">
        <ele>646</ele>
        <time>2022-09-18T08:55:53.000Z</time>
      </trkpt>
      <trkpt lat="44.42311" lon="2.38429">
        <ele>647.7</ele>
        <time>2022-09-18T08:56:00.000Z</time>
      </trkpt>
      <trkpt lat="44.42301" lon="2.38429">
        <ele>648.5</ele>
        <time>2022-09-18T08:56:04.000Z</time>
      </trkpt>
      <trkpt lat="44.42291" lon="2.38433">
        <ele>650.7</ele>
        <time>2022-09-18T08:56:08.000Z</time>
      </trkpt>
      <trkpt lat="44.42285" lon="2.38444">
        <ele>652.3</ele>
        <time>2022-09-18T08:56:12.000Z</time>
      </trkpt>
      <trkpt lat="44.42279" lon="2.38456">
        <ele>654</ele>
        <time>2022-09-18T08:56:16.000Z</time>
      </trkpt>
      <trkpt lat="44.42271" lon="2.38465">
        <ele>654.8</ele>
        <time>2022-09-18T08:56:20.000Z</time>
      </trkpt>
      <trkpt lat="44.42261" lon="2.38467">
        <ele>654.2</ele>
        <time>2022-09-18T08:56:23.000Z</time>
      </trkpt>
      <trkpt lat="44.42251" lon="2.38466">
        <ele>653.3</ele>
        <time>2022-09-18T08:56:25.000Z</time>
      </trkpt>
      <trkpt lat="44.42239" lon="2.38463">
        <ele>650.9</ele>
        <time>2022-09-18T08:56:27.000Z</time>
      </trkpt>
      <trkpt lat="44.42228" lon="2.38457">
        <ele>647.7</ele>
        <time>2022-09-18T08:56:29.000Z</time>
      </trkpt>
      <trkpt lat="44.42217" lon="2.38449">
        <ele>644.7</ele>
        <time>2022-09-18T08:56:31.000Z</time>
      </trkpt>
      <trkpt lat="44.42205" lon="2.38439">
        <ele>642.3</ele>
        <time>2022-09-18T08:56:33.000Z</time>
      </trkpt>
      <trkpt lat="44.42195" lon="2.38425">
        <ele>641.5</ele>
        <time>2022-09-18T08:56:35.000Z</time>
      </trkpt>
      <trkpt lat="44.42184" lon="2.38413">
        <ele>641.5</ele>
        <time>2022-09-18T08:56:37.000Z</time>
      </trkpt>
      <trkpt lat="44.42176" lon="2.38399">
        <ele>639.9</ele>
        <time>2022-09-18T08:56:39.000Z</time>
      </trkpt>
      <trkpt lat="44.42172" lon="2.38386">
        <ele>639.7</ele>
        <time>2022-09-18T08:56:41.000Z</time>
      </trkpt>
      <trkpt lat="44.42167" lon="2.38373">
        <ele>641.2</ele>
        <time>2022-09-18T08:56:44.000Z</time>
      </trkpt>
      <trkpt lat="44.42161" lon="2.38359">
        <ele>642.2</ele>
        <time>2022-09-18T08:56:47.000Z</time>
      </trkpt>
      <trkpt lat="44.42155" lon="2.38346">
        <ele>642.8</ele>
        <time>2022-09-18T08:56:50.000Z</time>
      </trkpt>
      <trkpt lat="44.42148" lon="2.38331">
        <ele>642.9</ele>
        <time>2022-09-18T08:56:53.000Z</time>
      </trkpt>
      <trkpt lat="44.42141" lon="2.38316">
        <ele>642.8</ele>
        <time>2022-09-18T08:56:56.000Z</time>
      </trkpt>
      <trkpt lat="44.42135" lon="2.38303">
        <ele>642.4</ele>
        <time>2022-09-18T08:56:58.000Z</time>
      </trkpt>
      <trkpt lat="44.42131" lon="2.38289">
        <ele>641.4</ele>
        <time>2022-09-18T08:57:00.000Z</time>
      </trkpt>
      <trkpt lat="44.42128" lon="2.38277">
        <ele>641.2</ele>
        <time>2022-09-18T08:57:02.000Z</time>
      </trkpt>
      <trkpt lat="44.42124" lon="2.38259">
        <ele>641</ele>
        <time>2022-09-18T08:57:05.000Z</time>
      </trkpt>
      <trkpt lat="44.42122" lon="2.38246">
        <ele>641.4</ele>
        <time>2022-09-18T08:57:07.000Z</time>
      </trkpt>
      <trkpt lat="44.42125" lon="2.3823">
        <ele>641.2</ele>
        <time>2022-09-18T08:57:10.000Z</time>
      </trkpt>
      <trkpt lat="44.4213" lon="2.38216">
        <ele>641.4</ele>
        <time>2022-09-18T08:57:14.000Z</time>
      </trkpt>
      <trkpt lat="44.42133" lon="2.38202">
        <ele>641.9</ele>
        <time>2022-09-18T08:57:17.000Z</time>
      </trkpt>
      <trkpt lat="44.4213" lon="2.38187">
        <ele>641.5</ele>
        <time>2022-09-18T08:57:20.000Z</time>
      </trkpt>
      <trkpt lat="44.42123" lon="2.38178">
        <ele>640.8</ele>
        <time>2022-09-18T08:57:22.000Z</time>
      </trkpt>
      <trkpt lat="44.42116" lon="2.38166">
        <ele>640.5</ele>
        <time>2022-09-18T08:57:25.000Z</time>
      </trkpt>
      <trkpt lat="44.42106" lon="2.38152">
        <ele>638.3</ele>
        <time>2022-09-18T08:57:28.000Z</time>
      </trkpt>
      <trkpt lat="44.42096" lon="2.38141">
        <ele>637.1</ele>
        <time>2022-09-18T08:57:30.000Z</time>
      </trkpt>
      <trkpt lat="44.42086" lon="2.38128">
        <ele>636.5</ele>
        <time>2022-09-18T08:57:32.000Z</time>
      </trkpt>
      <trkpt lat="44.42078" lon="2.38114">
        <ele>635.7</ele>
        <time>2022-09-18T08:57:34.000Z</time>
      </trkpt>
      <trkpt lat="44.42074" lon="2.38101">
        <ele>635.5</ele>
        <time>2022-09-18T08:57:36.000Z</time>
      </trkpt>
      <trkpt lat="44.42073" lon="2.38084">
        <ele>636.8</ele>
        <time>2022-09-18T08:57:39.000Z</time>
      </trkpt>
      <trkpt lat="44.42072" lon="2.3807">
        <ele>638.3</ele>
        <time>2022-09-18T08:57:42.000Z</time>
      </trkpt>
      <trkpt lat="44.42071" lon="2.38056">
        <ele>639</ele>
        <time>2022-09-18T08:57:46.000Z</time>
      </trkpt>
      <trkpt lat="44.42069" lon="2.3804">
        <ele>640.5</ele>
        <time>2022-09-18T08:57:50.000Z</time>
      </trkpt>
      <trkpt lat="44.42067" lon="2.38026">
        <ele>641.8</ele>
        <time>2022-09-18T08:57:54.000Z</time>
      </trkpt>
      <trkpt lat="44.42066" lon="2.38012">
        <ele>642.7</ele>
        <time>2022-09-18T08:57:57.000Z</time>
      </trkpt>
      <trkpt lat="44.42064" lon="2.37997">
        <ele>643.2</ele>
        <time>2022-09-18T08:58:00.000Z</time>
      </trkpt>
      <trkpt lat="44.42064" lon="2.37979">
        <ele>643.9</ele>
        <time>2022-09-18T08:58:03.000Z</time>
      </trkpt>
      <trkpt lat="44.42062" lon="2.37963">
        <ele>644.2</ele>
        <time>2022-09-18T08:58:06.000Z</time>
      </trkpt>
      <trkpt lat="44.42056" lon="2.37949">
        <ele>644.5</ele>
        <time>2022-09-18T08:58:09.000Z</time>
      </trkpt>
      <trkpt lat="44.42049" lon="2.37938">
        <ele>645.3</ele>
        <time>2022-09-18T08:58:12.000Z</time>
      </trkpt>
      <trkpt lat="44.4204" lon="2.37929">
        <ele>646.8</ele>
        <time>2022-09-18T08:58:15.000Z</time>
      </trkpt>
      <trkpt lat="44.42032" lon="2.37921">
        <ele>648.1</ele>
        <time>2022-09-18T08:58:18.000Z</time>
      </trkpt>
      <trkpt lat="44.42024" lon="2.37913">
        <ele>649.5</ele>
        <time>2022-09-18T08:58:21.000Z</time>
      </trkpt>
      <trkpt lat="44.42017" lon="2.37901">
        <ele>650.8</ele>
        <time>2022-09-18T08:58:25.000Z</time>
      </trkpt>
      <trkpt lat="44.42017" lon="2.37886">
        <ele>652.5</ele>
        <time>2022-09-18T08:58:30.000Z</time>
      </trkpt>
      <trkpt lat="44.4202" lon="2.37873">
        <ele>653.4</ele>
        <time>2022-09-18T08:58:35.000Z</time>
      </trkpt>
      <trkpt lat="44.42024" lon="2.37858">
        <ele>655.1</ele>
        <time>2022-09-18T08:58:39.000Z</time>
      </trkpt>
      <trkpt lat="44.42026" lon="2.37842">
        <ele>655.6</ele>
        <time>2022-09-18T08:58:43.000Z</time>
      </trkpt>
      <trkpt lat="44.42027" lon="2.37828">
        <ele>656.3</ele>
        <time>2022-09-18T08:58:48.000Z</time>
      </trkpt>
      <trkpt lat="44.42024" lon="2.37816">
        <ele>655.9</ele>
        <time>2022-09-18T08:58:56.000Z</time>
      </trkpt>
      <trkpt lat="44.42014" lon="2.37817">
        <ele>652.8</ele>
        <time>2022-09-18T08:59:13.000Z</time>
      </trkpt>
      <trkpt lat="44.42007" lon="2.37827">
        <ele>650.8</ele>
        <time>2022-09-18T08:59:21.000Z</time>
      </trkpt>
      <trkpt lat="44.41997" lon="2.37827">
        <ele>647.4</ele>
        <time>2022-09-18T08:59:32.000Z</time>
      </trkpt>
      <trkpt lat="44.41988" lon="2.37824">
        <ele>644.9</ele>
        <time>2022-09-18T08:59:38.000Z</time>
      </trkpt>
      <trkpt lat="44.41983" lon="2.37834">
        <ele>643.4</ele>
        <time>2022-09-18T08:59:45.000Z</time>
      </trkpt>
      <trkpt lat="44.41972" lon="2.37836">
        <ele>639.2</ele>
        <time>2022-09-18T08:59:54.000Z</time>
      </trkpt>
      <trkpt lat="44.41963" lon="2.37839">
        <ele>636.6</ele>
        <time>2022-09-18T09:00:02.000Z</time>
      </trkpt>
      <trkpt lat="44.41953" lon="2.37839">
        <ele>634.2</ele>
        <time>2022-09-18T09:00:09.000Z</time>
      </trkpt>
      <trkpt lat="44.41943" lon="2.37841">
        <ele>634.7</ele>
        <time>2022-09-18T09:00:15.000Z</time>
      </trkpt>
      <trkpt lat="44.41933" lon="2.37847">
        <ele>634.6</ele>
        <time>2022-09-18T09:00:20.000Z</time>
      </trkpt>
      <trkpt lat="44.41926" lon="2.37855">
        <ele>634.6</ele>
        <time>2022-09-18T09:00:24.000Z</time>
      </trkpt>
      <trkpt lat="44.4192" lon="2.37867">
        <ele>635</ele>
        <time>2022-09-18T09:00:28.000Z</time>
      </trkpt>
      <trkpt lat="44.4191" lon="2.37876">
        <ele>635.6</ele>
        <time>2022-09-18T09:00:31.000Z</time>
      </trkpt>
      <trkpt lat="44.41901" lon="2.37886">
        <ele>635.5</ele>
        <time>2022-09-18T09:00:34.000Z</time>
      </trkpt>
      <trkpt lat="44.41895" lon="2.37901">
        <ele>634.7</ele>
        <time>2022-09-18T09:00:37.000Z</time>
      </trkpt>
      <trkpt lat="44.41889" lon="2.37915">
        <ele>634.1</ele>
        <time>2022-09-18T09:00:39.000Z</time>
      </trkpt>
      <trkpt lat="44.41882" lon="2.37935">
        <ele>632</ele>
        <time>2022-09-18T09:00:41.000Z</time>
      </trkpt>
      <trkpt lat="44.41873" lon="2.37953">
        <ele>629.9</ele>
        <time>2022-09-18T09:00:43.000Z</time>
      </trkpt>
      <trkpt lat="44.41861" lon="2.37953">
        <ele>628.3</ele>
        <time>2022-09-18T09:00:46.000Z</time>
      </trkpt>
      <trkpt lat="44.41853" lon="2.37942">
        <ele>627.2</ele>
        <time>2022-09-18T09:00:48.000Z</time>
      </trkpt>
      <trkpt lat="44.41845" lon="2.37931">
        <ele>627.3</ele>
        <time>2022-09-18T09:00:50.000Z</time>
      </trkpt>
      <trkpt lat="44.41833" lon="2.37924">
        <ele>627.5</ele>
        <time>2022-09-18T09:00:52.000Z</time>
      </trkpt>
      <trkpt lat="44.41823" lon="2.37916">
        <ele>627.8</ele>
        <time>2022-09-18T09:00:54.000Z</time>
      </trkpt>
      <trkpt lat="44.41814" lon="2.37904">
        <ele>627.3</ele>
        <time>2022-09-18T09:00:56.000Z</time>
      </trkpt>
      <trkpt lat="44.41807" lon="2.37892">
        <ele>627.6</ele>
        <time>2022-09-18T09:00:58.000Z</time>
      </trkpt>
      <trkpt lat="44.418" lon="2.37883">
        <ele>627.2</ele>
        <time>2022-09-18T09:01:00.000Z</time>
      </trkpt>
      <trkpt lat="44.41791" lon="2.37869">
        <ele>626.6</ele>
        <time>2022-09-18T09:01:03.000Z</time>
      </trkpt>
      <trkpt lat="44.41785" lon="2.37859">
        <ele>626.5</ele>
        <time>2022-09-18T09:01:06.000Z</time>
      </trkpt>
      <trkpt lat="44.41781" lon="2.37872">
        <ele>621.9</ele>
        <time>2022-09-18T09:01:14.000Z</time>
      </trkpt>
      <trkpt lat="44.41775" lon="2.37881">
        <ele>620.3</ele>
        <time>2022-09-18T09:01:18.000Z</time>
      </trkpt>
      <trkpt lat="44.41765" lon="2.37884">
        <ele>619</ele>
        <time>2022-09-18T09:01:22.000Z</time>
      </trkpt>
      <trkpt lat="44.41767" lon="2.37899">
        <ele>616.4</ele>
        <time>2022-09-18T09:01:29.000Z</time>
      </trkpt>
      <trkpt lat="44.41773" lon="2.3791">
        <ele>615.2</ele>
        <time>2022-09-18T09:01:31.000Z</time>
      </trkpt>
      <trkpt lat="44.41779" lon="2.37922">
        <ele>612.6</ele>
        <time>2022-09-18T09:01:33.000Z</time>
      </trkpt>
      <trkpt lat="44.41786" lon="2.37933">
        <ele>612.1</ele>
        <time>2022-09-18T09:01:35.000Z</time>
      </trkpt>
      <trkpt lat="44.41794" lon="2.37942">
        <ele>610</ele>
        <time>2022-09-18T09:01:38.000Z</time>
      </trkpt>
      <trkpt lat="44.418" lon="2.37957">
        <ele>607.4</ele>
        <time>2022-09-18T09:01:41.000Z</time>
      </trkpt>
      <trkpt lat="44.41801" lon="2.3797">
        <ele>605.9</ele>
        <time>2022-09-18T09:01:43.000Z</time>
      </trkpt>
      <trkpt lat="44.41803" lon="2.37983">
        <ele>604.7</ele>
        <time>2022-09-18T09:01:45.000Z</time>
      </trkpt>
      <trkpt lat="44.41807" lon="2.37995">
        <ele>602.1</ele>
        <time>2022-09-18T09:01:52.000Z</time>
      </trkpt>
      <trkpt lat="44.41814" lon="2.38004">
        <ele>602.2</ele>
        <time>2022-09-18T09:01:57.000Z</time>
      </trkpt>
      <trkpt lat="44.4182" lon="2.38015">
        <ele>601.9</ele>
        <time>2022-09-18T09:02:00.000Z</time>
      </trkpt>
      <trkpt lat="44.41828" lon="2.38027">
        <ele>602.3</ele>
        <time>2022-09-18T09:02:03.000Z</time>
      </trkpt>
      <trkpt lat="44.41837" lon="2.38037">
        <ele>600.7</ele>
        <time>2022-09-18T09:02:05.000Z</time>
      </trkpt>
      <trkpt lat="44.41846" lon="2.38048">
        <ele>599.1</ele>
        <time>2022-09-18T09:02:07.000Z</time>
      </trkpt>
      <trkpt lat="44.41856" lon="2.38053">
        <ele>596.4</ele>
        <time>2022-09-18T09:02:09.000Z</time>
      </trkpt>
      <trkpt lat="44.41868" lon="2.38058">
        <ele>594.2</ele>
        <time>2022-09-18T09:02:11.000Z</time>
      </trkpt>
      <trkpt lat="44.41878" lon="2.38068">
        <ele>591.8</ele>
        <time>2022-09-18T09:02:13.000Z</time>
      </trkpt>
      <trkpt lat="44.41871" lon="2.38076">
        <ele>588.1</ele>
        <time>2022-09-18T09:02:19.000Z</time>
      </trkpt>
      <trkpt lat="44.4186" lon="2.38074">
        <ele>586.4</ele>
        <time>2022-09-18T09:02:22.000Z</time>
      </trkpt>
      <trkpt lat="44.41851" lon="2.38079">
        <ele>584</ele>
        <time>2022-09-18T09:02:27.000Z</time>
      </trkpt>
      <trkpt lat="44.41857" lon="2.38097">
        <ele>581.1</ele>
        <time>2022-09-18T09:02:30.000Z</time>
      </trkpt>
      <trkpt lat="44.41863" lon="2.38106">
        <ele>579.4</ele>
        <time>2022-09-18T09:02:32.000Z</time>
      </trkpt>
      <trkpt lat="44.4187" lon="2.38115">
        <ele>577.7</ele>
        <time>2022-09-18T09:02:34.000Z</time>
      </trkpt>
      <trkpt lat="44.41879" lon="2.38132">
        <ele>577.8</ele>
        <time>2022-09-18T09:02:36.000Z</time>
      </trkpt>
      <trkpt lat="44.41885" lon="2.38143">
        <ele>575.2</ele>
        <time>2022-09-18T09:02:38.000Z</time>
      </trkpt>
      <trkpt lat="44.41888" lon="2.3816">
        <ele>573.9</ele>
        <time>2022-09-18T09:02:41.000Z</time>
      </trkpt>
      <trkpt lat="44.41885" lon="2.38176">
        <ele>574</ele>
        <time>2022-09-18T09:02:44.000Z</time>
      </trkpt>
      <trkpt lat="44.41884" lon="2.38192">
        <ele>573.5</ele>
        <time>2022-09-18T09:02:46.000Z</time>
      </trkpt>
      <trkpt lat="44.41882" lon="2.38208">
        <ele>572.5</ele>
        <time>2022-09-18T09:02:48.000Z</time>
      </trkpt>
      <trkpt lat="44.41881" lon="2.38226">
        <ele>572.2</ele>
        <time>2022-09-18T09:02:50.000Z</time>
      </trkpt>
      <trkpt lat="44.41882" lon="2.38244">
        <ele>571.4</ele>
        <time>2022-09-18T09:02:52.000Z</time>
      </trkpt>
      <trkpt lat="44.41881" lon="2.38261">
        <ele>571.2</ele>
        <time>2022-09-18T09:02:54.000Z</time>
      </trkpt>
      <trkpt lat="44.41878" lon="2.38277">
        <ele>570</ele>
        <time>2022-09-18T09:02:56.000Z</time>
      </trkpt>
      <trkpt lat="44.41879" lon="2.38291">
        <ele>567.7</ele>
        <time>2022-09-18T09:02:58.000Z</time>
      </trkpt>
      <trkpt lat="44.41884" lon="2.38305">
        <ele>565.6</ele>
        <time>2022-09-18T09:03:00.000Z</time>
      </trkpt>
      <trkpt lat="44.4189" lon="2.38315">
        <ele>565.5</ele>
        <time>2022-09-18T09:03:02.000Z</time>
      </trkpt>
      <trkpt lat="44.41885" lon="2.38328">
        <ele>565</ele>
        <time>2022-09-18T09:03:06.000Z</time>
      </trkpt>
      <trkpt lat="44.41877" lon="2.38334">
        <ele>565.4</ele>
        <time>2022-09-18T09:03:09.000Z</time>
      </trkpt>
      <trkpt lat="44.41873" lon="2.38347">
        <ele>566.1</ele>
        <time>2022-09-18T09:03:13.000Z</time>
      </trkpt>
      <trkpt lat="44.41869" lon="2.3836">
        <ele>566.8</ele>
        <time>2022-09-18T09:03:19.000Z</time>
      </trkpt>
      <trkpt lat="44.41864" lon="2.38371">
        <ele>568</ele>
        <time>2022-09-18T09:03:23.000Z</time>
      </trkpt>
      <trkpt lat="44.4186" lon="2.38388">
        <ele>568.5</ele>
        <time>2022-09-18T09:03:26.000Z</time>
      </trkpt>
      <trkpt lat="44.4186" lon="2.38401">
        <ele>568.9</ele>
        <time>2022-09-18T09:03:28.000Z</time>
      </trkpt>
      <trkpt lat="44.4186" lon="2.38415">
        <ele>569.4</ele>
        <time>2022-09-18T09:03:30.000Z</time>
      </trkpt>
      <trkpt lat="44.4186" lon="2.38429">
        <ele>569.9</ele>
        <time>2022-09-18T09:03:32.000Z</time>
      </trkpt>
      <trkpt lat="44.41862" lon="2.38445">
        <ele>570.2</ele>
        <time>2022-09-18T09:03:35.000Z</time>
      </trkpt>
      <trkpt lat="44.41862" lon="2.38462">
        <ele>571.1</ele>
        <time>2022-09-18T09:03:38.000Z</time>
      </trkpt>
      <trkpt lat="44.41863" lon="2.38479">
        <ele>571.3</ele>
        <time>2022-09-18T09:03:41.000Z</time>
      </trkpt>
      <trkpt lat="44.41864" lon="2.38496">
        <ele>571.4</ele>
        <time>2022-09-18T09:03:44.000Z</time>
      </trkpt>
      <trkpt lat="44.41865" lon="2.38514">
        <ele>572.3</ele>
        <time>2022-09-18T09:03:47.000Z</time>
      </trkpt>
      <trkpt lat="44.41866" lon="2.38532">
        <ele>572.7</ele>
        <time>2022-09-18T09:03:50.000Z</time>
      </trkpt>
      <trkpt lat="44.41866" lon="2.3855">
        <ele>573.4</ele>
        <time>2022-09-18T09:03:53.000Z</time>
      </trkpt>
      <trkpt lat="44.41866" lon="2.38568">
        <ele>573.3</ele>
        <time>2022-09-18T09:03:56.000Z</time>
      </trkpt>
      <trkpt lat="44.41865" lon="2.38586">
        <ele>573.7</ele>
        <time>2022-09-18T09:03:59.000Z</time>
      </trkpt>
      <trkpt lat="44.41862" lon="2.38604">
        <ele>574.5</ele>
        <time>2022-09-18T09:04:02.000Z</time>
      </trkpt>
      <trkpt lat="44.4186" lon="2.38616">
        <ele>575.1</ele>
        <time>2022-09-18T09:04:04.000Z</time>
      </trkpt>
      <trkpt lat="44.41857" lon="2.38629">
        <ele>575.3</ele>
        <time>2022-09-18T09:04:06.000Z</time>
      </trkpt>
      <trkpt lat="44.41854" lon="2.38642">
        <ele>575.4</ele>
        <time>2022-09-18T09:04:08.000Z</time>
      </trkpt>
      <trkpt lat="44.41852" lon="2.38655">
        <ele>575.6</ele>
        <time>2022-09-18T09:04:10.000Z</time>
      </trkpt>
      <trkpt lat="44.4185" lon="2.38668">
        <ele>576.2</ele>
        <time>2022-09-18T09:04:12.000Z</time>
      </trkpt>
      <trkpt lat="44.41848" lon="2.38682">
        <ele>576.6</ele>
        <time>2022-09-18T09:04:14.000Z</time>
      </trkpt>
      <trkpt lat="44.41847" lon="2.38695">
        <ele>576.7</ele>
        <time>2022-09-18T09:04:16.000Z</time>
      </trkpt>
      <trkpt lat="44.41846" lon="2.38708">
        <ele>576.9</ele>
        <time>2022-09-18T09:04:18.000Z</time>
      </trkpt>
      <trkpt lat="44.41846" lon="2.38722">
        <ele>577</ele>
        <time>2022-09-18T09:04:20.000Z</time>
      </trkpt>
      <trkpt lat="44.41846" lon="2.38735">
        <ele>577.1</ele>
        <time>2022-09-18T09:04:22.000Z</time>
      </trkpt>
      <trkpt lat="44.41847" lon="2.38749">
        <ele>577.2</ele>
        <time>2022-09-18T09:04:24.000Z</time>
      </trkpt>
      <trkpt lat="44.41849" lon="2.38762">
        <ele>577.3</ele>
        <time>2022-09-18T09:04:26.000Z</time>
      </trkpt>
      <trkpt lat="44.41849" lon="2.38776">
        <ele>577.4</ele>
        <time>2022-09-18T09:04:28.000Z</time>
      </trkpt>
      <trkpt lat="44.41847" lon="2.3879">
        <ele>577.9</ele>
        <time>2022-09-18T09:04:30.000Z</time>
      </trkpt>
      <trkpt lat="44.41845" lon="2.38804">
        <ele>578.2</ele>
        <time>2022-09-18T09:04:32.000Z</time>
      </trkpt>
      <trkpt lat="44.41843" lon="2.38817">
        <ele>578.3</ele>
        <time>2022-09-18T09:04:34.000Z</time>
      </trkpt>
      <trkpt lat="44.4184" lon="2.38831">
        <ele>578.5</ele>
        <time>2022-09-18T09:04:36.000Z</time>
      </trkpt>
      <trkpt lat="44.41837" lon="2.38844">
        <ele>578.9</ele>
        <time>2022-09-18T09:04:38.000Z</time>
      </trkpt>
      <trkpt lat="44.41834" lon="2.38858">
        <ele>579.1</ele>
        <time>2022-09-18T09:04:40.000Z</time>
      </trkpt>
      <trkpt lat="44.41829" lon="2.38871">
        <ele>579.8</ele>
        <time>2022-09-18T09:04:42.000Z</time>
      </trkpt>
      <trkpt lat="44.41825" lon="2.38883">
        <ele>580.1</ele>
        <time>2022-09-18T09:04:44.000Z</time>
      </trkpt>
      <trkpt lat="44.4182" lon="2.38895">
        <ele>580.4</ele>
        <time>2022-09-18T09:04:46.000Z</time>
      </trkpt>
      <trkpt lat="44.41814" lon="2.38906">
        <ele>580.8</ele>
        <time>2022-09-18T09:04:48.000Z</time>
      </trkpt>
      <trkpt lat="44.41806" lon="2.38915">
        <ele>581.2</ele>
        <time>2022-09-18T09:04:50.000Z</time>
      </trkpt>
      <trkpt lat="44.41798" lon="2.38925">
        <ele>581.2</ele>
        <time>2022-09-18T09:04:52.000Z</time>
      </trkpt>
      <trkpt lat="44.41791" lon="2.38934">
        <ele>581.8</ele>
        <time>2022-09-18T09:04:54.000Z</time>
      </trkpt>
      <trkpt lat="44.41783" lon="2.38944">
        <ele>582</ele>
        <time>2022-09-18T09:04:56.000Z</time>
      </trkpt>
      <trkpt lat="44.41775" lon="2.38952">
        <ele>582.4</ele>
        <time>2022-09-18T09:04:58.000Z</time>
      </trkpt>
      <trkpt lat="44.41766" lon="2.38959">
        <ele>583</ele>
        <time>2022-09-18T09:05:00.000Z</time>
      </trkpt>
      <trkpt lat="44.41757" lon="2.38965">
        <ele>583.4</ele>
        <time>2022-09-18T09:05:02.000Z</time>
      </trkpt>
      <trkpt lat="44.41747" lon="2.3897">
        <ele>583.2</ele>
        <time>2022-09-18T09:05:04.000Z</time>
      </trkpt>
      <trkpt lat="44.41737" lon="2.38972">
        <ele>583.3</ele>
        <time>2022-09-18T09:05:06.000Z</time>
      </trkpt>
      <trkpt lat="44.41727" lon="2.38971">
        <ele>583.9</ele>
        <time>2022-09-18T09:05:08.000Z</time>
      </trkpt>
      <trkpt lat="44.41717" lon="2.38967">
        <ele>584.4</ele>
        <time>2022-09-18T09:05:10.000Z</time>
      </trkpt>
      <trkpt lat="44.41708" lon="2.38962">
        <ele>584.9</ele>
        <time>2022-09-18T09:05:12.000Z</time>
      </trkpt>
      <trkpt lat="44.41698" lon="2.3896">
        <ele>585.3</ele>
        <time>2022-09-18T09:05:14.000Z</time>
      </trkpt>
      <trkpt lat="44.41688" lon="2.3896">
        <ele>585.7</ele>
        <time>2022-09-18T09:05:16.000Z</time>
      </trkpt>
      <trkpt lat="44.41678" lon="2.38964">
        <ele>585.9</ele>
        <time>2022-09-18T09:05:18.000Z</time>
      </trkpt>
      <trkpt lat="44.41668" lon="2.38968">
        <ele>585.6</ele>
        <time>2022-09-18T09:05:20.000Z</time>
      </trkpt>
      <trkpt lat="44.41658" lon="2.38973">
        <ele>585.8</ele>
        <time>2022-09-18T09:05:22.000Z</time>
      </trkpt>
      <trkpt lat="44.41648" lon="2.38975">
        <ele>585.7</ele>
        <time>2022-09-18T09:05:24.000Z</time>
      </trkpt>
      <trkpt lat="44.41637" lon="2.38975">
        <ele>586.3</ele>
        <time>2022-09-18T09:05:26.000Z</time>
      </trkpt>
      <trkpt lat="44.41627" lon="2.38974">
        <ele>587</ele>
        <time>2022-09-18T09:05:28.000Z</time>
      </trkpt>
      <trkpt lat="44.41617" lon="2.38973">
        <ele>587.1</ele>
        <time>2022-09-18T09:05:30.000Z</time>
      </trkpt>
      <trkpt lat="44.41607" lon="2.38972">
        <ele>587.3</ele>
        <time>2022-09-18T09:05:32.000Z</time>
      </trkpt>
      <trkpt lat="44.41596" lon="2.38972">
        <ele>587.6</ele>
        <time>2022-09-18T09:05:34.000Z</time>
      </trkpt>
      <trkpt lat="44.41585" lon="2.38973">
        <ele>587.7</ele>
        <time>2022-09-18T09:05:36.000Z</time>
      </trkpt>
      <trkpt lat="44.41575" lon="2.38969">
        <ele>587.8</ele>
        <time>2022-09-18T09:05:38.000Z</time>
      </trkpt>
      <trkpt lat="44.41567" lon="2.38958">
        <ele>587.7</ele>
        <time>2022-09-18T09:05:40.000Z</time>
      </trkpt>
      <trkpt lat="44.41564" lon="2.38942">
        <ele>587.2</ele>
        <time>2022-09-18T09:05:42.000Z</time>
      </trkpt>
      <trkpt lat="44.41565" lon="2.38925">
        <ele>587.1</ele>
        <time>2022-09-18T09:05:44.000Z</time>
      </trkpt>
      <trkpt lat="44.41566" lon="2.3891">
        <ele>586.8</ele>
        <time>2022-09-18T09:05:46.000Z</time>
      </trkpt>
      <trkpt lat="44.41568" lon="2.38894">
        <ele>587.3</ele>
        <time>2022-09-18T09:05:48.000Z</time>
      </trkpt>
      <trkpt lat="44.4157" lon="2.38881">
        <ele>588.1</ele>
        <time>2022-09-18T09:05:50.000Z</time>
      </trkpt>
      <trkpt lat="44.41573" lon="2.38869">
        <ele>589</ele>
        <time>2022-09-18T09:05:52.000Z</time>
      </trkpt>
      <trkpt lat="44.41576" lon="2.38851">
        <ele>589.7</ele>
        <time>2022-09-18T09:05:55.000Z</time>
      </trkpt>
      <trkpt lat="44.41575" lon="2.38834">
        <ele>591.3</ele>
        <time>2022-09-18T09:05:58.000Z</time>
      </trkpt>
      <trkpt lat="44.41572" lon="2.38822">
        <ele>591.9</ele>
        <time>2022-09-18T09:06:00.000Z</time>
      </trkpt>
      <trkpt lat="44.41568" lon="2.3881">
        <ele>592.5</ele>
        <time>2022-09-18T09:06:02.000Z</time>
      </trkpt>
      <trkpt lat="44.41564" lon="2.38797">
        <ele>592.8</ele>
        <time>2022-09-18T09:06:04.000Z</time>
      </trkpt>
      <trkpt lat="44.4156" lon="2.38785">
        <ele>592.8</ele>
        <time>2022-09-18T09:06:06.000Z</time>
      </trkpt>
      <trkpt lat="44.41554" lon="2.38773">
        <ele>592.7</ele>
        <time>2022-09-18T09:06:08.000Z</time>
      </trkpt>
      <trkpt lat="44.41546" lon="2.38765">
        <ele>592.7</ele>
        <time>2022-09-18T09:06:10.000Z</time>
      </trkpt>
      <trkpt lat="44.41536" lon="2.38761">
        <ele>592.7</ele>
        <time>2022-09-18T09:06:12.000Z</time>
      </trkpt>
      <trkpt lat="44.41527" lon="2.38764">
        <ele>593.1</ele>
        <time>2022-09-18T09:06:14.000Z</time>
      </trkpt>
      <trkpt lat="44.41518" lon="2.38772">
        <ele>592.4</ele>
        <time>2022-09-18T09:06:16.000Z</time>
      </trkpt>
      <trkpt lat="44.4151" lon="2.38781">
        <ele>591.8</ele>
        <time>2022-09-18T09:06:18.000Z</time>
      </trkpt>
      <trkpt lat="44.41499" lon="2.3879">
        <ele>591.3</ele>
        <time>2022-09-18T09:06:20.000Z</time>
      </trkpt>
      <trkpt lat="44.41487" lon="2.38795">
        <ele>590.2</ele>
        <time>2022-09-18T09:06:22.000Z</time>
      </trkpt>
      <trkpt lat="44.41474" lon="2.38801">
        <ele>589.3</ele>
        <time>2022-09-18T09:06:24.000Z</time>
      </trkpt>
      <trkpt lat="44.41464" lon="2.38813">
        <ele>589.5</ele>
        <time>2022-09-18T09:06:26.000Z</time>
      </trkpt>
      <trkpt lat="44.41459" lon="2.38829">
        <ele>589.5</ele>
        <time>2022-09-18T09:06:28.000Z</time>
      </trkpt>
      <trkpt lat="44.41452" lon="2.38843">
        <ele>589.7</ele>
        <time>2022-09-18T09:06:30.000Z</time>
      </trkpt>
      <trkpt lat="44.41444" lon="2.38853">
        <ele>590.6</ele>
        <time>2022-09-18T09:06:32.000Z</time>
      </trkpt>
      <trkpt lat="44.41435" lon="2.38859">
        <ele>590.9</ele>
        <time>2022-09-18T09:06:34.000Z</time>
      </trkpt>
      <trkpt lat="44.41427" lon="2.38865">
        <ele>591.5</ele>
        <time>2022-09-18T09:06:36.000Z</time>
      </trkpt>
      <trkpt lat="44.41419" lon="2.38869">
        <ele>592.6</ele>
        <time>2022-09-18T09:06:38.000Z</time>
      </trkpt>
      <trkpt lat="44.4141" lon="2.38874">
        <ele>592.8</ele>
        <time>2022-09-18T09:06:40.000Z</time>
      </trkpt>
      <trkpt lat="44.41398" lon="2.38882">
        <ele>593.4</ele>
        <time>2022-09-18T09:06:43.000Z</time>
      </trkpt>
      <trkpt lat="44.41389" lon="2.38886">
        <ele>593.8</ele>
        <time>2022-09-18T09:06:45.000Z</time>
      </trkpt>
      <trkpt lat="44.41376" lon="2.38889">
        <ele>594.6</ele>
        <time>2022-09-18T09:06:48.000Z</time>
      </trkpt>
      <trkpt lat="44.41364" lon="2.3889">
        <ele>595.7</ele>
        <time>2022-09-18T09:06:51.000Z</time>
      </trkpt>
      <trkpt lat="44.41352" lon="2.38889">
        <ele>596.3</ele>
        <time>2022-09-18T09:06:54.000Z</time>
      </trkpt>
      <trkpt lat="44.41339" lon="2.38887">
        <ele>596.5</ele>
        <time>2022-09-18T09:06:57.000Z</time>
      </trkpt>
      <trkpt lat="44.41326" lon="2.38885">
        <ele>596.7</ele>
        <time>2022-09-18T09:07:00.000Z</time>
      </trkpt>
      <trkpt lat="44.41313" lon="2.38883">
        <ele>597.8</ele>
        <time>2022-09-18T09:07:03.000Z</time>
      </trkpt>
      <trkpt lat="44.41301" lon="2.38883">
        <ele>598.3</ele>
        <time>2022-09-18T09:07:06.000Z</time>
      </trkpt>
      <trkpt lat="44.41288" lon="2.38884">
        <ele>599.3</ele>
        <time>2022-09-18T09:07:09.000Z</time>
      </trkpt>
      <trkpt lat="44.41275" lon="2.38885">
        <ele>600.1</ele>
        <time>2022-09-18T09:07:12.000Z</time>
      </trkpt>
      <trkpt lat="44.41261" lon="2.38884">
        <ele>600.9</ele>
        <time>2022-09-18T09:07:15.000Z</time>
      </trkpt>
      <trkpt lat="44.41253" lon="2.38881">
        <ele>601.6</ele>
        <time>2022-09-18T09:07:17.000Z</time>
      </trkpt>
      <trkpt lat="44.41244" lon="2.38876">
        <ele>602.4</ele>
        <time>2022-09-18T09:07:19.000Z</time>
      </trkpt>
      <trkpt lat="44.41237" lon="2.38868">
        <ele>602.4</ele>
        <time>2022-09-18T09:07:21.000Z</time>
      </trkpt>
      <trkpt lat="44.41231" lon="2.38859">
        <ele>602.9</ele>
        <time>2022-09-18T09:07:23.000Z</time>
      </trkpt>
      <trkpt lat="44.41223" lon="2.3885">
        <ele>603.2</ele>
        <time>2022-09-18T09:07:25.000Z</time>
      </trkpt>
      <trkpt lat="44.41214" lon="2.38844">
        <ele>603.3</ele>
        <time>2022-09-18T09:07:27.000Z</time>
      </trkpt>
      <trkpt lat="44.41205" lon="2.38842">
        <ele>603.9</ele>
        <time>2022-09-18T09:07:29.000Z</time>
      </trkpt>
      <trkpt lat="44.41192" lon="2.38842">
        <ele>604.5</ele>
        <time>2022-09-18T09:07:32.000Z</time>
      </trkpt>
      <trkpt lat="44.41179" lon="2.38841">
        <ele>605.3</ele>
        <time>2022-09-18T09:07:35.000Z</time>
      </trkpt>
      <trkpt lat="44.41168" lon="2.38832">
        <ele>605.8</ele>
        <time>2022-09-18T09:07:38.000Z</time>
      </trkpt>
      <trkpt lat="44.41159" lon="2.38818">
        <ele>606.5</ele>
        <time>2022-09-18T09:07:41.000Z</time>
      </trkpt>
      <trkpt lat="44.4115" lon="2.38808">
        <ele>606.6</ele>
        <time>2022-09-18T09:07:44.000Z</time>
      </trkpt>
      <trkpt lat="44.4114" lon="2.38805">
        <ele>608.4</ele>
        <time>2022-09-18T09:07:47.000Z</time>
      </trkpt>
      <trkpt lat="44.41133" lon="2.38814">
        <ele>610.4</ele>
        <time>2022-09-18T09:07:51.000Z</time>
      </trkpt>
      <trkpt lat="44.41128" lon="2.38828">
        <ele>612.2</ele>
        <time>2022-09-18T09:07:55.000Z</time>
      </trkpt>
      <trkpt lat="44.41124" lon="2.38842">
        <ele>613.4</ele>
        <time>2022-09-18T09:07:59.000Z</time>
      </trkpt>
      <trkpt lat="44.41122" lon="2.38857">
        <ele>615.1</ele>
        <time>2022-09-18T09:08:03.000Z</time>
      </trkpt>
      <trkpt lat="44.41114" lon="2.38869">
        <ele>615.8</ele>
        <time>2022-09-18T09:08:07.000Z</time>
      </trkpt>
      <trkpt lat="44.41105" lon="2.3888">
        <ele>617.2</ele>
        <time>2022-09-18T09:08:11.000Z</time>
      </trkpt>
      <trkpt lat="44.41095" lon="2.38886">
        <ele>618.4</ele>
        <time>2022-09-18T09:08:15.000Z</time>
      </trkpt>
      <trkpt lat="44.41084" lon="2.38891">
        <ele>619.9</ele>
        <time>2022-09-18T09:08:19.000Z</time>
      </trkpt>
      <trkpt lat="44.41074" lon="2.38893">
        <ele>621.5</ele>
        <time>2022-09-18T09:08:23.000Z</time>
      </trkpt>
      <trkpt lat="44.41063" lon="2.38893">
        <ele>622.5</ele>
        <time>2022-09-18T09:08:27.000Z</time>
      </trkpt>
      <trkpt lat="44.41052" lon="2.38895">
        <ele>623.4</ele>
        <time>2022-09-18T09:08:31.000Z</time>
      </trkpt>
      <trkpt lat="44.41041" lon="2.38891">
        <ele>625.5</ele>
        <time>2022-09-18T09:08:35.000Z</time>
      </trkpt>
      <trkpt lat="44.41043" lon="2.38876">
        <ele>626.5</ele>
        <time>2022-09-18T09:08:39.000Z</time>
      </trkpt>
      <trkpt lat="44.41051" lon="2.38866">
        <ele>628</ele>
        <time>2022-09-18T09:08:43.000Z</time>
      </trkpt>
      <trkpt lat="44.41059" lon="2.38855">
        <ele>630</ele>
        <time>2022-09-18T09:08:47.000Z</time>
      </trkpt>
      <trkpt lat="44.41066" lon="2.38841">
        <ele>631.4</ele>
        <time>2022-09-18T09:08:51.000Z</time>
      </trkpt>
      <trkpt lat="44.41071" lon="2.38828">
        <ele>632.6</ele>
        <time>2022-09-18T09:08:55.000Z</time>
      </trkpt>
      <trkpt lat="44.41075" lon="2.38813">
        <ele>634.1</ele>
        <time>2022-09-18T09:08:59.000Z</time>
      </trkpt>
      <trkpt lat="44.41079" lon="2.38799">
        <ele>635.8</ele>
        <time>2022-09-18T09:09:03.000Z</time>
      </trkpt>
      <trkpt lat="44.41082" lon="2.38785">
        <ele>636.7</ele>
        <time>2022-09-18T09:09:07.000Z</time>
      </trkpt>
      <trkpt lat="44.41085" lon="2.38769">
        <ele>638.6</ele>
        <time>2022-09-18T09:09:11.000Z</time>
      </trkpt>
      <trkpt lat="44.41087" lon="2.38754">
        <ele>639.7</ele>
        <time>2022-09-18T09:09:15.000Z</time>
      </trkpt>
      <trkpt lat="44.41085" lon="2.38738">
        <ele>641.9</ele>
        <time>2022-09-18T09:09:19.000Z</time>
      </trkpt>
      <trkpt lat="44.41079" lon="2.38727">
        <ele>642.9</ele>
        <time>2022-09-18T09:09:22.000Z</time>
      </trkpt>
      <trkpt lat="44.41072" lon="2.38717">
        <ele>644.2</ele>
        <time>2022-09-18T09:09:25.000Z</time>
      </trkpt>
      <trkpt lat="44.41065" lon="2.38708">
        <ele>645.1</ele>
        <time>2022-09-18T09:09:28.000Z</time>
      </trkpt>
      <trkpt lat="44.41058" lon="2.38699">
        <ele>646.1</ele>
        <time>2022-09-18T09:09:31.000Z</time>
      </trkpt>
      <trkpt lat="44.41051" lon="2.38691">
        <ele>647.1</ele>
        <time>2022-09-18T09:09:34.000Z</time>
      </trkpt>
      <trkpt lat="44.41043" lon="2.38679">
        <ele>648.4</ele>
        <time>2022-09-18T09:09:38.000Z</time>
      </trkpt>
      <trkpt lat="44.41035" lon="2.38667">
        <ele>649.8</ele>
        <time>2022-09-18T09:09:42.000Z</time>
      </trkpt>
      <trkpt lat="44.41029" lon="2.38657">
        <ele>650.6</ele>
        <time>2022-09-18T09:09:45.000Z</time>
      </trkpt>
      <trkpt lat="44.41022" lon="2.38645">
        <ele>652.1</ele>
        <time>2022-09-18T09:09:49.000Z</time>
      </trkpt>
      <trkpt lat="44.41013" lon="2.38637">
        <ele>652.6</ele>
        <time>2022-09-18T09:09:53.000Z</time>
      </trkpt>
      <trkpt lat="44.41003" lon="2.38633">
        <ele>654.3</ele>
        <time>2022-09-18T09:09:59.000Z</time>
      </trkpt>
      <trkpt lat="44.40994" lon="2.3863">
        <ele>655.1</ele>
        <time>2022-09-18T09:10:06.000Z</time>
      </trkpt>
      <trkpt lat="44.40984" lon="2.38627">
        <ele>656.1</ele>
        <time>2022-09-18T09:10:10.000Z</time>
      </trkpt>
      <trkpt lat="44.40973" lon="2.38627">
        <ele>656.8</ele>
        <time>2022-09-18T09:10:15.000Z</time>
      </trkpt>
      <trkpt lat="44.40964" lon="2.38623">
        <ele>656.8</ele>
        <time>2022-09-18T09:10:18.000Z</time>
      </trkpt>
      <trkpt lat="44.40954" lon="2.38617">
        <ele>657.5</ele>
        <time>2022-09-18T09:10:21.000Z</time>
      </trkpt>
      <trkpt lat="44.40943" lon="2.3861">
        <ele>657.8</ele>
        <time>2022-09-18T09:10:24.000Z</time>
      </trkpt>
      <trkpt lat="44.40933" lon="2.38603">
        <ele>657.9</ele>
        <time>2022-09-18T09:10:27.000Z</time>
      </trkpt>
      <trkpt lat="44.40923" lon="2.38597">
        <ele>657.6</ele>
        <time>2022-09-18T09:10:30.000Z</time>
      </trkpt>
      <trkpt lat="44.40913" lon="2.3859">
        <ele>658.3</ele>
        <time>2022-09-18T09:10:33.000Z</time>
      </trkpt>
      <trkpt lat="44.40903" lon="2.3858">
        <ele>658.9</ele>
        <time>2022-09-18T09:10:36.000Z</time>
      </trkpt>
      <trkpt lat="44.40895" lon="2.38572">
        <ele>658.7</ele>
        <time>2022-09-18T09:10:38.000Z</time>
      </trkpt>
      <trkpt lat="44.40887" lon="2.38564">
        <ele>658.3</ele>
        <time>2022-09-18T09:10:40.000Z</time>
      </trkpt>
      <trkpt lat="44.4088" lon="2.38554">
        <ele>658.2</ele>
        <time>2022-09-18T09:10:42.000Z</time>
      </trkpt>
      <trkpt lat="44.40872" lon="2.38545">
        <ele>657.5</ele>
        <time>2022-09-18T09:10:44.000Z</time>
      </trkpt>
      <trkpt lat="44.40864" lon="2.38536">
        <ele>656.6</ele>
        <time>2022-09-18T09:10:46.000Z</time>
      </trkpt>
      <trkpt lat="44.40855" lon="2.38526">
        <ele>656.8</ele>
        <time>2022-09-18T09:10:48.000Z</time>
      </trkpt>
      <trkpt lat="44.40846" lon="2.38516">
        <ele>656.3</ele>
        <time>2022-09-18T09:10:50.000Z</time>
      </trkpt>
      <trkpt lat="44.40837" lon="2.38507">
        <ele>655.8</ele>
        <time>2022-09-18T09:10:52.000Z</time>
      </trkpt>
      <trkpt lat="44.40826" lon="2.38497">
        <ele>655.9</ele>
        <time>2022-09-18T09:10:54.000Z</time>
      </trkpt>
      <trkpt lat="44.40816" lon="2.38486">
        <ele>655.1</ele>
        <time>2022-09-18T09:10:56.000Z</time>
      </trkpt>
      <trkpt lat="44.40804" lon="2.38473">
        <ele>653.7</ele>
        <time>2022-09-18T09:10:58.000Z</time>
      </trkpt>
      <trkpt lat="44.40792" lon="2.38459">
        <ele>653</ele>
        <time>2022-09-18T09:11:00.000Z</time>
      </trkpt>
      <trkpt lat="44.40779" lon="2.38443">
        <ele>652.9</ele>
        <time>2022-09-18T09:11:02.000Z</time>
      </trkpt>
      <trkpt lat="44.40772" lon="2.38435">
        <ele>651.4</ele>
        <time>2022-09-18T09:11:03.000Z</time>
      </trkpt>
      <trkpt lat="44.40765" lon="2.38427">
        <ele>651</ele>
        <time>2022-09-18T09:11:04.000Z</time>
      </trkpt>
      <trkpt lat="44.40758" lon="2.38418">
        <ele>650.4</ele>
        <time>2022-09-18T09:11:05.000Z</time>
      </trkpt>
      <trkpt lat="44.40751" lon="2.38409">
        <ele>650</ele>
        <time>2022-09-18T09:11:06.000Z</time>
      </trkpt>
      <trkpt lat="44.40744" lon="2.38399">
        <ele>648.8</ele>
        <time>2022-09-18T09:11:07.000Z</time>
      </trkpt>
      <trkpt lat="44.40737" lon="2.3839">
        <ele>647.9</ele>
        <time>2022-09-18T09:11:08.000Z</time>
      </trkpt>
      <trkpt lat="44.4073" lon="2.38381">
        <ele>647.4</ele>
        <time>2022-09-18T09:11:09.000Z</time>
      </trkpt>
      <trkpt lat="44.40723" lon="2.38372">
        <ele>647</ele>
        <time>2022-09-18T09:11:10.000Z</time>
      </trkpt>
      <trkpt lat="44.40715" lon="2.38364">
        <ele>646.1</ele>
        <time>2022-09-18T09:11:11.000Z</time>
      </trkpt>
      <trkpt lat="44.40708" lon="2.38354">
        <ele>645.4</ele>
        <time>2022-09-18T09:11:12.000Z</time>
      </trkpt>
      <trkpt lat="44.40701" lon="2.38344">
        <ele>644.8</ele>
        <time>2022-09-18T09:11:13.000Z</time>
      </trkpt>
      <trkpt lat="44.40696" lon="2.38334">
        <ele>644.3</ele>
        <time>2022-09-18T09:11:14.000Z</time>
      </trkpt>
      <trkpt lat="44.40687" lon="2.38314">
        <ele>643.3</ele>
        <time>2022-09-18T09:11:16.000Z</time>
      </trkpt>
      <trkpt lat="44.40679" lon="2.38297">
        <ele>641.4</ele>
        <time>2022-09-18T09:11:18.000Z</time>
      </trkpt>
      <trkpt lat="44.4067" lon="2.38281">
        <ele>640.4</ele>
        <time>2022-09-18T09:11:20.000Z</time>
      </trkpt>
      <trkpt lat="44.4066" lon="2.38264">
        <ele>638.7</ele>
        <time>2022-09-18T09:11:22.000Z</time>
      </trkpt>
      <trkpt lat="44.40651" lon="2.38246">
        <ele>636</ele>
        <time>2022-09-18T09:11:24.000Z</time>
      </trkpt>
      <trkpt lat="44.4064" lon="2.38229">
        <ele>634.2</ele>
        <time>2022-09-18T09:11:26.000Z</time>
      </trkpt>
      <trkpt lat="44.40624" lon="2.3822">
        <ele>632.3</ele>
        <time>2022-09-18T09:11:28.000Z</time>
      </trkpt>
      <trkpt lat="44.40615" lon="2.38218">
        <ele>631.4</ele>
        <time>2022-09-18T09:11:29.000Z</time>
      </trkpt>
      <trkpt lat="44.40606" lon="2.38217">
        <ele>629.9</ele>
        <time>2022-09-18T09:11:30.000Z</time>
      </trkpt>
      <trkpt lat="44.40597" lon="2.38216">
        <ele>629.1</ele>
        <time>2022-09-18T09:11:31.000Z</time>
      </trkpt>
      <trkpt lat="44.40579" lon="2.38212">
        <ele>628.1</ele>
        <time>2022-09-18T09:11:33.000Z</time>
      </trkpt>
      <trkpt lat="44.40562" lon="2.38209">
        <ele>628.3</ele>
        <time>2022-09-18T09:11:35.000Z</time>
      </trkpt>
      <trkpt lat="44.40545" lon="2.38209">
        <ele>628.1</ele>
        <time>2022-09-18T09:11:37.000Z</time>
      </trkpt>
      <trkpt lat="44.40529" lon="2.38209">
        <ele>627.6</ele>
        <time>2022-09-18T09:11:39.000Z</time>
      </trkpt>
      <trkpt lat="44.40513" lon="2.38207">
        <ele>627</ele>
        <time>2022-09-18T09:11:41.000Z</time>
      </trkpt>
      <trkpt lat="44.40497" lon="2.38205">
        <ele>625.5</ele>
        <time>2022-09-18T09:11:43.000Z</time>
      </trkpt>
      <trkpt lat="44.40479" lon="2.38204">
        <ele>624.1</ele>
        <time>2022-09-18T09:11:45.000Z</time>
      </trkpt>
      <trkpt lat="44.4047" lon="2.38204">
        <ele>623.5</ele>
        <time>2022-09-18T09:11:46.000Z</time>
      </trkpt>
      <trkpt lat="44.4046" lon="2.38204">
        <ele>622.6</ele>
        <time>2022-09-18T09:11:47.000Z</time>
      </trkpt>
      <trkpt lat="44.40451" lon="2.38204">
        <ele>621.5</ele>
        <time>2022-09-18T09:11:48.000Z</time>
      </trkpt>
      <trkpt lat="44.4044" lon="2.38204">
        <ele>620.9</ele>
        <time>2022-09-18T09:11:49.000Z</time>
      </trkpt>
      <trkpt lat="44.4043" lon="2.38204">
        <ele>619.8</ele>
        <time>2022-09-18T09:11:50.000Z</time>
      </trkpt>
      <trkpt lat="44.4042" lon="2.38205">
        <ele>618.4</ele>
        <time>2022-09-18T09:11:51.000Z</time>
      </trkpt>
      <trkpt lat="44.4041" lon="2.38207">
        <ele>617.2</ele>
        <time>2022-09-18T09:11:52.000Z</time>
      </trkpt>
      <trkpt lat="44.404" lon="2.38211">
        <ele>615.6</ele>
        <time>2022-09-18T09:11:53.000Z</time>
      </trkpt>
      <trkpt lat="44.40385" lon="2.38221">
        <ele>614.1</ele>
        <time>2022-09-18T09:11:55.000Z</time>
      </trkpt>
      <trkpt lat="44.40374" lon="2.38233">
        <ele>611.8</ele>
        <time>2022-09-18T09:11:57.000Z</time>
      </trkpt>
      <trkpt lat="44.40366" lon="2.38244">
        <ele>609.4</ele>
        <time>2022-09-18T09:11:59.000Z</time>
      </trkpt>
      <trkpt lat="44.4036" lon="2.38257">
        <ele>608.1</ele>
        <time>2022-09-18T09:12:01.000Z</time>
      </trkpt>
      <trkpt lat="44.40356" lon="2.38273">
        <ele>607</ele>
        <time>2022-09-18T09:12:03.000Z</time>
      </trkpt>
      <trkpt lat="44.40353" lon="2.38292">
        <ele>606.1</ele>
        <time>2022-09-18T09:12:05.000Z</time>
      </trkpt>
      <trkpt lat="44.40348" lon="2.38311">
        <ele>605.4</ele>
        <time>2022-09-18T09:12:07.000Z</time>
      </trkpt>
      <trkpt lat="44.40341" lon="2.38329">
        <ele>604.6</ele>
        <time>2022-09-18T09:12:09.000Z</time>
      </trkpt>
      <trkpt lat="44.40332" lon="2.38346">
        <ele>604.3</ele>
        <time>2022-09-18T09:12:11.000Z</time>
      </trkpt>
      <trkpt lat="44.40323" lon="2.38361">
        <ele>604.1</ele>
        <time>2022-09-18T09:12:13.000Z</time>
      </trkpt>
      <trkpt lat="44.40314" lon="2.38376">
        <ele>603.8</ele>
        <time>2022-09-18T09:12:15.000Z</time>
      </trkpt>
      <trkpt lat="44.40304" lon="2.38388">
        <ele>603.2</ele>
        <time>2022-09-18T09:12:17.000Z</time>
      </trkpt>
      <trkpt lat="44.40294" lon="2.38398">
        <ele>603.9</ele>
        <time>2022-09-18T09:12:19.000Z</time>
      </trkpt>
      <trkpt lat="44.40286" lon="2.38408">
        <ele>603.9</ele>
        <time>2022-09-18T09:12:21.000Z</time>
      </trkpt>
      <trkpt lat="44.40279" lon="2.38417">
        <ele>604</ele>
        <time>2022-09-18T09:12:23.000Z</time>
      </trkpt>
      <trkpt lat="44.40269" lon="2.38429">
        <ele>604.8</ele>
        <time>2022-09-18T09:12:26.000Z</time>
      </trkpt>
      <trkpt lat="44.40265" lon="2.38442">
        <ele>605.9</ele>
        <time>2022-09-18T09:12:29.000Z</time>
      </trkpt>
      <trkpt lat="44.40263" lon="2.38458">
        <ele>606.1</ele>
        <time>2022-09-18T09:12:32.000Z</time>
      </trkpt>
      <trkpt lat="44.40263" lon="2.38474">
        <ele>605.8</ele>
        <time>2022-09-18T09:12:35.000Z</time>
      </trkpt>
      <trkpt lat="44.40265" lon="2.3849">
        <ele>605.7</ele>
        <time>2022-09-18T09:12:38.000Z</time>
      </trkpt>
      <trkpt lat="44.40263" lon="2.38503">
        <ele>605.2</ele>
        <time>2022-09-18T09:12:41.000Z</time>
      </trkpt>
      <trkpt lat="44.40252" lon="2.38511">
        <ele>604.2</ele>
        <time>2022-09-18T09:12:44.000Z</time>
      </trkpt>
      <trkpt lat="44.40243" lon="2.38511">
        <ele>603.6</ele>
        <time>2022-09-18T09:12:46.000Z</time>
      </trkpt>
      <trkpt lat="44.40231" lon="2.38505">
        <ele>603.7</ele>
        <time>2022-09-18T09:12:49.000Z</time>
      </trkpt>
      <trkpt lat="44.40222" lon="2.38494">
        <ele>603.3</ele>
        <time>2022-09-18T09:12:52.000Z</time>
      </trkpt>
      <trkpt lat="44.40212" lon="2.38493">
        <ele>601.6</ele>
        <time>2022-09-18T09:12:56.000Z</time>
      </trkpt>
      <trkpt lat="44.40205" lon="2.38481">
        <ele>599.9</ele>
        <time>2022-09-18T09:13:01.000Z</time>
      </trkpt>
      <trkpt lat="44.40196" lon="2.38489">
        <ele>597.9</ele>
        <time>2022-09-18T09:13:05.000Z</time>
      </trkpt>
      <trkpt lat="44.40196" lon="2.38503">
        <ele>596.2</ele>
        <time>2022-09-18T09:13:07.000Z</time>
      </trkpt>
      <trkpt lat="44.40193" lon="2.3852">
        <ele>595</ele>
        <time>2022-09-18T09:13:09.000Z</time>
      </trkpt>
      <trkpt lat="44.40189" lon="2.38534">
        <ele>592.7</ele>
        <time>2022-09-18T09:13:11.000Z</time>
      </trkpt>
      <trkpt lat="44.40185" lon="2.3855">
        <ele>590.2</ele>
        <time>2022-09-18T09:13:14.000Z</time>
      </trkpt>
      <trkpt lat="44.40187" lon="2.38564">
        <ele>589.9</ele>
        <time>2022-09-18T09:13:16.000Z</time>
      </trkpt>
      <trkpt lat="44.40192" lon="2.38584">
        <ele>587.7</ele>
        <time>2022-09-18T09:13:18.000Z</time>
      </trkpt>
      <trkpt lat="44.40198" lon="2.38605">
        <ele>585.1</ele>
        <time>2022-09-18T09:13:20.000Z</time>
      </trkpt>
      <trkpt lat="44.40204" lon="2.38624">
        <ele>581</ele>
        <time>2022-09-18T09:13:22.000Z</time>
      </trkpt>
      <trkpt lat="44.40205" lon="2.38642">
        <ele>579.7</ele>
        <time>2022-09-18T09:13:24.000Z</time>
      </trkpt>
      <trkpt lat="44.40201" lon="2.38656">
        <ele>577</ele>
        <time>2022-09-18T09:13:26.000Z</time>
      </trkpt>
      <trkpt lat="44.40202" lon="2.38674">
        <ele>573.7</ele>
        <time>2022-09-18T09:13:29.000Z</time>
      </trkpt>
      <trkpt lat="44.4021" lon="2.38682">
        <ele>571</ele>
        <time>2022-09-18T09:13:31.000Z</time>
      </trkpt>
      <trkpt lat="44.40223" lon="2.38681">
        <ele>570.3</ele>
        <time>2022-09-18T09:13:34.000Z</time>
      </trkpt>
      <trkpt lat="44.4023" lon="2.38673">
        <ele>568.4</ele>
        <time>2022-09-18T09:13:36.000Z</time>
      </trkpt>
      <trkpt lat="44.4024" lon="2.38664">
        <ele>565.9</ele>
        <time>2022-09-18T09:13:38.000Z</time>
      </trkpt>
      <trkpt lat="44.40249" lon="2.38666">
        <ele>563.5</ele>
        <time>2022-09-18T09:13:41.000Z</time>
      </trkpt>
      <trkpt lat="44.40243" lon="2.38676">
        <ele>561.9</ele>
        <time>2022-09-18T09:13:49.000Z</time>
      </trkpt>
      <trkpt lat="44.40237" lon="2.38688">
        <ele>562.4</ele>
        <time>2022-09-18T09:13:54.000Z</time>
      </trkpt>
      <trkpt lat="44.40232" lon="2.387">
        <ele>561.5</ele>
        <time>2022-09-18T09:13:57.000Z</time>
      </trkpt>
      <trkpt lat="44.40225" lon="2.38709">
        <ele>561</ele>
        <time>2022-09-18T09:14:00.000Z</time>
      </trkpt>
      <trkpt lat="44.40216" lon="2.3872">
        <ele>560</ele>
        <time>2022-09-18T09:14:04.000Z</time>
      </trkpt>
      <trkpt lat="44.40213" lon="2.38734">
        <ele>557.1</ele>
        <time>2022-09-18T09:14:09.000Z</time>
      </trkpt>
      <trkpt lat="44.40222" lon="2.38741">
        <ele>553.8</ele>
        <time>2022-09-18T09:14:13.000Z</time>
      </trkpt>
      <trkpt lat="44.40227" lon="2.38754">
        <ele>551.3</ele>
        <time>2022-09-18T09:14:16.000Z</time>
      </trkpt>
      <trkpt lat="44.40225" lon="2.38767">
        <ele>549.4</ele>
        <time>2022-09-18T09:14:19.000Z</time>
      </trkpt>
      <trkpt lat="44.40232" lon="2.38778">
        <ele>545.8</ele>
        <time>2022-09-18T09:14:24.000Z</time>
      </trkpt>
      <trkpt lat="44.40224" lon="2.38787">
        <ele>543.8</ele>
        <time>2022-09-18T09:14:27.000Z</time>
      </trkpt>
      <trkpt lat="44.40213" lon="2.38783">
        <ele>542.3</ele>
        <time>2022-09-18T09:14:30.000Z</time>
      </trkpt>
      <trkpt lat="44.40204" lon="2.38784">
        <ele>540.2</ele>
        <time>2022-09-18T09:14:33.000Z</time>
      </trkpt>
      <trkpt lat="44.40194" lon="2.38783">
        <ele>539.5</ele>
        <time>2022-09-18T09:14:36.000Z</time>
      </trkpt>
      <trkpt lat="44.40184" lon="2.38784">
        <ele>538.4</ele>
        <time>2022-09-18T09:14:39.000Z</time>
      </trkpt>
      <trkpt lat="44.40172" lon="2.38783">
        <ele>537.4</ele>
        <time>2022-09-18T09:14:42.000Z</time>
      </trkpt>
      <trkpt lat="44.40159" lon="2.38783">
        <ele>535.7</ele>
        <time>2022-09-18T09:14:45.000Z</time>
      </trkpt>
      <trkpt lat="44.40149" lon="2.38782">
        <ele>534.5</ele>
        <time>2022-09-18T09:14:48.000Z</time>
      </trkpt>
      <trkpt lat="44.40139" lon="2.38782">
        <ele>533.4</ele>
        <time>2022-09-18T09:14:52.000Z</time>
      </trkpt>
      <trkpt lat="44.40131" lon="2.38789">
        <ele>530.3</ele>
        <time>2022-09-18T09:14:57.000Z</time>
      </trkpt>
      <trkpt lat="44.40123" lon="2.38801">
        <ele>527</ele>
        <time>2022-09-18T09:15:02.000Z</time>
      </trkpt>
      <trkpt lat="44.4012" lon="2.38816">
        <ele>522.9</ele>
        <time>2022-09-18T09:15:06.000Z</time>
      </trkpt>
      <trkpt lat="44.40112" lon="2.38825">
        <ele>521.2</ele>
        <time>2022-09-18T09:15:10.000Z</time>
      </trkpt>
      <trkpt lat="44.40101" lon="2.3882">
        <ele>520.1</ele>
        <time>2022-09-18T09:15:13.000Z</time>
      </trkpt>
      <trkpt lat="44.40092" lon="2.38813">
        <ele>519.4</ele>
        <time>2022-09-18T09:15:15.000Z</time>
      </trkpt>
      <trkpt lat="44.40083" lon="2.38803">
        <ele>518.8</ele>
        <time>2022-09-18T09:15:17.000Z</time>
      </trkpt>
      <trkpt lat="44.40075" lon="2.38791">
        <ele>518.3</ele>
        <time>2022-09-18T09:15:19.000Z</time>
      </trkpt>
      <trkpt lat="44.40067" lon="2.38777">
        <ele>517.9</ele>
        <time>2022-09-18T09:15:21.000Z</time>
      </trkpt>
      <trkpt lat="44.40059" lon="2.38762">
        <ele>516.5</ele>
        <time>2022-09-18T09:15:23.000Z</time>
      </trkpt>
      <trkpt lat="44.40049" lon="2.38745">
        <ele>515.8</ele>
        <time>2022-09-18T09:15:25.000Z</time>
      </trkpt>
      <trkpt lat="44.40041" lon="2.38724">
        <ele>514.4</ele>
        <time>2022-09-18T09:15:27.000Z</time>
      </trkpt>
      <trkpt lat="44.40038" lon="2.38712">
        <ele>513.4</ele>
        <time>2022-09-18T09:15:28.000Z</time>
      </trkpt>
      <trkpt lat="44.40036" lon="2.38698">
        <ele>513</ele>
        <time>2022-09-18T09:15:29.000Z</time>
      </trkpt>
      <trkpt lat="44.40034" lon="2.38685">
        <ele>512.6</ele>
        <time>2022-09-18T09:15:30.000Z</time>
      </trkpt>
      <trkpt lat="44.40032" lon="2.38661">
        <ele>512</ele>
        <time>2022-09-18T09:15:32.000Z</time>
      </trkpt>
      <trkpt lat="44.40032" lon="2.38642">
        <ele>513.1</ele>
        <time>2022-09-18T09:15:34.000Z</time>
      </trkpt>
      <trkpt lat="44.40034" lon="2.38629">
        <ele>514</ele>
        <time>2022-09-18T09:15:36.000Z</time>
      </trkpt>
      <trkpt lat="44.40037" lon="2.38616">
        <ele>515</ele>
        <time>2022-09-18T09:15:39.000Z</time>
      </trkpt>
      <trkpt lat="44.4004" lon="2.38601">
        <ele>515.7</ele>
        <time>2022-09-18T09:15:42.000Z</time>
      </trkpt>
      <trkpt lat="44.40041" lon="2.38587">
        <ele>517.1</ele>
        <time>2022-09-18T09:15:45.000Z</time>
      </trkpt>
      <trkpt lat="44.40042" lon="2.38573">
        <ele>518.6</ele>
        <time>2022-09-18T09:15:48.000Z</time>
      </trkpt>
      <trkpt lat="44.40039" lon="2.3856">
        <ele>519.3</ele>
        <time>2022-09-18T09:15:51.000Z</time>
      </trkpt>
      <trkpt lat="44.40036" lon="2.38548">
        <ele>520.8</ele>
        <time>2022-09-18T09:15:54.000Z</time>
      </trkpt>
      <trkpt lat="44.40032" lon="2.38536">
        <ele>521.9</ele>
        <time>2022-09-18T09:15:57.000Z</time>
      </trkpt>
      <trkpt lat="44.40028" lon="2.38524">
        <ele>523</ele>
        <time>2022-09-18T09:16:00.000Z</time>
      </trkpt>
      <trkpt lat="44.40025" lon="2.38512">
        <ele>523.6</ele>
        <time>2022-09-18T09:16:03.000Z</time>
      </trkpt>
      <trkpt lat="44.40022" lon="2.38499">
        <ele>524.9</ele>
        <time>2022-09-18T09:16:06.000Z</time>
      </trkpt>
      <trkpt lat="44.40019" lon="2.38486">
        <ele>525.6</ele>
        <time>2022-09-18T09:16:09.000Z</time>
      </trkpt>
      <trkpt lat="44.40018" lon="2.3847">
        <ele>526.9</ele>
        <time>2022-09-18T09:16:13.000Z</time>
      </trkpt>
      <trkpt lat="44.40017" lon="2.38456">
        <ele>527.9</ele>
        <time>2022-09-18T09:16:16.000Z</time>
      </trkpt>
      <trkpt lat="44.40017" lon="2.38443">
        <ele>529.4</ele>
        <time>2022-09-18T09:16:19.000Z</time>
      </trkpt>
      <trkpt lat="44.40019" lon="2.38431">
        <ele>530.5</ele>
        <time>2022-09-18T09:16:22.000Z</time>
      </trkpt>
      <trkpt lat="44.40022" lon="2.38419">
        <ele>531.6</ele>
        <time>2022-09-18T09:16:25.000Z</time>
      </trkpt>
      <trkpt lat="44.40026" lon="2.38407">
        <ele>533</ele>
        <time>2022-09-18T09:16:28.000Z</time>
      </trkpt>
      <trkpt lat="44.40028" lon="2.38393">
        <ele>533.4</ele>
        <time>2022-09-18T09:16:31.000Z</time>
      </trkpt>
      <trkpt lat="44.4003" lon="2.38377">
        <ele>534.7</ele>
        <time>2022-09-18T09:16:35.000Z</time>
      </trkpt>
      <trkpt lat="44.4003" lon="2.38379">
        <ele>535.6</ele>
        <time>2022-09-18T09:16:37.000Z</time>
      </trkpt>
      <trkpt lat="44.4003" lon="2.38376">
        <ele>535.8</ele>
        <time>2022-09-18T09:16:38.000Z</time>
      </trkpt>
      <trkpt lat="44.4003" lon="2.38362">
        <ele>536.8</ele>
        <time>2022-09-18T09:16:41.000Z</time>
      </trkpt>
      <trkpt lat="44.40032" lon="2.38348">
        <ele>537.6</ele>
        <time>2022-09-18T09:16:44.000Z</time>
      </trkpt>
      <trkpt lat="44.40036" lon="2.38333">
        <ele>538.9</ele>
        <time>2022-09-18T09:16:47.000Z</time>
      </trkpt>
      <trkpt lat="44.4004" lon="2.3832">
        <ele>539.8</ele>
        <time>2022-09-18T09:16:50.000Z</time>
      </trkpt>
      <trkpt lat="44.40045" lon="2.38308">
        <ele>540.5</ele>
        <time>2022-09-18T09:16:53.000Z</time>
      </trkpt>
      <trkpt lat="44.40046" lon="2.38294">
        <ele>541</ele>
        <time>2022-09-18T09:16:56.000Z</time>
      </trkpt>
      <trkpt lat="44.40043" lon="2.38279">
        <ele>542</ele>
        <time>2022-09-18T09:16:59.000Z</time>
      </trkpt>
      <trkpt lat="44.40038" lon="2.38266">
        <ele>542.9</ele>
        <time>2022-09-18T09:17:02.000Z</time>
      </trkpt>
      <trkpt lat="44.40033" lon="2.38255">
        <ele>544.2</ele>
        <time>2022-09-18T09:17:05.000Z</time>
      </trkpt>
      <trkpt lat="44.40027" lon="2.38243">
        <ele>544.8</ele>
        <time>2022-09-18T09:17:08.000Z</time>
      </trkpt>
      <trkpt lat="44.40019" lon="2.38234">
        <ele>545.4</ele>
        <time>2022-09-18T09:17:11.000Z</time>
      </trkpt>
      <trkpt lat="44.40011" lon="2.38226">
        <ele>546.6</ele>
        <time>2022-09-18T09:17:14.000Z</time>
      </trkpt>
      <trkpt lat="44.40004" lon="2.38218">
        <ele>547.6</ele>
        <time>2022-09-18T09:17:17.000Z</time>
      </trkpt>
      <trkpt lat="44.39997" lon="2.3821">
        <ele>548.3</ele>
        <time>2022-09-18T09:17:20.000Z</time>
      </trkpt>
      <trkpt lat="44.39989" lon="2.38201">
        <ele>549.2</ele>
        <time>2022-09-18T09:17:23.000Z</time>
      </trkpt>
      <trkpt lat="44.39981" lon="2.38194">
        <ele>549.8</ele>
        <time>2022-09-18T09:17:26.000Z</time>
      </trkpt>
      <trkpt lat="44.39972" lon="2.38183">
        <ele>551.5</ele>
        <time>2022-09-18T09:17:30.000Z</time>
      </trkpt>
      <trkpt lat="44.39964" lon="2.38176">
        <ele>551.2</ele>
        <time>2022-09-18T09:17:33.000Z</time>
      </trkpt>
      <trkpt lat="44.39955" lon="2.3817">
        <ele>551.8</ele>
        <time>2022-09-18T09:17:36.000Z</time>
      </trkpt>
      <trkpt lat="44.39946" lon="2.38167">
        <ele>552.9</ele>
        <time>2022-09-18T09:17:39.000Z</time>
      </trkpt>
      <trkpt lat="44.39936" lon="2.38168">
        <ele>553.7</ele>
        <time>2022-09-18T09:17:42.000Z</time>
      </trkpt>
      <trkpt lat="44.39927" lon="2.38171">
        <ele>554.1</ele>
        <time>2022-09-18T09:17:45.000Z</time>
      </trkpt>
      <trkpt lat="44.39918" lon="2.38174">
        <ele>555.2</ele>
        <time>2022-09-18T09:17:48.000Z</time>
      </trkpt>
      <trkpt lat="44.39908" lon="2.38177">
        <ele>555.6</ele>
        <time>2022-09-18T09:17:51.000Z</time>
      </trkpt>
      <trkpt lat="44.39899" lon="2.38174">
        <ele>556</ele>
        <time>2022-09-18T09:17:54.000Z</time>
      </trkpt>
      <trkpt lat="44.39892" lon="2.38162">
        <ele>555.9</ele>
        <time>2022-09-18T09:17:57.000Z</time>
      </trkpt>
      <trkpt lat="44.39888" lon="2.3815">
        <ele>555.7</ele>
        <time>2022-09-18T09:17:59.000Z</time>
      </trkpt>
      <trkpt lat="44.39882" lon="2.38137">
        <ele>554.8</ele>
        <time>2022-09-18T09:18:01.000Z</time>
      </trkpt>
      <trkpt lat="44.39876" lon="2.38121">
        <ele>553.9</ele>
        <time>2022-09-18T09:18:03.000Z</time>
      </trkpt>
      <trkpt lat="44.39874" lon="2.38101">
        <ele>553.1</ele>
        <time>2022-09-18T09:18:05.000Z</time>
      </trkpt>
      <trkpt lat="44.39873" lon="2.38079">
        <ele>551.9</ele>
        <time>2022-09-18T09:18:07.000Z</time>
      </trkpt>
      <trkpt lat="44.39872" lon="2.38058">
        <ele>551.5</ele>
        <time>2022-09-18T09:18:09.000Z</time>
      </trkpt>
      <trkpt lat="44.39861" lon="2.38048">
        <ele>550.8</ele>
        <time>2022-09-18T09:18:11.000Z</time>
      </trkpt>
      <trkpt lat="44.39849" lon="2.38055">
        <ele>550.6</ele>
        <time>2022-09-18T09:18:13.000Z</time>
      </trkpt>
      <trkpt lat="44.39841" lon="2.38067">
        <ele>550.7</ele>
        <time>2022-09-18T09:18:15.000Z</time>
      </trkpt>
      <trkpt lat="44.39836" lon="2.38078">
        <ele>550.8</ele>
        <time>2022-09-18T09:18:17.000Z</time>
      </trkpt>
      <trkpt lat="44.39832" lon="2.38091">
        <ele>551.5</ele>
        <time>2022-09-18T09:18:19.000Z</time>
      </trkpt>
      <trkpt lat="44.3983" lon="2.38109">
        <ele>551.9</ele>
        <time>2022-09-18T09:18:22.000Z</time>
      </trkpt>
      <trkpt lat="44.3983" lon="2.38126">
        <ele>553</ele>
        <time>2022-09-18T09:18:25.000Z</time>
      </trkpt>
      <trkpt lat="44.39828" lon="2.38142">
        <ele>553.7</ele>
        <time>2022-09-18T09:18:28.000Z</time>
      </trkpt>
      <trkpt lat="44.39824" lon="2.38156">
        <ele>554.4</ele>
        <time>2022-09-18T09:18:31.000Z</time>
      </trkpt>
      <trkpt lat="44.39815" lon="2.38167">
        <ele>555.3</ele>
        <time>2022-09-18T09:18:34.000Z</time>
      </trkpt>
      <trkpt lat="44.39806" lon="2.38176">
        <ele>556</ele>
        <time>2022-09-18T09:18:37.000Z</time>
      </trkpt>
      <trkpt lat="44.39797" lon="2.38183">
        <ele>557.3</ele>
        <time>2022-09-18T09:18:40.000Z</time>
      </trkpt>
      <trkpt lat="44.39786" lon="2.38187">
        <ele>557.9</ele>
        <time>2022-09-18T09:18:43.000Z</time>
      </trkpt>
      <trkpt lat="44.39776" lon="2.38188">
        <ele>559.3</ele>
        <time>2022-09-18T09:18:46.000Z</time>
      </trkpt>
      <trkpt lat="44.39765" lon="2.38186">
        <ele>560</ele>
        <time>2022-09-18T09:18:49.000Z</time>
      </trkpt>
      <trkpt lat="44.39755" lon="2.38188">
        <ele>560.7</ele>
        <time>2022-09-18T09:18:52.000Z</time>
      </trkpt>
      <trkpt lat="44.39746" lon="2.38196">
        <ele>561.3</ele>
        <time>2022-09-18T09:18:55.000Z</time>
      </trkpt>
      <trkpt lat="44.39737" lon="2.38207">
        <ele>562.3</ele>
        <time>2022-09-18T09:18:58.000Z</time>
      </trkpt>
      <trkpt lat="44.39729" lon="2.38216">
        <ele>563.4</ele>
        <time>2022-09-18T09:19:01.000Z</time>
      </trkpt>
      <trkpt lat="44.3972" lon="2.38224">
        <ele>564.8</ele>
        <time>2022-09-18T09:19:04.000Z</time>
      </trkpt>
      <trkpt lat="44.3971" lon="2.38226">
        <ele>565.1</ele>
        <time>2022-09-18T09:19:07.000Z</time>
      </trkpt>
      <trkpt lat="44.397" lon="2.38224">
        <ele>566</ele>
        <time>2022-09-18T09:19:10.000Z</time>
      </trkpt>
      <trkpt lat="44.3969" lon="2.38223">
        <ele>567</ele>
        <time>2022-09-18T09:19:13.000Z</time>
      </trkpt>
      <trkpt lat="44.3968" lon="2.38221">
        <ele>568</ele>
        <time>2022-09-18T09:19:16.000Z</time>
      </trkpt>
      <trkpt lat="44.3967" lon="2.38215">
        <ele>568.7</ele>
        <time>2022-09-18T09:19:19.000Z</time>
      </trkpt>
      <trkpt lat="44.39661" lon="2.38207">
        <ele>569.4</ele>
        <time>2022-09-18T09:19:23.000Z</time>
      </trkpt>
      <trkpt lat="44.39654" lon="2.38219">
        <ele>569.1</ele>
        <time>2022-09-18T09:19:27.000Z</time>
      </trkpt>
      <trkpt lat="44.39652" lon="2.38233">
        <ele>569</ele>
        <time>2022-09-18T09:19:29.000Z</time>
      </trkpt>
      <trkpt lat="44.39649" lon="2.38248">
        <ele>568.6</ele>
        <time>2022-09-18T09:19:31.000Z</time>
      </trkpt>
      <trkpt lat="44.39647" lon="2.38264">
        <ele>568.2</ele>
        <time>2022-09-18T09:19:33.000Z</time>
      </trkpt>
      <trkpt lat="44.39643" lon="2.38281">
        <ele>567.6</ele>
        <time>2022-09-18T09:19:35.000Z</time>
      </trkpt>
      <trkpt lat="44.39637" lon="2.38298">
        <ele>567.5</ele>
        <time>2022-09-18T09:19:37.000Z</time>
      </trkpt>
      <trkpt lat="44.39629" lon="2.38315">
        <ele>567.2</ele>
        <time>2022-09-18T09:19:39.000Z</time>
      </trkpt>
      <trkpt lat="44.39621" lon="2.38331">
        <ele>566.9</ele>
        <time>2022-09-18T09:19:41.000Z</time>
      </trkpt>
      <trkpt lat="44.39613" lon="2.38347">
        <ele>566.3</ele>
        <time>2022-09-18T09:19:43.000Z</time>
      </trkpt>
      <trkpt lat="44.39606" lon="2.38363">
        <ele>565.6</ele>
        <time>2022-09-18T09:19:45.000Z</time>
      </trkpt>
      <trkpt lat="44.39601" lon="2.38381">
        <ele>564.5</ele>
        <time>2022-09-18T09:19:47.000Z</time>
      </trkpt>
      <trkpt lat="44.39596" lon="2.38403">
        <ele>562.1</ele>
        <time>2022-09-18T09:19:49.000Z</time>
      </trkpt>
      <trkpt lat="44.39594" lon="2.38416">
        <ele>561.1</ele>
        <time>2022-09-18T09:19:50.000Z</time>
      </trkpt>
      <trkpt lat="44.39593" lon="2.3843">
        <ele>559.8</ele>
        <time>2022-09-18T09:19:51.000Z</time>
      </trkpt>
      <trkpt lat="44.39592" lon="2.38443">
        <ele>559</ele>
        <time>2022-09-18T09:19:52.000Z</time>
      </trkpt>
      <trkpt lat="44.39592" lon="2.38467">
        <ele>559.3</ele>
        <time>2022-09-18T09:19:54.000Z</time>
      </trkpt>
      <trkpt lat="44.39592" lon="2.3849">
        <ele>559.2</ele>
        <time>2022-09-18T09:19:56.000Z</time>
      </trkpt>
      <trkpt lat="44.39594" lon="2.38509">
        <ele>559.6</ele>
        <time>2022-09-18T09:19:58.000Z</time>
      </trkpt>
      <trkpt lat="44.39595" lon="2.38525">
        <ele>559.9</ele>
        <time>2022-09-18T09:20:00.000Z</time>
      </trkpt>
      <trkpt lat="44.39597" lon="2.38542">
        <ele>560.2</ele>
        <time>2022-09-18T09:20:02.000Z</time>
      </trkpt>
      <trkpt lat="44.39598" lon="2.38561">
        <ele>559.7</ele>
        <time>2022-09-18T09:20:04.000Z</time>
      </trkpt>
      <trkpt lat="44.396" lon="2.3858">
        <ele>558.6</ele>
        <time>2022-09-18T09:20:06.000Z</time>
      </trkpt>
      <trkpt lat="44.39602" lon="2.38599">
        <ele>558.3</ele>
        <time>2022-09-18T09:20:08.000Z</time>
      </trkpt>
      <trkpt lat="44.39606" lon="2.38619">
        <ele>558.2</ele>
        <time>2022-09-18T09:20:10.000Z</time>
      </trkpt>
      <trkpt lat="44.3961" lon="2.38638">
        <ele>558.3</ele>
        <time>2022-09-18T09:20:12.000Z</time>
      </trkpt>
      <trkpt lat="44.39616" lon="2.38658">
        <ele>556.8</ele>
        <time>2022-09-18T09:20:14.000Z</time>
      </trkpt>
      <trkpt lat="44.39623" lon="2.38677">
        <ele>556.7</ele>
        <time>2022-09-18T09:20:16.000Z</time>
      </trkpt>
      <trkpt lat="44.39629" lon="2.38695">
        <ele>556.6</ele>
        <time>2022-09-18T09:20:18.000Z</time>
      </trkpt>
      <trkpt lat="44.39633" lon="2.38714">
        <ele>555.7</ele>
        <time>2022-09-18T09:20:20.000Z</time>
      </trkpt>
      <trkpt lat="44.39634" lon="2.38733">
        <ele>555.6</ele>
        <time>2022-09-18T09:20:22.000Z</time>
      </trkpt>
      <trkpt lat="44.39631" lon="2.38749">
        <ele>556.2</ele>
        <time>2022-09-18T09:20:24.000Z</time>
      </trkpt>
      <trkpt lat="44.39626" lon="2.38766">
        <ele>556.5</ele>
        <time>2022-09-18T09:20:26.000Z</time>
      </trkpt>
      <trkpt lat="44.3962" lon="2.38783">
        <ele>555.6</ele>
        <time>2022-09-18T09:20:28.000Z</time>
      </trkpt>
      <trkpt lat="44.39614" lon="2.38801">
        <ele>555.1</ele>
        <time>2022-09-18T09:20:30.000Z</time>
      </trkpt>
      <trkpt lat="44.39607" lon="2.38819">
        <ele>554.5</ele>
        <time>2022-09-18T09:20:32.000Z</time>
      </trkpt>
      <trkpt lat="44.396" lon="2.38836">
        <ele>554.1</ele>
        <time>2022-09-18T09:20:34.000Z</time>
      </trkpt>
      <trkpt lat="44.39593" lon="2.38852">
        <ele>553.9</ele>
        <time>2022-09-18T09:20:36.000Z</time>
      </trkpt>
      <trkpt lat="44.39588" lon="2.38868">
        <ele>554</ele>
        <time>2022-09-18T09:20:38.000Z</time>
      </trkpt>
      <trkpt lat="44.39583" lon="2.38883">
        <ele>554.3</ele>
        <time>2022-09-18T09:20:40.000Z</time>
      </trkpt>
      <trkpt lat="44.39579" lon="2.38898">
        <ele>554.8</ele>
        <time>2022-09-18T09:20:42.000Z</time>
      </trkpt>
      <trkpt lat="44.39577" lon="2.38914">
        <ele>554.8</ele>
        <time>2022-09-18T09:20:44.000Z</time>
      </trkpt>
      <trkpt lat="44.39575" lon="2.38929">
        <ele>555.1</ele>
        <time>2022-09-18T09:20:46.000Z</time>
      </trkpt>
      <trkpt lat="44.39573" lon="2.38944">
        <ele>555.4</ele>
        <time>2022-09-18T09:20:48.000Z</time>
      </trkpt>
      <trkpt lat="44.39572" lon="2.38959">
        <ele>555.8</ele>
        <time>2022-09-18T09:20:50.000Z</time>
      </trkpt>
      <trkpt lat="44.39573" lon="2.38973">
        <ele>555.9</ele>
        <time>2022-09-18T09:20:52.000Z</time>
      </trkpt>
      <trkpt lat="44.39574" lon="2.38988">
        <ele>556.7</ele>
        <time>2022-09-18T09:20:54.000Z</time>
      </trkpt>
      <trkpt lat="44.39575" lon="2.39002">
        <ele>557.3</ele>
        <time>2022-09-18T09:20:56.000Z</time>
      </trkpt>
      <trkpt lat="44.39574" lon="2.39016">
        <ele>557.4</ele>
        <time>2022-09-18T09:20:58.000Z</time>
      </trkpt>
      <trkpt lat="44.39571" lon="2.3903">
        <ele>557</ele>
        <time>2022-09-18T09:21:00.000Z</time>
      </trkpt>
      <trkpt lat="44.39567" lon="2.39044">
        <ele>556.5</ele>
        <time>2022-09-18T09:21:02.000Z</time>
      </trkpt>
      <trkpt lat="44.3956" lon="2.39057">
        <ele>556.3</ele>
        <time>2022-09-18T09:21:04.000Z</time>
      </trkpt>
      <trkpt lat="44.39552" lon="2.39069">
        <ele>555.7</ele>
        <time>2022-09-18T09:21:06.000Z</time>
      </trkpt>
      <trkpt lat="44.39545" lon="2.39081">
        <ele>556.4</ele>
        <time>2022-09-18T09:21:08.000Z</time>
      </trkpt>
      <trkpt lat="44.39539" lon="2.39092">
        <ele>556.6</ele>
        <time>2022-09-18T09:21:10.000Z</time>
      </trkpt>
      <trkpt lat="44.39531" lon="2.39108">
        <ele>555.7</ele>
        <time>2022-09-18T09:21:13.000Z</time>
      </trkpt>
      <trkpt lat="44.39526" lon="2.39123">
        <ele>555.2</ele>
        <time>2022-09-18T09:21:15.000Z</time>
      </trkpt>
      <trkpt lat="44.39524" lon="2.39142">
        <ele>552.7</ele>
        <time>2022-09-18T09:21:17.000Z</time>
      </trkpt>
      <trkpt lat="44.39529" lon="2.39163">
        <ele>547.7</ele>
        <time>2022-09-18T09:21:19.000Z</time>
      </trkpt>
      <trkpt lat="44.39536" lon="2.39186">
        <ele>545.1</ele>
        <time>2022-09-18T09:21:21.000Z</time>
      </trkpt>
      <trkpt lat="44.39541" lon="2.39206">
        <ele>540.5</ele>
        <time>2022-09-18T09:21:23.000Z</time>
      </trkpt>
      <trkpt lat="44.39542" lon="2.39226">
        <ele>537.4</ele>
        <time>2022-09-18T09:21:25.000Z</time>
      </trkpt>
      <trkpt lat="44.3954" lon="2.39248">
        <ele>535.6</ele>
        <time>2022-09-18T09:21:27.000Z</time>
      </trkpt>
      <trkpt lat="44.39543" lon="2.39272">
        <ele>532.6</ele>
        <time>2022-09-18T09:21:29.000Z</time>
      </trkpt>
      <trkpt lat="44.39547" lon="2.39292">
        <ele>529.1</ele>
        <time>2022-09-18T09:21:31.000Z</time>
      </trkpt>
      <trkpt lat="44.39561" lon="2.39297">
        <ele>526.6</ele>
        <time>2022-09-18T09:21:34.000Z</time>
      </trkpt>
      <trkpt lat="44.39573" lon="2.39297">
        <ele>524.3</ele>
        <time>2022-09-18T09:21:36.000Z</time>
      </trkpt>
      <trkpt lat="44.39586" lon="2.39295">
        <ele>519</ele>
        <time>2022-09-18T09:21:38.000Z</time>
      </trkpt>
      <trkpt lat="44.39602" lon="2.39297">
        <ele>516</ele>
        <time>2022-09-18T09:21:40.000Z</time>
      </trkpt>
      <trkpt lat="44.39618" lon="2.39298">
        <ele>514.6</ele>
        <time>2022-09-18T09:21:42.000Z</time>
      </trkpt>
      <trkpt lat="44.39634" lon="2.39298">
        <ele>511.1</ele>
        <time>2022-09-18T09:21:44.000Z</time>
      </trkpt>
      <trkpt lat="44.3965" lon="2.39299">
        <ele>508.3</ele>
        <time>2022-09-18T09:21:46.000Z</time>
      </trkpt>
      <trkpt lat="44.39665" lon="2.39301">
        <ele>505.7</ele>
        <time>2022-09-18T09:21:48.000Z</time>
      </trkpt>
      <trkpt lat="44.3968" lon="2.39309">
        <ele>504.7</ele>
        <time>2022-09-18T09:21:50.000Z</time>
      </trkpt>
      <trkpt lat="44.39693" lon="2.39316">
        <ele>502.1</ele>
        <time>2022-09-18T09:21:52.000Z</time>
      </trkpt>
      <trkpt lat="44.39702" lon="2.39325">
        <ele>500.1</ele>
        <time>2022-09-18T09:21:54.000Z</time>
      </trkpt>
      <trkpt lat="44.39711" lon="2.39333">
        <ele>497.4</ele>
        <time>2022-09-18T09:21:56.000Z</time>
      </trkpt>
      <trkpt lat="44.39719" lon="2.39344">
        <ele>495</ele>
        <time>2022-09-18T09:21:58.000Z</time>
      </trkpt>
      <trkpt lat="44.39724" lon="2.39356">
        <ele>492.8</ele>
        <time>2022-09-18T09:22:00.000Z</time>
      </trkpt>
      <trkpt lat="44.39731" lon="2.39367">
        <ele>491.1</ele>
        <time>2022-09-18T09:22:02.000Z</time>
      </trkpt>
      <trkpt lat="44.3974" lon="2.39373">
        <ele>489.1</ele>
        <time>2022-09-18T09:22:04.000Z</time>
      </trkpt>
      <trkpt lat="44.39749" lon="2.39376">
        <ele>488.3</ele>
        <time>2022-09-18T09:22:06.000Z</time>
      </trkpt>
      <trkpt lat="44.39762" lon="2.39379">
        <ele>486.7</ele>
        <time>2022-09-18T09:22:08.000Z</time>
      </trkpt>
      <trkpt lat="44.39773" lon="2.39384">
        <ele>486.7</ele>
        <time>2022-09-18T09:22:10.000Z</time>
      </trkpt>
      <trkpt lat="44.39784" lon="2.39393">
        <ele>487.5</ele>
        <time>2022-09-18T09:22:13.000Z</time>
      </trkpt>
      <trkpt lat="44.39788" lon="2.39404">
        <ele>487.8</ele>
        <time>2022-09-18T09:22:15.000Z</time>
      </trkpt>
      <trkpt lat="44.39792" lon="2.39418">
        <ele>487.7</ele>
        <time>2022-09-18T09:22:17.000Z</time>
      </trkpt>
      <trkpt lat="44.39796" lon="2.39435">
        <ele>482.9</ele>
        <time>2022-09-18T09:22:20.000Z</time>
      </trkpt>
      <trkpt lat="44.39797" lon="2.39448">
        <ele>479.6</ele>
        <time>2022-09-18T09:22:23.000Z</time>
      </trkpt>
      <trkpt lat="44.39802" lon="2.3946">
        <ele>475.1</ele>
        <time>2022-09-18T09:22:30.000Z</time>
      </trkpt>
      <trkpt lat="44.39796" lon="2.3947">
        <ele>472.9</ele>
        <time>2022-09-18T09:22:35.000Z</time>
      </trkpt>
      <trkpt lat="44.398" lon="2.39483">
        <ele>470.3</ele>
        <time>2022-09-18T09:22:41.000Z</time>
      </trkpt>
      <trkpt lat="44.39811" lon="2.39482">
        <ele>465.4</ele>
        <time>2022-09-18T09:22:47.000Z</time>
      </trkpt>
      <trkpt lat="44.39817" lon="2.39492">
        <ele>461.2</ele>
        <time>2022-09-18T09:22:54.000Z</time>
      </trkpt>
      <trkpt lat="44.39822" lon="2.39491">
        <ele>459.7</ele>
        <time>2022-09-18T09:23:08.000Z</time>
      </trkpt>
      <trkpt lat="44.39822" lon="2.39491">
        <ele>459.3</ele>
        <time>2022-09-18T09:23:13.000Z</time>
      </trkpt>
      <trkpt lat="44.39832" lon="2.39493">
        <ele>454.1</ele>
        <time>2022-09-18T09:23:19.000Z</time>
      </trkpt>
      <trkpt lat="44.39833" lon="2.39508">
        <ele>451.5</ele>
        <time>2022-09-18T09:23:23.000Z</time>
      </trkpt>
      <trkpt lat="44.39831" lon="2.3952">
        <ele>450.5</ele>
        <time>2022-09-18T09:23:25.000Z</time>
      </trkpt>
      <trkpt lat="44.39825" lon="2.39536">
        <ele>448</ele>
        <time>2022-09-18T09:23:28.000Z</time>
      </trkpt>
      <trkpt lat="44.39828" lon="2.39553">
        <ele>446.1</ele>
        <time>2022-09-18T09:23:31.000Z</time>
      </trkpt>
      <trkpt lat="44.39835" lon="2.39563">
        <ele>444.6</ele>
        <time>2022-09-18T09:23:34.000Z</time>
      </trkpt>
      <trkpt lat="44.39844" lon="2.39568">
        <ele>442.3</ele>
        <time>2022-09-18T09:23:37.000Z</time>
      </trkpt>
      <trkpt lat="44.39851" lon="2.39577">
        <ele>439.7</ele>
        <time>2022-09-18T09:23:39.000Z</time>
      </trkpt>
      <trkpt lat="44.39863" lon="2.39587">
        <ele>437.5</ele>
        <time>2022-09-18T09:23:42.000Z</time>
      </trkpt>
      <trkpt lat="44.39879" lon="2.39594">
        <ele>433.5</ele>
        <time>2022-09-18T09:23:44.000Z</time>
      </trkpt>
      <trkpt lat="44.39896" lon="2.39601">
        <ele>429.9</ele>
        <time>2022-09-18T09:23:46.000Z</time>
      </trkpt>
      <trkpt lat="44.39909" lon="2.39611">
        <ele>425.6</ele>
        <time>2022-09-18T09:23:48.000Z</time>
      </trkpt>
      <trkpt lat="44.39918" lon="2.39624">
        <ele>423.5</ele>
        <time>2022-09-18T09:23:51.000Z</time>
      </trkpt>
      <trkpt lat="44.39921" lon="2.39636">
        <ele>421.1</ele>
        <time>2022-09-18T09:23:53.000Z</time>
      </trkpt>
      <trkpt lat="44.39921" lon="2.39651">
        <ele>418.1</ele>
        <time>2022-09-18T09:23:56.000Z</time>
      </trkpt>
      <trkpt lat="44.39923" lon="2.39664">
        <ele>414.9</ele>
        <time>2022-09-18T09:24:00.000Z</time>
      </trkpt>
      <trkpt lat="44.39933" lon="2.39666">
        <ele>412.5</ele>
        <time>2022-09-18T09:24:03.000Z</time>
      </trkpt>
      <trkpt lat="44.39943" lon="2.39664">
        <ele>411.7</ele>
        <time>2022-09-18T09:24:05.000Z</time>
      </trkpt>
      <trkpt lat="44.39952" lon="2.3966">
        <ele>411</ele>
        <time>2022-09-18T09:24:07.000Z</time>
      </trkpt>
      <trkpt lat="44.39963" lon="2.39661">
        <ele>410.6</ele>
        <time>2022-09-18T09:24:09.000Z</time>
      </trkpt>
      <trkpt lat="44.39976" lon="2.39662">
        <ele>409.2</ele>
        <time>2022-09-18T09:24:11.000Z</time>
      </trkpt>
      <trkpt lat="44.39987" lon="2.39661">
        <ele>406.7</ele>
        <time>2022-09-18T09:24:13.000Z</time>
      </trkpt>
      <trkpt lat="44.40001" lon="2.39658">
        <ele>405.8</ele>
        <time>2022-09-18T09:24:15.000Z</time>
      </trkpt>
      <trkpt lat="44.40014" lon="2.39656">
        <ele>405.9</ele>
        <time>2022-09-18T09:24:17.000Z</time>
      </trkpt>
      <trkpt lat="44.40023" lon="2.39657">
        <ele>407.1</ele>
        <time>2022-09-18T09:24:23.000Z</time>
      </trkpt>
      <trkpt lat="44.40034" lon="2.39658">
        <ele>408.7</ele>
        <time>2022-09-18T09:24:28.000Z</time>
      </trkpt>
      <trkpt lat="44.40043" lon="2.39661">
        <ele>410.8</ele>
        <time>2022-09-18T09:24:32.000Z</time>
      </trkpt>
      <trkpt lat="44.40054" lon="2.39663">
        <ele>412.7</ele>
        <time>2022-09-18T09:24:36.000Z</time>
      </trkpt>
      <trkpt lat="44.40058" lon="2.39679">
        <ele>413.7</ele>
        <time>2022-09-18T09:24:41.000Z</time>
      </trkpt>
      <trkpt lat="44.40062" lon="2.39691">
        <ele>414</ele>
        <time>2022-09-18T09:24:44.000Z</time>
      </trkpt>
      <trkpt lat="44.40069" lon="2.397">
        <ele>414</ele>
        <time>2022-09-18T09:24:47.000Z</time>
      </trkpt>
      <trkpt lat="44.40075" lon="2.3971">
        <ele>413.3</ele>
        <time>2022-09-18T09:24:50.000Z</time>
      </trkpt>
      <trkpt lat="44.40083" lon="2.39719">
        <ele>412.2</ele>
        <time>2022-09-18T09:24:53.000Z</time>
      </trkpt>
      <trkpt lat="44.40088" lon="2.39733">
        <ele>411.5</ele>
        <time>2022-09-18T09:24:57.000Z</time>
      </trkpt>
      <trkpt lat="44.40093" lon="2.39747">
        <ele>410.8</ele>
        <time>2022-09-18T09:25:01.000Z</time>
      </trkpt>
      <trkpt lat="44.40098" lon="2.39759">
        <ele>409.8</ele>
        <time>2022-09-18T09:25:04.000Z</time>
      </trkpt>
      <trkpt lat="44.40108" lon="2.39772">
        <ele>408.8</ele>
        <time>2022-09-18T09:25:07.000Z</time>
      </trkpt>
      <trkpt lat="44.40117" lon="2.39785">
        <ele>407.4</ele>
        <time>2022-09-18T09:25:10.000Z</time>
      </trkpt>
      <trkpt lat="44.40126" lon="2.39792">
        <ele>406.9</ele>
        <time>2022-09-18T09:25:13.000Z</time>
      </trkpt>
      <trkpt lat="44.40136" lon="2.39797">
        <ele>406.6</ele>
        <time>2022-09-18T09:25:16.000Z</time>
      </trkpt>
      <trkpt lat="44.40144" lon="2.39803">
        <ele>406.3</ele>
        <time>2022-09-18T09:25:19.000Z</time>
      </trkpt>
      <trkpt lat="44.40151" lon="2.39812">
        <ele>406.4</ele>
        <time>2022-09-18T09:25:22.000Z</time>
      </trkpt>
      <trkpt lat="44.40157" lon="2.39822">
        <ele>406.7</ele>
        <time>2022-09-18T09:25:25.000Z</time>
      </trkpt>
      <trkpt lat="44.40166" lon="2.39832">
        <ele>407.2</ele>
        <time>2022-09-18T09:25:28.000Z</time>
      </trkpt>
      <trkpt lat="44.40176" lon="2.39845">
        <ele>406.7</ele>
        <time>2022-09-18T09:25:31.000Z</time>
      </trkpt>
      <trkpt lat="44.40185" lon="2.39855">
        <ele>407</ele>
        <time>2022-09-18T09:25:33.000Z</time>
      </trkpt>
      <trkpt lat="44.40192" lon="2.39863">
        <ele>406.4</ele>
        <time>2022-09-18T09:25:35.000Z</time>
      </trkpt>
      <trkpt lat="44.40202" lon="2.39873">
        <ele>405.6</ele>
        <time>2022-09-18T09:25:38.000Z</time>
      </trkpt>
      <trkpt lat="44.40212" lon="2.39878">
        <ele>405.9</ele>
        <time>2022-09-18T09:25:41.000Z</time>
      </trkpt>
      <trkpt lat="44.40221" lon="2.39876">
        <ele>405.8</ele>
        <time>2022-09-18T09:25:44.000Z</time>
      </trkpt>
      <trkpt lat="44.40232" lon="2.39871">
        <ele>407.3</ele>
        <time>2022-09-18T09:25:48.000Z</time>
      </trkpt>
      <trkpt lat="44.40241" lon="2.39868">
        <ele>407.5</ele>
        <time>2022-09-18T09:25:51.000Z</time>
      </trkpt>
      <trkpt lat="44.4025" lon="2.39868">
        <ele>409.1</ele>
        <time>2022-09-18T09:25:54.000Z</time>
      </trkpt>
      <trkpt lat="44.40261" lon="2.39869">
        <ele>408.1</ele>
        <time>2022-09-18T09:25:57.000Z</time>
      </trkpt>
      <trkpt lat="44.4027" lon="2.39873">
        <ele>405.9</ele>
        <time>2022-09-18T09:26:01.000Z</time>
      </trkpt>
      <trkpt lat="44.40277" lon="2.3988">
        <ele>404.9</ele>
        <time>2022-09-18T09:26:07.000Z</time>
      </trkpt>
      <trkpt lat="44.40277" lon="2.3988">
        <ele>404.6</ele>
        <time>2022-09-18T09:26:10.000Z</time>
      </trkpt>
      <trkpt lat="44.40277" lon="2.3988">
        <ele>404.9</ele>
        <time>2022-09-18T09:26:12.000Z</time>
      </trkpt>
      <trkpt lat="44.40278" lon="2.3988">
        <ele>404.8</ele>
        <time>2022-09-18T09:26:15.000Z</time>
      </trkpt>
      <trkpt lat="44.40278" lon="2.3988">
        <ele>404.8</ele>
        <time>2022-09-18T09:26:21.000Z</time>
      </trkpt>
      <trkpt lat="44.40288" lon="2.39884">
        <ele>403.4</ele>
        <time>2022-09-18T09:26:28.000Z</time>
      </trkpt>
      <trkpt lat="44.40289" lon="2.39885">
        <ele>403.1</ele>
        <time>2022-09-18T09:26:30.000Z</time>
      </trkpt>
      <trkpt lat="44.40289" lon="2.39885">
        <ele>402.9</ele>
        <time>2022-09-18T09:26:33.000Z</time>
      </trkpt>
      <trkpt lat="44.40291" lon="2.39885">
        <ele>402.7</ele>
        <time>2022-09-18T09:26:39.000Z</time>
      </trkpt>
      <trkpt lat="44.40291" lon="2.39885">
        <ele>402.7</ele>
        <time>2022-09-18T09:26:40.000Z</time>
      </trkpt>
      <trkpt lat="44.40301" lon="2.39882">
        <ele>401.3</ele>
        <time>2022-09-18T09:26:53.000Z</time>
      </trkpt>
      <trkpt lat="44.40309" lon="2.3988">
        <ele>399.3</ele>
        <time>2022-09-18T09:27:00.000Z</time>
      </trkpt>
      <trkpt lat="44.40309" lon="2.3988">
        <ele>399.4</ele>
        <time>2022-09-18T09:27:02.000Z</time>
      </trkpt>
      <trkpt lat="44.40309" lon="2.3988">
        <ele>399</ele>
        <time>2022-09-18T09:27:14.000Z</time>
      </trkpt>
      <trkpt lat="44.40318" lon="2.39882">
        <ele>398.2</ele>
        <time>2022-09-18T09:27:19.000Z</time>
      </trkpt>
      <trkpt lat="44.40322" lon="2.39883">
        <ele>398.1</ele>
        <time>2022-09-18T09:27:25.000Z</time>
      </trkpt>
      <trkpt lat="44.40322" lon="2.39883">
        <ele>398.1</ele>
        <time>2022-09-18T09:27:26.000Z</time>
      </trkpt>
      <trkpt lat="44.40323" lon="2.39883">
        <ele>398.5</ele>
        <time>2022-09-18T09:27:30.000Z</time>
      </trkpt>
      <trkpt lat="44.40323" lon="2.39883">
        <ele>398.4</ele>
        <time>2022-09-18T09:27:32.000Z</time>
      </trkpt>
      <trkpt lat="44.40326" lon="2.39889">
        <ele>399.2</ele>
        <time>2022-09-18T09:27:45.000Z</time>
      </trkpt>
      <trkpt lat="44.40326" lon="2.39889">
        <ele>399.3</ele>
        <time>2022-09-18T09:27:53.000Z</time>
      </trkpt>
      <trkpt lat="44.40324" lon="2.39902">
        <ele>398.7</ele>
        <time>2022-09-18T09:27:59.000Z</time>
      </trkpt>
      <trkpt lat="44.40321" lon="2.39916">
        <ele>398.5</ele>
        <time>2022-09-18T09:28:03.000Z</time>
      </trkpt>
      <trkpt lat="44.40324" lon="2.39929">
        <ele>398.4</ele>
        <time>2022-09-18T09:28:07.000Z</time>
      </trkpt>
      <trkpt lat="44.40322" lon="2.39944">
        <ele>398.4</ele>
        <time>2022-09-18T09:28:11.000Z</time>
      </trkpt>
      <trkpt lat="44.40321" lon="2.39962">
        <ele>397.3</ele>
        <time>2022-09-18T09:28:14.000Z</time>
      </trkpt>
      <trkpt lat="44.4032" lon="2.39975">
        <ele>397.1</ele>
        <time>2022-09-18T09:28:16.000Z</time>
      </trkpt>
      <trkpt lat="44.40318" lon="2.39993">
        <ele>396.9</ele>
        <time>2022-09-18T09:28:19.000Z</time>
      </trkpt>
      <trkpt lat="44.40318" lon="2.4001">
        <ele>396.5</ele>
        <time>2022-09-18T09:28:22.000Z</time>
      </trkpt>
      <trkpt lat="44.40323" lon="2.40025">
        <ele>396.8</ele>
        <time>2022-09-18T09:28:25.000Z</time>
      </trkpt>
      <trkpt lat="44.40325" lon="2.40039">
        <ele>396.8</ele>
        <time>2022-09-18T09:28:28.000Z</time>
      </trkpt>
      <trkpt lat="44.40326" lon="2.40054">
        <ele>396.9</ele>
        <time>2022-09-18T09:28:31.000Z</time>
      </trkpt>
      <trkpt lat="44.40328" lon="2.4007">
        <ele>397.2</ele>
        <time>2022-09-18T09:28:34.000Z</time>
      </trkpt>
      <trkpt lat="44.40331" lon="2.40087">
        <ele>397.1</ele>
        <time>2022-09-18T09:28:37.000Z</time>
      </trkpt>
      <trkpt lat="44.40333" lon="2.401">
        <ele>397.9</ele>
        <time>2022-09-18T09:28:39.000Z</time>
      </trkpt>
      <trkpt lat="44.40334" lon="2.40114">
        <ele>397.5</ele>
        <time>2022-09-18T09:28:41.000Z</time>
      </trkpt>
      <trkpt lat="44.40335" lon="2.40127">
        <ele>398.1</ele>
        <time>2022-09-18T09:28:43.000Z</time>
      </trkpt>
      <trkpt lat="44.40338" lon="2.40144">
        <ele>399.1</ele>
        <time>2022-09-18T09:28:46.000Z</time>
      </trkpt>
      <trkpt lat="44.40344" lon="2.40159">
        <ele>399.1</ele>
        <time>2022-09-18T09:28:49.000Z</time>
      </trkpt>
      <trkpt lat="44.40351" lon="2.40173">
        <ele>399.8</ele>
        <time>2022-09-18T09:28:52.000Z</time>
      </trkpt>
      <trkpt lat="44.40359" lon="2.40184">
        <ele>400.3</ele>
        <time>2022-09-18T09:28:55.000Z</time>
      </trkpt>
      <trkpt lat="44.40367" lon="2.40195">
        <ele>401.7</ele>
        <time>2022-09-18T09:28:58.000Z</time>
      </trkpt>
      <trkpt lat="44.40374" lon="2.40204">
        <ele>402.4</ele>
        <time>2022-09-18T09:29:01.000Z</time>
      </trkpt>
      <trkpt lat="44.40381" lon="2.40214">
        <ele>403.6</ele>
        <time>2022-09-18T09:29:04.000Z</time>
      </trkpt>
      <trkpt lat="44.40388" lon="2.40224">
        <ele>403.9</ele>
        <time>2022-09-18T09:29:07.000Z</time>
      </trkpt>
      <trkpt lat="44.40395" lon="2.40233">
        <ele>405</ele>
        <time>2022-09-18T09:29:10.000Z</time>
      </trkpt>
      <trkpt lat="44.40398" lon="2.40248">
        <ele>407</ele>
        <time>2022-09-18T09:29:14.000Z</time>
      </trkpt>
      <trkpt lat="44.40401" lon="2.40263">
        <ele>408.4</ele>
        <time>2022-09-18T09:29:18.000Z</time>
      </trkpt>
      <trkpt lat="44.40406" lon="2.40275">
        <ele>409.4</ele>
        <time>2022-09-18T09:29:22.000Z</time>
      </trkpt>
      <trkpt lat="44.40414" lon="2.40289">
        <ele>410.6</ele>
        <time>2022-09-18T09:29:26.000Z</time>
      </trkpt>
      <trkpt lat="44.40421" lon="2.403">
        <ele>412.4</ele>
        <time>2022-09-18T09:29:30.000Z</time>
      </trkpt>
      <trkpt lat="44.40427" lon="2.40312">
        <ele>413.3</ele>
        <time>2022-09-18T09:29:34.000Z</time>
      </trkpt>
      <trkpt lat="44.40434" lon="2.40323">
        <ele>414.3</ele>
        <time>2022-09-18T09:29:39.000Z</time>
      </trkpt>
      <trkpt lat="44.40441" lon="2.40335">
        <ele>416.3</ele>
        <time>2022-09-18T09:29:45.000Z</time>
      </trkpt>
      <trkpt lat="44.40449" lon="2.40347">
        <ele>417.6</ele>
        <time>2022-09-18T09:29:49.000Z</time>
      </trkpt>
      <trkpt lat="44.40454" lon="2.4036">
        <ele>419.5</ele>
        <time>2022-09-18T09:29:53.000Z</time>
      </trkpt>
      <trkpt lat="44.40463" lon="2.40369">
        <ele>421</ele>
        <time>2022-09-18T09:29:57.000Z</time>
      </trkpt>
      <trkpt lat="44.40474" lon="2.40365">
        <ele>421.4</ele>
        <time>2022-09-18T09:30:01.000Z</time>
      </trkpt>
      <trkpt lat="44.40483" lon="2.40355">
        <ele>422.9</ele>
        <time>2022-09-18T09:30:05.000Z</time>
      </trkpt>
      <trkpt lat="44.40491" lon="2.40347">
        <ele>423</ele>
        <time>2022-09-18T09:30:08.000Z</time>
      </trkpt>
      <trkpt lat="44.40499" lon="2.40341">
        <ele>423.4</ele>
        <time>2022-09-18T09:30:11.000Z</time>
      </trkpt>
      <trkpt lat="44.4051" lon="2.40339">
        <ele>424.7</ele>
        <time>2022-09-18T09:30:15.000Z</time>
      </trkpt>
      <trkpt lat="44.4052" lon="2.40346">
        <ele>426.4</ele>
        <time>2022-09-18T09:30:19.000Z</time>
      </trkpt>
      <trkpt lat="44.40529" lon="2.40353">
        <ele>427.6</ele>
        <time>2022-09-18T09:30:23.000Z</time>
      </trkpt>
      <trkpt lat="44.40539" lon="2.40358">
        <ele>428.8</ele>
        <time>2022-09-18T09:30:27.000Z</time>
      </trkpt>
      <trkpt lat="44.40549" lon="2.4036">
        <ele>430.3</ele>
        <time>2022-09-18T09:30:31.000Z</time>
      </trkpt>
      <trkpt lat="44.4056" lon="2.40359">
        <ele>431</ele>
        <time>2022-09-18T09:30:35.000Z</time>
      </trkpt>
      <trkpt lat="44.4057" lon="2.40364">
        <ele>431.9</ele>
        <time>2022-09-18T09:30:39.000Z</time>
      </trkpt>
      <trkpt lat="44.40578" lon="2.40377">
        <ele>432.7</ele>
        <time>2022-09-18T09:30:43.000Z</time>
      </trkpt>
      <trkpt lat="44.40586" lon="2.40382">
        <ele>433.9</ele>
        <time>2022-09-18T09:30:47.000Z</time>
      </trkpt>
      <trkpt lat="44.40597" lon="2.40377">
        <ele>436.2</ele>
        <time>2022-09-18T09:30:54.000Z</time>
      </trkpt>
      <trkpt lat="44.40606" lon="2.4037">
        <ele>437</ele>
        <time>2022-09-18T09:30:57.000Z</time>
      </trkpt>
      <trkpt lat="44.40615" lon="2.40365">
        <ele>438.1</ele>
        <time>2022-09-18T09:31:00.000Z</time>
      </trkpt>
      <trkpt lat="44.40626" lon="2.40363">
        <ele>438.9</ele>
        <time>2022-09-18T09:31:04.000Z</time>
      </trkpt>
      <trkpt lat="44.40635" lon="2.40363">
        <ele>440.1</ele>
        <time>2022-09-18T09:31:07.000Z</time>
      </trkpt>
      <trkpt lat="44.40646" lon="2.40359">
        <ele>441.7</ele>
        <time>2022-09-18T09:31:11.000Z</time>
      </trkpt>
      <trkpt lat="44.40655" lon="2.40348">
        <ele>442.9</ele>
        <time>2022-09-18T09:31:15.000Z</time>
      </trkpt>
      <trkpt lat="44.40661" lon="2.40336">
        <ele>444.7</ele>
        <time>2022-09-18T09:31:19.000Z</time>
      </trkpt>
      <trkpt lat="44.40667" lon="2.40324">
        <ele>446.7</ele>
        <time>2022-09-18T09:31:23.000Z</time>
      </trkpt>
      <trkpt lat="44.40673" lon="2.40314">
        <ele>447.9</ele>
        <time>2022-09-18T09:31:27.000Z</time>
      </trkpt>
      <trkpt lat="44.40677" lon="2.40303">
        <ele>448.9</ele>
        <time>2022-09-18T09:31:31.000Z</time>
      </trkpt>
      <trkpt lat="44.40684" lon="2.40291">
        <ele>449.9</ele>
        <time>2022-09-18T09:31:36.000Z</time>
      </trkpt>
      <trkpt lat="44.40692" lon="2.40298">
        <ele>449.8</ele>
        <time>2022-09-18T09:31:40.000Z</time>
      </trkpt>
      <trkpt lat="44.40698" lon="2.40309">
        <ele>451.1</ele>
        <time>2022-09-18T09:31:45.000Z</time>
      </trkpt>
      <trkpt lat="44.40702" lon="2.4032">
        <ele>450.4</ele>
        <time>2022-09-18T09:31:48.000Z</time>
      </trkpt>
      <trkpt lat="44.40708" lon="2.40338">
        <ele>450.1</ele>
        <time>2022-09-18T09:31:51.000Z</time>
      </trkpt>
      <trkpt lat="44.4071" lon="2.40354">
        <ele>449.9</ele>
        <time>2022-09-18T09:31:54.000Z</time>
      </trkpt>
      <trkpt lat="44.40713" lon="2.40369">
        <ele>449.6</ele>
        <time>2022-09-18T09:31:57.000Z</time>
      </trkpt>
      <trkpt lat="44.40712" lon="2.40388">
        <ele>449.4</ele>
        <time>2022-09-18T09:32:00.000Z</time>
      </trkpt>
      <trkpt lat="44.40712" lon="2.40403">
        <ele>448.9</ele>
        <time>2022-09-18T09:32:02.000Z</time>
      </trkpt>
      <trkpt lat="44.40712" lon="2.40419">
        <ele>448</ele>
        <time>2022-09-18T09:32:04.000Z</time>
      </trkpt>
      <trkpt lat="44.40713" lon="2.40432">
        <ele>448.6</ele>
        <time>2022-09-18T09:32:06.000Z</time>
      </trkpt>
      <trkpt lat="44.40714" lon="2.40446">
        <ele>448.4</ele>
        <time>2022-09-18T09:32:08.000Z</time>
      </trkpt>
      <trkpt lat="44.40713" lon="2.40465">
        <ele>447.8</ele>
        <time>2022-09-18T09:32:11.000Z</time>
      </trkpt>
      <trkpt lat="44.40713" lon="2.40483">
        <ele>448.4</ele>
        <time>2022-09-18T09:32:14.000Z</time>
      </trkpt>
      <trkpt lat="44.40712" lon="2.40498">
        <ele>449.4</ele>
        <time>2022-09-18T09:32:17.000Z</time>
      </trkpt>
      <trkpt lat="44.40715" lon="2.40514">
        <ele>450.8</ele>
        <time>2022-09-18T09:32:20.000Z</time>
      </trkpt>
      <trkpt lat="44.40719" lon="2.40527">
        <ele>450.1</ele>
        <time>2022-09-18T09:32:22.000Z</time>
      </trkpt>
      <trkpt lat="44.40726" lon="2.40538">
        <ele>450</ele>
        <time>2022-09-18T09:32:24.000Z</time>
      </trkpt>
      <trkpt lat="44.40737" lon="2.40547">
        <ele>450.5</ele>
        <time>2022-09-18T09:32:27.000Z</time>
      </trkpt>
      <trkpt lat="44.40741" lon="2.40562">
        <ele>451.9</ele>
        <time>2022-09-18T09:32:31.000Z</time>
      </trkpt>
      <trkpt lat="44.40736" lon="2.40576">
        <ele>450.8</ele>
        <time>2022-09-18T09:32:34.000Z</time>
      </trkpt>
      <trkpt lat="44.40728" lon="2.40588">
        <ele>450.8</ele>
        <time>2022-09-18T09:32:37.000Z</time>
      </trkpt>
      <trkpt lat="44.4072" lon="2.406">
        <ele>451.3</ele>
        <time>2022-09-18T09:32:40.000Z</time>
      </trkpt>
      <trkpt lat="44.40716" lon="2.40612">
        <ele>451.6</ele>
        <time>2022-09-18T09:32:43.000Z</time>
      </trkpt>
      <trkpt lat="44.40712" lon="2.40628">
        <ele>452.2</ele>
        <time>2022-09-18T09:32:47.000Z</time>
      </trkpt>
      <trkpt lat="44.40706" lon="2.40642">
        <ele>451.5</ele>
        <time>2022-09-18T09:32:50.000Z</time>
      </trkpt>
      <trkpt lat="44.40701" lon="2.40654">
        <ele>450.3</ele>
        <time>2022-09-18T09:32:52.000Z</time>
      </trkpt>
      <trkpt lat="44.40695" lon="2.40666">
        <ele>449.8</ele>
        <time>2022-09-18T09:32:54.000Z</time>
      </trkpt>
      <trkpt lat="44.40691" lon="2.40678">
        <ele>449.2</ele>
        <time>2022-09-18T09:32:56.000Z</time>
      </trkpt>
      <trkpt lat="44.40685" lon="2.40692">
        <ele>448.9</ele>
        <time>2022-09-18T09:32:58.000Z</time>
      </trkpt>
      <trkpt lat="44.40678" lon="2.40707">
        <ele>448.2</ele>
        <time>2022-09-18T09:33:00.000Z</time>
      </trkpt>
      <trkpt lat="44.40672" lon="2.40722">
        <ele>446.8</ele>
        <time>2022-09-18T09:33:02.000Z</time>
      </trkpt>
      <trkpt lat="44.40669" lon="2.40734">
        <ele>446.7</ele>
        <time>2022-09-18T09:33:04.000Z</time>
      </trkpt>
      <trkpt lat="44.40671" lon="2.40746">
        <ele>445.3</ele>
        <time>2022-09-18T09:33:06.000Z</time>
      </trkpt>
      <trkpt lat="44.40677" lon="2.4076">
        <ele>440.8</ele>
        <time>2022-09-18T09:33:08.000Z</time>
      </trkpt>
      <trkpt lat="44.40683" lon="2.40775">
        <ele>438.5</ele>
        <time>2022-09-18T09:33:10.000Z</time>
      </trkpt>
      <trkpt lat="44.40693" lon="2.40792">
        <ele>436.5</ele>
        <time>2022-09-18T09:33:12.000Z</time>
      </trkpt>
      <trkpt lat="44.40702" lon="2.40812">
        <ele>432.8</ele>
        <time>2022-09-18T09:33:14.000Z</time>
      </trkpt>
      <trkpt lat="44.40709" lon="2.40831">
        <ele>429.3</ele>
        <time>2022-09-18T09:33:16.000Z</time>
      </trkpt>
      <trkpt lat="44.4071" lon="2.40848">
        <ele>428.6</ele>
        <time>2022-09-18T09:33:18.000Z</time>
      </trkpt>
      <trkpt lat="44.40708" lon="2.40866">
        <ele>427.1</ele>
        <time>2022-09-18T09:33:20.000Z</time>
      </trkpt>
      <trkpt lat="44.40704" lon="2.40886">
        <ele>424.7</ele>
        <time>2022-09-18T09:33:22.000Z</time>
      </trkpt>
      <trkpt lat="44.40698" lon="2.40907">
        <ele>421.5</ele>
        <time>2022-09-18T09:33:24.000Z</time>
      </trkpt>
      <trkpt lat="44.40693" lon="2.40925">
        <ele>419.2</ele>
        <time>2022-09-18T09:33:26.000Z</time>
      </trkpt>
      <trkpt lat="44.40689" lon="2.4094">
        <ele>415.7</ele>
        <time>2022-09-18T09:33:28.000Z</time>
      </trkpt>
      <trkpt lat="44.40687" lon="2.40959">
        <ele>413</ele>
        <time>2022-09-18T09:33:30.000Z</time>
      </trkpt>
      <trkpt lat="44.40684" lon="2.4098">
        <ele>410</ele>
        <time>2022-09-18T09:33:32.000Z</time>
      </trkpt>
      <trkpt lat="44.4068" lon="2.41003">
        <ele>406.1</ele>
        <time>2022-09-18T09:33:34.000Z</time>
      </trkpt>
      <trkpt lat="44.40676" lon="2.41023">
        <ele>403.5</ele>
        <time>2022-09-18T09:33:36.000Z</time>
      </trkpt>
      <trkpt lat="44.40671" lon="2.41038">
        <ele>400.1</ele>
        <time>2022-09-18T09:33:38.000Z</time>
      </trkpt>
      <trkpt lat="44.40666" lon="2.41055">
        <ele>397.2</ele>
        <time>2022-09-18T09:33:40.000Z</time>
      </trkpt>
      <trkpt lat="44.40661" lon="2.41074">
        <ele>392.4</ele>
        <time>2022-09-18T09:33:42.000Z</time>
      </trkpt>
      <trkpt lat="44.40654" lon="2.41093">
        <ele>388.8</ele>
        <time>2022-09-18T09:33:44.000Z</time>
      </trkpt>
      <trkpt lat="44.40647" lon="2.41103">
        <ele>387.9</ele>
        <time>2022-09-18T09:33:46.000Z</time>
      </trkpt>
      <trkpt lat="44.40634" lon="2.41106">
        <ele>386.1</ele>
        <time>2022-09-18T09:33:49.000Z</time>
      </trkpt>
      <trkpt lat="44.40625" lon="2.41099">
        <ele>385.1</ele>
        <time>2022-09-18T09:33:51.000Z</time>
      </trkpt>
      <trkpt lat="44.40618" lon="2.41087">
        <ele>383.6</ele>
        <time>2022-09-18T09:33:53.000Z</time>
      </trkpt>
      <trkpt lat="44.40614" lon="2.41071">
        <ele>381.7</ele>
        <time>2022-09-18T09:33:55.000Z</time>
      </trkpt>
      <trkpt lat="44.40615" lon="2.41051">
        <ele>379.4</ele>
        <time>2022-09-18T09:33:57.000Z</time>
      </trkpt>
      <trkpt lat="44.40618" lon="2.41032">
        <ele>376.6</ele>
        <time>2022-09-18T09:33:59.000Z</time>
      </trkpt>
      <trkpt lat="44.40619" lon="2.41017">
        <ele>375.2</ele>
        <time>2022-09-18T09:34:01.000Z</time>
      </trkpt>
      <trkpt lat="44.40605" lon="2.41011">
        <ele>373.8</ele>
        <time>2022-09-18T09:34:04.000Z</time>
      </trkpt>
      <trkpt lat="44.40592" lon="2.41009">
        <ele>371.3</ele>
        <time>2022-09-18T09:34:06.000Z</time>
      </trkpt>
      <trkpt lat="44.4058" lon="2.41007">
        <ele>369.1</ele>
        <time>2022-09-18T09:34:08.000Z</time>
      </trkpt>
      <trkpt lat="44.40571" lon="2.41007">
        <ele>367.8</ele>
        <time>2022-09-18T09:34:10.000Z</time>
      </trkpt>
      <trkpt lat="44.40567" lon="2.41024">
        <ele>366.8</ele>
        <time>2022-09-18T09:34:13.000Z</time>
      </trkpt>
      <trkpt lat="44.40568" lon="2.41039">
        <ele>366.3</ele>
        <time>2022-09-18T09:34:15.000Z</time>
      </trkpt>
      <trkpt lat="44.4057" lon="2.41053">
        <ele>365.8</ele>
        <time>2022-09-18T09:34:17.000Z</time>
      </trkpt>
      <trkpt lat="44.4057" lon="2.41069">
        <ele>365.8</ele>
        <time>2022-09-18T09:34:19.000Z</time>
      </trkpt>
      <trkpt lat="44.40568" lon="2.41083">
        <ele>365.7</ele>
        <time>2022-09-18T09:34:21.000Z</time>
      </trkpt>
      <trkpt lat="44.40563" lon="2.41095">
        <ele>365.8</ele>
        <time>2022-09-18T09:34:23.000Z</time>
      </trkpt>
      <trkpt lat="44.40557" lon="2.41105">
        <ele>366.2</ele>
        <time>2022-09-18T09:34:25.000Z</time>
      </trkpt>
      <trkpt lat="44.40549" lon="2.41112">
        <ele>366.7</ele>
        <time>2022-09-18T09:34:27.000Z</time>
      </trkpt>
      <trkpt lat="44.40542" lon="2.4112">
        <ele>366.3</ele>
        <time>2022-09-18T09:34:29.000Z</time>
      </trkpt>
      <trkpt lat="44.40531" lon="2.41131">
        <ele>365.9</ele>
        <time>2022-09-18T09:34:32.000Z</time>
      </trkpt>
      <trkpt lat="44.40521" lon="2.4114">
        <ele>365.7</ele>
        <time>2022-09-18T09:34:35.000Z</time>
      </trkpt>
      <trkpt lat="44.40511" lon="2.41152">
        <ele>366</ele>
        <time>2022-09-18T09:34:38.000Z</time>
      </trkpt>
      <trkpt lat="44.40503" lon="2.4116">
        <ele>365.9</ele>
        <time>2022-09-18T09:34:40.000Z</time>
      </trkpt>
      <trkpt lat="44.40493" lon="2.41171">
        <ele>365.8</ele>
        <time>2022-09-18T09:34:43.000Z</time>
      </trkpt>
      <trkpt lat="44.40483" lon="2.41181">
        <ele>365.6</ele>
        <time>2022-09-18T09:34:46.000Z</time>
      </trkpt>
      <trkpt lat="44.40473" lon="2.41192">
        <ele>365.8</ele>
        <time>2022-09-18T09:34:49.000Z</time>
      </trkpt>
      <trkpt lat="44.40464" lon="2.412">
        <ele>365.9</ele>
        <time>2022-09-18T09:34:51.000Z</time>
      </trkpt>
      <trkpt lat="44.40456" lon="2.41209">
        <ele>366.1</ele>
        <time>2022-09-18T09:34:53.000Z</time>
      </trkpt>
      <trkpt lat="44.40449" lon="2.41219">
        <ele>366.1</ele>
        <time>2022-09-18T09:34:55.000Z</time>
      </trkpt>
      <trkpt lat="44.40443" lon="2.41231">
        <ele>366.4</ele>
        <time>2022-09-18T09:34:57.000Z</time>
      </trkpt>
      <trkpt lat="44.40438" lon="2.41244">
        <ele>366.3</ele>
        <time>2022-09-18T09:34:59.000Z</time>
      </trkpt>
      <trkpt lat="44.40434" lon="2.41258">
        <ele>366.2</ele>
        <time>2022-09-18T09:35:01.000Z</time>
      </trkpt>
      <trkpt lat="44.40431" lon="2.41272">
        <ele>366.2</ele>
        <time>2022-09-18T09:35:03.000Z</time>
      </trkpt>
      <trkpt lat="44.40429" lon="2.41287">
        <ele>366.3</ele>
        <time>2022-09-18T09:35:05.000Z</time>
      </trkpt>
      <trkpt lat="44.40427" lon="2.41302">
        <ele>366</ele>
        <time>2022-09-18T09:35:07.000Z</time>
      </trkpt>
      <trkpt lat="44.40424" lon="2.41317">
        <ele>366</ele>
        <time>2022-09-18T09:35:09.000Z</time>
      </trkpt>
      <trkpt lat="44.40421" lon="2.41332">
        <ele>365.7</ele>
        <time>2022-09-18T09:35:11.000Z</time>
      </trkpt>
      <trkpt lat="44.40419" lon="2.41346">
        <ele>366.3</ele>
        <time>2022-09-18T09:35:13.000Z</time>
      </trkpt>
      <trkpt lat="44.40417" lon="2.41361">
        <ele>366.5</ele>
        <time>2022-09-18T09:35:15.000Z</time>
      </trkpt>
      <trkpt lat="44.40416" lon="2.41376">
        <ele>366.1</ele>
        <time>2022-09-18T09:35:17.000Z</time>
      </trkpt>
      <trkpt lat="44.40416" lon="2.41392">
        <ele>366.2</ele>
        <time>2022-09-18T09:35:19.000Z</time>
      </trkpt>
      <trkpt lat="44.40416" lon="2.41407">
        <ele>366.2</ele>
        <time>2022-09-18T09:35:21.000Z</time>
      </trkpt>
      <trkpt lat="44.40416" lon="2.41423">
        <ele>365.8</ele>
        <time>2022-09-18T09:35:23.000Z</time>
      </trkpt>
      <trkpt lat="44.40418" lon="2.41438">
        <ele>365.9</ele>
        <time>2022-09-18T09:35:25.000Z</time>
      </trkpt>
      <trkpt lat="44.4042" lon="2.41453">
        <ele>365.7</ele>
        <time>2022-09-18T09:35:27.000Z</time>
      </trkpt>
      <trkpt lat="44.40422" lon="2.41468">
        <ele>365.7</ele>
        <time>2022-09-18T09:35:29.000Z</time>
      </trkpt>
      <trkpt lat="44.40426" lon="2.41481">
        <ele>365.7</ele>
        <time>2022-09-18T09:35:31.000Z</time>
      </trkpt>
      <trkpt lat="44.40429" lon="2.41495">
        <ele>365.2</ele>
        <time>2022-09-18T09:35:33.000Z</time>
      </trkpt>
      <trkpt lat="44.40434" lon="2.41508">
        <ele>365</ele>
        <time>2022-09-18T09:35:35.000Z</time>
      </trkpt>
      <trkpt lat="44.4044" lon="2.41521">
        <ele>364.9</ele>
        <time>2022-09-18T09:35:37.000Z</time>
      </trkpt>
      <trkpt lat="44.40448" lon="2.41533">
        <ele>364.1</ele>
        <time>2022-09-18T09:35:39.000Z</time>
      </trkpt>
      <trkpt lat="44.40456" lon="2.41544">
        <ele>363.4</ele>
        <time>2022-09-18T09:35:41.000Z</time>
      </trkpt>
      <trkpt lat="44.40463" lon="2.41556">
        <ele>363.3</ele>
        <time>2022-09-18T09:35:43.000Z</time>
      </trkpt>
      <trkpt lat="44.40471" lon="2.41569">
        <ele>362.8</ele>
        <time>2022-09-18T09:35:45.000Z</time>
      </trkpt>
      <trkpt lat="44.40477" lon="2.41583">
        <ele>362.5</ele>
        <time>2022-09-18T09:35:47.000Z</time>
      </trkpt>
      <trkpt lat="44.40483" lon="2.41598">
        <ele>362.7</ele>
        <time>2022-09-18T09:35:49.000Z</time>
      </trkpt>
      <trkpt lat="44.40489" lon="2.41614">
        <ele>362.5</ele>
        <time>2022-09-18T09:35:51.000Z</time>
      </trkpt>
      <trkpt lat="44.40495" lon="2.4163">
        <ele>361.5</ele>
        <time>2022-09-18T09:35:53.000Z</time>
      </trkpt>
      <trkpt lat="44.40501" lon="2.41646">
        <ele>361.1</ele>
        <time>2022-09-18T09:35:55.000Z</time>
      </trkpt>
      <trkpt lat="44.40508" lon="2.41661">
        <ele>361.2</ele>
        <time>2022-09-18T09:35:57.000Z</time>
      </trkpt>
      <trkpt lat="44.40516" lon="2.41675">
        <ele>360.1</ele>
        <time>2022-09-18T09:35:59.000Z</time>
      </trkpt>
      <trkpt lat="44.40524" lon="2.4169">
        <ele>359.3</ele>
        <time>2022-09-18T09:36:01.000Z</time>
      </trkpt>
      <trkpt lat="44.40532" lon="2.41706">
        <ele>358.6</ele>
        <time>2022-09-18T09:36:03.000Z</time>
      </trkpt>
      <trkpt lat="44.40537" lon="2.41725">
        <ele>357.8</ele>
        <time>2022-09-18T09:36:05.000Z</time>
      </trkpt>
      <trkpt lat="44.40537" lon="2.41745">
        <ele>357.1</ele>
        <time>2022-09-18T09:36:07.000Z</time>
      </trkpt>
      <trkpt lat="44.40536" lon="2.41766">
        <ele>357.1</ele>
        <time>2022-09-18T09:36:09.000Z</time>
      </trkpt>
      <trkpt lat="44.40537" lon="2.41785">
        <ele>356.1</ele>
        <time>2022-09-18T09:36:11.000Z</time>
      </trkpt>
      <trkpt lat="44.4054" lon="2.418">
        <ele>354.7</ele>
        <time>2022-09-18T09:36:14.000Z</time>
      </trkpt>
      <trkpt lat="44.40543" lon="2.41813">
        <ele>353.9</ele>
        <time>2022-09-18T09:36:22.000Z</time>
      </trkpt>
      <trkpt lat="44.40547" lon="2.41826">
        <ele>353.9</ele>
        <time>2022-09-18T09:36:26.000Z</time>
      </trkpt>
      <trkpt lat="44.40549" lon="2.41841">
        <ele>353.8</ele>
        <time>2022-09-18T09:36:29.000Z</time>
      </trkpt>
      <trkpt lat="44.40552" lon="2.41858">
        <ele>353.8</ele>
        <time>2022-09-18T09:36:32.000Z</time>
      </trkpt>
      <trkpt lat="44.40554" lon="2.41876">
        <ele>354.3</ele>
        <time>2022-09-18T09:36:35.000Z</time>
      </trkpt>
      <trkpt lat="44.40558" lon="2.41893">
        <ele>354.4</ele>
        <time>2022-09-18T09:36:38.000Z</time>
      </trkpt>
      <trkpt lat="44.40563" lon="2.41907">
        <ele>355.1</ele>
        <time>2022-09-18T09:36:41.000Z</time>
      </trkpt>
      <trkpt lat="44.40568" lon="2.4192">
        <ele>356.8</ele>
        <time>2022-09-18T09:36:45.000Z</time>
      </trkpt>
      <trkpt lat="44.40572" lon="2.41928">
        <ele>357</ele>
        <time>2022-09-18T09:36:51.000Z</time>
      </trkpt>
      <trkpt lat="44.40572" lon="2.41928">
        <ele>356.8</ele>
        <time>2022-09-18T09:37:01.000Z</time>
      </trkpt>
      <trkpt lat="44.40573" lon="2.41929">
        <ele>356.9</ele>
        <time>2022-09-18T09:37:03.000Z</time>
      </trkpt>
      <trkpt lat="44.40573" lon="2.41929">
        <ele>357</ele>
        <time>2022-09-18T09:37:05.000Z</time>
      </trkpt>
      <trkpt lat="44.40573" lon="2.41929">
        <ele>356.6</ele>
        <time>2022-09-18T09:37:07.000Z</time>
      </trkpt>
      <trkpt lat="44.40573" lon="2.41929">
        <ele>356.3</ele>
        <time>2022-09-18T09:37:15.000Z</time>
      </trkpt>
      <trkpt lat="44.40573" lon="2.41929">
        <ele>355.4</ele>
        <time>2022-09-18T09:39:19.000Z</time>
      </trkpt>
      <trkpt lat="44.40573" lon="2.41928">
        <ele>355.4</ele>
        <time>2022-09-18T09:39:39.000Z</time>
      </trkpt>
      <trkpt lat="44.40569" lon="2.41926">
        <ele>355.3</ele>
        <time>2022-09-18T09:39:46.000Z</time>
      </trkpt>
      <trkpt lat="44.40569" lon="2.41926">
        <ele>355.6</ele>
        <time>2022-09-18T09:39:52.000Z</time>
      </trkpt>
      <trkpt lat="44.40569" lon="2.41926">
        <ele>355.3</ele>
        <time>2022-09-18T09:39:53.000Z</time>
      </trkpt>
      <trkpt lat="44.40568" lon="2.41926">
        <ele>355.6</ele>
        <time>2022-09-18T09:40:10.000Z</time>
      </trkpt>
      <trkpt lat="44.40562" lon="2.41938">
        <ele>355.7</ele>
        <time>2022-09-18T09:40:16.000Z</time>
      </trkpt>
      <trkpt lat="44.40555" lon="2.4195">
        <ele>356.5</ele>
        <time>2022-09-18T09:40:21.000Z</time>
      </trkpt>
      <trkpt lat="44.40548" lon="2.4196">
        <ele>357.3</ele>
        <time>2022-09-18T09:40:25.000Z</time>
      </trkpt>
      <trkpt lat="44.40545" lon="2.41975">
        <ele>358</ele>
        <time>2022-09-18T09:40:29.000Z</time>
      </trkpt>
      <trkpt lat="44.40548" lon="2.41989">
        <ele>358.2</ele>
        <time>2022-09-18T09:40:32.000Z</time>
      </trkpt>
      <trkpt lat="44.40553" lon="2.42006">
        <ele>358.1</ele>
        <time>2022-09-18T09:40:35.000Z</time>
      </trkpt>
      <trkpt lat="44.40557" lon="2.42019">
        <ele>357.2</ele>
        <time>2022-09-18T09:40:37.000Z</time>
      </trkpt>
      <trkpt lat="44.4056" lon="2.42033">
        <ele>357.5</ele>
        <time>2022-09-18T09:40:39.000Z</time>
      </trkpt>
      <trkpt lat="44.40563" lon="2.42048">
        <ele>356.3</ele>
        <time>2022-09-18T09:40:41.000Z</time>
      </trkpt>
      <trkpt lat="44.40562" lon="2.42064">
        <ele>355.1</ele>
        <time>2022-09-18T09:40:43.000Z</time>
      </trkpt>
      <trkpt lat="44.40558" lon="2.42078">
        <ele>355</ele>
        <time>2022-09-18T09:40:45.000Z</time>
      </trkpt>
      <trkpt lat="44.4055" lon="2.42089">
        <ele>355.2</ele>
        <time>2022-09-18T09:40:47.000Z</time>
      </trkpt>
      <trkpt lat="44.40541" lon="2.42096">
        <ele>354.6</ele>
        <time>2022-09-18T09:40:49.000Z</time>
      </trkpt>
      <trkpt lat="44.40532" lon="2.42103">
        <ele>354.4</ele>
        <time>2022-09-18T09:40:51.000Z</time>
      </trkpt>
      <trkpt lat="44.4052" lon="2.42108">
        <ele>354.3</ele>
        <time>2022-09-18T09:40:54.000Z</time>
      </trkpt>
      <trkpt lat="44.40509" lon="2.42112">
        <ele>354.6</ele>
        <time>2022-09-18T09:40:57.000Z</time>
      </trkpt>
      <trkpt lat="44.40499" lon="2.42117">
        <ele>354.7</ele>
        <time>2022-09-18T09:41:00.000Z</time>
      </trkpt>
      <trkpt lat="44.40489" lon="2.42124">
        <ele>355.1</ele>
        <time>2022-09-18T09:41:03.000Z</time>
      </trkpt>
      <trkpt lat="44.40482" lon="2.42137">
        <ele>355.6</ele>
        <time>2022-09-18T09:41:06.000Z</time>
      </trkpt>
      <trkpt lat="44.4048" lon="2.42152">
        <ele>355.8</ele>
        <time>2022-09-18T09:41:09.000Z</time>
      </trkpt>
      <trkpt lat="44.40481" lon="2.42168">
        <ele>356.7</ele>
        <time>2022-09-18T09:41:12.000Z</time>
      </trkpt>
      <trkpt lat="44.40482" lon="2.42185">
        <ele>356.4</ele>
        <time>2022-09-18T09:41:15.000Z</time>
      </trkpt>
      <trkpt lat="44.40478" lon="2.42197">
        <ele>357</ele>
        <time>2022-09-18T09:41:17.000Z</time>
      </trkpt>
      <trkpt lat="44.40472" lon="2.42207">
        <ele>356.3</ele>
        <time>2022-09-18T09:41:19.000Z</time>
      </trkpt>
      <trkpt lat="44.40464" lon="2.42216">
        <ele>355.7</ele>
        <time>2022-09-18T09:41:21.000Z</time>
      </trkpt>
      <trkpt lat="44.40455" lon="2.42223">
        <ele>356.2</ele>
        <time>2022-09-18T09:41:23.000Z</time>
      </trkpt>
      <trkpt lat="44.40448" lon="2.42231">
        <ele>355.8</ele>
        <time>2022-09-18T09:41:25.000Z</time>
      </trkpt>
      <trkpt lat="44.40441" lon="2.42241">
        <ele>355.3</ele>
        <time>2022-09-18T09:41:27.000Z</time>
      </trkpt>
      <trkpt lat="44.40435" lon="2.42253">
        <ele>356</ele>
        <time>2022-09-18T09:41:29.000Z</time>
      </trkpt>
      <trkpt lat="44.40431" lon="2.42266">
        <ele>356.1</ele>
        <time>2022-09-18T09:41:31.000Z</time>
      </trkpt>
      <trkpt lat="44.40427" lon="2.42278">
        <ele>355.9</ele>
        <time>2022-09-18T09:41:33.000Z</time>
      </trkpt>
      <trkpt lat="44.40422" lon="2.42289">
        <ele>355.8</ele>
        <time>2022-09-18T09:41:35.000Z</time>
      </trkpt>
      <trkpt lat="44.40412" lon="2.42303">
        <ele>355.4</ele>
        <time>2022-09-18T09:41:38.000Z</time>
      </trkpt>
      <trkpt lat="44.40404" lon="2.42311">
        <ele>355.8</ele>
        <time>2022-09-18T09:41:40.000Z</time>
      </trkpt>
      <trkpt lat="44.40393" lon="2.42321">
        <ele>355.8</ele>
        <time>2022-09-18T09:41:43.000Z</time>
      </trkpt>
      <trkpt lat="44.40382" lon="2.42331">
        <ele>355.4</ele>
        <time>2022-09-18T09:41:46.000Z</time>
      </trkpt>
      <trkpt lat="44.40371" lon="2.42341">
        <ele>355.7</ele>
        <time>2022-09-18T09:41:49.000Z</time>
      </trkpt>
      <trkpt lat="44.40361" lon="2.42349">
        <ele>356.1</ele>
        <time>2022-09-18T09:41:52.000Z</time>
      </trkpt>
      <trkpt lat="44.4035" lon="2.42356">
        <ele>356</ele>
        <time>2022-09-18T09:41:55.000Z</time>
      </trkpt>
      <trkpt lat="44.40339" lon="2.42363">
        <ele>356.5</ele>
        <time>2022-09-18T09:41:58.000Z</time>
      </trkpt>
      <trkpt lat="44.40329" lon="2.42368">
        <ele>357.1</ele>
        <time>2022-09-18T09:42:01.000Z</time>
      </trkpt>
      <trkpt lat="44.40318" lon="2.42373">
        <ele>357.7</ele>
        <time>2022-09-18T09:42:04.000Z</time>
      </trkpt>
      <trkpt lat="44.40307" lon="2.42376">
        <ele>358.5</ele>
        <time>2022-09-18T09:42:07.000Z</time>
      </trkpt>
      <trkpt lat="44.40295" lon="2.4238">
        <ele>359</ele>
        <time>2022-09-18T09:42:10.000Z</time>
      </trkpt>
      <trkpt lat="44.40283" lon="2.42384">
        <ele>359.4</ele>
        <time>2022-09-18T09:42:13.000Z</time>
      </trkpt>
      <trkpt lat="44.40271" lon="2.42387">
        <ele>360</ele>
        <time>2022-09-18T09:42:16.000Z</time>
      </trkpt>
      <trkpt lat="44.40259" lon="2.42391">
        <ele>360.7</ele>
        <time>2022-09-18T09:42:19.000Z</time>
      </trkpt>
      <trkpt lat="44.40247" lon="2.42396">
        <ele>361.6</ele>
        <time>2022-09-18T09:42:22.000Z</time>
      </trkpt>
      <trkpt lat="44.40235" lon="2.424">
        <ele>363.1</ele>
        <time>2022-09-18T09:42:25.000Z</time>
      </trkpt>
      <trkpt lat="44.40222" lon="2.42404">
        <ele>362.8</ele>
        <time>2022-09-18T09:42:28.000Z</time>
      </trkpt>
      <trkpt lat="44.4021" lon="2.42407">
        <ele>363.3</ele>
        <time>2022-09-18T09:42:31.000Z</time>
      </trkpt>
      <trkpt lat="44.40196" lon="2.42409">
        <ele>363.3</ele>
        <time>2022-09-18T09:42:34.000Z</time>
      </trkpt>
      <trkpt lat="44.40186" lon="2.4241">
        <ele>363.8</ele>
        <time>2022-09-18T09:42:36.000Z</time>
      </trkpt>
      <trkpt lat="44.40177" lon="2.42411">
        <ele>363.8</ele>
        <time>2022-09-18T09:42:38.000Z</time>
      </trkpt>
      <trkpt lat="44.40167" lon="2.42413">
        <ele>363.9</ele>
        <time>2022-09-18T09:42:40.000Z</time>
      </trkpt>
      <trkpt lat="44.40158" lon="2.42417">
        <ele>364.6</ele>
        <time>2022-09-18T09:42:42.000Z</time>
      </trkpt>
      <trkpt lat="44.40148" lon="2.42421">
        <ele>364.2</ele>
        <time>2022-09-18T09:42:44.000Z</time>
      </trkpt>
      <trkpt lat="44.40139" lon="2.42425">
        <ele>364.3</ele>
        <time>2022-09-18T09:42:46.000Z</time>
      </trkpt>
      <trkpt lat="44.40129" lon="2.42427">
        <ele>365.4</ele>
        <time>2022-09-18T09:42:48.000Z</time>
      </trkpt>
      <trkpt lat="44.4012" lon="2.42428">
        <ele>365.3</ele>
        <time>2022-09-18T09:42:50.000Z</time>
      </trkpt>
      <trkpt lat="44.4011" lon="2.42424">
        <ele>365.7</ele>
        <time>2022-09-18T09:42:52.000Z</time>
      </trkpt>
      <trkpt lat="44.40101" lon="2.42419">
        <ele>366.1</ele>
        <time>2022-09-18T09:42:54.000Z</time>
      </trkpt>
      <trkpt lat="44.40092" lon="2.42417">
        <ele>366.4</ele>
        <time>2022-09-18T09:42:56.000Z</time>
      </trkpt>
      <trkpt lat="44.40082" lon="2.42417">
        <ele>367.7</ele>
        <time>2022-09-18T09:42:58.000Z</time>
      </trkpt>
      <trkpt lat="44.40073" lon="2.42419">
        <ele>367.6</ele>
        <time>2022-09-18T09:43:00.000Z</time>
      </trkpt>
      <trkpt lat="44.40064" lon="2.42423">
        <ele>367.5</ele>
        <time>2022-09-18T09:43:02.000Z</time>
      </trkpt>
      <trkpt lat="44.40055" lon="2.42427">
        <ele>368.1</ele>
        <time>2022-09-18T09:43:04.000Z</time>
      </trkpt>
      <trkpt lat="44.40045" lon="2.4243">
        <ele>368.6</ele>
        <time>2022-09-18T09:43:06.000Z</time>
      </trkpt>
      <trkpt lat="44.40036" lon="2.42432">
        <ele>368.5</ele>
        <time>2022-09-18T09:43:08.000Z</time>
      </trkpt>
      <trkpt lat="44.40026" lon="2.42434">
        <ele>368.7</ele>
        <time>2022-09-18T09:43:10.000Z</time>
      </trkpt>
      <trkpt lat="44.40016" lon="2.42437">
        <ele>368.6</ele>
        <time>2022-09-18T09:43:12.000Z</time>
      </trkpt>
      <trkpt lat="44.40006" lon="2.4244">
        <ele>368.7</ele>
        <time>2022-09-18T09:43:14.000Z</time>
      </trkpt>
      <trkpt lat="44.39996" lon="2.42444">
        <ele>369</ele>
        <time>2022-09-18T09:43:16.000Z</time>
      </trkpt>
      <trkpt lat="44.39987" lon="2.42449">
        <ele>369</ele>
        <time>2022-09-18T09:43:18.000Z</time>
      </trkpt>
      <trkpt lat="44.39978" lon="2.42453">
        <ele>369.4</ele>
        <time>2022-09-18T09:43:20.000Z</time>
      </trkpt>
      <trkpt lat="44.39969" lon="2.42459">
        <ele>369.8</ele>
        <time>2022-09-18T09:43:22.000Z</time>
      </trkpt>
      <trkpt lat="44.3996" lon="2.42466">
        <ele>370.5</ele>
        <time>2022-09-18T09:43:24.000Z</time>
      </trkpt>
      <trkpt lat="44.39952" lon="2.42472">
        <ele>370.9</ele>
        <time>2022-09-18T09:43:26.000Z</time>
      </trkpt>
      <trkpt lat="44.39941" lon="2.42481">
        <ele>370.8</ele>
        <time>2022-09-18T09:43:29.000Z</time>
      </trkpt>
      <trkpt lat="44.3993" lon="2.42488">
        <ele>372.2</ele>
        <time>2022-09-18T09:43:32.000Z</time>
      </trkpt>
      <trkpt lat="44.39919" lon="2.42495">
        <ele>372.5</ele>
        <time>2022-09-18T09:43:35.000Z</time>
      </trkpt>
      <trkpt lat="44.39908" lon="2.42502">
        <ele>372.8</ele>
        <time>2022-09-18T09:43:38.000Z</time>
      </trkpt>
      <trkpt lat="44.39897" lon="2.4251">
        <ele>374.3</ele>
        <time>2022-09-18T09:43:41.000Z</time>
      </trkpt>
      <trkpt lat="44.39885" lon="2.42518">
        <ele>374.1</ele>
        <time>2022-09-18T09:43:44.000Z</time>
      </trkpt>
      <trkpt lat="44.39874" lon="2.42526">
        <ele>374.9</ele>
        <time>2022-09-18T09:43:47.000Z</time>
      </trkpt>
      <trkpt lat="44.39865" lon="2.42531">
        <ele>375.1</ele>
        <time>2022-09-18T09:43:49.000Z</time>
      </trkpt>
      <trkpt lat="44.39857" lon="2.42537">
        <ele>375</ele>
        <time>2022-09-18T09:43:51.000Z</time>
      </trkpt>
      <trkpt lat="44.39849" lon="2.42542">
        <ele>375.2</ele>
        <time>2022-09-18T09:43:53.000Z</time>
      </trkpt>
      <trkpt lat="44.39841" lon="2.42547">
        <ele>375.4</ele>
        <time>2022-09-18T09:43:55.000Z</time>
      </trkpt>
      <trkpt lat="44.39832" lon="2.42553">
        <ele>376</ele>
        <time>2022-09-18T09:43:57.000Z</time>
      </trkpt>
      <trkpt lat="44.39824" lon="2.4256">
        <ele>376.2</ele>
        <time>2022-09-18T09:43:59.000Z</time>
      </trkpt>
      <trkpt lat="44.39817" lon="2.42567">
        <ele>376.9</ele>
        <time>2022-09-18T09:44:01.000Z</time>
      </trkpt>
      <trkpt lat="44.39805" lon="2.42576">
        <ele>377</ele>
        <time>2022-09-18T09:44:04.000Z</time>
      </trkpt>
      <trkpt lat="44.39799" lon="2.42591">
        <ele>377.5</ele>
        <time>2022-09-18T09:44:07.000Z</time>
      </trkpt>
      <trkpt lat="44.39798" lon="2.42606">
        <ele>377.1</ele>
        <time>2022-09-18T09:44:09.000Z</time>
      </trkpt>
      <trkpt lat="44.39796" lon="2.42622">
        <ele>376.5</ele>
        <time>2022-09-18T09:44:11.000Z</time>
      </trkpt>
      <trkpt lat="44.3979" lon="2.42637">
        <ele>374.5</ele>
        <time>2022-09-18T09:44:13.000Z</time>
      </trkpt>
      <trkpt lat="44.39782" lon="2.42651">
        <ele>374.3</ele>
        <time>2022-09-18T09:44:15.000Z</time>
      </trkpt>
      <trkpt lat="44.39783" lon="2.42666">
        <ele>372.3</ele>
        <time>2022-09-18T09:44:17.000Z</time>
      </trkpt>
      <trkpt lat="44.39791" lon="2.42681">
        <ele>370</ele>
        <time>2022-09-18T09:44:19.000Z</time>
      </trkpt>
      <trkpt lat="44.39793" lon="2.42703">
        <ele>368.2</ele>
        <time>2022-09-18T09:44:21.000Z</time>
      </trkpt>
      <trkpt lat="44.39792" lon="2.42726">
        <ele>367</ele>
        <time>2022-09-18T09:44:23.000Z</time>
      </trkpt>
      <trkpt lat="44.39792" lon="2.42747">
        <ele>365.8</ele>
        <time>2022-09-18T09:44:25.000Z</time>
      </trkpt>
      <trkpt lat="44.39794" lon="2.42767">
        <ele>366.3</ele>
        <time>2022-09-18T09:44:27.000Z</time>
      </trkpt>
      <trkpt lat="44.39796" lon="2.42785">
        <ele>366.8</ele>
        <time>2022-09-18T09:44:29.000Z</time>
      </trkpt>
      <trkpt lat="44.39797" lon="2.428">
        <ele>366.4</ele>
        <time>2022-09-18T09:44:31.000Z</time>
      </trkpt>
      <trkpt lat="44.39793" lon="2.42812">
        <ele>367.5</ele>
        <time>2022-09-18T09:44:33.000Z</time>
      </trkpt>
      <trkpt lat="44.39783" lon="2.42817">
        <ele>368</ele>
        <time>2022-09-18T09:44:35.000Z</time>
      </trkpt>
      <trkpt lat="44.39771" lon="2.42824">
        <ele>369.7</ele>
        <time>2022-09-18T09:44:38.000Z</time>
      </trkpt>
      <trkpt lat="44.3976" lon="2.42834">
        <ele>370</ele>
        <time>2022-09-18T09:44:41.000Z</time>
      </trkpt>
      <trkpt lat="44.39752" lon="2.42841">
        <ele>370.4</ele>
        <time>2022-09-18T09:44:43.000Z</time>
      </trkpt>
      <trkpt lat="44.39744" lon="2.4285">
        <ele>370.6</ele>
        <time>2022-09-18T09:44:45.000Z</time>
      </trkpt>
      <trkpt lat="44.39734" lon="2.42858">
        <ele>370.3</ele>
        <time>2022-09-18T09:44:47.000Z</time>
      </trkpt>
      <trkpt lat="44.39724" lon="2.42863">
        <ele>371.1</ele>
        <time>2022-09-18T09:44:49.000Z</time>
      </trkpt>
      <trkpt lat="44.39714" lon="2.42866">
        <ele>370.3</ele>
        <time>2022-09-18T09:44:51.000Z</time>
      </trkpt>
      <trkpt lat="44.39702" lon="2.42872">
        <ele>371</ele>
        <time>2022-09-18T09:44:54.000Z</time>
      </trkpt>
      <trkpt lat="44.39691" lon="2.42877">
        <ele>372.2</ele>
        <time>2022-09-18T09:44:57.000Z</time>
      </trkpt>
      <trkpt lat="44.3968" lon="2.42882">
        <ele>373.2</ele>
        <time>2022-09-18T09:45:00.000Z</time>
      </trkpt>
      <trkpt lat="44.39669" lon="2.42886">
        <ele>373.5</ele>
        <time>2022-09-18T09:45:03.000Z</time>
      </trkpt>
      <trkpt lat="44.3966" lon="2.42894">
        <ele>374.3</ele>
        <time>2022-09-18T09:45:06.000Z</time>
      </trkpt>
      <trkpt lat="44.39657" lon="2.42908">
        <ele>375.2</ele>
        <time>2022-09-18T09:45:09.000Z</time>
      </trkpt>
      <trkpt lat="44.39661" lon="2.42921">
        <ele>375.6</ele>
        <time>2022-09-18T09:45:12.000Z</time>
      </trkpt>
      <trkpt lat="44.39666" lon="2.42932">
        <ele>376.3</ele>
        <time>2022-09-18T09:45:15.000Z</time>
      </trkpt>
      <trkpt lat="44.39672" lon="2.42943">
        <ele>378</ele>
        <time>2022-09-18T09:45:18.000Z</time>
      </trkpt>
      <trkpt lat="44.39678" lon="2.42957">
        <ele>378.7</ele>
        <time>2022-09-18T09:45:22.000Z</time>
      </trkpt>
      <trkpt lat="44.39682" lon="2.42972">
        <ele>379.6</ele>
        <time>2022-09-18T09:45:26.000Z</time>
      </trkpt>
      <trkpt lat="44.39684" lon="2.42984">
        <ele>380.2</ele>
        <time>2022-09-18T09:45:29.000Z</time>
      </trkpt>
      <trkpt lat="44.39686" lon="2.42998">
        <ele>380.4</ele>
        <time>2022-09-18T09:45:32.000Z</time>
      </trkpt>
      <trkpt lat="44.39687" lon="2.4301">
        <ele>381.1</ele>
        <time>2022-09-18T09:45:35.000Z</time>
      </trkpt>
      <trkpt lat="44.39688" lon="2.43024">
        <ele>381.5</ele>
        <time>2022-09-18T09:45:38.000Z</time>
      </trkpt>
      <trkpt lat="44.39691" lon="2.4304">
        <ele>381.4</ele>
        <time>2022-09-18T09:45:41.000Z</time>
      </trkpt>
      <trkpt lat="44.39693" lon="2.43053">
        <ele>380.1</ele>
        <time>2022-09-18T09:45:43.000Z</time>
      </trkpt>
      <trkpt lat="44.39695" lon="2.43068">
        <ele>379.7</ele>
        <time>2022-09-18T09:45:45.000Z</time>
      </trkpt>
      <trkpt lat="44.39701" lon="2.43081">
        <ele>379.9</ele>
        <time>2022-09-18T09:45:47.000Z</time>
      </trkpt>
      <trkpt lat="44.39707" lon="2.43091">
        <ele>381</ele>
        <time>2022-09-18T09:45:49.000Z</time>
      </trkpt>
      <trkpt lat="44.39713" lon="2.43102">
        <ele>382.4</ele>
        <time>2022-09-18T09:45:52.000Z</time>
      </trkpt>
      <trkpt lat="44.39719" lon="2.43115">
        <ele>384</ele>
        <time>2022-09-18T09:45:56.000Z</time>
      </trkpt>
      <trkpt lat="44.39724" lon="2.43127">
        <ele>385.2</ele>
        <time>2022-09-18T09:46:00.000Z</time>
      </trkpt>
      <trkpt lat="44.39729" lon="2.43138">
        <ele>386.1</ele>
        <time>2022-09-18T09:46:04.000Z</time>
      </trkpt>
      <trkpt lat="44.39734" lon="2.4315">
        <ele>387.5</ele>
        <time>2022-09-18T09:46:08.000Z</time>
      </trkpt>
      <trkpt lat="44.39739" lon="2.43162">
        <ele>388.2</ele>
        <time>2022-09-18T09:46:12.000Z</time>
      </trkpt>
      <trkpt lat="44.39745" lon="2.43174">
        <ele>389</ele>
        <time>2022-09-18T09:46:16.000Z</time>
      </trkpt>
      <trkpt lat="44.39753" lon="2.43185">
        <ele>390</ele>
        <time>2022-09-18T09:46:20.000Z</time>
      </trkpt>
      <trkpt lat="44.39763" lon="2.43193">
        <ele>391</ele>
        <time>2022-09-18T09:46:24.000Z</time>
      </trkpt>
      <trkpt lat="44.39772" lon="2.43199">
        <ele>391.9</ele>
        <time>2022-09-18T09:46:28.000Z</time>
      </trkpt>
      <trkpt lat="44.3978" lon="2.43206">
        <ele>392.5</ele>
        <time>2022-09-18T09:46:32.000Z</time>
      </trkpt>
      <trkpt lat="44.39786" lon="2.43218">
        <ele>393.6</ele>
        <time>2022-09-18T09:46:37.000Z</time>
      </trkpt>
      <trkpt lat="44.39792" lon="2.43233">
        <ele>395.4</ele>
        <time>2022-09-18T09:46:41.000Z</time>
      </trkpt>
      <trkpt lat="44.39798" lon="2.43246">
        <ele>397</ele>
        <time>2022-09-18T09:46:45.000Z</time>
      </trkpt>
      <trkpt lat="44.39802" lon="2.4326">
        <ele>399</ele>
        <time>2022-09-18T09:46:49.000Z</time>
      </trkpt>
      <trkpt lat="44.39804" lon="2.43276">
        <ele>400.6</ele>
        <time>2022-09-18T09:46:53.000Z</time>
      </trkpt>
      <trkpt lat="44.39799" lon="2.43291">
        <ele>401.9</ele>
        <time>2022-09-18T09:46:57.000Z</time>
      </trkpt>
      <trkpt lat="44.39796" lon="2.43304">
        <ele>402.3</ele>
        <time>2022-09-18T09:47:00.000Z</time>
      </trkpt>
      <trkpt lat="44.39792" lon="2.43316">
        <ele>403.9</ele>
        <time>2022-09-18T09:47:03.000Z</time>
      </trkpt>
      <trkpt lat="44.39788" lon="2.43331">
        <ele>404.5</ele>
        <time>2022-09-18T09:47:07.000Z</time>
      </trkpt>
      <trkpt lat="44.39785" lon="2.43344">
        <ele>405.2</ele>
        <time>2022-09-18T09:47:10.000Z</time>
      </trkpt>
      <trkpt lat="44.39782" lon="2.43358">
        <ele>406.1</ele>
        <time>2022-09-18T09:47:13.000Z</time>
      </trkpt>
      <trkpt lat="44.39779" lon="2.43373">
        <ele>407.1</ele>
        <time>2022-09-18T09:47:16.000Z</time>
      </trkpt>
      <trkpt lat="44.39776" lon="2.43387">
        <ele>407.5</ele>
        <time>2022-09-18T09:47:19.000Z</time>
      </trkpt>
      <trkpt lat="44.39772" lon="2.43401">
        <ele>409.2</ele>
        <time>2022-09-18T09:47:22.000Z</time>
      </trkpt>
      <trkpt lat="44.39766" lon="2.43413">
        <ele>409.5</ele>
        <time>2022-09-18T09:47:25.000Z</time>
      </trkpt>
      <trkpt lat="44.39759" lon="2.43425">
        <ele>410.2</ele>
        <time>2022-09-18T09:47:28.000Z</time>
      </trkpt>
      <trkpt lat="44.39751" lon="2.43441">
        <ele>410.5</ele>
        <time>2022-09-18T09:47:31.000Z</time>
      </trkpt>
      <trkpt lat="44.39745" lon="2.43454">
        <ele>410.1</ele>
        <time>2022-09-18T09:47:33.000Z</time>
      </trkpt>
      <trkpt lat="44.39739" lon="2.4347">
        <ele>409.5</ele>
        <time>2022-09-18T09:47:35.000Z</time>
      </trkpt>
      <trkpt lat="44.39729" lon="2.4348">
        <ele>409.3</ele>
        <time>2022-09-18T09:47:37.000Z</time>
      </trkpt>
      <trkpt lat="44.39719" lon="2.43487">
        <ele>409.9</ele>
        <time>2022-09-18T09:47:39.000Z</time>
      </trkpt>
      <trkpt lat="44.39711" lon="2.43495">
        <ele>410.5</ele>
        <time>2022-09-18T09:47:41.000Z</time>
      </trkpt>
      <trkpt lat="44.39701" lon="2.43505">
        <ele>412.2</ele>
        <time>2022-09-18T09:47:44.000Z</time>
      </trkpt>
      <trkpt lat="44.39692" lon="2.43516">
        <ele>413</ele>
        <time>2022-09-18T09:47:47.000Z</time>
      </trkpt>
      <trkpt lat="44.39683" lon="2.43527">
        <ele>413.9</ele>
        <time>2022-09-18T09:47:50.000Z</time>
      </trkpt>
      <trkpt lat="44.39673" lon="2.43536">
        <ele>415.1</ele>
        <time>2022-09-18T09:47:53.000Z</time>
      </trkpt>
      <trkpt lat="44.39663" lon="2.43546">
        <ele>416.4</ele>
        <time>2022-09-18T09:47:56.000Z</time>
      </trkpt>
      <trkpt lat="44.39655" lon="2.43556">
        <ele>417</ele>
        <time>2022-09-18T09:47:59.000Z</time>
      </trkpt>
      <trkpt lat="44.39649" lon="2.4357">
        <ele>417.6</ele>
        <time>2022-09-18T09:48:02.000Z</time>
      </trkpt>
      <trkpt lat="44.39658" lon="2.43575">
        <ele>420</ele>
        <time>2022-09-18T09:48:06.000Z</time>
      </trkpt>
      <trkpt lat="44.39669" lon="2.43571">
        <ele>420.9</ele>
        <time>2022-09-18T09:48:09.000Z</time>
      </trkpt>
      <trkpt lat="44.39679" lon="2.43569">
        <ele>421.7</ele>
        <time>2022-09-18T09:48:12.000Z</time>
      </trkpt>
      <trkpt lat="44.39688" lon="2.43574">
        <ele>423.3</ele>
        <time>2022-09-18T09:48:15.000Z</time>
      </trkpt>
      <trkpt lat="44.39684" lon="2.43589">
        <ele>424.4</ele>
        <time>2022-09-18T09:48:19.000Z</time>
      </trkpt>
      <trkpt lat="44.39677" lon="2.43599">
        <ele>426.1</ele>
        <time>2022-09-18T09:48:22.000Z</time>
      </trkpt>
      <trkpt lat="44.39674" lon="2.43611">
        <ele>426.8</ele>
        <time>2022-09-18T09:48:25.000Z</time>
      </trkpt>
      <trkpt lat="44.3967" lon="2.43624">
        <ele>427.3</ele>
        <time>2022-09-18T09:48:28.000Z</time>
      </trkpt>
      <trkpt lat="44.39663" lon="2.43631">
        <ele>428.5</ele>
        <time>2022-09-18T09:48:31.000Z</time>
      </trkpt>
      <trkpt lat="44.39653" lon="2.43636">
        <ele>429.6</ele>
        <time>2022-09-18T09:48:34.000Z</time>
      </trkpt>
      <trkpt lat="44.39645" lon="2.43644">
        <ele>430</ele>
        <time>2022-09-18T09:48:37.000Z</time>
      </trkpt>
      <trkpt lat="44.39638" lon="2.43652">
        <ele>431.1</ele>
        <time>2022-09-18T09:48:40.000Z</time>
      </trkpt>
      <trkpt lat="44.3963" lon="2.43662">
        <ele>432.4</ele>
        <time>2022-09-18T09:48:43.000Z</time>
      </trkpt>
      <trkpt lat="44.39626" lon="2.43675">
        <ele>433.2</ele>
        <time>2022-09-18T09:48:47.000Z</time>
      </trkpt>
      <trkpt lat="44.39623" lon="2.43691">
        <ele>434.7</ele>
        <time>2022-09-18T09:48:51.000Z</time>
      </trkpt>
      <trkpt lat="44.39623" lon="2.43704">
        <ele>435.2</ele>
        <time>2022-09-18T09:48:54.000Z</time>
      </trkpt>
      <trkpt lat="44.39632" lon="2.43702">
        <ele>437.1</ele>
        <time>2022-09-18T09:48:58.000Z</time>
      </trkpt>
      <trkpt lat="44.39638" lon="2.43691">
        <ele>437.7</ele>
        <time>2022-09-18T09:49:01.000Z</time>
      </trkpt>
      <trkpt lat="44.39647" lon="2.43683">
        <ele>438.7</ele>
        <time>2022-09-18T09:49:04.000Z</time>
      </trkpt>
      <trkpt lat="44.39657" lon="2.43678">
        <ele>439</ele>
        <time>2022-09-18T09:49:07.000Z</time>
      </trkpt>
      <trkpt lat="44.39668" lon="2.43675">
        <ele>439.7</ele>
        <time>2022-09-18T09:49:10.000Z</time>
      </trkpt>
      <trkpt lat="44.39679" lon="2.43677">
        <ele>440.4</ele>
        <time>2022-09-18T09:49:13.000Z</time>
      </trkpt>
      <trkpt lat="44.39691" lon="2.43676">
        <ele>441.1</ele>
        <time>2022-09-18T09:49:16.000Z</time>
      </trkpt>
      <trkpt lat="44.39702" lon="2.43667">
        <ele>441.9</ele>
        <time>2022-09-18T09:49:19.000Z</time>
      </trkpt>
      <trkpt lat="44.39713" lon="2.43657">
        <ele>443.4</ele>
        <time>2022-09-18T09:49:22.000Z</time>
      </trkpt>
      <trkpt lat="44.39724" lon="2.43651">
        <ele>444</ele>
        <time>2022-09-18T09:49:25.000Z</time>
      </trkpt>
      <trkpt lat="44.39735" lon="2.43644">
        <ele>444.7</ele>
        <time>2022-09-18T09:49:28.000Z</time>
      </trkpt>
      <trkpt lat="44.39746" lon="2.43635">
        <ele>445.8</ele>
        <time>2022-09-18T09:49:31.000Z</time>
      </trkpt>
      <trkpt lat="44.39757" lon="2.43627">
        <ele>446.8</ele>
        <time>2022-09-18T09:49:34.000Z</time>
      </trkpt>
      <trkpt lat="44.39769" lon="2.43623">
        <ele>447.6</ele>
        <time>2022-09-18T09:49:37.000Z</time>
      </trkpt>
      <trkpt lat="44.39781" lon="2.43624">
        <ele>448.5</ele>
        <time>2022-09-18T09:49:40.000Z</time>
      </trkpt>
      <trkpt lat="44.39793" lon="2.43629">
        <ele>449.5</ele>
        <time>2022-09-18T09:49:43.000Z</time>
      </trkpt>
      <trkpt lat="44.39803" lon="2.43634">
        <ele>449.8</ele>
        <time>2022-09-18T09:49:46.000Z</time>
      </trkpt>
      <trkpt lat="44.39812" lon="2.43642">
        <ele>450.9</ele>
        <time>2022-09-18T09:49:49.000Z</time>
      </trkpt>
      <trkpt lat="44.39824" lon="2.43647">
        <ele>451.7</ele>
        <time>2022-09-18T09:49:52.000Z</time>
      </trkpt>
      <trkpt lat="44.39836" lon="2.43649">
        <ele>451.9</ele>
        <time>2022-09-18T09:49:55.000Z</time>
      </trkpt>
      <trkpt lat="44.39849" lon="2.43652">
        <ele>452.7</ele>
        <time>2022-09-18T09:49:58.000Z</time>
      </trkpt>
      <trkpt lat="44.39862" lon="2.43654">
        <ele>453.6</ele>
        <time>2022-09-18T09:50:01.000Z</time>
      </trkpt>
      <trkpt lat="44.39875" lon="2.43654">
        <ele>454.8</ele>
        <time>2022-09-18T09:50:04.000Z</time>
      </trkpt>
      <trkpt lat="44.39886" lon="2.43654">
        <ele>455.5</ele>
        <time>2022-09-18T09:50:07.000Z</time>
      </trkpt>
      <trkpt lat="44.39896" lon="2.43656">
        <ele>456.1</ele>
        <time>2022-09-18T09:50:10.000Z</time>
      </trkpt>
      <trkpt lat="44.39906" lon="2.43659">
        <ele>457.4</ele>
        <time>2022-09-18T09:50:13.000Z</time>
      </trkpt>
      <trkpt lat="44.39915" lon="2.43666">
        <ele>457.9</ele>
        <time>2022-09-18T09:50:16.000Z</time>
      </trkpt>
      <trkpt lat="44.39922" lon="2.43675">
        <ele>459</ele>
        <time>2022-09-18T09:50:19.000Z</time>
      </trkpt>
      <trkpt lat="44.39928" lon="2.43686">
        <ele>460.2</ele>
        <time>2022-09-18T09:50:22.000Z</time>
      </trkpt>
      <trkpt lat="44.39933" lon="2.43696">
        <ele>461.3</ele>
        <time>2022-09-18T09:50:25.000Z</time>
      </trkpt>
      <trkpt lat="44.39938" lon="2.43707">
        <ele>462.5</ele>
        <time>2022-09-18T09:50:28.000Z</time>
      </trkpt>
      <trkpt lat="44.39943" lon="2.43718">
        <ele>463.5</ele>
        <time>2022-09-18T09:50:31.000Z</time>
      </trkpt>
      <trkpt lat="44.39954" lon="2.43727">
        <ele>464.9</ele>
        <time>2022-09-18T09:50:35.000Z</time>
      </trkpt>
      <trkpt lat="44.39963" lon="2.43729">
        <ele>465.9</ele>
        <time>2022-09-18T09:50:38.000Z</time>
      </trkpt>
      <trkpt lat="44.39974" lon="2.4373">
        <ele>467.1</ele>
        <time>2022-09-18T09:50:42.000Z</time>
      </trkpt>
      <trkpt lat="44.39986" lon="2.43729">
        <ele>468</ele>
        <time>2022-09-18T09:50:46.000Z</time>
      </trkpt>
      <trkpt lat="44.39997" lon="2.43726">
        <ele>469.2</ele>
        <time>2022-09-18T09:50:49.000Z</time>
      </trkpt>
      <trkpt lat="44.40007" lon="2.43719">
        <ele>469.6</ele>
        <time>2022-09-18T09:50:52.000Z</time>
      </trkpt>
      <trkpt lat="44.40016" lon="2.43708">
        <ele>470.3</ele>
        <time>2022-09-18T09:50:55.000Z</time>
      </trkpt>
      <trkpt lat="44.40025" lon="2.43695">
        <ele>470.9</ele>
        <time>2022-09-18T09:50:58.000Z</time>
      </trkpt>
      <trkpt lat="44.40032" lon="2.43679">
        <ele>471.1</ele>
        <time>2022-09-18T09:51:01.000Z</time>
      </trkpt>
      <trkpt lat="44.40037" lon="2.43664">
        <ele>472.7</ele>
        <time>2022-09-18T09:51:04.000Z</time>
      </trkpt>
      <trkpt lat="44.4004" lon="2.43646">
        <ele>473.2</ele>
        <time>2022-09-18T09:51:07.000Z</time>
      </trkpt>
      <trkpt lat="44.40038" lon="2.43633">
        <ele>474.4</ele>
        <time>2022-09-18T09:51:09.000Z</time>
      </trkpt>
      <trkpt lat="44.40035" lon="2.43621">
        <ele>474.9</ele>
        <time>2022-09-18T09:51:11.000Z</time>
      </trkpt>
      <trkpt lat="44.40032" lon="2.43608">
        <ele>475.2</ele>
        <time>2022-09-18T09:51:13.000Z</time>
      </trkpt>
      <trkpt lat="44.4003" lon="2.43595">
        <ele>475.3</ele>
        <time>2022-09-18T09:51:15.000Z</time>
      </trkpt>
      <trkpt lat="44.40028" lon="2.43582">
        <ele>476.1</ele>
        <time>2022-09-18T09:51:17.000Z</time>
      </trkpt>
      <trkpt lat="44.40026" lon="2.43568">
        <ele>476.3</ele>
        <time>2022-09-18T09:51:19.000Z</time>
      </trkpt>
      <trkpt lat="44.40024" lon="2.43555">
        <ele>476.5</ele>
        <time>2022-09-18T09:51:21.000Z</time>
      </trkpt>
      <trkpt lat="44.40022" lon="2.43542">
        <ele>477</ele>
        <time>2022-09-18T09:51:23.000Z</time>
      </trkpt>
      <trkpt lat="44.40023" lon="2.4353">
        <ele>477.3</ele>
        <time>2022-09-18T09:51:25.000Z</time>
      </trkpt>
      <trkpt lat="44.40025" lon="2.43517">
        <ele>478.2</ele>
        <time>2022-09-18T09:51:27.000Z</time>
      </trkpt>
      <trkpt lat="44.40026" lon="2.43504">
        <ele>478.8</ele>
        <time>2022-09-18T09:51:29.000Z</time>
      </trkpt>
      <trkpt lat="44.40029" lon="2.43487">
        <ele>478.8</ele>
        <time>2022-09-18T09:51:32.000Z</time>
      </trkpt>
      <trkpt lat="44.40031" lon="2.43474">
        <ele>478.6</ele>
        <time>2022-09-18T09:51:34.000Z</time>
      </trkpt>
      <trkpt lat="44.40034" lon="2.43462">
        <ele>479.5</ele>
        <time>2022-09-18T09:51:36.000Z</time>
      </trkpt>
      <trkpt lat="44.40037" lon="2.4345">
        <ele>479.8</ele>
        <time>2022-09-18T09:51:38.000Z</time>
      </trkpt>
      <trkpt lat="44.40041" lon="2.43433">
        <ele>479.9</ele>
        <time>2022-09-18T09:51:41.000Z</time>
      </trkpt>
      <trkpt lat="44.40044" lon="2.43417">
        <ele>480.9</ele>
        <time>2022-09-18T09:51:44.000Z</time>
      </trkpt>
      <trkpt lat="44.40047" lon="2.43402">
        <ele>480.8</ele>
        <time>2022-09-18T09:51:47.000Z</time>
      </trkpt>
      <trkpt lat="44.40055" lon="2.43394">
        <ele>481.4</ele>
        <time>2022-09-18T09:51:53.000Z</time>
      </trkpt>
      <trkpt lat="44.40057" lon="2.43407">
        <ele>482.4</ele>
        <time>2022-09-18T09:52:00.000Z</time>
      </trkpt>
      <trkpt lat="44.40056" lon="2.4341">
        <ele>483.1</ele>
        <time>2022-09-18T09:52:03.000Z</time>
      </trkpt>
      <trkpt lat="44.40056" lon="2.4341">
        <ele>483.1</ele>
        <time>2022-09-18T09:52:04.000Z</time>
      </trkpt>
      <trkpt lat="44.40056" lon="2.43412">
        <ele>483.1</ele>
        <time>2022-09-18T09:52:07.000Z</time>
      </trkpt>
      <trkpt lat="44.40056" lon="2.43412">
        <ele>483.2</ele>
        <time>2022-09-18T09:52:10.000Z</time>
      </trkpt>
      <trkpt lat="44.40055" lon="2.43413">
        <ele>483.3</ele>
        <time>2022-09-18T09:52:14.000Z</time>
      </trkpt>
      <trkpt lat="44.40055" lon="2.43415">
        <ele>483.3</ele>
        <time>2022-09-18T09:52:19.000Z</time>
      </trkpt>
      <trkpt lat="44.40052" lon="2.43428">
        <ele>483.9</ele>
        <time>2022-09-18T09:52:23.000Z</time>
      </trkpt>
      <trkpt lat="44.4005" lon="2.4344">
        <ele>485</ele>
        <time>2022-09-18T09:52:26.000Z</time>
      </trkpt>
      <trkpt lat="44.40049" lon="2.43454">
        <ele>485.8</ele>
        <time>2022-09-18T09:52:29.000Z</time>
      </trkpt>
      <trkpt lat="44.4005" lon="2.43469">
        <ele>487.4</ele>
        <time>2022-09-18T09:52:32.000Z</time>
      </trkpt>
      <trkpt lat="44.40051" lon="2.43483">
        <ele>489</ele>
        <time>2022-09-18T09:52:35.000Z</time>
      </trkpt>
      <trkpt lat="44.40053" lon="2.43498">
        <ele>490.6</ele>
        <time>2022-09-18T09:52:38.000Z</time>
      </trkpt>
      <trkpt lat="44.40055" lon="2.43513">
        <ele>491.7</ele>
        <time>2022-09-18T09:52:41.000Z</time>
      </trkpt>
      <trkpt lat="44.40059" lon="2.43527">
        <ele>493.5</ele>
        <time>2022-09-18T09:52:44.000Z</time>
      </trkpt>
      <trkpt lat="44.40066" lon="2.43542">
        <ele>493.4</ele>
        <time>2022-09-18T09:52:47.000Z</time>
      </trkpt>
      <trkpt lat="44.40069" lon="2.43557">
        <ele>495.4</ele>
        <time>2022-09-18T09:52:50.000Z</time>
      </trkpt>
      <trkpt lat="44.4007" lon="2.43574">
        <ele>495.5</ele>
        <time>2022-09-18T09:52:53.000Z</time>
      </trkpt>
      <trkpt lat="44.40073" lon="2.43588">
        <ele>496.3</ele>
        <time>2022-09-18T09:52:56.000Z</time>
      </trkpt>
      <trkpt lat="44.40078" lon="2.43601">
        <ele>497.7</ele>
        <time>2022-09-18T09:52:59.000Z</time>
      </trkpt>
      <trkpt lat="44.40084" lon="2.43615">
        <ele>497.7</ele>
        <time>2022-09-18T09:53:02.000Z</time>
      </trkpt>
      <trkpt lat="44.40089" lon="2.4363">
        <ele>499.4</ele>
        <time>2022-09-18T09:53:05.000Z</time>
      </trkpt>
      <trkpt lat="44.40093" lon="2.43644">
        <ele>500.7</ele>
        <time>2022-09-18T09:53:08.000Z</time>
      </trkpt>
      <trkpt lat="44.40096" lon="2.43658">
        <ele>500.9</ele>
        <time>2022-09-18T09:53:11.000Z</time>
      </trkpt>
      <trkpt lat="44.40099" lon="2.43672">
        <ele>501.3</ele>
        <time>2022-09-18T09:53:14.000Z</time>
      </trkpt>
      <trkpt lat="44.40101" lon="2.43686">
        <ele>502.7</ele>
        <time>2022-09-18T09:53:17.000Z</time>
      </trkpt>
      <trkpt lat="44.40102" lon="2.437">
        <ele>503.4</ele>
        <time>2022-09-18T09:53:20.000Z</time>
      </trkpt>
      <trkpt lat="44.40103" lon="2.43714">
        <ele>504.6</ele>
        <time>2022-09-18T09:53:23.000Z</time>
      </trkpt>
      <trkpt lat="44.40103" lon="2.43728">
        <ele>504.9</ele>
        <time>2022-09-18T09:53:26.000Z</time>
      </trkpt>
      <trkpt lat="44.40101" lon="2.43742">
        <ele>506.2</ele>
        <time>2022-09-18T09:53:29.000Z</time>
      </trkpt>
      <trkpt lat="44.40098" lon="2.43756">
        <ele>507</ele>
        <time>2022-09-18T09:53:32.000Z</time>
      </trkpt>
      <trkpt lat="44.40095" lon="2.43769">
        <ele>507.8</ele>
        <time>2022-09-18T09:53:35.000Z</time>
      </trkpt>
      <trkpt lat="44.4009" lon="2.43781">
        <ele>508.5</ele>
        <time>2022-09-18T09:53:38.000Z</time>
      </trkpt>
      <trkpt lat="44.40082" lon="2.43791">
        <ele>508.7</ele>
        <time>2022-09-18T09:53:41.000Z</time>
      </trkpt>
      <trkpt lat="44.40076" lon="2.43801">
        <ele>508.5</ele>
        <time>2022-09-18T09:53:44.000Z</time>
      </trkpt>
      <trkpt lat="44.4007" lon="2.43812">
        <ele>508.8</ele>
        <time>2022-09-18T09:53:47.000Z</time>
      </trkpt>
      <trkpt lat="44.40066" lon="2.43824">
        <ele>510.3</ele>
        <time>2022-09-18T09:53:50.000Z</time>
      </trkpt>
      <trkpt lat="44.40061" lon="2.43836">
        <ele>511.3</ele>
        <time>2022-09-18T09:53:53.000Z</time>
      </trkpt>
      <trkpt lat="44.40057" lon="2.43849">
        <ele>511.9</ele>
        <time>2022-09-18T09:53:56.000Z</time>
      </trkpt>
      <trkpt lat="44.40053" lon="2.43862">
        <ele>512.6</ele>
        <time>2022-09-18T09:53:59.000Z</time>
      </trkpt>
      <trkpt lat="44.40049" lon="2.43875">
        <ele>513.5</ele>
        <time>2022-09-18T09:54:02.000Z</time>
      </trkpt>
      <trkpt lat="44.40044" lon="2.43887">
        <ele>513.9</ele>
        <time>2022-09-18T09:54:05.000Z</time>
      </trkpt>
      <trkpt lat="44.40038" lon="2.43898">
        <ele>515.3</ele>
        <time>2022-09-18T09:54:08.000Z</time>
      </trkpt>
      <trkpt lat="44.40031" lon="2.43908">
        <ele>515.7</ele>
        <time>2022-09-18T09:54:11.000Z</time>
      </trkpt>
      <trkpt lat="44.40023" lon="2.43917">
        <ele>516.4</ele>
        <time>2022-09-18T09:54:14.000Z</time>
      </trkpt>
      <trkpt lat="44.40014" lon="2.43924">
        <ele>517.4</ele>
        <time>2022-09-18T09:54:17.000Z</time>
      </trkpt>
      <trkpt lat="44.40004" lon="2.43928">
        <ele>518.2</ele>
        <time>2022-09-18T09:54:20.000Z</time>
      </trkpt>
      <trkpt lat="44.39994" lon="2.43929">
        <ele>519.5</ele>
        <time>2022-09-18T09:54:23.000Z</time>
      </trkpt>
      <trkpt lat="44.39983" lon="2.43927">
        <ele>520</ele>
        <time>2022-09-18T09:54:26.000Z</time>
      </trkpt>
      <trkpt lat="44.39973" lon="2.43924">
        <ele>520.8</ele>
        <time>2022-09-18T09:54:29.000Z</time>
      </trkpt>
      <trkpt lat="44.39963" lon="2.43922">
        <ele>521.6</ele>
        <time>2022-09-18T09:54:32.000Z</time>
      </trkpt>
      <trkpt lat="44.39953" lon="2.43919">
        <ele>522.6</ele>
        <time>2022-09-18T09:54:35.000Z</time>
      </trkpt>
      <trkpt lat="44.39943" lon="2.43917">
        <ele>523.4</ele>
        <time>2022-09-18T09:54:38.000Z</time>
      </trkpt>
      <trkpt lat="44.39934" lon="2.43916">
        <ele>524.6</ele>
        <time>2022-09-18T09:54:41.000Z</time>
      </trkpt>
      <trkpt lat="44.39924" lon="2.43915">
        <ele>525.2</ele>
        <time>2022-09-18T09:54:44.000Z</time>
      </trkpt>
      <trkpt lat="44.39914" lon="2.43913">
        <ele>525.9</ele>
        <time>2022-09-18T09:54:47.000Z</time>
      </trkpt>
      <trkpt lat="44.39904" lon="2.4391">
        <ele>526.9</ele>
        <time>2022-09-18T09:54:50.000Z</time>
      </trkpt>
      <trkpt lat="44.39893" lon="2.43908">
        <ele>528.1</ele>
        <time>2022-09-18T09:54:53.000Z</time>
      </trkpt>
      <trkpt lat="44.39883" lon="2.43909">
        <ele>528.3</ele>
        <time>2022-09-18T09:54:56.000Z</time>
      </trkpt>
      <trkpt lat="44.39873" lon="2.43913">
        <ele>528.9</ele>
        <time>2022-09-18T09:54:59.000Z</time>
      </trkpt>
      <trkpt lat="44.39863" lon="2.43917">
        <ele>529.9</ele>
        <time>2022-09-18T09:55:02.000Z</time>
      </trkpt>
      <trkpt lat="44.39852" lon="2.43921">
        <ele>530.7</ele>
        <time>2022-09-18T09:55:05.000Z</time>
      </trkpt>
      <trkpt lat="44.39843" lon="2.43925">
        <ele>531.3</ele>
        <time>2022-09-18T09:55:08.000Z</time>
      </trkpt>
      <trkpt lat="44.39833" lon="2.43929">
        <ele>532.6</ele>
        <time>2022-09-18T09:55:11.000Z</time>
      </trkpt>
      <trkpt lat="44.39823" lon="2.43931">
        <ele>533.5</ele>
        <time>2022-09-18T09:55:14.000Z</time>
      </trkpt>
      <trkpt lat="44.39813" lon="2.43933">
        <ele>534</ele>
        <time>2022-09-18T09:55:17.000Z</time>
      </trkpt>
      <trkpt lat="44.39803" lon="2.43935">
        <ele>534.9</ele>
        <time>2022-09-18T09:55:20.000Z</time>
      </trkpt>
      <trkpt lat="44.39793" lon="2.43936">
        <ele>535.3</ele>
        <time>2022-09-18T09:55:23.000Z</time>
      </trkpt>
      <trkpt lat="44.39783" lon="2.43939">
        <ele>536.3</ele>
        <time>2022-09-18T09:55:26.000Z</time>
      </trkpt>
      <trkpt lat="44.39774" lon="2.43944">
        <ele>537.4</ele>
        <time>2022-09-18T09:55:29.000Z</time>
      </trkpt>
      <trkpt lat="44.39766" lon="2.43951">
        <ele>538.1</ele>
        <time>2022-09-18T09:55:32.000Z</time>
      </trkpt>
      <trkpt lat="44.39758" lon="2.43959">
        <ele>539.2</ele>
        <time>2022-09-18T09:55:35.000Z</time>
      </trkpt>
      <trkpt lat="44.3975" lon="2.43967">
        <ele>539.9</ele>
        <time>2022-09-18T09:55:38.000Z</time>
      </trkpt>
      <trkpt lat="44.39742" lon="2.43976">
        <ele>540.7</ele>
        <time>2022-09-18T09:55:41.000Z</time>
      </trkpt>
      <trkpt lat="44.39734" lon="2.43985">
        <ele>541.9</ele>
        <time>2022-09-18T09:55:44.000Z</time>
      </trkpt>
      <trkpt lat="44.39727" lon="2.43995">
        <ele>542.3</ele>
        <time>2022-09-18T09:55:47.000Z</time>
      </trkpt>
      <trkpt lat="44.39719" lon="2.44006">
        <ele>542.7</ele>
        <time>2022-09-18T09:55:50.000Z</time>
      </trkpt>
      <trkpt lat="44.39713" lon="2.44016">
        <ele>544.4</ele>
        <time>2022-09-18T09:55:53.000Z</time>
      </trkpt>
      <trkpt lat="44.39706" lon="2.44028">
        <ele>544.8</ele>
        <time>2022-09-18T09:55:56.000Z</time>
      </trkpt>
      <trkpt lat="44.39698" lon="2.44038">
        <ele>545.4</ele>
        <time>2022-09-18T09:55:59.000Z</time>
      </trkpt>
      <trkpt lat="44.39691" lon="2.44047">
        <ele>547</ele>
        <time>2022-09-18T09:56:02.000Z</time>
      </trkpt>
      <trkpt lat="44.39682" lon="2.44057">
        <ele>547.8</ele>
        <time>2022-09-18T09:56:05.000Z</time>
      </trkpt>
      <trkpt lat="44.39672" lon="2.44067">
        <ele>548.9</ele>
        <time>2022-09-18T09:56:08.000Z</time>
      </trkpt>
      <trkpt lat="44.39663" lon="2.44076">
        <ele>549.8</ele>
        <time>2022-09-18T09:56:11.000Z</time>
      </trkpt>
      <trkpt lat="44.39655" lon="2.44085">
        <ele>550.3</ele>
        <time>2022-09-18T09:56:14.000Z</time>
      </trkpt>
      <trkpt lat="44.39646" lon="2.44094">
        <ele>551.7</ele>
        <time>2022-09-18T09:56:17.000Z</time>
      </trkpt>
      <trkpt lat="44.39637" lon="2.44101">
        <ele>552.5</ele>
        <time>2022-09-18T09:56:20.000Z</time>
      </trkpt>
      <trkpt lat="44.39628" lon="2.44109">
        <ele>553.3</ele>
        <time>2022-09-18T09:56:23.000Z</time>
      </trkpt>
      <trkpt lat="44.39619" lon="2.44118">
        <ele>553.5</ele>
        <time>2022-09-18T09:56:26.000Z</time>
      </trkpt>
      <trkpt lat="44.39611" lon="2.44127">
        <ele>554.6</ele>
        <time>2022-09-18T09:56:29.000Z</time>
      </trkpt>
      <trkpt lat="44.39603" lon="2.44137">
        <ele>555.5</ele>
        <time>2022-09-18T09:56:32.000Z</time>
      </trkpt>
      <trkpt lat="44.39595" lon="2.44146">
        <ele>556.1</ele>
        <time>2022-09-18T09:56:35.000Z</time>
      </trkpt>
      <trkpt lat="44.39586" lon="2.44155">
        <ele>557.3</ele>
        <time>2022-09-18T09:56:38.000Z</time>
      </trkpt>
      <trkpt lat="44.39578" lon="2.44164">
        <ele>557.4</ele>
        <time>2022-09-18T09:56:41.000Z</time>
      </trkpt>
      <trkpt lat="44.39569" lon="2.44174">
        <ele>558.3</ele>
        <time>2022-09-18T09:56:44.000Z</time>
      </trkpt>
      <trkpt lat="44.39561" lon="2.44184">
        <ele>559.2</ele>
        <time>2022-09-18T09:56:47.000Z</time>
      </trkpt>
      <trkpt lat="44.39552" lon="2.44194">
        <ele>560.3</ele>
        <time>2022-09-18T09:56:50.000Z</time>
      </trkpt>
      <trkpt lat="44.39544" lon="2.44204">
        <ele>560.7</ele>
        <time>2022-09-18T09:56:53.000Z</time>
      </trkpt>
      <trkpt lat="44.39536" lon="2.44213">
        <ele>561.1</ele>
        <time>2022-09-18T09:56:56.000Z</time>
      </trkpt>
      <trkpt lat="44.39527" lon="2.44224">
        <ele>561.6</ele>
        <time>2022-09-18T09:56:59.000Z</time>
      </trkpt>
      <trkpt lat="44.39519" lon="2.44235">
        <ele>562.2</ele>
        <time>2022-09-18T09:57:02.000Z</time>
      </trkpt>
      <trkpt lat="44.3951" lon="2.44246">
        <ele>563.3</ele>
        <time>2022-09-18T09:57:05.000Z</time>
      </trkpt>
      <trkpt lat="44.39502" lon="2.44257">
        <ele>564.4</ele>
        <time>2022-09-18T09:57:08.000Z</time>
      </trkpt>
      <trkpt lat="44.39495" lon="2.44268">
        <ele>564.9</ele>
        <time>2022-09-18T09:57:11.000Z</time>
      </trkpt>
      <trkpt lat="44.39487" lon="2.4428">
        <ele>565.5</ele>
        <time>2022-09-18T09:57:14.000Z</time>
      </trkpt>
      <trkpt lat="44.3948" lon="2.44292">
        <ele>566.2</ele>
        <time>2022-09-18T09:57:17.000Z</time>
      </trkpt>
      <trkpt lat="44.39473" lon="2.44306">
        <ele>566.9</ele>
        <time>2022-09-18T09:57:20.000Z</time>
      </trkpt>
      <trkpt lat="44.39468" lon="2.4432">
        <ele>567.6</ele>
        <time>2022-09-18T09:57:23.000Z</time>
      </trkpt>
      <trkpt lat="44.39464" lon="2.44333">
        <ele>567.8</ele>
        <time>2022-09-18T09:57:26.000Z</time>
      </trkpt>
      <trkpt lat="44.39462" lon="2.44348">
        <ele>568.5</ele>
        <time>2022-09-18T09:57:29.000Z</time>
      </trkpt>
      <trkpt lat="44.39469" lon="2.44357">
        <ele>569.3</ele>
        <time>2022-09-18T09:57:32.000Z</time>
      </trkpt>
      <trkpt lat="44.39478" lon="2.44357">
        <ele>570.5</ele>
        <time>2022-09-18T09:57:35.000Z</time>
      </trkpt>
      <trkpt lat="44.3949" lon="2.44355">
        <ele>571.3</ele>
        <time>2022-09-18T09:57:39.000Z</time>
      </trkpt>
      <trkpt lat="44.395" lon="2.44354">
        <ele>571.8</ele>
        <time>2022-09-18T09:57:42.000Z</time>
      </trkpt>
      <trkpt lat="44.3951" lon="2.44353">
        <ele>572.5</ele>
        <time>2022-09-18T09:57:45.000Z</time>
      </trkpt>
      <trkpt lat="44.39519" lon="2.44351">
        <ele>572.9</ele>
        <time>2022-09-18T09:57:48.000Z</time>
      </trkpt>
      <trkpt lat="44.39529" lon="2.4435">
        <ele>573.1</ele>
        <time>2022-09-18T09:57:51.000Z</time>
      </trkpt>
      <trkpt lat="44.3954" lon="2.44348">
        <ele>573.2</ele>
        <time>2022-09-18T09:57:54.000Z</time>
      </trkpt>
      <trkpt lat="44.39551" lon="2.44346">
        <ele>573.9</ele>
        <time>2022-09-18T09:57:57.000Z</time>
      </trkpt>
      <trkpt lat="44.39562" lon="2.44344">
        <ele>573.9</ele>
        <time>2022-09-18T09:58:00.000Z</time>
      </trkpt>
      <trkpt lat="44.39572" lon="2.44339">
        <ele>574.3</ele>
        <time>2022-09-18T09:58:03.000Z</time>
      </trkpt>
      <trkpt lat="44.3958" lon="2.44326">
        <ele>574.3</ele>
        <time>2022-09-18T09:58:06.000Z</time>
      </trkpt>
      <trkpt lat="44.39588" lon="2.44313">
        <ele>575.6</ele>
        <time>2022-09-18T09:58:09.000Z</time>
      </trkpt>
      <trkpt lat="44.39596" lon="2.44301">
        <ele>575.5</ele>
        <time>2022-09-18T09:58:12.000Z</time>
      </trkpt>
      <trkpt lat="44.39605" lon="2.44289">
        <ele>575.7</ele>
        <time>2022-09-18T09:58:15.000Z</time>
      </trkpt>
      <trkpt lat="44.39614" lon="2.44278">
        <ele>576.4</ele>
        <time>2022-09-18T09:58:18.000Z</time>
      </trkpt>
      <trkpt lat="44.39624" lon="2.44267">
        <ele>576.5</ele>
        <time>2022-09-18T09:58:21.000Z</time>
      </trkpt>
      <trkpt lat="44.39633" lon="2.44256">
        <ele>576.3</ele>
        <time>2022-09-18T09:58:24.000Z</time>
      </trkpt>
      <trkpt lat="44.39643" lon="2.44245">
        <ele>576.7</ele>
        <time>2022-09-18T09:58:27.000Z</time>
      </trkpt>
      <trkpt lat="44.39653" lon="2.44236">
        <ele>577.5</ele>
        <time>2022-09-18T09:58:30.000Z</time>
      </trkpt>
      <trkpt lat="44.39663" lon="2.44225">
        <ele>577.4</ele>
        <time>2022-09-18T09:58:33.000Z</time>
      </trkpt>
      <trkpt lat="44.3967" lon="2.44217">
        <ele>577.5</ele>
        <time>2022-09-18T09:58:35.000Z</time>
      </trkpt>
      <trkpt lat="44.39677" lon="2.44209">
        <ele>577.9</ele>
        <time>2022-09-18T09:58:37.000Z</time>
      </trkpt>
      <trkpt lat="44.39685" lon="2.44203">
        <ele>578.3</ele>
        <time>2022-09-18T09:58:39.000Z</time>
      </trkpt>
      <trkpt lat="44.39697" lon="2.44194">
        <ele>577.8</ele>
        <time>2022-09-18T09:58:42.000Z</time>
      </trkpt>
      <trkpt lat="44.39709" lon="2.44186">
        <ele>578.9</ele>
        <time>2022-09-18T09:58:45.000Z</time>
      </trkpt>
      <trkpt lat="44.39722" lon="2.44179">
        <ele>579</ele>
        <time>2022-09-18T09:58:48.000Z</time>
      </trkpt>
      <trkpt lat="44.39734" lon="2.44172">
        <ele>579.7</ele>
        <time>2022-09-18T09:58:51.000Z</time>
      </trkpt>
      <trkpt lat="44.39745" lon="2.44167">
        <ele>579.8</ele>
        <time>2022-09-18T09:58:54.000Z</time>
      </trkpt>
      <trkpt lat="44.39757" lon="2.44162">
        <ele>580.8</ele>
        <time>2022-09-18T09:58:57.000Z</time>
      </trkpt>
      <trkpt lat="44.3977" lon="2.44159">
        <ele>580.7</ele>
        <time>2022-09-18T09:59:00.000Z</time>
      </trkpt>
      <trkpt lat="44.39782" lon="2.44157">
        <ele>581.3</ele>
        <time>2022-09-18T09:59:03.000Z</time>
      </trkpt>
      <trkpt lat="44.39794" lon="2.44156">
        <ele>581.7</ele>
        <time>2022-09-18T09:59:06.000Z</time>
      </trkpt>
      <trkpt lat="44.39806" lon="2.44155">
        <ele>582.4</ele>
        <time>2022-09-18T09:59:09.000Z</time>
      </trkpt>
      <trkpt lat="44.39819" lon="2.44153">
        <ele>582.5</ele>
        <time>2022-09-18T09:59:12.000Z</time>
      </trkpt>
      <trkpt lat="44.39829" lon="2.44152">
        <ele>583.2</ele>
        <time>2022-09-18T09:59:14.000Z</time>
      </trkpt>
      <trkpt lat="44.39838" lon="2.44151">
        <ele>582.8</ele>
        <time>2022-09-18T09:59:16.000Z</time>
      </trkpt>
      <trkpt lat="44.39847" lon="2.4415">
        <ele>582.9</ele>
        <time>2022-09-18T09:59:18.000Z</time>
      </trkpt>
      <trkpt lat="44.39856" lon="2.4415">
        <ele>583.1</ele>
        <time>2022-09-18T09:59:20.000Z</time>
      </trkpt>
      <trkpt lat="44.39866" lon="2.44151">
        <ele>582.8</ele>
        <time>2022-09-18T09:59:22.000Z</time>
      </trkpt>
      <trkpt lat="44.39875" lon="2.44153">
        <ele>583.8</ele>
        <time>2022-09-18T09:59:24.000Z</time>
      </trkpt>
      <trkpt lat="44.39884" lon="2.44155">
        <ele>583.8</ele>
        <time>2022-09-18T09:59:26.000Z</time>
      </trkpt>
      <trkpt lat="44.39893" lon="2.44158">
        <ele>584.2</ele>
        <time>2022-09-18T09:59:28.000Z</time>
      </trkpt>
      <trkpt lat="44.39903" lon="2.4416">
        <ele>584.5</ele>
        <time>2022-09-18T09:59:30.000Z</time>
      </trkpt>
      <trkpt lat="44.39912" lon="2.44164">
        <ele>585.2</ele>
        <time>2022-09-18T09:59:32.000Z</time>
      </trkpt>
      <trkpt lat="44.39921" lon="2.44167">
        <ele>584.6</ele>
        <time>2022-09-18T09:59:34.000Z</time>
      </trkpt>
      <trkpt lat="44.39933" lon="2.44172">
        <ele>584.9</ele>
        <time>2022-09-18T09:59:37.000Z</time>
      </trkpt>
      <trkpt lat="44.39942" lon="2.44176">
        <ele>585.3</ele>
        <time>2022-09-18T09:59:39.000Z</time>
      </trkpt>
      <trkpt lat="44.39951" lon="2.44179">
        <ele>585.3</ele>
        <time>2022-09-18T09:59:41.000Z</time>
      </trkpt>
      <trkpt lat="44.3996" lon="2.44182">
        <ele>585.6</ele>
        <time>2022-09-18T09:59:43.000Z</time>
      </trkpt>
      <trkpt lat="44.39969" lon="2.44186">
        <ele>585.6</ele>
        <time>2022-09-18T09:59:45.000Z</time>
      </trkpt>
      <trkpt lat="44.39978" lon="2.4419">
        <ele>585.7</ele>
        <time>2022-09-18T09:59:47.000Z</time>
      </trkpt>
      <trkpt lat="44.3999" lon="2.44195">
        <ele>585.8</ele>
        <time>2022-09-18T09:59:50.000Z</time>
      </trkpt>
      <trkpt lat="44.4" lon="2.44199">
        <ele>586.4</ele>
        <time>2022-09-18T09:59:53.000Z</time>
      </trkpt>
      <trkpt lat="44.40012" lon="2.44204">
        <ele>586.3</ele>
        <time>2022-09-18T09:59:56.000Z</time>
      </trkpt>
      <trkpt lat="44.40023" lon="2.44209">
        <ele>586.7</ele>
        <time>2022-09-18T09:59:58.000Z</time>
      </trkpt>
      <trkpt lat="44.40033" lon="2.44212">
        <ele>586.7</ele>
        <time>2022-09-18T10:00:00.000Z</time>
      </trkpt>
      <trkpt lat="44.40043" lon="2.44217">
        <ele>586.5</ele>
        <time>2022-09-18T10:00:02.000Z</time>
      </trkpt>
      <trkpt lat="44.40053" lon="2.44221">
        <ele>586.7</ele>
        <time>2022-09-18T10:00:04.000Z</time>
      </trkpt>
      <trkpt lat="44.40063" lon="2.44225">
        <ele>587</ele>
        <time>2022-09-18T10:00:06.000Z</time>
      </trkpt>
      <trkpt lat="44.40074" lon="2.4423">
        <ele>586.5</ele>
        <time>2022-09-18T10:00:08.000Z</time>
      </trkpt>
      <trkpt lat="44.40084" lon="2.44235">
        <ele>586.2</ele>
        <time>2022-09-18T10:00:10.000Z</time>
      </trkpt>
      <trkpt lat="44.40095" lon="2.4424">
        <ele>585.8</ele>
        <time>2022-09-18T10:00:12.000Z</time>
      </trkpt>
      <trkpt lat="44.40106" lon="2.44245">
        <ele>585.3</ele>
        <time>2022-09-18T10:00:14.000Z</time>
      </trkpt>
      <trkpt lat="44.40118" lon="2.44249">
        <ele>585.6</ele>
        <time>2022-09-18T10:00:16.000Z</time>
      </trkpt>
      <trkpt lat="44.4013" lon="2.44252">
        <ele>585.3</ele>
        <time>2022-09-18T10:00:18.000Z</time>
      </trkpt>
      <trkpt lat="44.40141" lon="2.44254">
        <ele>584.9</ele>
        <time>2022-09-18T10:00:20.000Z</time>
      </trkpt>
      <trkpt lat="44.40151" lon="2.44256">
        <ele>584.8</ele>
        <time>2022-09-18T10:00:22.000Z</time>
      </trkpt>
      <trkpt lat="44.40161" lon="2.44258">
        <ele>584.9</ele>
        <time>2022-09-18T10:00:24.000Z</time>
      </trkpt>
      <trkpt lat="44.40171" lon="2.44261">
        <ele>584.4</ele>
        <time>2022-09-18T10:00:26.000Z</time>
      </trkpt>
      <trkpt lat="44.4018" lon="2.44263">
        <ele>584.7</ele>
        <time>2022-09-18T10:00:28.000Z</time>
      </trkpt>
      <trkpt lat="44.40192" lon="2.44267">
        <ele>584.8</ele>
        <time>2022-09-18T10:00:31.000Z</time>
      </trkpt>
      <trkpt lat="44.40204" lon="2.44269">
        <ele>584.6</ele>
        <time>2022-09-18T10:00:34.000Z</time>
      </trkpt>
      <trkpt lat="44.40216" lon="2.44269">
        <ele>584.1</ele>
        <time>2022-09-18T10:00:37.000Z</time>
      </trkpt>
      <trkpt lat="44.40228" lon="2.44268">
        <ele>583.7</ele>
        <time>2022-09-18T10:00:40.000Z</time>
      </trkpt>
      <trkpt lat="44.40238" lon="2.44268">
        <ele>583.2</ele>
        <time>2022-09-18T10:00:43.000Z</time>
      </trkpt>
      <trkpt lat="44.40248" lon="2.44262">
        <ele>582.5</ele>
        <time>2022-09-18T10:00:47.000Z</time>
      </trkpt>
      <trkpt lat="44.40249" lon="2.44247">
        <ele>582.8</ele>
        <time>2022-09-18T10:00:50.000Z</time>
      </trkpt>
      <trkpt lat="44.40253" lon="2.44231">
        <ele>582.4</ele>
        <time>2022-09-18T10:00:53.000Z</time>
      </trkpt>
      <trkpt lat="44.40256" lon="2.44215">
        <ele>582.7</ele>
        <time>2022-09-18T10:00:56.000Z</time>
      </trkpt>
      <trkpt lat="44.40259" lon="2.44201">
        <ele>583.4</ele>
        <time>2022-09-18T10:00:59.000Z</time>
      </trkpt>
      <trkpt lat="44.40261" lon="2.44182">
        <ele>583.9</ele>
        <time>2022-09-18T10:01:02.000Z</time>
      </trkpt>
      <trkpt lat="44.40261" lon="2.44169">
        <ele>583.9</ele>
        <time>2022-09-18T10:01:04.000Z</time>
      </trkpt>
      <trkpt lat="44.40259" lon="2.44157">
        <ele>583.6</ele>
        <time>2022-09-18T10:01:06.000Z</time>
      </trkpt>
      <trkpt lat="44.40257" lon="2.44144">
        <ele>583.8</ele>
        <time>2022-09-18T10:01:08.000Z</time>
      </trkpt>
      <trkpt lat="44.40254" lon="2.44132">
        <ele>583.8</ele>
        <time>2022-09-18T10:01:10.000Z</time>
      </trkpt>
      <trkpt lat="44.4025" lon="2.44116">
        <ele>583.6</ele>
        <time>2022-09-18T10:01:13.000Z</time>
      </trkpt>
      <trkpt lat="44.40245" lon="2.44102">
        <ele>583.4</ele>
        <time>2022-09-18T10:01:16.000Z</time>
      </trkpt>
      <trkpt lat="44.40242" lon="2.44087">
        <ele>583.5</ele>
        <time>2022-09-18T10:01:19.000Z</time>
      </trkpt>
      <trkpt lat="44.4024" lon="2.44074">
        <ele>582.8</ele>
        <time>2022-09-18T10:01:22.000Z</time>
      </trkpt>
      <trkpt lat="44.4024" lon="2.44065">
        <ele>582.5</ele>
        <time>2022-09-18T10:01:27.000Z</time>
      </trkpt>
      <trkpt lat="44.4024" lon="2.44065">
        <ele>580.8</ele>
        <time>2022-09-18T10:02:43.000Z</time>
      </trkpt>
      <trkpt lat="44.40236" lon="2.44052">
        <ele>580.1</ele>
        <time>2022-09-18T10:02:49.000Z</time>
      </trkpt>
      <trkpt lat="44.4023" lon="2.44042">
        <ele>579.5</ele>
        <time>2022-09-18T10:02:53.000Z</time>
      </trkpt>
      <trkpt lat="44.40222" lon="2.44032">
        <ele>579.4</ele>
        <time>2022-09-18T10:02:56.000Z</time>
      </trkpt>
      <trkpt lat="44.40213" lon="2.44022">
        <ele>578.8</ele>
        <time>2022-09-18T10:02:59.000Z</time>
      </trkpt>
      <trkpt lat="44.40205" lon="2.4401">
        <ele>578.7</ele>
        <time>2022-09-18T10:03:02.000Z</time>
      </trkpt>
      <trkpt lat="44.40195" lon="2.43997">
        <ele>578.6</ele>
        <time>2022-09-18T10:03:05.000Z</time>
      </trkpt>
      <trkpt lat="44.40189" lon="2.43986">
        <ele>577.8</ele>
        <time>2022-09-18T10:03:07.000Z</time>
      </trkpt>
      <trkpt lat="44.40184" lon="2.43973">
        <ele>576.2</ele>
        <time>2022-09-18T10:03:09.000Z</time>
      </trkpt>
      <trkpt lat="44.40179" lon="2.43958">
        <ele>575.7</ele>
        <time>2022-09-18T10:03:11.000Z</time>
      </trkpt>
      <trkpt lat="44.40174" lon="2.43943">
        <ele>574.5</ele>
        <time>2022-09-18T10:03:13.000Z</time>
      </trkpt>
      <trkpt lat="44.40169" lon="2.43929">
        <ele>573.7</ele>
        <time>2022-09-18T10:03:15.000Z</time>
      </trkpt>
      <trkpt lat="44.40163" lon="2.43915">
        <ele>572.2</ele>
        <time>2022-09-18T10:03:17.000Z</time>
      </trkpt>
      <trkpt lat="44.40157" lon="2.43903">
        <ele>569.9</ele>
        <time>2022-09-18T10:03:20.000Z</time>
      </trkpt>
      <trkpt lat="44.40154" lon="2.43891">
        <ele>568.4</ele>
        <time>2022-09-18T10:03:23.000Z</time>
      </trkpt>
      <trkpt lat="44.40153" lon="2.43876">
        <ele>566.7</ele>
        <time>2022-09-18T10:03:25.000Z</time>
      </trkpt>
      <trkpt lat="44.40151" lon="2.43862">
        <ele>565.8</ele>
        <time>2022-09-18T10:03:27.000Z</time>
      </trkpt>
      <trkpt lat="44.4015" lon="2.43849">
        <ele>563.4</ele>
        <time>2022-09-18T10:03:29.000Z</time>
      </trkpt>
      <trkpt lat="44.4015" lon="2.43836">
        <ele>562.3</ele>
        <time>2022-09-18T10:03:31.000Z</time>
      </trkpt>
      <trkpt lat="44.40156" lon="2.43824">
        <ele>560.2</ele>
        <time>2022-09-18T10:03:33.000Z</time>
      </trkpt>
      <trkpt lat="44.40163" lon="2.43814">
        <ele>558.5</ele>
        <time>2022-09-18T10:03:36.000Z</time>
      </trkpt>
      <trkpt lat="44.40165" lon="2.43801">
        <ele>556.7</ele>
        <time>2022-09-18T10:03:42.000Z</time>
      </trkpt>
      <trkpt lat="44.40167" lon="2.43787">
        <ele>554.8</ele>
        <time>2022-09-18T10:03:48.000Z</time>
      </trkpt>
      <trkpt lat="44.40168" lon="2.43774">
        <ele>553</ele>
        <time>2022-09-18T10:03:52.000Z</time>
      </trkpt>
      <trkpt lat="44.4017" lon="2.4376">
        <ele>551.7</ele>
        <time>2022-09-18T10:03:55.000Z</time>
      </trkpt>
      <trkpt lat="44.40175" lon="2.43746">
        <ele>551</ele>
        <time>2022-09-18T10:03:59.000Z</time>
      </trkpt>
      <trkpt lat="44.40179" lon="2.43739">
        <ele>551.6</ele>
        <time>2022-09-18T10:04:06.000Z</time>
      </trkpt>
      <trkpt lat="44.40179" lon="2.43739">
        <ele>551.7</ele>
        <time>2022-09-18T10:04:07.000Z</time>
      </trkpt>
      <trkpt lat="44.40179" lon="2.43737">
        <ele>551.7</ele>
        <time>2022-09-18T10:04:13.000Z</time>
      </trkpt>
      <trkpt lat="44.40179" lon="2.43736">
        <ele>552.5</ele>
        <time>2022-09-18T10:04:24.000Z</time>
      </trkpt>
      <trkpt lat="44.40182" lon="2.43731">
        <ele>552.3</ele>
        <time>2022-09-18T10:04:29.000Z</time>
      </trkpt>
      <trkpt lat="44.40182" lon="2.4373">
        <ele>552.3</ele>
        <time>2022-09-18T10:04:32.000Z</time>
      </trkpt>
      <trkpt lat="44.40183" lon="2.43718">
        <ele>553.2</ele>
        <time>2022-09-18T10:04:43.000Z</time>
      </trkpt>
      <trkpt lat="44.40184" lon="2.43705">
        <ele>553.1</ele>
        <time>2022-09-18T10:04:47.000Z</time>
      </trkpt>
      <trkpt lat="44.40185" lon="2.43692">
        <ele>554</ele>
        <time>2022-09-18T10:04:51.000Z</time>
      </trkpt>
      <trkpt lat="44.40183" lon="2.43679">
        <ele>553.6</ele>
        <time>2022-09-18T10:04:56.000Z</time>
      </trkpt>
      <trkpt lat="44.40182" lon="2.43665">
        <ele>552.9</ele>
        <time>2022-09-18T10:05:00.000Z</time>
      </trkpt>
      <trkpt lat="44.40184" lon="2.43652">
        <ele>553.8</ele>
        <time>2022-09-18T10:05:04.000Z</time>
      </trkpt>
      <trkpt lat="44.40183" lon="2.43636">
        <ele>554.8</ele>
        <time>2022-09-18T10:05:09.000Z</time>
      </trkpt>
      <trkpt lat="44.40183" lon="2.43621">
        <ele>554.4</ele>
        <time>2022-09-18T10:05:12.000Z</time>
      </trkpt>
      <trkpt lat="44.40181" lon="2.43605">
        <ele>554.3</ele>
        <time>2022-09-18T10:05:16.000Z</time>
      </trkpt>
      <trkpt lat="44.40177" lon="2.4359">
        <ele>554.4</ele>
        <time>2022-09-18T10:05:20.000Z</time>
      </trkpt>
      <trkpt lat="44.40173" lon="2.43578">
        <ele>554.5</ele>
        <time>2022-09-18T10:05:24.000Z</time>
      </trkpt>
      <trkpt lat="44.40168" lon="2.43563">
        <ele>554.8</ele>
        <time>2022-09-18T10:05:28.000Z</time>
      </trkpt>
      <trkpt lat="44.40165" lon="2.43549">
        <ele>555</ele>
        <time>2022-09-18T10:05:32.000Z</time>
      </trkpt>
      <trkpt lat="44.40165" lon="2.43533">
        <ele>555.3</ele>
        <time>2022-09-18T10:05:36.000Z</time>
      </trkpt>
      <trkpt lat="44.40166" lon="2.43521">
        <ele>555.3</ele>
        <time>2022-09-18T10:05:40.000Z</time>
      </trkpt>
      <trkpt lat="44.40168" lon="2.43505">
        <ele>556.4</ele>
        <time>2022-09-18T10:05:44.000Z</time>
      </trkpt>
      <trkpt lat="44.40167" lon="2.4349">
        <ele>555.1</ele>
        <time>2022-09-18T10:05:49.000Z</time>
      </trkpt>
      <trkpt lat="44.40166" lon="2.43477">
        <ele>554.7</ele>
        <time>2022-09-18T10:05:53.000Z</time>
      </trkpt>
      <trkpt lat="44.40167" lon="2.43462">
        <ele>555.2</ele>
        <time>2022-09-18T10:05:57.000Z</time>
      </trkpt>
      <trkpt lat="44.40167" lon="2.43449">
        <ele>554.8</ele>
        <time>2022-09-18T10:06:01.000Z</time>
      </trkpt>
      <trkpt lat="44.40169" lon="2.43436">
        <ele>555.4</ele>
        <time>2022-09-18T10:06:05.000Z</time>
      </trkpt>
      <trkpt lat="44.40169" lon="2.43421">
        <ele>553.7</ele>
        <time>2022-09-18T10:06:10.000Z</time>
      </trkpt>
      <trkpt lat="44.40171" lon="2.43407">
        <ele>552.6</ele>
        <time>2022-09-18T10:06:14.000Z</time>
      </trkpt>
      <trkpt lat="44.40172" lon="2.43394">
        <ele>551.1</ele>
        <time>2022-09-18T10:06:18.000Z</time>
      </trkpt>
      <trkpt lat="44.40176" lon="2.43381">
        <ele>549.5</ele>
        <time>2022-09-18T10:06:22.000Z</time>
      </trkpt>
      <trkpt lat="44.40181" lon="2.43368">
        <ele>547.3</ele>
        <time>2022-09-18T10:06:27.000Z</time>
      </trkpt>
      <trkpt lat="44.40183" lon="2.43355">
        <ele>544.3</ele>
        <time>2022-09-18T10:06:32.000Z</time>
      </trkpt>
      <trkpt lat="44.40188" lon="2.43342">
        <ele>541.4</ele>
        <time>2022-09-18T10:06:37.000Z</time>
      </trkpt>
      <trkpt lat="44.40194" lon="2.43332">
        <ele>538.8</ele>
        <time>2022-09-18T10:06:42.000Z</time>
      </trkpt>
      <trkpt lat="44.40201" lon="2.4332">
        <ele>536.6</ele>
        <time>2022-09-18T10:06:46.000Z</time>
      </trkpt>
      <trkpt lat="44.40209" lon="2.43312">
        <ele>535.3</ele>
        <time>2022-09-18T10:06:50.000Z</time>
      </trkpt>
      <trkpt lat="44.40212" lon="2.43311">
        <ele>535</ele>
        <time>2022-09-18T10:06:53.000Z</time>
      </trkpt>
      <trkpt lat="44.40212" lon="2.43311">
        <ele>535</ele>
        <time>2022-09-18T10:06:55.000Z</time>
      </trkpt>
      <trkpt lat="44.40212" lon="2.43311">
        <ele>534.6</ele>
        <time>2022-09-18T10:06:57.000Z</time>
      </trkpt>
      <trkpt lat="44.40212" lon="2.43311">
        <ele>534.7</ele>
        <time>2022-09-18T10:06:58.000Z</time>
      </trkpt>
      <trkpt lat="44.40215" lon="2.4331">
        <ele>534.5</ele>
        <time>2022-09-18T10:07:05.000Z</time>
      </trkpt>
      <trkpt lat="44.40215" lon="2.4331">
        <ele>534</ele>
        <time>2022-09-18T10:07:07.000Z</time>
      </trkpt>
      <trkpt lat="44.40221" lon="2.43301">
        <ele>530.9</ele>
        <time>2022-09-18T10:07:23.000Z</time>
      </trkpt>
      <trkpt lat="44.40223" lon="2.43299">
        <ele>530.7</ele>
        <time>2022-09-18T10:07:28.000Z</time>
      </trkpt>
      <trkpt lat="44.40223" lon="2.43299">
        <ele>530.6</ele>
        <time>2022-09-18T10:07:29.000Z</time>
      </trkpt>
      <trkpt lat="44.40229" lon="2.43289">
        <ele>528.6</ele>
        <time>2022-09-18T10:07:46.000Z</time>
      </trkpt>
      <trkpt lat="44.40226" lon="2.43288">
        <ele>527.2</ele>
        <time>2022-09-18T10:07:51.000Z</time>
      </trkpt>
      <trkpt lat="44.40226" lon="2.43288">
        <ele>527</ele>
        <time>2022-09-18T10:07:53.000Z</time>
      </trkpt>
      <trkpt lat="44.40225" lon="2.43288">
        <ele>526.7</ele>
        <time>2022-09-18T10:07:57.000Z</time>
      </trkpt>
      <trkpt lat="44.40215" lon="2.4329">
        <ele>526.2</ele>
        <time>2022-09-18T10:08:02.000Z</time>
      </trkpt>
      <trkpt lat="44.40206" lon="2.43286">
        <ele>524.4</ele>
        <time>2022-09-18T10:08:06.000Z</time>
      </trkpt>
      <trkpt lat="44.40195" lon="2.43288">
        <ele>521.8</ele>
        <time>2022-09-18T10:08:10.000Z</time>
      </trkpt>
      <trkpt lat="44.40188" lon="2.433">
        <ele>522.8</ele>
        <time>2022-09-18T10:08:14.000Z</time>
      </trkpt>
      <trkpt lat="44.40181" lon="2.4331">
        <ele>524</ele>
        <time>2022-09-18T10:08:17.000Z</time>
      </trkpt>
      <trkpt lat="44.40179" lon="2.43314">
        <ele>525.1</ele>
        <time>2022-09-18T10:08:21.000Z</time>
      </trkpt>
      <trkpt lat="44.40179" lon="2.43314">
        <ele>525</ele>
        <time>2022-09-18T10:08:24.000Z</time>
      </trkpt>
      <trkpt lat="44.40169" lon="2.43317">
        <ele>523</ele>
        <time>2022-09-18T10:08:30.000Z</time>
      </trkpt>
      <trkpt lat="44.4016" lon="2.43311">
        <ele>519.3</ele>
        <time>2022-09-18T10:08:35.000Z</time>
      </trkpt>
      <trkpt lat="44.40151" lon="2.43316">
        <ele>517.8</ele>
        <time>2022-09-18T10:08:39.000Z</time>
      </trkpt>
      <trkpt lat="44.40142" lon="2.43319">
        <ele>514.8</ele>
        <time>2022-09-18T10:08:44.000Z</time>
      </trkpt>
      <trkpt lat="44.40132" lon="2.43324">
        <ele>511.1</ele>
        <time>2022-09-18T10:08:49.000Z</time>
      </trkpt>
      <trkpt lat="44.40122" lon="2.43317">
        <ele>507.5</ele>
        <time>2022-09-18T10:08:54.000Z</time>
      </trkpt>
      <trkpt lat="44.40121" lon="2.43303">
        <ele>504.1</ele>
        <time>2022-09-18T10:08:58.000Z</time>
      </trkpt>
      <trkpt lat="44.40119" lon="2.43297">
        <ele>501.8</ele>
        <time>2022-09-18T10:09:02.000Z</time>
      </trkpt>
      <trkpt lat="44.40119" lon="2.43297">
        <ele>501.5</ele>
        <time>2022-09-18T10:09:13.000Z</time>
      </trkpt>
      <trkpt lat="44.40111" lon="2.43291">
        <ele>497.3</ele>
        <time>2022-09-18T10:09:29.000Z</time>
      </trkpt>
      <trkpt lat="44.40108" lon="2.43288">
        <ele>495</ele>
        <time>2022-09-18T10:09:37.000Z</time>
      </trkpt>
      <trkpt lat="44.40108" lon="2.43288">
        <ele>495.1</ele>
        <time>2022-09-18T10:09:38.000Z</time>
      </trkpt>
      <trkpt lat="44.40108" lon="2.43288">
        <ele>495.2</ele>
        <time>2022-09-18T10:09:39.000Z</time>
      </trkpt>
      <trkpt lat="44.40107" lon="2.43288">
        <ele>495.2</ele>
        <time>2022-09-18T10:09:40.000Z</time>
      </trkpt>
      <trkpt lat="44.40098" lon="2.43283">
        <ele>491.9</ele>
        <time>2022-09-18T10:09:47.000Z</time>
      </trkpt>
      <trkpt lat="44.40091" lon="2.43275">
        <ele>487.8</ele>
        <time>2022-09-18T10:09:54.000Z</time>
      </trkpt>
      <trkpt lat="44.40085" lon="2.43265">
        <ele>483.6</ele>
        <time>2022-09-18T10:09:58.000Z</time>
      </trkpt>
      <trkpt lat="44.40078" lon="2.43256">
        <ele>478.6</ele>
        <time>2022-09-18T10:10:03.000Z</time>
      </trkpt>
      <trkpt lat="44.40079" lon="2.43247">
        <ele>476.1</ele>
        <time>2022-09-18T10:10:09.000Z</time>
      </trkpt>
      <trkpt lat="44.40079" lon="2.43247">
        <ele>476</ele>
        <time>2022-09-18T10:10:12.000Z</time>
      </trkpt>
      <trkpt lat="44.40079" lon="2.43247">
        <ele>476.5</ele>
        <time>2022-09-18T10:10:13.000Z</time>
      </trkpt>
      <trkpt lat="44.40079" lon="2.43247">
        <ele>476.4</ele>
        <time>2022-09-18T10:10:18.000Z</time>
      </trkpt>
      <trkpt lat="44.40086" lon="2.43235">
        <ele>475.6</ele>
        <time>2022-09-18T10:10:24.000Z</time>
      </trkpt>
      <trkpt lat="44.40094" lon="2.43222">
        <ele>473.9</ele>
        <time>2022-09-18T10:10:27.000Z</time>
      </trkpt>
      <trkpt lat="44.40101" lon="2.43212">
        <ele>471.1</ele>
        <time>2022-09-18T10:10:34.000Z</time>
      </trkpt>
      <trkpt lat="44.40103" lon="2.43205">
        <ele>469.7</ele>
        <time>2022-09-18T10:10:40.000Z</time>
      </trkpt>
      <trkpt lat="44.40103" lon="2.43205">
        <ele>469.9</ele>
        <time>2022-09-18T10:10:43.000Z</time>
      </trkpt>
      <trkpt lat="44.401" lon="2.43191">
        <ele>467.3</ele>
        <time>2022-09-18T10:10:49.000Z</time>
      </trkpt>
      <trkpt lat="44.40094" lon="2.43181">
        <ele>464.1</ele>
        <time>2022-09-18T10:10:53.000Z</time>
      </trkpt>
      <trkpt lat="44.40085" lon="2.43174">
        <ele>461.7</ele>
        <time>2022-09-18T10:10:56.000Z</time>
      </trkpt>
      <trkpt lat="44.40074" lon="2.43175">
        <ele>459.5</ele>
        <time>2022-09-18T10:10:59.000Z</time>
      </trkpt>
      <trkpt lat="44.40064" lon="2.4318">
        <ele>456</ele>
        <time>2022-09-18T10:11:02.000Z</time>
      </trkpt>
      <trkpt lat="44.40055" lon="2.43187">
        <ele>454</ele>
        <time>2022-09-18T10:11:05.000Z</time>
      </trkpt>
      <trkpt lat="44.40055" lon="2.43171">
        <ele>451.7</ele>
        <time>2022-09-18T10:11:09.000Z</time>
      </trkpt>
      <trkpt lat="44.40059" lon="2.4316">
        <ele>450.1</ele>
        <time>2022-09-18T10:11:11.000Z</time>
      </trkpt>
      <trkpt lat="44.40063" lon="2.43145">
        <ele>447.7</ele>
        <time>2022-09-18T10:11:14.000Z</time>
      </trkpt>
      <trkpt lat="44.40068" lon="2.43132">
        <ele>445.7</ele>
        <time>2022-09-18T10:11:18.000Z</time>
      </trkpt>
      <trkpt lat="44.40074" lon="2.43123">
        <ele>444.8</ele>
        <time>2022-09-18T10:11:22.000Z</time>
      </trkpt>
      <trkpt lat="44.40072" lon="2.43108">
        <ele>440.6</ele>
        <time>2022-09-18T10:11:27.000Z</time>
      </trkpt>
      <trkpt lat="44.40066" lon="2.4309">
        <ele>438</ele>
        <time>2022-09-18T10:11:30.000Z</time>
      </trkpt>
      <trkpt lat="44.40064" lon="2.43077">
        <ele>436.3</ele>
        <time>2022-09-18T10:11:32.000Z</time>
      </trkpt>
      <trkpt lat="44.40062" lon="2.43065">
        <ele>433.5</ele>
        <time>2022-09-18T10:11:35.000Z</time>
      </trkpt>
      <trkpt lat="44.40057" lon="2.43049">
        <ele>429.6</ele>
        <time>2022-09-18T10:11:38.000Z</time>
      </trkpt>
      <trkpt lat="44.40054" lon="2.43036">
        <ele>428.3</ele>
        <time>2022-09-18T10:11:41.000Z</time>
      </trkpt>
      <trkpt lat="44.40051" lon="2.4302">
        <ele>423.5</ele>
        <time>2022-09-18T10:11:44.000Z</time>
      </trkpt>
      <trkpt lat="44.40051" lon="2.43007">
        <ele>422.6</ele>
        <time>2022-09-18T10:11:47.000Z</time>
      </trkpt>
      <trkpt lat="44.40052" lon="2.42993">
        <ele>419.8</ele>
        <time>2022-09-18T10:11:50.000Z</time>
      </trkpt>
      <trkpt lat="44.40052" lon="2.42979">
        <ele>417.9</ele>
        <time>2022-09-18T10:11:53.000Z</time>
      </trkpt>
      <trkpt lat="44.40049" lon="2.42964">
        <ele>416</ele>
        <time>2022-09-18T10:11:56.000Z</time>
      </trkpt>
      <trkpt lat="44.40043" lon="2.42951">
        <ele>413.4</ele>
        <time>2022-09-18T10:12:01.000Z</time>
      </trkpt>
      <trkpt lat="44.40041" lon="2.42938">
        <ele>412.8</ele>
        <time>2022-09-18T10:12:05.000Z</time>
      </trkpt>
      <trkpt lat="44.40045" lon="2.42925">
        <ele>411.7</ele>
        <time>2022-09-18T10:12:08.000Z</time>
      </trkpt>
      <trkpt lat="44.40051" lon="2.42908">
        <ele>409.7</ele>
        <time>2022-09-18T10:12:11.000Z</time>
      </trkpt>
      <trkpt lat="44.40055" lon="2.42895">
        <ele>409.1</ele>
        <time>2022-09-18T10:12:13.000Z</time>
      </trkpt>
      <trkpt lat="44.40061" lon="2.42882">
        <ele>408.5</ele>
        <time>2022-09-18T10:12:15.000Z</time>
      </trkpt>
      <trkpt lat="44.40071" lon="2.42867">
        <ele>406.2</ele>
        <time>2022-09-18T10:12:17.000Z</time>
      </trkpt>
      <trkpt lat="44.4008" lon="2.42851">
        <ele>404.4</ele>
        <time>2022-09-18T10:12:19.000Z</time>
      </trkpt>
      <trkpt lat="44.40088" lon="2.42836">
        <ele>402.9</ele>
        <time>2022-09-18T10:12:21.000Z</time>
      </trkpt>
      <trkpt lat="44.40095" lon="2.42823">
        <ele>401.3</ele>
        <time>2022-09-18T10:12:23.000Z</time>
      </trkpt>
      <trkpt lat="44.40103" lon="2.42813">
        <ele>400.2</ele>
        <time>2022-09-18T10:12:25.000Z</time>
      </trkpt>
      <trkpt lat="44.40113" lon="2.42807">
        <ele>398.5</ele>
        <time>2022-09-18T10:12:27.000Z</time>
      </trkpt>
      <trkpt lat="44.40123" lon="2.42805">
        <ele>397.8</ele>
        <time>2022-09-18T10:12:29.000Z</time>
      </trkpt>
      <trkpt lat="44.40133" lon="2.42806">
        <ele>396.7</ele>
        <time>2022-09-18T10:12:31.000Z</time>
      </trkpt>
      <trkpt lat="44.40144" lon="2.42809">
        <ele>395</ele>
        <time>2022-09-18T10:12:33.000Z</time>
      </trkpt>
      <trkpt lat="44.40157" lon="2.42814">
        <ele>394.2</ele>
        <time>2022-09-18T10:12:35.000Z</time>
      </trkpt>
      <trkpt lat="44.40168" lon="2.42812">
        <ele>393.1</ele>
        <time>2022-09-18T10:12:37.000Z</time>
      </trkpt>
      <trkpt lat="44.40178" lon="2.42802">
        <ele>393.4</ele>
        <time>2022-09-18T10:12:40.000Z</time>
      </trkpt>
      <trkpt lat="44.40186" lon="2.4279">
        <ele>393.1</ele>
        <time>2022-09-18T10:12:43.000Z</time>
      </trkpt>
      <trkpt lat="44.40195" lon="2.42782">
        <ele>392.4</ele>
        <time>2022-09-18T10:12:46.000Z</time>
      </trkpt>
      <trkpt lat="44.40204" lon="2.42775">
        <ele>392.4</ele>
        <time>2022-09-18T10:12:49.000Z</time>
      </trkpt>
      <trkpt lat="44.40215" lon="2.42768">
        <ele>392.5</ele>
        <time>2022-09-18T10:12:53.000Z</time>
      </trkpt>
      <trkpt lat="44.40224" lon="2.42763">
        <ele>392.8</ele>
        <time>2022-09-18T10:12:56.000Z</time>
      </trkpt>
      <trkpt lat="44.40233" lon="2.42758">
        <ele>392.6</ele>
        <time>2022-09-18T10:12:59.000Z</time>
      </trkpt>
      <trkpt lat="44.40242" lon="2.42753">
        <ele>392.6</ele>
        <time>2022-09-18T10:13:03.000Z</time>
      </trkpt>
      <trkpt lat="44.40251" lon="2.42745">
        <ele>392.4</ele>
        <time>2022-09-18T10:13:07.000Z</time>
      </trkpt>
      <trkpt lat="44.40258" lon="2.42736">
        <ele>391.7</ele>
        <time>2022-09-18T10:13:12.000Z</time>
      </trkpt>
      <trkpt lat="44.40265" lon="2.42727">
        <ele>391.6</ele>
        <time>2022-09-18T10:13:17.000Z</time>
      </trkpt>
      <trkpt lat="44.40273" lon="2.42717">
        <ele>392</ele>
        <time>2022-09-18T10:13:21.000Z</time>
      </trkpt>
      <trkpt lat="44.40284" lon="2.42712">
        <ele>393.6</ele>
        <time>2022-09-18T10:13:25.000Z</time>
      </trkpt>
      <trkpt lat="44.40295" lon="2.42712">
        <ele>393.6</ele>
        <time>2022-09-18T10:13:29.000Z</time>
      </trkpt>
      <trkpt lat="44.40306" lon="2.42714">
        <ele>394.8</ele>
        <time>2022-09-18T10:13:33.000Z</time>
      </trkpt>
      <trkpt lat="44.40315" lon="2.42719">
        <ele>396.4</ele>
        <time>2022-09-18T10:13:37.000Z</time>
      </trkpt>
      <trkpt lat="44.40324" lon="2.42726">
        <ele>397.3</ele>
        <time>2022-09-18T10:13:41.000Z</time>
      </trkpt>
      <trkpt lat="44.40331" lon="2.42735">
        <ele>399</ele>
        <time>2022-09-18T10:13:45.000Z</time>
      </trkpt>
      <trkpt lat="44.40335" lon="2.42747">
        <ele>399.8</ele>
        <time>2022-09-18T10:13:49.000Z</time>
      </trkpt>
      <trkpt lat="44.40337" lon="2.4276">
        <ele>401.8</ele>
        <time>2022-09-18T10:13:53.000Z</time>
      </trkpt>
      <trkpt lat="44.40339" lon="2.42773">
        <ele>403.3</ele>
        <time>2022-09-18T10:13:57.000Z</time>
      </trkpt>
      <trkpt lat="44.40341" lon="2.42786">
        <ele>404.6</ele>
        <time>2022-09-18T10:14:01.000Z</time>
      </trkpt>
      <trkpt lat="44.40344" lon="2.42798">
        <ele>406.2</ele>
        <time>2022-09-18T10:14:05.000Z</time>
      </trkpt>
      <trkpt lat="44.40349" lon="2.4281">
        <ele>407.4</ele>
        <time>2022-09-18T10:14:09.000Z</time>
      </trkpt>
      <trkpt lat="44.40356" lon="2.42818">
        <ele>408</ele>
        <time>2022-09-18T10:14:13.000Z</time>
      </trkpt>
      <trkpt lat="44.40364" lon="2.42825">
        <ele>408.3</ele>
        <time>2022-09-18T10:14:17.000Z</time>
      </trkpt>
      <trkpt lat="44.40372" lon="2.42835">
        <ele>409.8</ele>
        <time>2022-09-18T10:14:21.000Z</time>
      </trkpt>
      <trkpt lat="44.40378" lon="2.42845">
        <ele>410.8</ele>
        <time>2022-09-18T10:14:25.000Z</time>
      </trkpt>
      <trkpt lat="44.40387" lon="2.42849">
        <ele>411.5</ele>
        <time>2022-09-18T10:14:29.000Z</time>
      </trkpt>
      <trkpt lat="44.40397" lon="2.42848">
        <ele>412.4</ele>
        <time>2022-09-18T10:14:33.000Z</time>
      </trkpt>
      <trkpt lat="44.40405" lon="2.42843">
        <ele>412.4</ele>
        <time>2022-09-18T10:14:36.000Z</time>
      </trkpt>
      <trkpt lat="44.40416" lon="2.42837">
        <ele>412.3</ele>
        <time>2022-09-18T10:14:39.000Z</time>
      </trkpt>
      <trkpt lat="44.40424" lon="2.42831">
        <ele>410.9</ele>
        <time>2022-09-18T10:14:41.000Z</time>
      </trkpt>
      <trkpt lat="44.40434" lon="2.42822">
        <ele>410.6</ele>
        <time>2022-09-18T10:14:43.000Z</time>
      </trkpt>
      <trkpt lat="44.40445" lon="2.42812">
        <ele>409.7</ele>
        <time>2022-09-18T10:14:45.000Z</time>
      </trkpt>
      <trkpt lat="44.40456" lon="2.42802">
        <ele>408.8</ele>
        <time>2022-09-18T10:14:47.000Z</time>
      </trkpt>
      <trkpt lat="44.40467" lon="2.42792">
        <ele>408.5</ele>
        <time>2022-09-18T10:14:49.000Z</time>
      </trkpt>
      <trkpt lat="44.4048" lon="2.42785">
        <ele>407.8</ele>
        <time>2022-09-18T10:14:51.000Z</time>
      </trkpt>
      <trkpt lat="44.40493" lon="2.42783">
        <ele>407.3</ele>
        <time>2022-09-18T10:14:53.000Z</time>
      </trkpt>
      <trkpt lat="44.40506" lon="2.42778">
        <ele>407</ele>
        <time>2022-09-18T10:14:55.000Z</time>
      </trkpt>
      <trkpt lat="44.40518" lon="2.42768">
        <ele>406.4</ele>
        <time>2022-09-18T10:14:57.000Z</time>
      </trkpt>
      <trkpt lat="44.40528" lon="2.42753">
        <ele>405</ele>
        <time>2022-09-18T10:14:59.000Z</time>
      </trkpt>
      <trkpt lat="44.40537" lon="2.42735">
        <ele>403.5</ele>
        <time>2022-09-18T10:15:01.000Z</time>
      </trkpt>
      <trkpt lat="44.40548" lon="2.42723">
        <ele>401</ele>
        <time>2022-09-18T10:15:03.000Z</time>
      </trkpt>
      <trkpt lat="44.40564" lon="2.42719">
        <ele>399.9</ele>
        <time>2022-09-18T10:15:05.000Z</time>
      </trkpt>
      <trkpt lat="44.40581" lon="2.42716">
        <ele>398.3</ele>
        <time>2022-09-18T10:15:07.000Z</time>
      </trkpt>
      <trkpt lat="44.40599" lon="2.42717">
        <ele>396.9</ele>
        <time>2022-09-18T10:15:09.000Z</time>
      </trkpt>
      <trkpt lat="44.40616" lon="2.42722">
        <ele>396</ele>
        <time>2022-09-18T10:15:11.000Z</time>
      </trkpt>
      <trkpt lat="44.40631" lon="2.42723">
        <ele>394.4</ele>
        <time>2022-09-18T10:15:13.000Z</time>
      </trkpt>
      <trkpt lat="44.40642" lon="2.42712">
        <ele>392.3</ele>
        <time>2022-09-18T10:15:15.000Z</time>
      </trkpt>
      <trkpt lat="44.40652" lon="2.42701">
        <ele>390.9</ele>
        <time>2022-09-18T10:15:17.000Z</time>
      </trkpt>
      <trkpt lat="44.40664" lon="2.42696">
        <ele>390.3</ele>
        <time>2022-09-18T10:15:19.000Z</time>
      </trkpt>
      <trkpt lat="44.40675" lon="2.42697">
        <ele>390.1</ele>
        <time>2022-09-18T10:15:21.000Z</time>
      </trkpt>
      <trkpt lat="44.40685" lon="2.42699">
        <ele>390.2</ele>
        <time>2022-09-18T10:15:23.000Z</time>
      </trkpt>
      <trkpt lat="44.40695" lon="2.427">
        <ele>390.3</ele>
        <time>2022-09-18T10:15:25.000Z</time>
      </trkpt>
      <trkpt lat="44.40704" lon="2.42701">
        <ele>390.7</ele>
        <time>2022-09-18T10:15:27.000Z</time>
      </trkpt>
      <trkpt lat="44.40717" lon="2.42703">
        <ele>391.4</ele>
        <time>2022-09-18T10:15:30.000Z</time>
      </trkpt>
      <trkpt lat="44.40726" lon="2.42703">
        <ele>391.5</ele>
        <time>2022-09-18T10:15:33.000Z</time>
      </trkpt>
      <trkpt lat="44.40737" lon="2.42695">
        <ele>390.1</ele>
        <time>2022-09-18T10:15:36.000Z</time>
      </trkpt>
      <trkpt lat="44.40746" lon="2.42685">
        <ele>389.3</ele>
        <time>2022-09-18T10:15:38.000Z</time>
      </trkpt>
      <trkpt lat="44.40754" lon="2.42673">
        <ele>388.9</ele>
        <time>2022-09-18T10:15:40.000Z</time>
      </trkpt>
      <trkpt lat="44.40763" lon="2.42665">
        <ele>389.3</ele>
        <time>2022-09-18T10:15:42.000Z</time>
      </trkpt>
      <trkpt lat="44.40771" lon="2.42657">
        <ele>389</ele>
        <time>2022-09-18T10:15:44.000Z</time>
      </trkpt>
      <trkpt lat="44.40778" lon="2.42641">
        <ele>389.2</ele>
        <time>2022-09-18T10:15:47.000Z</time>
      </trkpt>
      <trkpt lat="44.40779" lon="2.42628">
        <ele>389.9</ele>
        <time>2022-09-18T10:15:49.000Z</time>
      </trkpt>
      <trkpt lat="44.40781" lon="2.42614">
        <ele>390.8</ele>
        <time>2022-09-18T10:15:51.000Z</time>
      </trkpt>
      <trkpt lat="44.40783" lon="2.426">
        <ele>392</ele>
        <time>2022-09-18T10:15:53.000Z</time>
      </trkpt>
      <trkpt lat="44.40782" lon="2.42587">
        <ele>392.2</ele>
        <time>2022-09-18T10:15:55.000Z</time>
      </trkpt>
      <trkpt lat="44.40779" lon="2.42575">
        <ele>393.3</ele>
        <time>2022-09-18T10:15:57.000Z</time>
      </trkpt>
      <trkpt lat="44.40777" lon="2.42561">
        <ele>393.2</ele>
        <time>2022-09-18T10:15:59.000Z</time>
      </trkpt>
      <trkpt lat="44.40778" lon="2.42548">
        <ele>393.4</ele>
        <time>2022-09-18T10:16:01.000Z</time>
      </trkpt>
      <trkpt lat="44.4078" lon="2.4253">
        <ele>393.4</ele>
        <time>2022-09-18T10:16:04.000Z</time>
      </trkpt>
      <trkpt lat="44.4078" lon="2.42518">
        <ele>393.3</ele>
        <time>2022-09-18T10:16:06.000Z</time>
      </trkpt>
      <trkpt lat="44.40778" lon="2.42505">
        <ele>393.1</ele>
        <time>2022-09-18T10:16:08.000Z</time>
      </trkpt>
      <trkpt lat="44.40777" lon="2.42492">
        <ele>393.1</ele>
        <time>2022-09-18T10:16:10.000Z</time>
      </trkpt>
      <trkpt lat="44.40777" lon="2.42475">
        <ele>394</ele>
        <time>2022-09-18T10:16:13.000Z</time>
      </trkpt>
      <trkpt lat="44.40781" lon="2.42458">
        <ele>393.9</ele>
        <time>2022-09-18T10:16:16.000Z</time>
      </trkpt>
      <trkpt lat="44.40785" lon="2.42445">
        <ele>393.2</ele>
        <time>2022-09-18T10:16:18.000Z</time>
      </trkpt>
      <trkpt lat="44.4079" lon="2.42431">
        <ele>392.5</ele>
        <time>2022-09-18T10:16:20.000Z</time>
      </trkpt>
      <trkpt lat="44.40794" lon="2.42417">
        <ele>392</ele>
        <time>2022-09-18T10:16:22.000Z</time>
      </trkpt>
      <trkpt lat="44.40799" lon="2.42404">
        <ele>391.8</ele>
        <time>2022-09-18T10:16:24.000Z</time>
      </trkpt>
      <trkpt lat="44.40804" lon="2.42391">
        <ele>391.6</ele>
        <time>2022-09-18T10:16:26.000Z</time>
      </trkpt>
      <trkpt lat="44.40809" lon="2.42378">
        <ele>391.2</ele>
        <time>2022-09-18T10:16:28.000Z</time>
      </trkpt>
      <trkpt lat="44.40814" lon="2.42368">
        <ele>391.1</ele>
        <time>2022-09-18T10:16:30.000Z</time>
      </trkpt>
      <trkpt lat="44.40821" lon="2.42359">
        <ele>390.6</ele>
        <time>2022-09-18T10:16:32.000Z</time>
      </trkpt>
      <trkpt lat="44.4083" lon="2.42346">
        <ele>391</ele>
        <time>2022-09-18T10:16:35.000Z</time>
      </trkpt>
      <trkpt lat="44.40837" lon="2.42335">
        <ele>390.2</ele>
        <time>2022-09-18T10:16:38.000Z</time>
      </trkpt>
      <trkpt lat="44.4084" lon="2.42319">
        <ele>389.9</ele>
        <time>2022-09-18T10:16:41.000Z</time>
      </trkpt>
      <trkpt lat="44.40842" lon="2.42306">
        <ele>389.3</ele>
        <time>2022-09-18T10:16:43.000Z</time>
      </trkpt>
      <trkpt lat="44.40844" lon="2.42291">
        <ele>388.6</ele>
        <time>2022-09-18T10:16:45.000Z</time>
      </trkpt>
      <trkpt lat="44.40846" lon="2.42276">
        <ele>387.9</ele>
        <time>2022-09-18T10:16:47.000Z</time>
      </trkpt>
      <trkpt lat="44.40849" lon="2.4226">
        <ele>387.2</ele>
        <time>2022-09-18T10:16:49.000Z</time>
      </trkpt>
      <trkpt lat="44.40851" lon="2.42246">
        <ele>386.8</ele>
        <time>2022-09-18T10:16:51.000Z</time>
      </trkpt>
      <trkpt lat="44.40854" lon="2.42228">
        <ele>388.1</ele>
        <time>2022-09-18T10:16:54.000Z</time>
      </trkpt>
      <trkpt lat="44.40856" lon="2.42214">
        <ele>389.5</ele>
        <time>2022-09-18T10:16:57.000Z</time>
      </trkpt>
      <trkpt lat="44.40859" lon="2.42199">
        <ele>389.1</ele>
        <time>2022-09-18T10:17:01.000Z</time>
      </trkpt>
      <trkpt lat="44.4087" lon="2.42192">
        <ele>388.9</ele>
        <time>2022-09-18T10:17:04.000Z</time>
      </trkpt>
      <trkpt lat="44.4088" lon="2.4219">
        <ele>388.1</ele>
        <time>2022-09-18T10:17:06.000Z</time>
      </trkpt>
      <trkpt lat="44.40891" lon="2.42187">
        <ele>386.3</ele>
        <time>2022-09-18T10:17:08.000Z</time>
      </trkpt>
      <trkpt lat="44.40903" lon="2.42185">
        <ele>384.9</ele>
        <time>2022-09-18T10:17:10.000Z</time>
      </trkpt>
      <trkpt lat="44.40914" lon="2.42181">
        <ele>383.8</ele>
        <time>2022-09-18T10:17:12.000Z</time>
      </trkpt>
      <trkpt lat="44.40923" lon="2.42172">
        <ele>382.6</ele>
        <time>2022-09-18T10:17:14.000Z</time>
      </trkpt>
      <trkpt lat="44.40932" lon="2.4216">
        <ele>380.4</ele>
        <time>2022-09-18T10:17:16.000Z</time>
      </trkpt>
      <trkpt lat="44.40942" lon="2.42155">
        <ele>378.6</ele>
        <time>2022-09-18T10:17:18.000Z</time>
      </trkpt>
      <trkpt lat="44.40954" lon="2.42154">
        <ele>377.3</ele>
        <time>2022-09-18T10:17:20.000Z</time>
      </trkpt>
      <trkpt lat="44.40969" lon="2.42153">
        <ele>375.7</ele>
        <time>2022-09-18T10:17:22.000Z</time>
      </trkpt>
      <trkpt lat="44.40983" lon="2.42151">
        <ele>373.8</ele>
        <time>2022-09-18T10:17:24.000Z</time>
      </trkpt>
      <trkpt lat="44.40997" lon="2.4215">
        <ele>371.5</ele>
        <time>2022-09-18T10:17:26.000Z</time>
      </trkpt>
      <trkpt lat="44.41009" lon="2.42149">
        <ele>369.1</ele>
        <time>2022-09-18T10:17:28.000Z</time>
      </trkpt>
      <trkpt lat="44.4102" lon="2.42148">
        <ele>367.4</ele>
        <time>2022-09-18T10:17:30.000Z</time>
      </trkpt>
      <trkpt lat="44.41033" lon="2.42148">
        <ele>365.6</ele>
        <time>2022-09-18T10:17:32.000Z</time>
      </trkpt>
      <trkpt lat="44.41045" lon="2.42149">
        <ele>363.1</ele>
        <time>2022-09-18T10:17:34.000Z</time>
      </trkpt>
      <trkpt lat="44.41058" lon="2.42149">
        <ele>361.5</ele>
        <time>2022-09-18T10:17:36.000Z</time>
      </trkpt>
      <trkpt lat="44.41071" lon="2.42146">
        <ele>361</ele>
        <time>2022-09-18T10:17:38.000Z</time>
      </trkpt>
      <trkpt lat="44.41082" lon="2.42143">
        <ele>361</ele>
        <time>2022-09-18T10:17:40.000Z</time>
      </trkpt>
      <trkpt lat="44.41092" lon="2.4214">
        <ele>361.3</ele>
        <time>2022-09-18T10:17:42.000Z</time>
      </trkpt>
      <trkpt lat="44.41104" lon="2.42134">
        <ele>362</ele>
        <time>2022-09-18T10:17:45.000Z</time>
      </trkpt>
      <trkpt lat="44.41116" lon="2.42129">
        <ele>363</ele>
        <time>2022-09-18T10:17:48.000Z</time>
      </trkpt>
      <trkpt lat="44.41128" lon="2.42124">
        <ele>363.1</ele>
        <time>2022-09-18T10:17:51.000Z</time>
      </trkpt>
      <trkpt lat="44.41138" lon="2.4212">
        <ele>363.5</ele>
        <time>2022-09-18T10:17:54.000Z</time>
      </trkpt>
      <trkpt lat="44.41148" lon="2.42115">
        <ele>363.3</ele>
        <time>2022-09-18T10:17:57.000Z</time>
      </trkpt>
      <trkpt lat="44.4116" lon="2.4211">
        <ele>362.6</ele>
        <time>2022-09-18T10:18:00.000Z</time>
      </trkpt>
      <trkpt lat="44.41169" lon="2.42107">
        <ele>362.1</ele>
        <time>2022-09-18T10:18:02.000Z</time>
      </trkpt>
      <trkpt lat="44.4118" lon="2.42105">
        <ele>361.2</ele>
        <time>2022-09-18T10:18:04.000Z</time>
      </trkpt>
      <trkpt lat="44.41191" lon="2.42099">
        <ele>360.5</ele>
        <time>2022-09-18T10:18:06.000Z</time>
      </trkpt>
      <trkpt lat="44.41202" lon="2.42088">
        <ele>358.8</ele>
        <time>2022-09-18T10:18:08.000Z</time>
      </trkpt>
      <trkpt lat="44.41215" lon="2.42077">
        <ele>358.2</ele>
        <time>2022-09-18T10:18:10.000Z</time>
      </trkpt>
      <trkpt lat="44.41227" lon="2.42065">
        <ele>358</ele>
        <time>2022-09-18T10:18:12.000Z</time>
      </trkpt>
      <trkpt lat="44.4124" lon="2.42053">
        <ele>357.2</ele>
        <time>2022-09-18T10:18:14.000Z</time>
      </trkpt>
      <trkpt lat="44.41252" lon="2.42041">
        <ele>356.1</ele>
        <time>2022-09-18T10:18:16.000Z</time>
      </trkpt>
      <trkpt lat="44.4126" lon="2.4203">
        <ele>355.2</ele>
        <time>2022-09-18T10:18:18.000Z</time>
      </trkpt>
      <trkpt lat="44.41262" lon="2.42015">
        <ele>355.1</ele>
        <time>2022-09-18T10:18:20.000Z</time>
      </trkpt>
      <trkpt lat="44.41263" lon="2.41998">
        <ele>354.9</ele>
        <time>2022-09-18T10:18:22.000Z</time>
      </trkpt>
      <trkpt lat="44.41266" lon="2.41983">
        <ele>354.5</ele>
        <time>2022-09-18T10:18:24.000Z</time>
      </trkpt>
      <trkpt lat="44.4127" lon="2.4197">
        <ele>354.8</ele>
        <time>2022-09-18T10:18:26.000Z</time>
      </trkpt>
      <trkpt lat="44.41276" lon="2.41958">
        <ele>354.6</ele>
        <time>2022-09-18T10:18:28.000Z</time>
      </trkpt>
      <trkpt lat="44.41281" lon="2.41946">
        <ele>354.1</ele>
        <time>2022-09-18T10:18:30.000Z</time>
      </trkpt>
      <trkpt lat="44.41288" lon="2.41933">
        <ele>353.6</ele>
        <time>2022-09-18T10:18:32.000Z</time>
      </trkpt>
      <trkpt lat="44.41295" lon="2.4192">
        <ele>352.8</ele>
        <time>2022-09-18T10:18:34.000Z</time>
      </trkpt>
      <trkpt lat="44.41303" lon="2.41907">
        <ele>352.7</ele>
        <time>2022-09-18T10:18:36.000Z</time>
      </trkpt>
      <trkpt lat="44.41314" lon="2.41897">
        <ele>351.5</ele>
        <time>2022-09-18T10:18:38.000Z</time>
      </trkpt>
      <trkpt lat="44.41326" lon="2.41887">
        <ele>351.1</ele>
        <time>2022-09-18T10:18:40.000Z</time>
      </trkpt>
      <trkpt lat="44.41337" lon="2.41872">
        <ele>350.2</ele>
        <time>2022-09-18T10:18:42.000Z</time>
      </trkpt>
      <trkpt lat="44.41347" lon="2.41854">
        <ele>348.8</ele>
        <time>2022-09-18T10:18:44.000Z</time>
      </trkpt>
      <trkpt lat="44.41355" lon="2.41835">
        <ele>347.5</ele>
        <time>2022-09-18T10:18:46.000Z</time>
      </trkpt>
      <trkpt lat="44.41356" lon="2.41814">
        <ele>346.9</ele>
        <time>2022-09-18T10:18:48.000Z</time>
      </trkpt>
      <trkpt lat="44.4135" lon="2.41795">
        <ele>346.3</ele>
        <time>2022-09-18T10:18:50.000Z</time>
      </trkpt>
      <trkpt lat="44.41342" lon="2.41779">
        <ele>345.5</ele>
        <time>2022-09-18T10:18:52.000Z</time>
      </trkpt>
      <trkpt lat="44.41335" lon="2.4176">
        <ele>344.7</ele>
        <time>2022-09-18T10:18:54.000Z</time>
      </trkpt>
      <trkpt lat="44.41331" lon="2.4174">
        <ele>344.4</ele>
        <time>2022-09-18T10:18:56.000Z</time>
      </trkpt>
      <trkpt lat="44.41326" lon="2.41722">
        <ele>344.2</ele>
        <time>2022-09-18T10:18:58.000Z</time>
      </trkpt>
      <trkpt lat="44.41321" lon="2.41706">
        <ele>344.4</ele>
        <time>2022-09-18T10:19:00.000Z</time>
      </trkpt>
      <trkpt lat="44.41316" lon="2.41693">
        <ele>344.8</ele>
        <time>2022-09-18T10:19:02.000Z</time>
      </trkpt>
      <trkpt lat="44.41311" lon="2.41681">
        <ele>345.4</ele>
        <time>2022-09-18T10:19:04.000Z</time>
      </trkpt>
      <trkpt lat="44.41309" lon="2.41669">
        <ele>346.1</ele>
        <time>2022-09-18T10:19:06.000Z</time>
      </trkpt>
      <trkpt lat="44.4131" lon="2.41651">
        <ele>347.1</ele>
        <time>2022-09-18T10:19:09.000Z</time>
      </trkpt>
      <trkpt lat="44.41317" lon="2.41638">
        <ele>348.5</ele>
        <time>2022-09-18T10:19:12.000Z</time>
      </trkpt>
      <trkpt lat="44.41328" lon="2.41631">
        <ele>349.8</ele>
        <time>2022-09-18T10:19:15.000Z</time>
      </trkpt>
      <trkpt lat="44.41339" lon="2.4163">
        <ele>351.5</ele>
        <time>2022-09-18T10:19:18.000Z</time>
      </trkpt>
      <trkpt lat="44.41349" lon="2.41627">
        <ele>352.8</ele>
        <time>2022-09-18T10:19:21.000Z</time>
      </trkpt>
      <trkpt lat="44.41358" lon="2.41621">
        <ele>354.4</ele>
        <time>2022-09-18T10:19:25.000Z</time>
      </trkpt>
      <trkpt lat="44.41354" lon="2.41607">
        <ele>355.8</ele>
        <time>2022-09-18T10:19:50.000Z</time>
      </trkpt>
      <trkpt lat="44.41357" lon="2.41592">
        <ele>356.7</ele>
        <time>2022-09-18T10:19:55.000Z</time>
      </trkpt>
      <trkpt lat="44.41361" lon="2.41578">
        <ele>358.2</ele>
        <time>2022-09-18T10:20:00.000Z</time>
      </trkpt>
      <trkpt lat="44.41363" lon="2.41566">
        <ele>359.6</ele>
        <time>2022-09-18T10:20:06.000Z</time>
      </trkpt>
      <trkpt lat="44.41365" lon="2.41553">
        <ele>361.5</ele>
        <time>2022-09-18T10:20:14.000Z</time>
      </trkpt>
      <trkpt lat="44.41366" lon="2.41538">
        <ele>364</ele>
        <time>2022-09-18T10:20:19.000Z</time>
      </trkpt>
      <trkpt lat="44.41367" lon="2.41525">
        <ele>365.8</ele>
        <time>2022-09-18T10:20:23.000Z</time>
      </trkpt>
      <trkpt lat="44.41366" lon="2.41512">
        <ele>367.1</ele>
        <time>2022-09-18T10:20:27.000Z</time>
      </trkpt>
      <trkpt lat="44.41363" lon="2.41499">
        <ele>367.8</ele>
        <time>2022-09-18T10:20:31.000Z</time>
      </trkpt>
      <trkpt lat="44.4136" lon="2.41486">
        <ele>370.2</ele>
        <time>2022-09-18T10:20:37.000Z</time>
      </trkpt>
      <trkpt lat="44.41359" lon="2.41482">
        <ele>370.5</ele>
        <time>2022-09-18T10:20:42.000Z</time>
      </trkpt>
      <trkpt lat="44.41359" lon="2.41482">
        <ele>370.9</ele>
        <time>2022-09-18T10:20:45.000Z</time>
      </trkpt>
      <trkpt lat="44.41359" lon="2.41481">
        <ele>370.4</ele>
        <time>2022-09-18T10:20:54.000Z</time>
      </trkpt>
      <trkpt lat="44.41359" lon="2.41481">
        <ele>370.5</ele>
        <time>2022-09-18T10:20:57.000Z</time>
      </trkpt>
      <trkpt lat="44.41359" lon="2.4148">
        <ele>370.5</ele>
        <time>2022-09-18T10:21:03.000Z</time>
      </trkpt>
      <trkpt lat="44.41357" lon="2.41467">
        <ele>373.1</ele>
        <time>2022-09-18T10:21:08.000Z</time>
      </trkpt>
      <trkpt lat="44.41358" lon="2.41452">
        <ele>373.6</ele>
        <time>2022-09-18T10:21:13.000Z</time>
      </trkpt>
      <trkpt lat="44.41359" lon="2.41437">
        <ele>374.1</ele>
        <time>2022-09-18T10:21:18.000Z</time>
      </trkpt>
      <trkpt lat="44.41358" lon="2.41424">
        <ele>375.2</ele>
        <time>2022-09-18T10:21:23.000Z</time>
      </trkpt>
      <trkpt lat="44.41354" lon="2.41412">
        <ele>376.1</ele>
        <time>2022-09-18T10:21:26.000Z</time>
      </trkpt>
      <trkpt lat="44.4135" lon="2.41401">
        <ele>377.2</ele>
        <time>2022-09-18T10:21:29.000Z</time>
      </trkpt>
      <trkpt lat="44.41346" lon="2.41388">
        <ele>378.1</ele>
        <time>2022-09-18T10:21:32.000Z</time>
      </trkpt>
      <trkpt lat="44.41344" lon="2.41376">
        <ele>379.1</ele>
        <time>2022-09-18T10:21:35.000Z</time>
      </trkpt>
      <trkpt lat="44.41344" lon="2.41362">
        <ele>380</ele>
        <time>2022-09-18T10:21:38.000Z</time>
      </trkpt>
      <trkpt lat="44.41346" lon="2.41349">
        <ele>380.8</ele>
        <time>2022-09-18T10:21:41.000Z</time>
      </trkpt>
      <trkpt lat="44.41348" lon="2.41335">
        <ele>381.8</ele>
        <time>2022-09-18T10:21:44.000Z</time>
      </trkpt>
      <trkpt lat="44.4135" lon="2.41321">
        <ele>383.3</ele>
        <time>2022-09-18T10:21:47.000Z</time>
      </trkpt>
      <trkpt lat="44.41351" lon="2.41308">
        <ele>383.4</ele>
        <time>2022-09-18T10:21:50.000Z</time>
      </trkpt>
      <trkpt lat="44.4136" lon="2.41299">
        <ele>384.4</ele>
        <time>2022-09-18T10:21:54.000Z</time>
      </trkpt>
      <trkpt lat="44.41371" lon="2.41302">
        <ele>384.6</ele>
        <time>2022-09-18T10:21:57.000Z</time>
      </trkpt>
      <trkpt lat="44.41383" lon="2.41302">
        <ele>384.6</ele>
        <time>2022-09-18T10:22:00.000Z</time>
      </trkpt>
      <trkpt lat="44.41395" lon="2.413">
        <ele>385.4</ele>
        <time>2022-09-18T10:22:03.000Z</time>
      </trkpt>
      <trkpt lat="44.41406" lon="2.41291">
        <ele>385.9</ele>
        <time>2022-09-18T10:22:06.000Z</time>
      </trkpt>
      <trkpt lat="44.41416" lon="2.4128">
        <ele>385.6</ele>
        <time>2022-09-18T10:22:09.000Z</time>
      </trkpt>
      <trkpt lat="44.41423" lon="2.41266">
        <ele>386.4</ele>
        <time>2022-09-18T10:22:12.000Z</time>
      </trkpt>
      <trkpt lat="44.4143" lon="2.41251">
        <ele>386.8</ele>
        <time>2022-09-18T10:22:15.000Z</time>
      </trkpt>
      <trkpt lat="44.41435" lon="2.4124">
        <ele>386.6</ele>
        <time>2022-09-18T10:22:17.000Z</time>
      </trkpt>
      <trkpt lat="44.4144" lon="2.41228">
        <ele>386.3</ele>
        <time>2022-09-18T10:22:19.000Z</time>
      </trkpt>
      <trkpt lat="44.41445" lon="2.41218">
        <ele>386.8</ele>
        <time>2022-09-18T10:22:21.000Z</time>
      </trkpt>
      <trkpt lat="44.41452" lon="2.41208">
        <ele>386.6</ele>
        <time>2022-09-18T10:22:23.000Z</time>
      </trkpt>
      <trkpt lat="44.41459" lon="2.41199">
        <ele>386.8</ele>
        <time>2022-09-18T10:22:25.000Z</time>
      </trkpt>
      <trkpt lat="44.41468" lon="2.41193">
        <ele>386.5</ele>
        <time>2022-09-18T10:22:27.000Z</time>
      </trkpt>
      <trkpt lat="44.4148" lon="2.41193">
        <ele>385.2</ele>
        <time>2022-09-18T10:22:29.000Z</time>
      </trkpt>
      <trkpt lat="44.41494" lon="2.41197">
        <ele>384.2</ele>
        <time>2022-09-18T10:22:31.000Z</time>
      </trkpt>
      <trkpt lat="44.41509" lon="2.41202">
        <ele>383.6</ele>
        <time>2022-09-18T10:22:33.000Z</time>
      </trkpt>
      <trkpt lat="44.41523" lon="2.41207">
        <ele>382.8</ele>
        <time>2022-09-18T10:22:35.000Z</time>
      </trkpt>
      <trkpt lat="44.41533" lon="2.4121">
        <ele>381.7</ele>
        <time>2022-09-18T10:22:37.000Z</time>
      </trkpt>
      <trkpt lat="44.41542" lon="2.41212">
        <ele>381.6</ele>
        <time>2022-09-18T10:22:41.000Z</time>
      </trkpt>
      <trkpt lat="44.41551" lon="2.41217">
        <ele>381</ele>
        <time>2022-09-18T10:22:48.000Z</time>
      </trkpt>
      <trkpt lat="44.41558" lon="2.41224">
        <ele>378.7</ele>
        <time>2022-09-18T10:22:54.000Z</time>
      </trkpt>
      <trkpt lat="44.41565" lon="2.41236">
        <ele>377.5</ele>
        <time>2022-09-18T10:22:58.000Z</time>
      </trkpt>
      <trkpt lat="44.4157" lon="2.4125">
        <ele>376.3</ele>
        <time>2022-09-18T10:23:00.000Z</time>
      </trkpt>
      <trkpt lat="44.41573" lon="2.41268">
        <ele>375.2</ele>
        <time>2022-09-18T10:23:02.000Z</time>
      </trkpt>
      <trkpt lat="44.41578" lon="2.41289">
        <ele>373.3</ele>
        <time>2022-09-18T10:23:04.000Z</time>
      </trkpt>
      <trkpt lat="44.41584" lon="2.41309">
        <ele>371.4</ele>
        <time>2022-09-18T10:23:06.000Z</time>
      </trkpt>
      <trkpt lat="44.4159" lon="2.4133">
        <ele>369.7</ele>
        <time>2022-09-18T10:23:08.000Z</time>
      </trkpt>
      <trkpt lat="44.41596" lon="2.41348">
        <ele>368.2</ele>
        <time>2022-09-18T10:23:10.000Z</time>
      </trkpt>
      <trkpt lat="44.41601" lon="2.41365">
        <ele>366.9</ele>
        <time>2022-09-18T10:23:12.000Z</time>
      </trkpt>
      <trkpt lat="44.41604" lon="2.41381">
        <ele>366.2</ele>
        <time>2022-09-18T10:23:14.000Z</time>
      </trkpt>
      <trkpt lat="44.4161" lon="2.41395">
        <ele>366.5</ele>
        <time>2022-09-18T10:23:16.000Z</time>
      </trkpt>
      <trkpt lat="44.41619" lon="2.41412">
        <ele>365</ele>
        <time>2022-09-18T10:23:18.000Z</time>
      </trkpt>
      <trkpt lat="44.41629" lon="2.41429">
        <ele>363.9</ele>
        <time>2022-09-18T10:23:20.000Z</time>
      </trkpt>
      <trkpt lat="44.4164" lon="2.41443">
        <ele>362.6</ele>
        <time>2022-09-18T10:23:22.000Z</time>
      </trkpt>
      <trkpt lat="44.4165" lon="2.41453">
        <ele>360.9</ele>
        <time>2022-09-18T10:23:24.000Z</time>
      </trkpt>
      <trkpt lat="44.41659" lon="2.41462">
        <ele>359.1</ele>
        <time>2022-09-18T10:23:26.000Z</time>
      </trkpt>
      <trkpt lat="44.4167" lon="2.41478">
        <ele>356.9</ele>
        <time>2022-09-18T10:23:28.000Z</time>
      </trkpt>
      <trkpt lat="44.41682" lon="2.41489">
        <ele>355.4</ele>
        <time>2022-09-18T10:23:30.000Z</time>
      </trkpt>
      <trkpt lat="44.41696" lon="2.41499">
        <ele>354.1</ele>
        <time>2022-09-18T10:23:32.000Z</time>
      </trkpt>
      <trkpt lat="44.41709" lon="2.41504">
        <ele>351.5</ele>
        <time>2022-09-18T10:23:34.000Z</time>
      </trkpt>
      <trkpt lat="44.41721" lon="2.41505">
        <ele>349.9</ele>
        <time>2022-09-18T10:23:36.000Z</time>
      </trkpt>
      <trkpt lat="44.4173" lon="2.4151">
        <ele>348.7</ele>
        <time>2022-09-18T10:23:38.000Z</time>
      </trkpt>
      <trkpt lat="44.41738" lon="2.41516">
        <ele>347.7</ele>
        <time>2022-09-18T10:23:40.000Z</time>
      </trkpt>
      <trkpt lat="44.41749" lon="2.41516">
        <ele>345.7</ele>
        <time>2022-09-18T10:23:42.000Z</time>
      </trkpt>
      <trkpt lat="44.41754" lon="2.41501">
        <ele>343.4</ele>
        <time>2022-09-18T10:23:45.000Z</time>
      </trkpt>
      <trkpt lat="44.41754" lon="2.41484">
        <ele>340.8</ele>
        <time>2022-09-18T10:23:48.000Z</time>
      </trkpt>
      <trkpt lat="44.41762" lon="2.41475">
        <ele>341</ele>
        <time>2022-09-18T10:23:51.000Z</time>
      </trkpt>
      <trkpt lat="44.41774" lon="2.41474">
        <ele>341.7</ele>
        <time>2022-09-18T10:23:54.000Z</time>
      </trkpt>
      <trkpt lat="44.41786" lon="2.41481">
        <ele>342.7</ele>
        <time>2022-09-18T10:23:57.000Z</time>
      </trkpt>
      <trkpt lat="44.41795" lon="2.41486">
        <ele>344</ele>
        <time>2022-09-18T10:23:59.000Z</time>
      </trkpt>
      <trkpt lat="44.41807" lon="2.4149">
        <ele>343.9</ele>
        <time>2022-09-18T10:24:02.000Z</time>
      </trkpt>
      <trkpt lat="44.41818" lon="2.41492">
        <ele>344.5</ele>
        <time>2022-09-18T10:24:04.000Z</time>
      </trkpt>
      <trkpt lat="44.41829" lon="2.41494">
        <ele>344.5</ele>
        <time>2022-09-18T10:24:06.000Z</time>
      </trkpt>
      <trkpt lat="44.4184" lon="2.41497">
        <ele>344.3</ele>
        <time>2022-09-18T10:24:08.000Z</time>
      </trkpt>
      <trkpt lat="44.4185" lon="2.41494">
        <ele>344</ele>
        <time>2022-09-18T10:24:10.000Z</time>
      </trkpt>
      <trkpt lat="44.41861" lon="2.41489">
        <ele>343.9</ele>
        <time>2022-09-18T10:24:12.000Z</time>
      </trkpt>
      <trkpt lat="44.41872" lon="2.4148">
        <ele>343.5</ele>
        <time>2022-09-18T10:24:14.000Z</time>
      </trkpt>
      <trkpt lat="44.41885" lon="2.4147">
        <ele>343.4</ele>
        <time>2022-09-18T10:24:16.000Z</time>
      </trkpt>
      <trkpt lat="44.41897" lon="2.41459">
        <ele>342.6</ele>
        <time>2022-09-18T10:24:18.000Z</time>
      </trkpt>
      <trkpt lat="44.41908" lon="2.41448">
        <ele>342</ele>
        <time>2022-09-18T10:24:20.000Z</time>
      </trkpt>
      <trkpt lat="44.41921" lon="2.4144">
        <ele>341.5</ele>
        <time>2022-09-18T10:24:22.000Z</time>
      </trkpt>
      <trkpt lat="44.41934" lon="2.41436">
        <ele>340.9</ele>
        <time>2022-09-18T10:24:24.000Z</time>
      </trkpt>
      <trkpt lat="44.41942" lon="2.41429">
        <ele>340.6</ele>
        <time>2022-09-18T10:24:26.000Z</time>
      </trkpt>
      <trkpt lat="44.41949" lon="2.4142">
        <ele>340.8</ele>
        <time>2022-09-18T10:24:28.000Z</time>
      </trkpt>
      <trkpt lat="44.41954" lon="2.41407">
        <ele>340.8</ele>
        <time>2022-09-18T10:24:30.000Z</time>
      </trkpt>
      <trkpt lat="44.41961" lon="2.41392">
        <ele>341.4</ele>
        <time>2022-09-18T10:24:32.000Z</time>
      </trkpt>
      <trkpt lat="44.41968" lon="2.41382">
        <ele>341.7</ele>
        <time>2022-09-18T10:24:34.000Z</time>
      </trkpt>
      <trkpt lat="44.41976" lon="2.41374">
        <ele>341.8</ele>
        <time>2022-09-18T10:24:36.000Z</time>
      </trkpt>
      <trkpt lat="44.41985" lon="2.41366">
        <ele>342.4</ele>
        <time>2022-09-18T10:24:38.000Z</time>
      </trkpt>
      <trkpt lat="44.41993" lon="2.41355">
        <ele>342.7</ele>
        <time>2022-09-18T10:24:40.000Z</time>
      </trkpt>
      <trkpt lat="44.42001" lon="2.41343">
        <ele>342.9</ele>
        <time>2022-09-18T10:24:42.000Z</time>
      </trkpt>
      <trkpt lat="44.42008" lon="2.4133">
        <ele>342.7</ele>
        <time>2022-09-18T10:24:44.000Z</time>
      </trkpt>
      <trkpt lat="44.42016" lon="2.41317">
        <ele>342.3</ele>
        <time>2022-09-18T10:24:46.000Z</time>
      </trkpt>
      <trkpt lat="44.42024" lon="2.41306">
        <ele>342</ele>
        <time>2022-09-18T10:24:48.000Z</time>
      </trkpt>
      <trkpt lat="44.42033" lon="2.41295">
        <ele>342.5</ele>
        <time>2022-09-18T10:24:50.000Z</time>
      </trkpt>
      <trkpt lat="44.42041" lon="2.41283">
        <ele>342.8</ele>
        <time>2022-09-18T10:24:52.000Z</time>
      </trkpt>
      <trkpt lat="44.42049" lon="2.41271">
        <ele>342.1</ele>
        <time>2022-09-18T10:24:54.000Z</time>
      </trkpt>
      <trkpt lat="44.42055" lon="2.41258">
        <ele>342.1</ele>
        <time>2022-09-18T10:24:56.000Z</time>
      </trkpt>
      <trkpt lat="44.42065" lon="2.41249">
        <ele>342.4</ele>
        <time>2022-09-18T10:24:58.000Z</time>
      </trkpt>
      <trkpt lat="44.42074" lon="2.41242">
        <ele>342.8</ele>
        <time>2022-09-18T10:25:00.000Z</time>
      </trkpt>
      <trkpt lat="44.42082" lon="2.41235">
        <ele>342.8</ele>
        <time>2022-09-18T10:25:02.000Z</time>
      </trkpt>
      <trkpt lat="44.42092" lon="2.41227">
        <ele>341.5</ele>
        <time>2022-09-18T10:25:04.000Z</time>
      </trkpt>
      <trkpt lat="44.42102" lon="2.41219">
        <ele>341.5</ele>
        <time>2022-09-18T10:25:06.000Z</time>
      </trkpt>
      <trkpt lat="44.42111" lon="2.41209">
        <ele>341.7</ele>
        <time>2022-09-18T10:25:08.000Z</time>
      </trkpt>
      <trkpt lat="44.42119" lon="2.41198">
        <ele>341.5</ele>
        <time>2022-09-18T10:25:10.000Z</time>
      </trkpt>
      <trkpt lat="44.42129" lon="2.41189">
        <ele>340.7</ele>
        <time>2022-09-18T10:25:12.000Z</time>
      </trkpt>
      <trkpt lat="44.4214" lon="2.41184">
        <ele>340.3</ele>
        <time>2022-09-18T10:25:14.000Z</time>
      </trkpt>
      <trkpt lat="44.42152" lon="2.41182">
        <ele>340</ele>
        <time>2022-09-18T10:25:16.000Z</time>
      </trkpt>
      <trkpt lat="44.42165" lon="2.41181">
        <ele>339.6</ele>
        <time>2022-09-18T10:25:18.000Z</time>
      </trkpt>
      <trkpt lat="44.42177" lon="2.41178">
        <ele>339</ele>
        <time>2022-09-18T10:25:20.000Z</time>
      </trkpt>
      <trkpt lat="44.42188" lon="2.41174">
        <ele>339</ele>
        <time>2022-09-18T10:25:22.000Z</time>
      </trkpt>
      <trkpt lat="44.422" lon="2.4117">
        <ele>339.2</ele>
        <time>2022-09-18T10:25:24.000Z</time>
      </trkpt>
      <trkpt lat="44.4221" lon="2.41166">
        <ele>339.4</ele>
        <time>2022-09-18T10:25:26.000Z</time>
      </trkpt>
      <trkpt lat="44.4222" lon="2.41162">
        <ele>339.4</ele>
        <time>2022-09-18T10:25:28.000Z</time>
      </trkpt>
      <trkpt lat="44.42229" lon="2.41158">
        <ele>339.1</ele>
        <time>2022-09-18T10:25:30.000Z</time>
      </trkpt>
      <trkpt lat="44.42238" lon="2.41151">
        <ele>339.4</ele>
        <time>2022-09-18T10:25:32.000Z</time>
      </trkpt>
      <trkpt lat="44.42247" lon="2.41146">
        <ele>339.2</ele>
        <time>2022-09-18T10:25:34.000Z</time>
      </trkpt>
      <trkpt lat="44.42257" lon="2.41146">
        <ele>339.3</ele>
        <time>2022-09-18T10:25:36.000Z</time>
      </trkpt>
      <trkpt lat="44.42267" lon="2.4115">
        <ele>339.6</ele>
        <time>2022-09-18T10:25:38.000Z</time>
      </trkpt>
      <trkpt lat="44.42278" lon="2.41154">
        <ele>339.3</ele>
        <time>2022-09-18T10:25:40.000Z</time>
      </trkpt>
      <trkpt lat="44.42289" lon="2.41158">
        <ele>339.4</ele>
        <time>2022-09-18T10:25:42.000Z</time>
      </trkpt>
      <trkpt lat="44.42299" lon="2.41162">
        <ele>338.9</ele>
        <time>2022-09-18T10:25:44.000Z</time>
      </trkpt>
      <trkpt lat="44.42308" lon="2.41168">
        <ele>339</ele>
        <time>2022-09-18T10:25:46.000Z</time>
      </trkpt>
      <trkpt lat="44.42318" lon="2.41171">
        <ele>338.9</ele>
        <time>2022-09-18T10:25:48.000Z</time>
      </trkpt>
      <trkpt lat="44.42328" lon="2.41172">
        <ele>339</ele>
        <time>2022-09-18T10:25:50.000Z</time>
      </trkpt>
      <trkpt lat="44.42339" lon="2.41171">
        <ele>339</ele>
        <time>2022-09-18T10:25:52.000Z</time>
      </trkpt>
      <trkpt lat="44.42349" lon="2.41169">
        <ele>339</ele>
        <time>2022-09-18T10:25:54.000Z</time>
      </trkpt>
      <trkpt lat="44.42359" lon="2.41162">
        <ele>339.2</ele>
        <time>2022-09-18T10:25:56.000Z</time>
      </trkpt>
      <trkpt lat="44.42368" lon="2.41154">
        <ele>339.4</ele>
        <time>2022-09-18T10:25:58.000Z</time>
      </trkpt>
      <trkpt lat="44.42377" lon="2.41147">
        <ele>339.8</ele>
        <time>2022-09-18T10:26:00.000Z</time>
      </trkpt>
      <trkpt lat="44.42387" lon="2.41145">
        <ele>340.2</ele>
        <time>2022-09-18T10:26:02.000Z</time>
      </trkpt>
      <trkpt lat="44.42397" lon="2.41147">
        <ele>340.3</ele>
        <time>2022-09-18T10:26:04.000Z</time>
      </trkpt>
      <trkpt lat="44.42407" lon="2.41151">
        <ele>340</ele>
        <time>2022-09-18T10:26:06.000Z</time>
      </trkpt>
      <trkpt lat="44.42418" lon="2.41155">
        <ele>339.9</ele>
        <time>2022-09-18T10:26:08.000Z</time>
      </trkpt>
      <trkpt lat="44.42428" lon="2.41157">
        <ele>339.9</ele>
        <time>2022-09-18T10:26:10.000Z</time>
      </trkpt>
      <trkpt lat="44.42438" lon="2.41157">
        <ele>339.9</ele>
        <time>2022-09-18T10:26:12.000Z</time>
      </trkpt>
      <trkpt lat="44.42449" lon="2.41157">
        <ele>340.6</ele>
        <time>2022-09-18T10:26:14.000Z</time>
      </trkpt>
      <trkpt lat="44.42459" lon="2.41155">
        <ele>340.5</ele>
        <time>2022-09-18T10:26:16.000Z</time>
      </trkpt>
      <trkpt lat="44.4247" lon="2.41153">
        <ele>339.8</ele>
        <time>2022-09-18T10:26:18.000Z</time>
      </trkpt>
      <trkpt lat="44.4248" lon="2.41151">
        <ele>339.8</ele>
        <time>2022-09-18T10:26:20.000Z</time>
      </trkpt>
      <trkpt lat="44.42491" lon="2.41147">
        <ele>339.9</ele>
        <time>2022-09-18T10:26:22.000Z</time>
      </trkpt>
      <trkpt lat="44.42501" lon="2.41143">
        <ele>339.4</ele>
        <time>2022-09-18T10:26:24.000Z</time>
      </trkpt>
      <trkpt lat="44.42513" lon="2.41139">
        <ele>338.9</ele>
        <time>2022-09-18T10:26:26.000Z</time>
      </trkpt>
      <trkpt lat="44.42524" lon="2.41134">
        <ele>338.3</ele>
        <time>2022-09-18T10:26:28.000Z</time>
      </trkpt>
      <trkpt lat="44.42535" lon="2.4113">
        <ele>338.4</ele>
        <time>2022-09-18T10:26:30.000Z</time>
      </trkpt>
      <trkpt lat="44.42545" lon="2.41123">
        <ele>338.4</ele>
        <time>2022-09-18T10:26:32.000Z</time>
      </trkpt>
      <trkpt lat="44.42553" lon="2.41113">
        <ele>339.3</ele>
        <time>2022-09-18T10:26:34.000Z</time>
      </trkpt>
      <trkpt lat="44.4256" lon="2.41104">
        <ele>339.4</ele>
        <time>2022-09-18T10:26:36.000Z</time>
      </trkpt>
      <trkpt lat="44.4257" lon="2.41092">
        <ele>339</ele>
        <time>2022-09-18T10:26:39.000Z</time>
      </trkpt>
      <trkpt lat="44.42578" lon="2.41087">
        <ele>338.2</ele>
        <time>2022-09-18T10:26:41.000Z</time>
      </trkpt>
      <trkpt lat="44.42587" lon="2.4109">
        <ele>337.6</ele>
        <time>2022-09-18T10:26:43.000Z</time>
      </trkpt>
      <trkpt lat="44.42595" lon="2.41098">
        <ele>337.7</ele>
        <time>2022-09-18T10:26:45.000Z</time>
      </trkpt>
      <trkpt lat="44.42603" lon="2.41107">
        <ele>337</ele>
        <time>2022-09-18T10:26:47.000Z</time>
      </trkpt>
      <trkpt lat="44.42613" lon="2.41114">
        <ele>336</ele>
        <time>2022-09-18T10:26:49.000Z</time>
      </trkpt>
      <trkpt lat="44.42623" lon="2.41125">
        <ele>335</ele>
        <time>2022-09-18T10:26:51.000Z</time>
      </trkpt>
      <trkpt lat="44.42632" lon="2.41135">
        <ele>333.6</ele>
        <time>2022-09-18T10:26:53.000Z</time>
      </trkpt>
      <trkpt lat="44.4264" lon="2.41145">
        <ele>333.5</ele>
        <time>2022-09-18T10:26:55.000Z</time>
      </trkpt>
      <trkpt lat="44.42651" lon="2.41153">
        <ele>333.8</ele>
        <time>2022-09-18T10:26:58.000Z</time>
      </trkpt>
      <trkpt lat="44.42661" lon="2.41153">
        <ele>334</ele>
        <time>2022-09-18T10:27:01.000Z</time>
      </trkpt>
      <trkpt lat="44.42671" lon="2.41153">
        <ele>334.2</ele>
        <time>2022-09-18T10:27:04.000Z</time>
      </trkpt>
      <trkpt lat="44.42682" lon="2.41148">
        <ele>334.7</ele>
        <time>2022-09-18T10:27:08.000Z</time>
      </trkpt>
      <trkpt lat="44.42685" lon="2.41135">
        <ele>335.3</ele>
        <time>2022-09-18T10:27:11.000Z</time>
      </trkpt>
      <trkpt lat="44.42689" lon="2.41122">
        <ele>336</ele>
        <time>2022-09-18T10:27:14.000Z</time>
      </trkpt>
      <trkpt lat="44.42696" lon="2.4111">
        <ele>337.4</ele>
        <time>2022-09-18T10:27:18.000Z</time>
      </trkpt>
      <trkpt lat="44.42704" lon="2.41098">
        <ele>337.6</ele>
        <time>2022-09-18T10:27:22.000Z</time>
      </trkpt>
      <trkpt lat="44.42707" lon="2.41086">
        <ele>337.8</ele>
        <time>2022-09-18T10:27:25.000Z</time>
      </trkpt>
      <trkpt lat="44.42711" lon="2.41075">
        <ele>337.9</ele>
        <time>2022-09-18T10:27:28.000Z</time>
      </trkpt>
      <trkpt lat="44.42721" lon="2.41071">
        <ele>338.5</ele>
        <time>2022-09-18T10:27:31.000Z</time>
      </trkpt>
      <trkpt lat="44.42731" lon="2.41073">
        <ele>338.5</ele>
        <time>2022-09-18T10:27:34.000Z</time>
      </trkpt>
      <trkpt lat="44.42742" lon="2.41078">
        <ele>338.9</ele>
        <time>2022-09-18T10:27:37.000Z</time>
      </trkpt>
      <trkpt lat="44.42752" lon="2.41086">
        <ele>339.1</ele>
        <time>2022-09-18T10:27:40.000Z</time>
      </trkpt>
      <trkpt lat="44.42765" lon="2.41093">
        <ele>338.4</ele>
        <time>2022-09-18T10:27:43.000Z</time>
      </trkpt>
      <trkpt lat="44.42773" lon="2.41097">
        <ele>338.6</ele>
        <time>2022-09-18T10:27:45.000Z</time>
      </trkpt>
      <trkpt lat="44.42782" lon="2.41102">
        <ele>338.5</ele>
        <time>2022-09-18T10:27:47.000Z</time>
      </trkpt>
      <trkpt lat="44.42794" lon="2.41109">
        <ele>338.5</ele>
        <time>2022-09-18T10:27:50.000Z</time>
      </trkpt>
      <trkpt lat="44.42805" lon="2.41115">
        <ele>338.4</ele>
        <time>2022-09-18T10:27:53.000Z</time>
      </trkpt>
      <trkpt lat="44.42816" lon="2.41121">
        <ele>337.9</ele>
        <time>2022-09-18T10:27:56.000Z</time>
      </trkpt>
      <trkpt lat="44.42828" lon="2.41127">
        <ele>337.8</ele>
        <time>2022-09-18T10:27:59.000Z</time>
      </trkpt>
      <trkpt lat="44.4284" lon="2.41134">
        <ele>337.3</ele>
        <time>2022-09-18T10:28:02.000Z</time>
      </trkpt>
      <trkpt lat="44.42852" lon="2.41141">
        <ele>337.1</ele>
        <time>2022-09-18T10:28:05.000Z</time>
      </trkpt>
      <trkpt lat="44.42864" lon="2.41149">
        <ele>336.4</ele>
        <time>2022-09-18T10:28:08.000Z</time>
      </trkpt>
      <trkpt lat="44.42877" lon="2.41156">
        <ele>335.9</ele>
        <time>2022-09-18T10:28:11.000Z</time>
      </trkpt>
      <trkpt lat="44.42886" lon="2.41161">
        <ele>336</ele>
        <time>2022-09-18T10:28:13.000Z</time>
      </trkpt>
      <trkpt lat="44.42895" lon="2.41166">
        <ele>335.7</ele>
        <time>2022-09-18T10:28:15.000Z</time>
      </trkpt>
      <trkpt lat="44.42904" lon="2.4117">
        <ele>335.7</ele>
        <time>2022-09-18T10:28:17.000Z</time>
      </trkpt>
      <trkpt lat="44.42913" lon="2.41175">
        <ele>335.6</ele>
        <time>2022-09-18T10:28:19.000Z</time>
      </trkpt>
      <trkpt lat="44.42923" lon="2.41181">
        <ele>335</ele>
        <time>2022-09-18T10:28:21.000Z</time>
      </trkpt>
      <trkpt lat="44.42933" lon="2.41185">
        <ele>334.6</ele>
        <time>2022-09-18T10:28:23.000Z</time>
      </trkpt>
      <trkpt lat="44.42943" lon="2.4119">
        <ele>334.3</ele>
        <time>2022-09-18T10:28:25.000Z</time>
      </trkpt>
      <trkpt lat="44.42953" lon="2.41196">
        <ele>333.8</ele>
        <time>2022-09-18T10:28:27.000Z</time>
      </trkpt>
      <trkpt lat="44.42963" lon="2.41198">
        <ele>333.9</ele>
        <time>2022-09-18T10:28:29.000Z</time>
      </trkpt>
      <trkpt lat="44.42974" lon="2.41199">
        <ele>333.2</ele>
        <time>2022-09-18T10:28:32.000Z</time>
      </trkpt>
      <trkpt lat="44.42982" lon="2.41203">
        <ele>332.2</ele>
        <time>2022-09-18T10:28:36.000Z</time>
      </trkpt>
      <trkpt lat="44.42984" lon="2.41217">
        <ele>331.6</ele>
        <time>2022-09-18T10:28:41.000Z</time>
      </trkpt>
      <trkpt lat="44.42981" lon="2.4123">
        <ele>331</ele>
        <time>2022-09-18T10:28:49.000Z</time>
      </trkpt>
      <trkpt lat="44.42977" lon="2.4123">
        <ele>331.1</ele>
        <time>2022-09-18T10:28:58.000Z</time>
      </trkpt>
      <trkpt lat="44.42976" lon="2.4123">
        <ele>331.1</ele>
        <time>2022-09-18T10:29:00.000Z</time>
      </trkpt>
      <trkpt lat="44.42976" lon="2.4123">
        <ele>331</ele>
        <time>2022-09-18T10:29:02.000Z</time>
      </trkpt>
      <trkpt lat="44.42976" lon="2.4123">
        <ele>330.7</ele>
        <time>2022-09-18T10:29:07.000Z</time>
      </trkpt>
      <trkpt lat="44.42976" lon="2.4123">
        <ele>332.5</ele>
        <time>2022-09-18T10:29:15.000Z</time>
      </trkpt>
      <trkpt lat="44.42976" lon="2.4123">
        <ele>331.1</ele>
        <time>2022-09-18T10:29:17.000Z</time>
      </trkpt>
      <trkpt lat="44.42975" lon="2.4123">
        <ele>331.3</ele>
        <time>2022-09-18T10:29:18.000Z</time>
      </trkpt>
      <trkpt lat="44.42975" lon="2.4123">
        <ele>331.1</ele>
        <time>2022-09-18T10:29:20.000Z</time>
      </trkpt>
      <trkpt lat="44.42975" lon="2.4123">
        <ele>330.7</ele>
        <time>2022-09-18T10:29:21.000Z</time>
      </trkpt>
      <trkpt lat="44.42974" lon="2.4123">
        <ele>330.5</ele>
        <time>2022-09-18T10:29:24.000Z</time>
      </trkpt>
      <trkpt lat="44.42974" lon="2.4123">
        <ele>330.8</ele>
        <time>2022-09-18T10:29:26.000Z</time>
      </trkpt>
      <trkpt lat="44.42974" lon="2.41227">
        <ele>331.3</ele>
        <time>2022-09-18T10:29:45.000Z</time>
      </trkpt>
      <trkpt lat="44.42974" lon="2.41227">
        <ele>331.3</ele>
        <time>2022-09-18T10:29:54.000Z</time>
      </trkpt>
      <trkpt lat="44.42973" lon="2.41228">
        <ele>331.2</ele>
        <time>2022-09-18T10:29:58.000Z</time>
      </trkpt>
      <trkpt lat="44.42973" lon="2.41228">
        <ele>331.1</ele>
        <time>2022-09-18T10:30:00.000Z</time>
      </trkpt>
      <trkpt lat="44.42973" lon="2.41228">
        <ele>330.9</ele>
        <time>2022-09-18T10:30:02.000Z</time>
      </trkpt>
      <trkpt lat="44.42973" lon="2.41229">
        <ele>330.4</ele>
        <time>2022-09-18T10:30:06.000Z</time>
      </trkpt>
      <trkpt lat="44.42973" lon="2.41229">
        <ele>331.1</ele>
        <time>2022-09-18T10:30:09.000Z</time>
      </trkpt>
      <trkpt lat="44.42973" lon="2.41229">
        <ele>331.1</ele>
        <time>2022-09-18T10:30:12.000Z</time>
      </trkpt>
      <trkpt lat="44.42973" lon="2.41229">
        <ele>331</ele>
        <time>2022-09-18T10:30:18.000Z</time>
      </trkpt>
      <trkpt lat="44.42973" lon="2.41229">
        <ele>330.9</ele>
        <time>2022-09-18T10:30:22.000Z</time>
      </trkpt>
    </trkseg>
  </trk>
</gpx>